<?xml version="1.0" encoding="UTF-8" standalone="no" ?>
<gpx xmlns="http://www.topografix.com/GPX/1/1" xmlns:xsi="http://www.w3.org/2001/XMLSchema-instance" xsi:schemaLocation="http://www.topografix.com/GPX/1/1 http://www.topografix.com/GPX/1/1/gpx.xsd" version="1.1" creator="VisuGPX - https://www.visugpx.com">
  <metadata>
    <name>Enduro Aspremont</name>
    <desc><![CDATA[Enduro Aspremont]]></desc>
  </metadata>
  <trk>
    <name><![CDATA[Ride261593224 on GPSies.com]]></name>
    <trkseg>
      <trkpt lat="43.7888" lon="7.27205">
        <ele>335</ele>
        <time>2015-03-01T08:03:06Z</time>
      </trkpt>
      <trkpt lat="43.78881" lon="7.27204">
        <ele>334</ele>
        <time>2015-03-01T08:03:13Z</time>
      </trkpt>
      <trkpt lat="43.78882" lon="7.27203">
        <ele>333</ele>
        <time>2015-03-01T08:03:16Z</time>
      </trkpt>
      <trkpt lat="43.78882" lon="7.27202">
        <ele>333</ele>
        <time>2015-03-01T08:03:19Z</time>
      </trkpt>
      <trkpt lat="43.78883" lon="7.27202">
        <ele>332</ele>
        <time>2015-03-01T08:03:22Z</time>
      </trkpt>
      <trkpt lat="43.78884" lon="7.27201">
        <ele>331</ele>
        <time>2015-03-01T08:03:25Z</time>
      </trkpt>
      <trkpt lat="43.78884" lon="7.272">
        <ele>331</ele>
        <time>2015-03-01T08:03:28Z</time>
      </trkpt>
      <trkpt lat="43.78885" lon="7.27199">
        <ele>330</ele>
        <time>2015-03-01T08:03:31Z</time>
      </trkpt>
      <trkpt lat="43.78897" lon="7.27187">
        <ele>328</ele>
        <time>2015-03-01T08:03:34Z</time>
      </trkpt>
      <trkpt lat="43.78985" lon="7.27328">
        <ele>326</ele>
        <time>2015-03-01T08:03:37Z</time>
      </trkpt>
      <trkpt lat="43.79013" lon="7.27348">
        <ele>323</ele>
        <time>2015-03-01T08:03:40Z</time>
      </trkpt>
      <trkpt lat="43.79041" lon="7.27358">
        <ele>322</ele>
        <time>2015-03-01T08:03:43Z</time>
      </trkpt>
      <trkpt lat="43.79066" lon="7.27357">
        <ele>320</ele>
        <time>2015-03-01T08:03:46Z</time>
      </trkpt>
      <trkpt lat="43.79089" lon="7.27351">
        <ele>319</ele>
        <time>2015-03-01T08:03:49Z</time>
      </trkpt>
      <trkpt lat="43.79112" lon="7.2734">
        <ele>318</ele>
        <time>2015-03-01T08:03:52Z</time>
      </trkpt>
      <trkpt lat="43.79134" lon="7.27328">
        <ele>317</ele>
        <time>2015-03-01T08:03:55Z</time>
      </trkpt>
      <trkpt lat="43.79155" lon="7.27316">
        <ele>316</ele>
        <time>2015-03-01T08:03:58Z</time>
      </trkpt>
      <trkpt lat="43.79174" lon="7.27303">
        <ele>315</ele>
        <time>2015-03-01T08:04:01Z</time>
      </trkpt>
      <trkpt lat="43.79192" lon="7.2729">
        <ele>314</ele>
        <time>2015-03-01T08:04:04Z</time>
      </trkpt>
      <trkpt lat="43.79208" lon="7.27276">
        <ele>314</ele>
        <time>2015-03-01T08:04:07Z</time>
      </trkpt>
      <trkpt lat="43.79212" lon="7.27261">
        <ele>314</ele>
        <time>2015-03-01T08:04:10Z</time>
      </trkpt>
      <trkpt lat="43.79209" lon="7.27248">
        <ele>314</ele>
        <time>2015-03-01T08:04:13Z</time>
      </trkpt>
      <trkpt lat="43.79208" lon="7.27227">
        <ele>313</ele>
        <time>2015-03-01T08:04:16Z</time>
      </trkpt>
      <trkpt lat="43.79214" lon="7.27208">
        <ele>314</ele>
        <time>2015-03-01T08:04:19Z</time>
      </trkpt>
      <trkpt lat="43.79221" lon="7.27191">
        <ele>314</ele>
        <time>2015-03-01T08:04:22Z</time>
      </trkpt>
      <trkpt lat="43.79231" lon="7.27178">
        <ele>315</ele>
        <time>2015-03-01T08:04:25Z</time>
      </trkpt>
      <trkpt lat="43.7924" lon="7.27167">
        <ele>316</ele>
        <time>2015-03-01T08:04:28Z</time>
      </trkpt>
      <trkpt lat="43.79249" lon="7.27159">
        <ele>317</ele>
        <time>2015-03-01T08:04:31Z</time>
      </trkpt>
      <trkpt lat="43.79256" lon="7.27149">
        <ele>318</ele>
        <time>2015-03-01T08:04:34Z</time>
      </trkpt>
      <trkpt lat="43.79264" lon="7.27139">
        <ele>318</ele>
        <time>2015-03-01T08:04:37Z</time>
      </trkpt>
      <trkpt lat="43.79272" lon="7.27132">
        <ele>319</ele>
        <time>2015-03-01T08:04:40Z</time>
      </trkpt>
      <trkpt lat="43.79281" lon="7.2713">
        <ele>320</ele>
        <time>2015-03-01T08:04:43Z</time>
      </trkpt>
      <trkpt lat="43.79291" lon="7.27131">
        <ele>321</ele>
        <time>2015-03-01T08:04:46Z</time>
      </trkpt>
      <trkpt lat="43.793" lon="7.27133">
        <ele>322</ele>
        <time>2015-03-01T08:04:49Z</time>
      </trkpt>
      <trkpt lat="43.79307" lon="7.27134">
        <ele>322</ele>
        <time>2015-03-01T08:04:52Z</time>
      </trkpt>
      <trkpt lat="43.79314" lon="7.27133">
        <ele>323</ele>
        <time>2015-03-01T08:04:55Z</time>
      </trkpt>
      <trkpt lat="43.7932" lon="7.2713">
        <ele>323</ele>
        <time>2015-03-01T08:04:58Z</time>
      </trkpt>
      <trkpt lat="43.79325" lon="7.27125">
        <ele>324</ele>
        <time>2015-03-01T08:05:01Z</time>
      </trkpt>
      <trkpt lat="43.79331" lon="7.2712">
        <ele>324</ele>
        <time>2015-03-01T08:05:04Z</time>
      </trkpt>
      <trkpt lat="43.79335" lon="7.27114">
        <ele>325</ele>
        <time>2015-03-01T08:05:07Z</time>
      </trkpt>
      <trkpt lat="43.7934" lon="7.27107">
        <ele>325</ele>
        <time>2015-03-01T08:05:10Z</time>
      </trkpt>
      <trkpt lat="43.79344" lon="7.27101">
        <ele>326</ele>
        <time>2015-03-01T08:05:13Z</time>
      </trkpt>
      <trkpt lat="43.79347" lon="7.27094">
        <ele>326</ele>
        <time>2015-03-01T08:05:16Z</time>
      </trkpt>
      <trkpt lat="43.79351" lon="7.27087">
        <ele>327</ele>
        <time>2015-03-01T08:05:19Z</time>
      </trkpt>
      <trkpt lat="43.79354" lon="7.27078">
        <ele>327</ele>
        <time>2015-03-01T08:05:22Z</time>
      </trkpt>
      <trkpt lat="43.79356" lon="7.27069">
        <ele>328</ele>
        <time>2015-03-01T08:05:25Z</time>
      </trkpt>
      <trkpt lat="43.79357" lon="7.2706">
        <ele>328</ele>
        <time>2015-03-01T08:05:28Z</time>
      </trkpt>
      <trkpt lat="43.79356" lon="7.27051">
        <ele>329</ele>
        <time>2015-03-01T08:05:31Z</time>
      </trkpt>
      <trkpt lat="43.79355" lon="7.2704">
        <ele>329</ele>
        <time>2015-03-01T08:05:34Z</time>
      </trkpt>
      <trkpt lat="43.79352" lon="7.27027">
        <ele>329</ele>
        <time>2015-03-01T08:05:37Z</time>
      </trkpt>
      <trkpt lat="43.79348" lon="7.27015">
        <ele>330</ele>
        <time>2015-03-01T08:05:40Z</time>
      </trkpt>
      <trkpt lat="43.79346" lon="7.27003">
        <ele>331</ele>
        <time>2015-03-01T08:05:43Z</time>
      </trkpt>
      <trkpt lat="43.79344" lon="7.26991">
        <ele>331</ele>
        <time>2015-03-01T08:05:46Z</time>
      </trkpt>
      <trkpt lat="43.79341" lon="7.2698">
        <ele>332</ele>
        <time>2015-03-01T08:05:49Z</time>
      </trkpt>
      <trkpt lat="43.79339" lon="7.26969">
        <ele>332</ele>
        <time>2015-03-01T08:05:52Z</time>
      </trkpt>
      <trkpt lat="43.79337" lon="7.26957">
        <ele>333</ele>
        <time>2015-03-01T08:05:55Z</time>
      </trkpt>
      <trkpt lat="43.79335" lon="7.26946">
        <ele>333</ele>
        <time>2015-03-01T08:05:58Z</time>
      </trkpt>
      <trkpt lat="43.79334" lon="7.26936">
        <ele>334</ele>
        <time>2015-03-01T08:06:01Z</time>
      </trkpt>
      <trkpt lat="43.79333" lon="7.26925">
        <ele>334</ele>
        <time>2015-03-01T08:06:04Z</time>
      </trkpt>
      <trkpt lat="43.79331" lon="7.26916">
        <ele>335</ele>
        <time>2015-03-01T08:06:07Z</time>
      </trkpt>
      <trkpt lat="43.79329" lon="7.26908">
        <ele>335</ele>
        <time>2015-03-01T08:06:10Z</time>
      </trkpt>
      <trkpt lat="43.79327" lon="7.26898">
        <ele>336</ele>
        <time>2015-03-01T08:06:13Z</time>
      </trkpt>
      <trkpt lat="43.79323" lon="7.26888">
        <ele>336</ele>
        <time>2015-03-01T08:06:16Z</time>
      </trkpt>
      <trkpt lat="43.79319" lon="7.26878">
        <ele>336</ele>
        <time>2015-03-01T08:06:19Z</time>
      </trkpt>
      <trkpt lat="43.79316" lon="7.26869">
        <ele>337</ele>
        <time>2015-03-01T08:06:22Z</time>
      </trkpt>
      <trkpt lat="43.7931" lon="7.2686">
        <ele>337</ele>
        <time>2015-03-01T08:06:25Z</time>
      </trkpt>
      <trkpt lat="43.79304" lon="7.26839">
        <ele>338</ele>
        <time>2015-03-01T08:06:28Z</time>
      </trkpt>
      <trkpt lat="43.79298" lon="7.26824">
        <ele>338</ele>
        <time>2015-03-01T08:06:31Z</time>
      </trkpt>
      <trkpt lat="43.79294" lon="7.26808">
        <ele>339</ele>
        <time>2015-03-01T08:06:34Z</time>
      </trkpt>
      <trkpt lat="43.79288" lon="7.26797">
        <ele>339</ele>
        <time>2015-03-01T08:06:37Z</time>
      </trkpt>
      <trkpt lat="43.79284" lon="7.26788">
        <ele>340</ele>
        <time>2015-03-01T08:06:40Z</time>
      </trkpt>
      <trkpt lat="43.79276" lon="7.2678">
        <ele>340</ele>
        <time>2015-03-01T08:06:43Z</time>
      </trkpt>
      <trkpt lat="43.79272" lon="7.26772">
        <ele>341</ele>
        <time>2015-03-01T08:06:46Z</time>
      </trkpt>
      <trkpt lat="43.79271" lon="7.26763">
        <ele>341</ele>
        <time>2015-03-01T08:06:49Z</time>
      </trkpt>
      <trkpt lat="43.79269" lon="7.26753">
        <ele>342</ele>
        <time>2015-03-01T08:06:52Z</time>
      </trkpt>
      <trkpt lat="43.7927" lon="7.26743">
        <ele>342</ele>
        <time>2015-03-01T08:06:55Z</time>
      </trkpt>
      <trkpt lat="43.79269" lon="7.26732">
        <ele>342</ele>
        <time>2015-03-01T08:06:58Z</time>
      </trkpt>
      <trkpt lat="43.7927" lon="7.26721">
        <ele>343</ele>
        <time>2015-03-01T08:07:01Z</time>
      </trkpt>
      <trkpt lat="43.7927" lon="7.26711">
        <ele>343</ele>
        <time>2015-03-01T08:07:04Z</time>
      </trkpt>
      <trkpt lat="43.79271" lon="7.26701">
        <ele>344</ele>
        <time>2015-03-01T08:07:07Z</time>
      </trkpt>
      <trkpt lat="43.79271" lon="7.2669">
        <ele>344</ele>
        <time>2015-03-01T08:07:10Z</time>
      </trkpt>
      <trkpt lat="43.79272" lon="7.26679">
        <ele>345</ele>
        <time>2015-03-01T08:07:13Z</time>
      </trkpt>
      <trkpt lat="43.79273" lon="7.26669">
        <ele>345</ele>
        <time>2015-03-01T08:07:16Z</time>
      </trkpt>
      <trkpt lat="43.79273" lon="7.26659">
        <ele>346</ele>
        <time>2015-03-01T08:07:19Z</time>
      </trkpt>
      <trkpt lat="43.79274" lon="7.26649">
        <ele>346</ele>
        <time>2015-03-01T08:07:22Z</time>
      </trkpt>
      <trkpt lat="43.79275" lon="7.2664">
        <ele>347</ele>
        <time>2015-03-01T08:07:25Z</time>
      </trkpt>
      <trkpt lat="43.79276" lon="7.26631">
        <ele>347</ele>
        <time>2015-03-01T08:07:28Z</time>
      </trkpt>
      <trkpt lat="43.79278" lon="7.26622">
        <ele>347</ele>
        <time>2015-03-01T08:07:31Z</time>
      </trkpt>
      <trkpt lat="43.79281" lon="7.26614">
        <ele>348</ele>
        <time>2015-03-01T08:07:34Z</time>
      </trkpt>
      <trkpt lat="43.79274" lon="7.26709">
        <ele>348</ele>
        <time>2015-03-01T08:07:37Z</time>
      </trkpt>
      <trkpt lat="43.79277" lon="7.26734">
        <ele>349</ele>
        <time>2015-03-01T08:07:40Z</time>
      </trkpt>
      <trkpt lat="43.79282" lon="7.26734">
        <ele>349</ele>
        <time>2015-03-01T08:07:43Z</time>
      </trkpt>
      <trkpt lat="43.79288" lon="7.26732">
        <ele>350</ele>
        <time>2015-03-01T08:07:46Z</time>
      </trkpt>
      <trkpt lat="43.79293" lon="7.26727">
        <ele>350</ele>
        <time>2015-03-01T08:07:49Z</time>
      </trkpt>
      <trkpt lat="43.79297" lon="7.26723">
        <ele>351</ele>
        <time>2015-03-01T08:07:52Z</time>
      </trkpt>
      <trkpt lat="43.79301" lon="7.26717">
        <ele>351</ele>
        <time>2015-03-01T08:07:55Z</time>
      </trkpt>
      <trkpt lat="43.79306" lon="7.2671">
        <ele>351</ele>
        <time>2015-03-01T08:07:58Z</time>
      </trkpt>
      <trkpt lat="43.79311" lon="7.26703">
        <ele>352</ele>
        <time>2015-03-01T08:08:01Z</time>
      </trkpt>
      <trkpt lat="43.79315" lon="7.26697">
        <ele>353</ele>
        <time>2015-03-01T08:08:04Z</time>
      </trkpt>
      <trkpt lat="43.79321" lon="7.26694">
        <ele>353</ele>
        <time>2015-03-01T08:08:07Z</time>
      </trkpt>
      <trkpt lat="43.79326" lon="7.26691">
        <ele>354</ele>
        <time>2015-03-01T08:08:10Z</time>
      </trkpt>
      <trkpt lat="43.79333" lon="7.26691">
        <ele>354</ele>
        <time>2015-03-01T08:08:13Z</time>
      </trkpt>
      <trkpt lat="43.7934" lon="7.26691">
        <ele>354</ele>
        <time>2015-03-01T08:08:16Z</time>
      </trkpt>
      <trkpt lat="43.79346" lon="7.26694">
        <ele>355</ele>
        <time>2015-03-01T08:08:19Z</time>
      </trkpt>
      <trkpt lat="43.79353" lon="7.26695">
        <ele>355</ele>
        <time>2015-03-01T08:08:22Z</time>
      </trkpt>
      <trkpt lat="43.79361" lon="7.26697">
        <ele>355</ele>
        <time>2015-03-01T08:08:25Z</time>
      </trkpt>
      <trkpt lat="43.79368" lon="7.26699">
        <ele>356</ele>
        <time>2015-03-01T08:08:28Z</time>
      </trkpt>
      <trkpt lat="43.79375" lon="7.26699">
        <ele>356</ele>
        <time>2015-03-01T08:08:31Z</time>
      </trkpt>
      <trkpt lat="43.79382" lon="7.26698">
        <ele>357</ele>
        <time>2015-03-01T08:08:34Z</time>
      </trkpt>
      <trkpt lat="43.79389" lon="7.26696">
        <ele>358</ele>
        <time>2015-03-01T08:08:37Z</time>
      </trkpt>
      <trkpt lat="43.79398" lon="7.26695">
        <ele>358</ele>
        <time>2015-03-01T08:08:40Z</time>
      </trkpt>
      <trkpt lat="43.79405" lon="7.26692">
        <ele>358</ele>
        <time>2015-03-01T08:08:43Z</time>
      </trkpt>
      <trkpt lat="43.79411" lon="7.26691">
        <ele>359</ele>
        <time>2015-03-01T08:08:46Z</time>
      </trkpt>
      <trkpt lat="43.79418" lon="7.26692">
        <ele>359</ele>
        <time>2015-03-01T08:08:49Z</time>
      </trkpt>
      <trkpt lat="43.79425" lon="7.26692">
        <ele>360</ele>
        <time>2015-03-01T08:08:52Z</time>
      </trkpt>
      <trkpt lat="43.7943" lon="7.26693">
        <ele>360</ele>
        <time>2015-03-01T08:08:55Z</time>
      </trkpt>
      <trkpt lat="43.79433" lon="7.2669">
        <ele>361</ele>
        <time>2015-03-01T08:08:58Z</time>
      </trkpt>
      <trkpt lat="43.79435" lon="7.26684">
        <ele>361</ele>
        <time>2015-03-01T08:09:01Z</time>
      </trkpt>
      <trkpt lat="43.79435" lon="7.26677">
        <ele>362</ele>
        <time>2015-03-01T08:09:04Z</time>
      </trkpt>
      <trkpt lat="43.79434" lon="7.26671">
        <ele>362</ele>
        <time>2015-03-01T08:09:07Z</time>
      </trkpt>
      <trkpt lat="43.79431" lon="7.26663">
        <ele>363</ele>
        <time>2015-03-01T08:09:10Z</time>
      </trkpt>
      <trkpt lat="43.79426" lon="7.26657">
        <ele>363</ele>
        <time>2015-03-01T08:09:13Z</time>
      </trkpt>
      <trkpt lat="43.7942" lon="7.26653">
        <ele>363</ele>
        <time>2015-03-01T08:09:16Z</time>
      </trkpt>
      <trkpt lat="43.79415" lon="7.26648">
        <ele>364</ele>
        <time>2015-03-01T08:09:19Z</time>
      </trkpt>
      <trkpt lat="43.79409" lon="7.26643">
        <ele>364</ele>
        <time>2015-03-01T08:09:22Z</time>
      </trkpt>
      <trkpt lat="43.79404" lon="7.26638">
        <ele>364</ele>
        <time>2015-03-01T08:09:25Z</time>
      </trkpt>
      <trkpt lat="43.79399" lon="7.26633">
        <ele>365</ele>
        <time>2015-03-01T08:09:28Z</time>
      </trkpt>
      <trkpt lat="43.79394" lon="7.26627">
        <ele>365</ele>
        <time>2015-03-01T08:09:31Z</time>
      </trkpt>
      <trkpt lat="43.79389" lon="7.2662">
        <ele>366</ele>
        <time>2015-03-01T08:09:34Z</time>
      </trkpt>
      <trkpt lat="43.79386" lon="7.2661">
        <ele>366</ele>
        <time>2015-03-01T08:09:37Z</time>
      </trkpt>
      <trkpt lat="43.79384" lon="7.26599">
        <ele>367</ele>
        <time>2015-03-01T08:09:40Z</time>
      </trkpt>
      <trkpt lat="43.79383" lon="7.26589">
        <ele>367</ele>
        <time>2015-03-01T08:09:43Z</time>
      </trkpt>
      <trkpt lat="43.79382" lon="7.26579">
        <ele>368</ele>
        <time>2015-03-01T08:09:46Z</time>
      </trkpt>
      <trkpt lat="43.79382" lon="7.26569">
        <ele>368</ele>
        <time>2015-03-01T08:09:49Z</time>
      </trkpt>
      <trkpt lat="43.79383" lon="7.26562">
        <ele>369</ele>
        <time>2015-03-01T08:09:52Z</time>
      </trkpt>
      <trkpt lat="43.79384" lon="7.26553">
        <ele>369</ele>
        <time>2015-03-01T08:09:55Z</time>
      </trkpt>
      <trkpt lat="43.79385" lon="7.26544">
        <ele>370</ele>
        <time>2015-03-01T08:09:58Z</time>
      </trkpt>
      <trkpt lat="43.79386" lon="7.26536">
        <ele>370</ele>
        <time>2015-03-01T08:10:01Z</time>
      </trkpt>
      <trkpt lat="43.79388" lon="7.26528">
        <ele>371</ele>
        <time>2015-03-01T08:10:04Z</time>
      </trkpt>
      <trkpt lat="43.79388" lon="7.26519">
        <ele>371</ele>
        <time>2015-03-01T08:10:07Z</time>
      </trkpt>
      <trkpt lat="43.7939" lon="7.26511">
        <ele>372</ele>
        <time>2015-03-01T08:10:10Z</time>
      </trkpt>
      <trkpt lat="43.79391" lon="7.26502">
        <ele>372</ele>
        <time>2015-03-01T08:10:13Z</time>
      </trkpt>
      <trkpt lat="43.79393" lon="7.26493">
        <ele>372</ele>
        <time>2015-03-01T08:10:16Z</time>
      </trkpt>
      <trkpt lat="43.79397" lon="7.26485">
        <ele>373</ele>
        <time>2015-03-01T08:10:19Z</time>
      </trkpt>
      <trkpt lat="43.79401" lon="7.26478">
        <ele>373</ele>
        <time>2015-03-01T08:10:22Z</time>
      </trkpt>
      <trkpt lat="43.79406" lon="7.26473">
        <ele>374</ele>
        <time>2015-03-01T08:10:25Z</time>
      </trkpt>
      <trkpt lat="43.79411" lon="7.26468">
        <ele>374</ele>
        <time>2015-03-01T08:10:28Z</time>
      </trkpt>
      <trkpt lat="43.79417" lon="7.26463">
        <ele>375</ele>
        <time>2015-03-01T08:10:31Z</time>
      </trkpt>
      <trkpt lat="43.79422" lon="7.26461">
        <ele>375</ele>
        <time>2015-03-01T08:10:34Z</time>
      </trkpt>
      <trkpt lat="43.79428" lon="7.26458">
        <ele>375</ele>
        <time>2015-03-01T08:10:37Z</time>
      </trkpt>
      <trkpt lat="43.79435" lon="7.26455">
        <ele>376</ele>
        <time>2015-03-01T08:10:40Z</time>
      </trkpt>
      <trkpt lat="43.79442" lon="7.26454">
        <ele>376</ele>
        <time>2015-03-01T08:10:43Z</time>
      </trkpt>
      <trkpt lat="43.79449" lon="7.26453">
        <ele>377</ele>
        <time>2015-03-01T08:10:46Z</time>
      </trkpt>
      <trkpt lat="43.79455" lon="7.26453">
        <ele>377</ele>
        <time>2015-03-01T08:10:49Z</time>
      </trkpt>
      <trkpt lat="43.79461" lon="7.26452">
        <ele>378</ele>
        <time>2015-03-01T08:10:52Z</time>
      </trkpt>
      <trkpt lat="43.79468" lon="7.26449">
        <ele>378</ele>
        <time>2015-03-01T08:10:55Z</time>
      </trkpt>
      <trkpt lat="43.79475" lon="7.26448">
        <ele>379</ele>
        <time>2015-03-01T08:10:58Z</time>
      </trkpt>
      <trkpt lat="43.7948" lon="7.26447">
        <ele>379</ele>
        <time>2015-03-01T08:11:01Z</time>
      </trkpt>
      <trkpt lat="43.79486" lon="7.26446">
        <ele>380</ele>
        <time>2015-03-01T08:11:04Z</time>
      </trkpt>
      <trkpt lat="43.79492" lon="7.26445">
        <ele>380</ele>
        <time>2015-03-01T08:11:07Z</time>
      </trkpt>
      <trkpt lat="43.79498" lon="7.26443">
        <ele>381</ele>
        <time>2015-03-01T08:11:10Z</time>
      </trkpt>
      <trkpt lat="43.79504" lon="7.26443">
        <ele>381</ele>
        <time>2015-03-01T08:11:13Z</time>
      </trkpt>
      <trkpt lat="43.79511" lon="7.26443">
        <ele>382</ele>
        <time>2015-03-01T08:11:16Z</time>
      </trkpt>
      <trkpt lat="43.79517" lon="7.26441">
        <ele>382</ele>
        <time>2015-03-01T08:11:19Z</time>
      </trkpt>
      <trkpt lat="43.79523" lon="7.26441">
        <ele>383</ele>
        <time>2015-03-01T08:11:22Z</time>
      </trkpt>
      <trkpt lat="43.79529" lon="7.26441">
        <ele>383</ele>
        <time>2015-03-01T08:11:25Z</time>
      </trkpt>
      <trkpt lat="43.79535" lon="7.26441">
        <ele>383</ele>
        <time>2015-03-01T08:11:28Z</time>
      </trkpt>
      <trkpt lat="43.79541" lon="7.26441">
        <ele>384</ele>
        <time>2015-03-01T08:11:31Z</time>
      </trkpt>
      <trkpt lat="43.79548" lon="7.26441">
        <ele>384</ele>
        <time>2015-03-01T08:11:34Z</time>
      </trkpt>
      <trkpt lat="43.79554" lon="7.26442">
        <ele>385</ele>
        <time>2015-03-01T08:11:37Z</time>
      </trkpt>
      <trkpt lat="43.7956" lon="7.26442">
        <ele>385</ele>
        <time>2015-03-01T08:11:40Z</time>
      </trkpt>
      <trkpt lat="43.79567" lon="7.26443">
        <ele>386</ele>
        <time>2015-03-01T08:11:43Z</time>
      </trkpt>
      <trkpt lat="43.79574" lon="7.26443">
        <ele>386</ele>
        <time>2015-03-01T08:11:46Z</time>
      </trkpt>
      <trkpt lat="43.79581" lon="7.26441">
        <ele>387</ele>
        <time>2015-03-01T08:11:49Z</time>
      </trkpt>
      <trkpt lat="43.79588" lon="7.26438">
        <ele>387</ele>
        <time>2015-03-01T08:11:52Z</time>
      </trkpt>
      <trkpt lat="43.79595" lon="7.26436">
        <ele>387</ele>
        <time>2015-03-01T08:11:55Z</time>
      </trkpt>
      <trkpt lat="43.79602" lon="7.26434">
        <ele>388</ele>
        <time>2015-03-01T08:11:58Z</time>
      </trkpt>
      <trkpt lat="43.79607" lon="7.26431">
        <ele>388</ele>
        <time>2015-03-01T08:12:01Z</time>
      </trkpt>
      <trkpt lat="43.79613" lon="7.26429">
        <ele>389</ele>
        <time>2015-03-01T08:12:04Z</time>
      </trkpt>
      <trkpt lat="43.79619" lon="7.26427">
        <ele>389</ele>
        <time>2015-03-01T08:12:07Z</time>
      </trkpt>
      <trkpt lat="43.79627" lon="7.26425">
        <ele>390</ele>
        <time>2015-03-01T08:12:10Z</time>
      </trkpt>
      <trkpt lat="43.79634" lon="7.26421">
        <ele>390</ele>
        <time>2015-03-01T08:12:13Z</time>
      </trkpt>
      <trkpt lat="43.79642" lon="7.2642">
        <ele>391</ele>
        <time>2015-03-01T08:12:16Z</time>
      </trkpt>
      <trkpt lat="43.79649" lon="7.26417">
        <ele>391</ele>
        <time>2015-03-01T08:12:19Z</time>
      </trkpt>
      <trkpt lat="43.79655" lon="7.26414">
        <ele>392</ele>
        <time>2015-03-01T08:12:22Z</time>
      </trkpt>
      <trkpt lat="43.79662" lon="7.26409">
        <ele>392</ele>
        <time>2015-03-01T08:12:25Z</time>
      </trkpt>
      <trkpt lat="43.79669" lon="7.26404">
        <ele>393</ele>
        <time>2015-03-01T08:12:28Z</time>
      </trkpt>
      <trkpt lat="43.79677" lon="7.26399">
        <ele>393</ele>
        <time>2015-03-01T08:12:31Z</time>
      </trkpt>
      <trkpt lat="43.79683" lon="7.26394">
        <ele>393</ele>
        <time>2015-03-01T08:12:34Z</time>
      </trkpt>
      <trkpt lat="43.79691" lon="7.26388">
        <ele>393</ele>
        <time>2015-03-01T08:12:37Z</time>
      </trkpt>
      <trkpt lat="43.79698" lon="7.26382">
        <ele>393</ele>
        <time>2015-03-01T08:12:40Z</time>
      </trkpt>
      <trkpt lat="43.79705" lon="7.26375">
        <ele>394</ele>
        <time>2015-03-01T08:12:43Z</time>
      </trkpt>
      <trkpt lat="43.7971" lon="7.2637">
        <ele>394</ele>
        <time>2015-03-01T08:12:46Z</time>
      </trkpt>
      <trkpt lat="43.79716" lon="7.26363">
        <ele>395</ele>
        <time>2015-03-01T08:12:49Z</time>
      </trkpt>
      <trkpt lat="43.79722" lon="7.26355">
        <ele>395</ele>
        <time>2015-03-01T08:12:52Z</time>
      </trkpt>
      <trkpt lat="43.79727" lon="7.26346">
        <ele>396</ele>
        <time>2015-03-01T08:12:55Z</time>
      </trkpt>
      <trkpt lat="43.79732" lon="7.26339">
        <ele>396</ele>
        <time>2015-03-01T08:12:58Z</time>
      </trkpt>
      <trkpt lat="43.79737" lon="7.26332">
        <ele>397</ele>
        <time>2015-03-01T08:13:01Z</time>
      </trkpt>
      <trkpt lat="43.79743" lon="7.26325">
        <ele>397</ele>
        <time>2015-03-01T08:13:04Z</time>
      </trkpt>
      <trkpt lat="43.79748" lon="7.26318">
        <ele>398</ele>
        <time>2015-03-01T08:13:07Z</time>
      </trkpt>
      <trkpt lat="43.79752" lon="7.2631">
        <ele>398</ele>
        <time>2015-03-01T08:13:10Z</time>
      </trkpt>
      <trkpt lat="43.79758" lon="7.26302">
        <ele>399</ele>
        <time>2015-03-01T08:13:13Z</time>
      </trkpt>
      <trkpt lat="43.79763" lon="7.26294">
        <ele>399</ele>
        <time>2015-03-01T08:13:16Z</time>
      </trkpt>
      <trkpt lat="43.79768" lon="7.26287">
        <ele>400</ele>
        <time>2015-03-01T08:13:19Z</time>
      </trkpt>
      <trkpt lat="43.79772" lon="7.2628">
        <ele>400</ele>
        <time>2015-03-01T08:13:22Z</time>
      </trkpt>
      <trkpt lat="43.79777" lon="7.26274">
        <ele>401</ele>
        <time>2015-03-01T08:13:25Z</time>
      </trkpt>
      <trkpt lat="43.79783" lon="7.26267">
        <ele>401</ele>
        <time>2015-03-01T08:13:28Z</time>
      </trkpt>
      <trkpt lat="43.79787" lon="7.2626">
        <ele>402</ele>
        <time>2015-03-01T08:13:31Z</time>
      </trkpt>
      <trkpt lat="43.79792" lon="7.26252">
        <ele>402</ele>
        <time>2015-03-01T08:13:34Z</time>
      </trkpt>
      <trkpt lat="43.79796" lon="7.26245">
        <ele>403</ele>
        <time>2015-03-01T08:13:37Z</time>
      </trkpt>
      <trkpt lat="43.798" lon="7.26235">
        <ele>404</ele>
        <time>2015-03-01T08:13:40Z</time>
      </trkpt>
      <trkpt lat="43.79803" lon="7.26224">
        <ele>404</ele>
        <time>2015-03-01T08:13:43Z</time>
      </trkpt>
      <trkpt lat="43.79805" lon="7.26212">
        <ele>404</ele>
        <time>2015-03-01T08:13:46Z</time>
      </trkpt>
      <trkpt lat="43.79805" lon="7.26201">
        <ele>405</ele>
        <time>2015-03-01T08:13:49Z</time>
      </trkpt>
      <trkpt lat="43.79804" lon="7.2619">
        <ele>405</ele>
        <time>2015-03-01T08:13:52Z</time>
      </trkpt>
      <trkpt lat="43.79803" lon="7.2618">
        <ele>406</ele>
        <time>2015-03-01T08:13:55Z</time>
      </trkpt>
      <trkpt lat="43.798" lon="7.26169">
        <ele>406</ele>
        <time>2015-03-01T08:13:58Z</time>
      </trkpt>
      <trkpt lat="43.79797" lon="7.26159">
        <ele>407</ele>
        <time>2015-03-01T08:14:01Z</time>
      </trkpt>
      <trkpt lat="43.79793" lon="7.26148">
        <ele>407</ele>
        <time>2015-03-01T08:14:04Z</time>
      </trkpt>
      <trkpt lat="43.79788" lon="7.26137">
        <ele>408</ele>
        <time>2015-03-01T08:14:07Z</time>
      </trkpt>
      <trkpt lat="43.79783" lon="7.26126">
        <ele>408</ele>
        <time>2015-03-01T08:14:10Z</time>
      </trkpt>
      <trkpt lat="43.7978" lon="7.26115">
        <ele>408</ele>
        <time>2015-03-01T08:14:13Z</time>
      </trkpt>
      <trkpt lat="43.79775" lon="7.26105">
        <ele>409</ele>
        <time>2015-03-01T08:14:16Z</time>
      </trkpt>
      <trkpt lat="43.7977" lon="7.26093">
        <ele>409</ele>
        <time>2015-03-01T08:14:19Z</time>
      </trkpt>
      <trkpt lat="43.79766" lon="7.26082">
        <ele>409</ele>
        <time>2015-03-01T08:14:22Z</time>
      </trkpt>
      <trkpt lat="43.79762" lon="7.2607">
        <ele>409</ele>
        <time>2015-03-01T08:14:25Z</time>
      </trkpt>
      <trkpt lat="43.79758" lon="7.26059">
        <ele>409</ele>
        <time>2015-03-01T08:14:28Z</time>
      </trkpt>
      <trkpt lat="43.79753" lon="7.26048">
        <ele>409</ele>
        <time>2015-03-01T08:14:31Z</time>
      </trkpt>
      <trkpt lat="43.79748" lon="7.26037">
        <ele>410</ele>
        <time>2015-03-01T08:14:34Z</time>
      </trkpt>
      <trkpt lat="43.79744" lon="7.26026">
        <ele>410</ele>
        <time>2015-03-01T08:14:37Z</time>
      </trkpt>
      <trkpt lat="43.7974" lon="7.26015">
        <ele>410</ele>
        <time>2015-03-01T08:14:40Z</time>
      </trkpt>
      <trkpt lat="43.79736" lon="7.26004">
        <ele>410</ele>
        <time>2015-03-01T08:14:43Z</time>
      </trkpt>
      <trkpt lat="43.79731" lon="7.25994">
        <ele>411</ele>
        <time>2015-03-01T08:14:46Z</time>
      </trkpt>
      <trkpt lat="43.79727" lon="7.25984">
        <ele>411</ele>
        <time>2015-03-01T08:14:49Z</time>
      </trkpt>
      <trkpt lat="43.79724" lon="7.25973">
        <ele>411</ele>
        <time>2015-03-01T08:14:52Z</time>
      </trkpt>
      <trkpt lat="43.7972" lon="7.25963">
        <ele>411</ele>
        <time>2015-03-01T08:14:55Z</time>
      </trkpt>
      <trkpt lat="43.79715" lon="7.25951">
        <ele>412</ele>
        <time>2015-03-01T08:14:58Z</time>
      </trkpt>
      <trkpt lat="43.79711" lon="7.25938">
        <ele>412</ele>
        <time>2015-03-01T08:15:01Z</time>
      </trkpt>
      <trkpt lat="43.79708" lon="7.25925">
        <ele>412</ele>
        <time>2015-03-01T08:15:04Z</time>
      </trkpt>
      <trkpt lat="43.79705" lon="7.25913">
        <ele>413</ele>
        <time>2015-03-01T08:15:07Z</time>
      </trkpt>
      <trkpt lat="43.79704" lon="7.25901">
        <ele>413</ele>
        <time>2015-03-01T08:15:10Z</time>
      </trkpt>
      <trkpt lat="43.79704" lon="7.25888">
        <ele>414</ele>
        <time>2015-03-01T08:15:13Z</time>
      </trkpt>
      <trkpt lat="43.79703" lon="7.25875">
        <ele>414</ele>
        <time>2015-03-01T08:15:16Z</time>
      </trkpt>
      <trkpt lat="43.79704" lon="7.25863">
        <ele>414</ele>
        <time>2015-03-01T08:15:19Z</time>
      </trkpt>
      <trkpt lat="43.79706" lon="7.25852">
        <ele>415</ele>
        <time>2015-03-01T08:15:22Z</time>
      </trkpt>
      <trkpt lat="43.79708" lon="7.25841">
        <ele>415</ele>
        <time>2015-03-01T08:15:25Z</time>
      </trkpt>
      <trkpt lat="43.7971" lon="7.25832">
        <ele>416</ele>
        <time>2015-03-01T08:15:28Z</time>
      </trkpt>
      <trkpt lat="43.79713" lon="7.2582">
        <ele>416</ele>
        <time>2015-03-01T08:15:31Z</time>
      </trkpt>
      <trkpt lat="43.79716" lon="7.25808">
        <ele>417</ele>
        <time>2015-03-01T08:15:34Z</time>
      </trkpt>
      <trkpt lat="43.79719" lon="7.25796">
        <ele>417</ele>
        <time>2015-03-01T08:15:37Z</time>
      </trkpt>
      <trkpt lat="43.79721" lon="7.25785">
        <ele>417</ele>
        <time>2015-03-01T08:15:40Z</time>
      </trkpt>
      <trkpt lat="43.79724" lon="7.25775">
        <ele>417</ele>
        <time>2015-03-01T08:15:43Z</time>
      </trkpt>
      <trkpt lat="43.79728" lon="7.25763">
        <ele>418</ele>
        <time>2015-03-01T08:15:46Z</time>
      </trkpt>
      <trkpt lat="43.79731" lon="7.25749">
        <ele>418</ele>
        <time>2015-03-01T08:15:49Z</time>
      </trkpt>
      <trkpt lat="43.79734" lon="7.25736">
        <ele>418</ele>
        <time>2015-03-01T08:15:52Z</time>
      </trkpt>
      <trkpt lat="43.79737" lon="7.25722">
        <ele>418</ele>
        <time>2015-03-01T08:15:55Z</time>
      </trkpt>
      <trkpt lat="43.79742" lon="7.25707">
        <ele>418</ele>
        <time>2015-03-01T08:15:58Z</time>
      </trkpt>
      <trkpt lat="43.79745" lon="7.25691">
        <ele>419</ele>
        <time>2015-03-01T08:16:01Z</time>
      </trkpt>
      <trkpt lat="43.79748" lon="7.25676">
        <ele>419</ele>
        <time>2015-03-01T08:16:04Z</time>
      </trkpt>
      <trkpt lat="43.79748" lon="7.25661">
        <ele>419</ele>
        <time>2015-03-01T08:16:07Z</time>
      </trkpt>
      <trkpt lat="43.79744" lon="7.25645">
        <ele>420</ele>
        <time>2015-03-01T08:16:10Z</time>
      </trkpt>
      <trkpt lat="43.79738" lon="7.25631">
        <ele>420</ele>
        <time>2015-03-01T08:16:13Z</time>
      </trkpt>
      <trkpt lat="43.79731" lon="7.25617">
        <ele>420</ele>
        <time>2015-03-01T08:16:16Z</time>
      </trkpt>
      <trkpt lat="43.79723" lon="7.25608">
        <ele>420</ele>
        <time>2015-03-01T08:16:19Z</time>
      </trkpt>
      <trkpt lat="43.79715" lon="7.25603">
        <ele>421</ele>
        <time>2015-03-01T08:16:22Z</time>
      </trkpt>
      <trkpt lat="43.79706" lon="7.256">
        <ele>421</ele>
        <time>2015-03-01T08:16:25Z</time>
      </trkpt>
      <trkpt lat="43.79697" lon="7.25602">
        <ele>422</ele>
        <time>2015-03-01T08:16:28Z</time>
      </trkpt>
      <trkpt lat="43.79688" lon="7.25608">
        <ele>422</ele>
        <time>2015-03-01T08:16:31Z</time>
      </trkpt>
      <trkpt lat="43.79679" lon="7.25615">
        <ele>423</ele>
        <time>2015-03-01T08:16:34Z</time>
      </trkpt>
      <trkpt lat="43.7967" lon="7.25624">
        <ele>423</ele>
        <time>2015-03-01T08:16:37Z</time>
      </trkpt>
      <trkpt lat="43.7966" lon="7.25633">
        <ele>423</ele>
        <time>2015-03-01T08:16:40Z</time>
      </trkpt>
      <trkpt lat="43.7965" lon="7.25642">
        <ele>423</ele>
        <time>2015-03-01T08:16:43Z</time>
      </trkpt>
      <trkpt lat="43.7964" lon="7.2565">
        <ele>424</ele>
        <time>2015-03-01T08:16:46Z</time>
      </trkpt>
      <trkpt lat="43.7963" lon="7.25659">
        <ele>424</ele>
        <time>2015-03-01T08:16:49Z</time>
      </trkpt>
      <trkpt lat="43.7962" lon="7.25666">
        <ele>424</ele>
        <time>2015-03-01T08:16:52Z</time>
      </trkpt>
      <trkpt lat="43.7961" lon="7.2567">
        <ele>424</ele>
        <time>2015-03-01T08:16:55Z</time>
      </trkpt>
      <trkpt lat="43.796" lon="7.25671">
        <ele>424</ele>
        <time>2015-03-01T08:16:58Z</time>
      </trkpt>
      <trkpt lat="43.7959" lon="7.25669">
        <ele>424</ele>
        <time>2015-03-01T08:17:01Z</time>
      </trkpt>
      <trkpt lat="43.7958" lon="7.25665">
        <ele>425</ele>
        <time>2015-03-01T08:17:04Z</time>
      </trkpt>
      <trkpt lat="43.79571" lon="7.25658">
        <ele>425</ele>
        <time>2015-03-01T08:17:07Z</time>
      </trkpt>
      <trkpt lat="43.79565" lon="7.25647">
        <ele>426</ele>
        <time>2015-03-01T08:17:10Z</time>
      </trkpt>
      <trkpt lat="43.7956" lon="7.25634">
        <ele>426</ele>
        <time>2015-03-01T08:17:13Z</time>
      </trkpt>
      <trkpt lat="43.79555" lon="7.2562">
        <ele>426</ele>
        <time>2015-03-01T08:17:16Z</time>
      </trkpt>
      <trkpt lat="43.79552" lon="7.25607">
        <ele>427</ele>
        <time>2015-03-01T08:17:19Z</time>
      </trkpt>
      <trkpt lat="43.79549" lon="7.25595">
        <ele>427</ele>
        <time>2015-03-01T08:17:22Z</time>
      </trkpt>
      <trkpt lat="43.79547" lon="7.25581">
        <ele>427</ele>
        <time>2015-03-01T08:17:25Z</time>
      </trkpt>
      <trkpt lat="43.79543" lon="7.25567">
        <ele>427</ele>
        <time>2015-03-01T08:17:28Z</time>
      </trkpt>
      <trkpt lat="43.79537" lon="7.25551">
        <ele>428</ele>
        <time>2015-03-01T08:17:31Z</time>
      </trkpt>
      <trkpt lat="43.79529" lon="7.25539">
        <ele>428</ele>
        <time>2015-03-01T08:17:34Z</time>
      </trkpt>
      <trkpt lat="43.79519" lon="7.25529">
        <ele>428</ele>
        <time>2015-03-01T08:17:37Z</time>
      </trkpt>
      <trkpt lat="43.79508" lon="7.25523">
        <ele>429</ele>
        <time>2015-03-01T08:17:40Z</time>
      </trkpt>
      <trkpt lat="43.79495" lon="7.25525">
        <ele>429</ele>
        <time>2015-03-01T08:17:43Z</time>
      </trkpt>
      <trkpt lat="43.79485" lon="7.25531">
        <ele>429</ele>
        <time>2015-03-01T08:17:46Z</time>
      </trkpt>
      <trkpt lat="43.79475" lon="7.25538">
        <ele>429</ele>
        <time>2015-03-01T08:17:49Z</time>
      </trkpt>
      <trkpt lat="43.79465" lon="7.25544">
        <ele>430</ele>
        <time>2015-03-01T08:17:52Z</time>
      </trkpt>
      <trkpt lat="43.79455" lon="7.2555">
        <ele>430</ele>
        <time>2015-03-01T08:17:55Z</time>
      </trkpt>
      <trkpt lat="43.79446" lon="7.25554">
        <ele>430</ele>
        <time>2015-03-01T08:17:58Z</time>
      </trkpt>
      <trkpt lat="43.79434" lon="7.25556">
        <ele>431</ele>
        <time>2015-03-01T08:18:01Z</time>
      </trkpt>
      <trkpt lat="43.79423" lon="7.25555">
        <ele>431</ele>
        <time>2015-03-01T08:18:04Z</time>
      </trkpt>
      <trkpt lat="43.79412" lon="7.25551">
        <ele>431</ele>
        <time>2015-03-01T08:18:07Z</time>
      </trkpt>
      <trkpt lat="43.79402" lon="7.25545">
        <ele>432</ele>
        <time>2015-03-01T08:18:10Z</time>
      </trkpt>
      <trkpt lat="43.79392" lon="7.25539">
        <ele>432</ele>
        <time>2015-03-01T08:18:13Z</time>
      </trkpt>
      <trkpt lat="43.79382" lon="7.25533">
        <ele>432</ele>
        <time>2015-03-01T08:18:16Z</time>
      </trkpt>
      <trkpt lat="43.79372" lon="7.25527">
        <ele>433</ele>
        <time>2015-03-01T08:18:19Z</time>
      </trkpt>
      <trkpt lat="43.79364" lon="7.2552">
        <ele>433</ele>
        <time>2015-03-01T08:18:22Z</time>
      </trkpt>
      <trkpt lat="43.79354" lon="7.25514">
        <ele>433</ele>
        <time>2015-03-01T08:18:25Z</time>
      </trkpt>
      <trkpt lat="43.79344" lon="7.25503">
        <ele>434</ele>
        <time>2015-03-01T08:18:28Z</time>
      </trkpt>
      <trkpt lat="43.79336" lon="7.25491">
        <ele>434</ele>
        <time>2015-03-01T08:18:31Z</time>
      </trkpt>
      <trkpt lat="43.79327" lon="7.25481">
        <ele>434</ele>
        <time>2015-03-01T08:18:34Z</time>
      </trkpt>
      <trkpt lat="43.79319" lon="7.25469">
        <ele>435</ele>
        <time>2015-03-01T08:18:37Z</time>
      </trkpt>
      <trkpt lat="43.79313" lon="7.25456">
        <ele>435</ele>
        <time>2015-03-01T08:18:40Z</time>
      </trkpt>
      <trkpt lat="43.7931" lon="7.25441">
        <ele>436</ele>
        <time>2015-03-01T08:18:43Z</time>
      </trkpt>
      <trkpt lat="43.79308" lon="7.25426">
        <ele>436</ele>
        <time>2015-03-01T08:18:46Z</time>
      </trkpt>
      <trkpt lat="43.79306" lon="7.2541">
        <ele>437</ele>
        <time>2015-03-01T08:18:49Z</time>
      </trkpt>
      <trkpt lat="43.79306" lon="7.25396">
        <ele>437</ele>
        <time>2015-03-01T08:18:52Z</time>
      </trkpt>
      <trkpt lat="43.79305" lon="7.2538">
        <ele>438</ele>
        <time>2015-03-01T08:18:55Z</time>
      </trkpt>
      <trkpt lat="43.79305" lon="7.25364">
        <ele>438</ele>
        <time>2015-03-01T08:18:58Z</time>
      </trkpt>
      <trkpt lat="43.79303" lon="7.25347">
        <ele>438</ele>
        <time>2015-03-01T08:19:01Z</time>
      </trkpt>
      <trkpt lat="43.79299" lon="7.25331">
        <ele>439</ele>
        <time>2015-03-01T08:19:04Z</time>
      </trkpt>
      <trkpt lat="43.79294" lon="7.25319">
        <ele>439</ele>
        <time>2015-03-01T08:19:07Z</time>
      </trkpt>
      <trkpt lat="43.79284" lon="7.2531">
        <ele>439</ele>
        <time>2015-03-01T08:19:10Z</time>
      </trkpt>
      <trkpt lat="43.79274" lon="7.25304">
        <ele>439</ele>
        <time>2015-03-01T08:19:13Z</time>
      </trkpt>
      <trkpt lat="43.79263" lon="7.25305">
        <ele>440</ele>
        <time>2015-03-01T08:19:16Z</time>
      </trkpt>
      <trkpt lat="43.79253" lon="7.25308">
        <ele>441</ele>
        <time>2015-03-01T08:19:19Z</time>
      </trkpt>
      <trkpt lat="43.79243" lon="7.25312">
        <ele>441</ele>
        <time>2015-03-01T08:19:22Z</time>
      </trkpt>
      <trkpt lat="43.79233" lon="7.25317">
        <ele>441</ele>
        <time>2015-03-01T08:19:25Z</time>
      </trkpt>
      <trkpt lat="43.79223" lon="7.25323">
        <ele>442</ele>
        <time>2015-03-01T08:19:28Z</time>
      </trkpt>
      <trkpt lat="43.79212" lon="7.25329">
        <ele>442</ele>
        <time>2015-03-01T08:19:31Z</time>
      </trkpt>
      <trkpt lat="43.79202" lon="7.25335">
        <ele>442</ele>
        <time>2015-03-01T08:19:34Z</time>
      </trkpt>
      <trkpt lat="43.79191" lon="7.2534">
        <ele>443</ele>
        <time>2015-03-01T08:19:37Z</time>
      </trkpt>
      <trkpt lat="43.79181" lon="7.25345">
        <ele>443</ele>
        <time>2015-03-01T08:19:40Z</time>
      </trkpt>
      <trkpt lat="43.7917" lon="7.2535">
        <ele>444</ele>
        <time>2015-03-01T08:19:43Z</time>
      </trkpt>
      <trkpt lat="43.7916" lon="7.25356">
        <ele>444</ele>
        <time>2015-03-01T08:19:46Z</time>
      </trkpt>
      <trkpt lat="43.79149" lon="7.25361">
        <ele>444</ele>
        <time>2015-03-01T08:19:49Z</time>
      </trkpt>
      <trkpt lat="43.79138" lon="7.25366">
        <ele>445</ele>
        <time>2015-03-01T08:19:52Z</time>
      </trkpt>
      <trkpt lat="43.79128" lon="7.25369">
        <ele>445</ele>
        <time>2015-03-01T08:19:55Z</time>
      </trkpt>
      <trkpt lat="43.79117" lon="7.25371">
        <ele>445</ele>
        <time>2015-03-01T08:19:58Z</time>
      </trkpt>
      <trkpt lat="43.79106" lon="7.25373">
        <ele>446</ele>
        <time>2015-03-01T08:20:01Z</time>
      </trkpt>
      <trkpt lat="43.79094" lon="7.25373">
        <ele>446</ele>
        <time>2015-03-01T08:20:04Z</time>
      </trkpt>
      <trkpt lat="43.79083" lon="7.25374">
        <ele>447</ele>
        <time>2015-03-01T08:20:07Z</time>
      </trkpt>
      <trkpt lat="43.79071" lon="7.25374">
        <ele>447</ele>
        <time>2015-03-01T08:20:10Z</time>
      </trkpt>
      <trkpt lat="43.7906" lon="7.25374">
        <ele>447</ele>
        <time>2015-03-01T08:20:13Z</time>
      </trkpt>
      <trkpt lat="43.79049" lon="7.25374">
        <ele>447</ele>
        <time>2015-03-01T08:20:16Z</time>
      </trkpt>
      <trkpt lat="43.79038" lon="7.25374">
        <ele>448</ele>
        <time>2015-03-01T08:20:19Z</time>
      </trkpt>
      <trkpt lat="43.79027" lon="7.25374">
        <ele>448</ele>
        <time>2015-03-01T08:20:22Z</time>
      </trkpt>
      <trkpt lat="43.79016" lon="7.25374">
        <ele>449</ele>
        <time>2015-03-01T08:20:25Z</time>
      </trkpt>
      <trkpt lat="43.79005" lon="7.25373">
        <ele>449</ele>
        <time>2015-03-01T08:20:28Z</time>
      </trkpt>
      <trkpt lat="43.78993" lon="7.25372">
        <ele>450</ele>
        <time>2015-03-01T08:20:31Z</time>
      </trkpt>
      <trkpt lat="43.78981" lon="7.25369">
        <ele>450</ele>
        <time>2015-03-01T08:20:34Z</time>
      </trkpt>
      <trkpt lat="43.78969" lon="7.25364">
        <ele>450</ele>
        <time>2015-03-01T08:20:37Z</time>
      </trkpt>
      <trkpt lat="43.78958" lon="7.25357">
        <ele>451</ele>
        <time>2015-03-01T08:20:40Z</time>
      </trkpt>
      <trkpt lat="43.78948" lon="7.25347">
        <ele>451</ele>
        <time>2015-03-01T08:20:43Z</time>
      </trkpt>
      <trkpt lat="43.78941" lon="7.25331">
        <ele>452</ele>
        <time>2015-03-01T08:20:46Z</time>
      </trkpt>
      <trkpt lat="43.78934" lon="7.25317">
        <ele>452</ele>
        <time>2015-03-01T08:20:49Z</time>
      </trkpt>
      <trkpt lat="43.78929" lon="7.25302">
        <ele>452</ele>
        <time>2015-03-01T08:20:52Z</time>
      </trkpt>
      <trkpt lat="43.78923" lon="7.25288">
        <ele>453</ele>
        <time>2015-03-01T08:20:55Z</time>
      </trkpt>
      <trkpt lat="43.78917" lon="7.25274">
        <ele>454</ele>
        <time>2015-03-01T08:20:58Z</time>
      </trkpt>
      <trkpt lat="43.78909" lon="7.2526">
        <ele>454</ele>
        <time>2015-03-01T08:21:01Z</time>
      </trkpt>
      <trkpt lat="43.78899" lon="7.2525">
        <ele>454</ele>
        <time>2015-03-01T08:21:04Z</time>
      </trkpt>
      <trkpt lat="43.78887" lon="7.25243">
        <ele>455</ele>
        <time>2015-03-01T08:21:07Z</time>
      </trkpt>
      <trkpt lat="43.78875" lon="7.25241">
        <ele>455</ele>
        <time>2015-03-01T08:21:10Z</time>
      </trkpt>
      <trkpt lat="43.78862" lon="7.25242">
        <ele>455</ele>
        <time>2015-03-01T08:21:13Z</time>
      </trkpt>
      <trkpt lat="43.78851" lon="7.25242">
        <ele>456</ele>
        <time>2015-03-01T08:21:16Z</time>
      </trkpt>
      <trkpt lat="43.78839" lon="7.2524">
        <ele>457</ele>
        <time>2015-03-01T08:21:19Z</time>
      </trkpt>
      <trkpt lat="43.78828" lon="7.25236">
        <ele>457</ele>
        <time>2015-03-01T08:21:22Z</time>
      </trkpt>
      <trkpt lat="43.78818" lon="7.2523">
        <ele>457</ele>
        <time>2015-03-01T08:21:25Z</time>
      </trkpt>
      <trkpt lat="43.78809" lon="7.25222">
        <ele>457</ele>
        <time>2015-03-01T08:21:28Z</time>
      </trkpt>
      <trkpt lat="43.78798" lon="7.25214">
        <ele>457</ele>
        <time>2015-03-01T08:21:31Z</time>
      </trkpt>
      <trkpt lat="43.78787" lon="7.2521">
        <ele>458</ele>
        <time>2015-03-01T08:21:34Z</time>
      </trkpt>
      <trkpt lat="43.78777" lon="7.25209">
        <ele>458</ele>
        <time>2015-03-01T08:21:37Z</time>
      </trkpt>
      <trkpt lat="43.78768" lon="7.25212">
        <ele>459</ele>
        <time>2015-03-01T08:21:40Z</time>
      </trkpt>
      <trkpt lat="43.78758" lon="7.25218">
        <ele>459</ele>
        <time>2015-03-01T08:21:43Z</time>
      </trkpt>
      <trkpt lat="43.78749" lon="7.25226">
        <ele>460</ele>
        <time>2015-03-01T08:21:46Z</time>
      </trkpt>
      <trkpt lat="43.78739" lon="7.25234">
        <ele>460</ele>
        <time>2015-03-01T08:21:49Z</time>
      </trkpt>
      <trkpt lat="43.7873" lon="7.25242">
        <ele>460</ele>
        <time>2015-03-01T08:21:52Z</time>
      </trkpt>
      <trkpt lat="43.7872" lon="7.25251">
        <ele>460</ele>
        <time>2015-03-01T08:21:55Z</time>
      </trkpt>
      <trkpt lat="43.7871" lon="7.25258">
        <ele>460</ele>
        <time>2015-03-01T08:21:58Z</time>
      </trkpt>
      <trkpt lat="43.78699" lon="7.25263">
        <ele>461</ele>
        <time>2015-03-01T08:22:01Z</time>
      </trkpt>
      <trkpt lat="43.78689" lon="7.25266">
        <ele>461</ele>
        <time>2015-03-01T08:22:04Z</time>
      </trkpt>
      <trkpt lat="43.78677" lon="7.25265">
        <ele>462</ele>
        <time>2015-03-01T08:22:07Z</time>
      </trkpt>
      <trkpt lat="43.78666" lon="7.25264">
        <ele>462</ele>
        <time>2015-03-01T08:22:10Z</time>
      </trkpt>
      <trkpt lat="43.78655" lon="7.25262">
        <ele>463</ele>
        <time>2015-03-01T08:22:13Z</time>
      </trkpt>
      <trkpt lat="43.78645" lon="7.25259">
        <ele>463</ele>
        <time>2015-03-01T08:22:16Z</time>
      </trkpt>
      <trkpt lat="43.78635" lon="7.25256">
        <ele>463</ele>
        <time>2015-03-01T08:22:19Z</time>
      </trkpt>
      <trkpt lat="43.78625" lon="7.25255">
        <ele>464</ele>
        <time>2015-03-01T08:22:22Z</time>
      </trkpt>
      <trkpt lat="43.78614" lon="7.25254">
        <ele>464</ele>
        <time>2015-03-01T08:22:25Z</time>
      </trkpt>
      <trkpt lat="43.78605" lon="7.25254">
        <ele>464</ele>
        <time>2015-03-01T08:22:28Z</time>
      </trkpt>
      <trkpt lat="43.78595" lon="7.25255">
        <ele>465</ele>
        <time>2015-03-01T08:22:31Z</time>
      </trkpt>
      <trkpt lat="43.78584" lon="7.25256">
        <ele>465</ele>
        <time>2015-03-01T08:22:34Z</time>
      </trkpt>
      <trkpt lat="43.78574" lon="7.25257">
        <ele>465</ele>
        <time>2015-03-01T08:22:37Z</time>
      </trkpt>
      <trkpt lat="43.78564" lon="7.25257">
        <ele>466</ele>
        <time>2015-03-01T08:22:40Z</time>
      </trkpt>
      <trkpt lat="43.78553" lon="7.25259">
        <ele>466</ele>
        <time>2015-03-01T08:22:43Z</time>
      </trkpt>
      <trkpt lat="43.78541" lon="7.25261">
        <ele>466</ele>
        <time>2015-03-01T08:22:46Z</time>
      </trkpt>
      <trkpt lat="43.78529" lon="7.25263">
        <ele>467</ele>
        <time>2015-03-01T08:22:49Z</time>
      </trkpt>
      <trkpt lat="43.78518" lon="7.25265">
        <ele>467</ele>
        <time>2015-03-01T08:22:52Z</time>
      </trkpt>
      <trkpt lat="43.78508" lon="7.25268">
        <ele>467</ele>
        <time>2015-03-01T08:22:55Z</time>
      </trkpt>
      <trkpt lat="43.78497" lon="7.2527">
        <ele>468</ele>
        <time>2015-03-01T08:22:58Z</time>
      </trkpt>
      <trkpt lat="43.78487" lon="7.25274">
        <ele>468</ele>
        <time>2015-03-01T08:23:01Z</time>
      </trkpt>
      <trkpt lat="43.78477" lon="7.25278">
        <ele>469</ele>
        <time>2015-03-01T08:23:04Z</time>
      </trkpt>
      <trkpt lat="43.78466" lon="7.2528">
        <ele>469</ele>
        <time>2015-03-01T08:23:07Z</time>
      </trkpt>
      <trkpt lat="43.78456" lon="7.25284">
        <ele>469</ele>
        <time>2015-03-01T08:23:10Z</time>
      </trkpt>
      <trkpt lat="43.78447" lon="7.25288">
        <ele>469</ele>
        <time>2015-03-01T08:23:13Z</time>
      </trkpt>
      <trkpt lat="43.78437" lon="7.25293">
        <ele>470</ele>
        <time>2015-03-01T08:23:16Z</time>
      </trkpt>
      <trkpt lat="43.78427" lon="7.25297">
        <ele>470</ele>
        <time>2015-03-01T08:23:19Z</time>
      </trkpt>
      <trkpt lat="43.78417" lon="7.25302">
        <ele>471</ele>
        <time>2015-03-01T08:23:22Z</time>
      </trkpt>
      <trkpt lat="43.78407" lon="7.25306">
        <ele>471</ele>
        <time>2015-03-01T08:23:25Z</time>
      </trkpt>
      <trkpt lat="43.78397" lon="7.2531">
        <ele>471</ele>
        <time>2015-03-01T08:23:28Z</time>
      </trkpt>
      <trkpt lat="43.78388" lon="7.25314">
        <ele>472</ele>
        <time>2015-03-01T08:23:31Z</time>
      </trkpt>
      <trkpt lat="43.78378" lon="7.25318">
        <ele>472</ele>
        <time>2015-03-01T08:23:34Z</time>
      </trkpt>
      <trkpt lat="43.78368" lon="7.25323">
        <ele>472</ele>
        <time>2015-03-01T08:23:37Z</time>
      </trkpt>
      <trkpt lat="43.78358" lon="7.25329">
        <ele>473</ele>
        <time>2015-03-01T08:23:40Z</time>
      </trkpt>
      <trkpt lat="43.78349" lon="7.25336">
        <ele>473</ele>
        <time>2015-03-01T08:23:43Z</time>
      </trkpt>
      <trkpt lat="43.7834" lon="7.25342">
        <ele>473</ele>
        <time>2015-03-01T08:23:46Z</time>
      </trkpt>
      <trkpt lat="43.78331" lon="7.25347">
        <ele>474</ele>
        <time>2015-03-01T08:23:49Z</time>
      </trkpt>
      <trkpt lat="43.78322" lon="7.25354">
        <ele>474</ele>
        <time>2015-03-01T08:23:52Z</time>
      </trkpt>
      <trkpt lat="43.78313" lon="7.25363">
        <ele>474</ele>
        <time>2015-03-01T08:23:55Z</time>
      </trkpt>
      <trkpt lat="43.78303" lon="7.2537">
        <ele>475</ele>
        <time>2015-03-01T08:23:58Z</time>
      </trkpt>
      <trkpt lat="43.78294" lon="7.25376">
        <ele>475</ele>
        <time>2015-03-01T08:24:01Z</time>
      </trkpt>
      <trkpt lat="43.78285" lon="7.25384">
        <ele>476</ele>
        <time>2015-03-01T08:24:04Z</time>
      </trkpt>
      <trkpt lat="43.78276" lon="7.25391">
        <ele>476</ele>
        <time>2015-03-01T08:24:07Z</time>
      </trkpt>
      <trkpt lat="43.78266" lon="7.25397">
        <ele>476</ele>
        <time>2015-03-01T08:24:10Z</time>
      </trkpt>
      <trkpt lat="43.78257" lon="7.25402">
        <ele>477</ele>
        <time>2015-03-01T08:24:13Z</time>
      </trkpt>
      <trkpt lat="43.78246" lon="7.25404">
        <ele>477</ele>
        <time>2015-03-01T08:24:16Z</time>
      </trkpt>
      <trkpt lat="43.78236" lon="7.25401">
        <ele>477</ele>
        <time>2015-03-01T08:24:19Z</time>
      </trkpt>
      <trkpt lat="43.78227" lon="7.25392">
        <ele>477</ele>
        <time>2015-03-01T08:24:22Z</time>
      </trkpt>
      <trkpt lat="43.7822" lon="7.25381">
        <ele>478</ele>
        <time>2015-03-01T08:24:25Z</time>
      </trkpt>
      <trkpt lat="43.78214" lon="7.25367">
        <ele>478</ele>
        <time>2015-03-01T08:24:28Z</time>
      </trkpt>
      <trkpt lat="43.7821" lon="7.25353">
        <ele>479</ele>
        <time>2015-03-01T08:24:31Z</time>
      </trkpt>
      <trkpt lat="43.78207" lon="7.2534">
        <ele>479</ele>
        <time>2015-03-01T08:24:34Z</time>
      </trkpt>
      <trkpt lat="43.78204" lon="7.25327">
        <ele>479</ele>
        <time>2015-03-01T08:24:37Z</time>
      </trkpt>
      <trkpt lat="43.78203" lon="7.25314">
        <ele>480</ele>
        <time>2015-03-01T08:24:40Z</time>
      </trkpt>
      <trkpt lat="43.78201" lon="7.25301">
        <ele>480</ele>
        <time>2015-03-01T08:24:43Z</time>
      </trkpt>
      <trkpt lat="43.78199" lon="7.25288">
        <ele>481</ele>
        <time>2015-03-01T08:24:46Z</time>
      </trkpt>
      <trkpt lat="43.78192" lon="7.25281">
        <ele>481</ele>
        <time>2015-03-01T08:24:49Z</time>
      </trkpt>
      <trkpt lat="43.78184" lon="7.25275">
        <ele>481</ele>
        <time>2015-03-01T08:24:52Z</time>
      </trkpt>
      <trkpt lat="43.78176" lon="7.25267">
        <ele>481</ele>
        <time>2015-03-01T08:24:55Z</time>
      </trkpt>
      <trkpt lat="43.78168" lon="7.25262">
        <ele>482</ele>
        <time>2015-03-01T08:24:58Z</time>
      </trkpt>
      <trkpt lat="43.78162" lon="7.25256">
        <ele>483</ele>
        <time>2015-03-01T08:25:01Z</time>
      </trkpt>
      <trkpt lat="43.78159" lon="7.25252">
        <ele>484</ele>
        <time>2015-03-01T08:25:04Z</time>
      </trkpt>
      <trkpt lat="43.78157" lon="7.25248">
        <ele>484</ele>
        <time>2015-03-01T08:25:07Z</time>
      </trkpt>
      <trkpt lat="43.78156" lon="7.25244">
        <ele>485</ele>
        <time>2015-03-01T08:25:10Z</time>
      </trkpt>
      <trkpt lat="43.78154" lon="7.25239">
        <ele>486</ele>
        <time>2015-03-01T08:25:13Z</time>
      </trkpt>
      <trkpt lat="43.7815" lon="7.25235">
        <ele>487</ele>
        <time>2015-03-01T08:25:16Z</time>
      </trkpt>
      <trkpt lat="43.78146" lon="7.25239">
        <ele>488</ele>
        <time>2015-03-01T08:25:19Z</time>
      </trkpt>
      <trkpt lat="43.78143" lon="7.25242">
        <ele>489</ele>
        <time>2015-03-01T08:25:22Z</time>
      </trkpt>
      <trkpt lat="43.7814" lon="7.25247">
        <ele>490</ele>
        <time>2015-03-01T08:25:25Z</time>
      </trkpt>
      <trkpt lat="43.78136" lon="7.25251">
        <ele>490</ele>
        <time>2015-03-01T08:25:28Z</time>
      </trkpt>
      <trkpt lat="43.78133" lon="7.25255">
        <ele>491</ele>
        <time>2015-03-01T08:25:31Z</time>
      </trkpt>
      <trkpt lat="43.78128" lon="7.25258">
        <ele>492</ele>
        <time>2015-03-01T08:25:34Z</time>
      </trkpt>
      <trkpt lat="43.78125" lon="7.25262">
        <ele>493</ele>
        <time>2015-03-01T08:25:37Z</time>
      </trkpt>
      <trkpt lat="43.78121" lon="7.25265">
        <ele>494</ele>
        <time>2015-03-01T08:25:40Z</time>
      </trkpt>
      <trkpt lat="43.78116" lon="7.25268">
        <ele>494</ele>
        <time>2015-03-01T08:25:43Z</time>
      </trkpt>
      <trkpt lat="43.78112" lon="7.25271">
        <ele>495</ele>
        <time>2015-03-01T08:25:46Z</time>
      </trkpt>
      <trkpt lat="43.78107" lon="7.25274">
        <ele>496</ele>
        <time>2015-03-01T08:25:49Z</time>
      </trkpt>
      <trkpt lat="43.78102" lon="7.25277">
        <ele>496</ele>
        <time>2015-03-01T08:25:52Z</time>
      </trkpt>
      <trkpt lat="43.78097" lon="7.25282">
        <ele>497</ele>
        <time>2015-03-01T08:25:55Z</time>
      </trkpt>
      <trkpt lat="43.78092" lon="7.25286">
        <ele>497</ele>
        <time>2015-03-01T08:25:58Z</time>
      </trkpt>
      <trkpt lat="43.78087" lon="7.2529">
        <ele>498</ele>
        <time>2015-03-01T08:26:01Z</time>
      </trkpt>
      <trkpt lat="43.78082" lon="7.25295">
        <ele>498</ele>
        <time>2015-03-01T08:26:04Z</time>
      </trkpt>
      <trkpt lat="43.78077" lon="7.25298">
        <ele>499</ele>
        <time>2015-03-01T08:26:07Z</time>
      </trkpt>
      <trkpt lat="43.78072" lon="7.25302">
        <ele>500</ele>
        <time>2015-03-01T08:26:10Z</time>
      </trkpt>
      <trkpt lat="43.78068" lon="7.25305">
        <ele>500</ele>
        <time>2015-03-01T08:26:13Z</time>
      </trkpt>
      <trkpt lat="43.78066" lon="7.25307">
        <ele>501</ele>
        <time>2015-03-01T08:26:16Z</time>
      </trkpt>
      <trkpt lat="43.78064" lon="7.25308">
        <ele>502</ele>
        <time>2015-03-01T08:26:19Z</time>
      </trkpt>
      <trkpt lat="43.78061" lon="7.25309">
        <ele>502</ele>
        <time>2015-03-01T08:26:22Z</time>
      </trkpt>
      <trkpt lat="43.7806" lon="7.25311">
        <ele>503</ele>
        <time>2015-03-01T08:26:25Z</time>
      </trkpt>
      <trkpt lat="43.78058" lon="7.25313">
        <ele>503</ele>
        <time>2015-03-01T08:26:28Z</time>
      </trkpt>
      <trkpt lat="43.78057" lon="7.25314">
        <ele>504</ele>
        <time>2015-03-01T08:26:31Z</time>
      </trkpt>
      <trkpt lat="43.78055" lon="7.25316">
        <ele>504</ele>
        <time>2015-03-01T08:26:34Z</time>
      </trkpt>
      <trkpt lat="43.78052" lon="7.25318">
        <ele>505</ele>
        <time>2015-03-01T08:26:40Z</time>
      </trkpt>
      <trkpt lat="43.7805" lon="7.25319">
        <ele>505</ele>
        <time>2015-03-01T08:26:43Z</time>
      </trkpt>
      <trkpt lat="43.78048" lon="7.25321">
        <ele>506</ele>
        <time>2015-03-01T08:26:46Z</time>
      </trkpt>
      <trkpt lat="43.78045" lon="7.25324">
        <ele>506</ele>
        <time>2015-03-01T08:26:49Z</time>
      </trkpt>
      <trkpt lat="43.78043" lon="7.25325">
        <ele>507</ele>
        <time>2015-03-01T08:26:52Z</time>
      </trkpt>
      <trkpt lat="43.7804" lon="7.25326">
        <ele>507</ele>
        <time>2015-03-01T08:26:55Z</time>
      </trkpt>
      <trkpt lat="43.78038" lon="7.25328">
        <ele>508</ele>
        <time>2015-03-01T08:26:58Z</time>
      </trkpt>
      <trkpt lat="43.78036" lon="7.25329">
        <ele>508</ele>
        <time>2015-03-01T08:27:01Z</time>
      </trkpt>
      <trkpt lat="43.78033" lon="7.2533">
        <ele>509</ele>
        <time>2015-03-01T08:27:04Z</time>
      </trkpt>
      <trkpt lat="43.78031" lon="7.25332">
        <ele>510</ele>
        <time>2015-03-01T08:27:07Z</time>
      </trkpt>
      <trkpt lat="43.78029" lon="7.25334">
        <ele>510</ele>
        <time>2015-03-01T08:27:10Z</time>
      </trkpt>
      <trkpt lat="43.78027" lon="7.25336">
        <ele>511</ele>
        <time>2015-03-01T08:27:13Z</time>
      </trkpt>
      <trkpt lat="43.78025" lon="7.25338">
        <ele>511</ele>
        <time>2015-03-01T08:27:16Z</time>
      </trkpt>
      <trkpt lat="43.78023" lon="7.2534">
        <ele>512</ele>
        <time>2015-03-01T08:27:19Z</time>
      </trkpt>
      <trkpt lat="43.78021" lon="7.25342">
        <ele>513</ele>
        <time>2015-03-01T08:27:22Z</time>
      </trkpt>
      <trkpt lat="43.78019" lon="7.25345">
        <ele>513</ele>
        <time>2015-03-01T08:27:25Z</time>
      </trkpt>
      <trkpt lat="43.78017" lon="7.25347">
        <ele>513</ele>
        <time>2015-03-01T08:27:28Z</time>
      </trkpt>
      <trkpt lat="43.78015" lon="7.2535">
        <ele>514</ele>
        <time>2015-03-01T08:27:31Z</time>
      </trkpt>
      <trkpt lat="43.78013" lon="7.25353">
        <ele>514</ele>
        <time>2015-03-01T08:27:34Z</time>
      </trkpt>
      <trkpt lat="43.78009" lon="7.25356">
        <ele>514</ele>
        <time>2015-03-01T08:27:37Z</time>
      </trkpt>
      <trkpt lat="43.78006" lon="7.25361">
        <ele>514</ele>
        <time>2015-03-01T08:27:40Z</time>
      </trkpt>
      <trkpt lat="43.78003" lon="7.25365">
        <ele>515</ele>
        <time>2015-03-01T08:27:43Z</time>
      </trkpt>
      <trkpt lat="43.77998" lon="7.25371">
        <ele>515</ele>
        <time>2015-03-01T08:27:46Z</time>
      </trkpt>
      <trkpt lat="43.77994" lon="7.25378">
        <ele>515</ele>
        <time>2015-03-01T08:27:49Z</time>
      </trkpt>
      <trkpt lat="43.7799" lon="7.25386">
        <ele>515</ele>
        <time>2015-03-01T08:27:52Z</time>
      </trkpt>
      <trkpt lat="43.77985" lon="7.25391">
        <ele>516</ele>
        <time>2015-03-01T08:27:55Z</time>
      </trkpt>
      <trkpt lat="43.7798" lon="7.25397">
        <ele>516</ele>
        <time>2015-03-01T08:27:58Z</time>
      </trkpt>
      <trkpt lat="43.77975" lon="7.25401">
        <ele>516</ele>
        <time>2015-03-01T08:28:01Z</time>
      </trkpt>
      <trkpt lat="43.77969" lon="7.25403">
        <ele>516</ele>
        <time>2015-03-01T08:28:04Z</time>
      </trkpt>
      <trkpt lat="43.77965" lon="7.25405">
        <ele>517</ele>
        <time>2015-03-01T08:28:07Z</time>
      </trkpt>
      <trkpt lat="43.77961" lon="7.25409">
        <ele>517</ele>
        <time>2015-03-01T08:28:10Z</time>
      </trkpt>
      <trkpt lat="43.77958" lon="7.25413">
        <ele>518</ele>
        <time>2015-03-01T08:28:13Z</time>
      </trkpt>
      <trkpt lat="43.77955" lon="7.25417">
        <ele>519</ele>
        <time>2015-03-01T08:28:16Z</time>
      </trkpt>
      <trkpt lat="43.77952" lon="7.2542">
        <ele>519</ele>
        <time>2015-03-01T08:28:19Z</time>
      </trkpt>
      <trkpt lat="43.77949" lon="7.25422">
        <ele>520</ele>
        <time>2015-03-01T08:28:22Z</time>
      </trkpt>
      <trkpt lat="43.77946" lon="7.25427">
        <ele>520</ele>
        <time>2015-03-01T08:28:25Z</time>
      </trkpt>
      <trkpt lat="43.77943" lon="7.25433">
        <ele>521</ele>
        <time>2015-03-01T08:28:28Z</time>
      </trkpt>
      <trkpt lat="43.77942" lon="7.25439">
        <ele>521</ele>
        <time>2015-03-01T08:28:31Z</time>
      </trkpt>
      <trkpt lat="43.7794" lon="7.25445">
        <ele>522</ele>
        <time>2015-03-01T08:28:34Z</time>
      </trkpt>
      <trkpt lat="43.77938" lon="7.25451">
        <ele>522</ele>
        <time>2015-03-01T08:28:37Z</time>
      </trkpt>
      <trkpt lat="43.77935" lon="7.25457">
        <ele>523</ele>
        <time>2015-03-01T08:28:40Z</time>
      </trkpt>
      <trkpt lat="43.77933" lon="7.25463">
        <ele>524</ele>
        <time>2015-03-01T08:28:43Z</time>
      </trkpt>
      <trkpt lat="43.77931" lon="7.25466">
        <ele>524</ele>
        <time>2015-03-01T08:28:46Z</time>
      </trkpt>
      <trkpt lat="43.77929" lon="7.2547">
        <ele>525</ele>
        <time>2015-03-01T08:28:49Z</time>
      </trkpt>
      <trkpt lat="43.77928" lon="7.25474">
        <ele>526</ele>
        <time>2015-03-01T08:28:52Z</time>
      </trkpt>
      <trkpt lat="43.77926" lon="7.25478">
        <ele>526</ele>
        <time>2015-03-01T08:28:55Z</time>
      </trkpt>
      <trkpt lat="43.77924" lon="7.25482">
        <ele>527</ele>
        <time>2015-03-01T08:28:58Z</time>
      </trkpt>
      <trkpt lat="43.77922" lon="7.25486">
        <ele>527</ele>
        <time>2015-03-01T08:29:01Z</time>
      </trkpt>
      <trkpt lat="43.7792" lon="7.2549">
        <ele>528</ele>
        <time>2015-03-01T08:29:04Z</time>
      </trkpt>
      <trkpt lat="43.77918" lon="7.25493">
        <ele>528</ele>
        <time>2015-03-01T08:29:07Z</time>
      </trkpt>
      <trkpt lat="43.77916" lon="7.25496">
        <ele>529</ele>
        <time>2015-03-01T08:29:10Z</time>
      </trkpt>
      <trkpt lat="43.77914" lon="7.25499">
        <ele>529</ele>
        <time>2015-03-01T08:29:13Z</time>
      </trkpt>
      <trkpt lat="43.77913" lon="7.25502">
        <ele>530</ele>
        <time>2015-03-01T08:29:16Z</time>
      </trkpt>
      <trkpt lat="43.77911" lon="7.25505">
        <ele>531</ele>
        <time>2015-03-01T08:29:19Z</time>
      </trkpt>
      <trkpt lat="43.77909" lon="7.25508">
        <ele>531</ele>
        <time>2015-03-01T08:29:22Z</time>
      </trkpt>
      <trkpt lat="43.77908" lon="7.2551">
        <ele>532</ele>
        <time>2015-03-01T08:29:25Z</time>
      </trkpt>
      <trkpt lat="43.77907" lon="7.25513">
        <ele>532</ele>
        <time>2015-03-01T08:29:28Z</time>
      </trkpt>
      <trkpt lat="43.77905" lon="7.25516">
        <ele>533</ele>
        <time>2015-03-01T08:29:31Z</time>
      </trkpt>
      <trkpt lat="43.77904" lon="7.25518">
        <ele>533</ele>
        <time>2015-03-01T08:29:34Z</time>
      </trkpt>
      <trkpt lat="43.77903" lon="7.25521">
        <ele>534</ele>
        <time>2015-03-01T08:29:37Z</time>
      </trkpt>
      <trkpt lat="43.77901" lon="7.25524">
        <ele>535</ele>
        <time>2015-03-01T08:29:40Z</time>
      </trkpt>
      <trkpt lat="43.77899" lon="7.25526">
        <ele>535</ele>
        <time>2015-03-01T08:29:43Z</time>
      </trkpt>
      <trkpt lat="43.77898" lon="7.25529">
        <ele>536</ele>
        <time>2015-03-01T08:29:46Z</time>
      </trkpt>
      <trkpt lat="43.77896" lon="7.25532">
        <ele>537</ele>
        <time>2015-03-01T08:29:49Z</time>
      </trkpt>
      <trkpt lat="43.77895" lon="7.25535">
        <ele>537</ele>
        <time>2015-03-01T08:29:52Z</time>
      </trkpt>
      <trkpt lat="43.77894" lon="7.25539">
        <ele>538</ele>
        <time>2015-03-01T08:29:55Z</time>
      </trkpt>
      <trkpt lat="43.77893" lon="7.25542">
        <ele>538</ele>
        <time>2015-03-01T08:29:58Z</time>
      </trkpt>
      <trkpt lat="43.77892" lon="7.25545">
        <ele>539</ele>
        <time>2015-03-01T08:30:01Z</time>
      </trkpt>
      <trkpt lat="43.77892" lon="7.25546">
        <ele>540</ele>
        <time>2015-03-01T08:30:04Z</time>
      </trkpt>
      <trkpt lat="43.77892" lon="7.25547">
        <ele>540</ele>
        <time>2015-03-01T08:30:07Z</time>
      </trkpt>
      <trkpt lat="43.77891" lon="7.2555">
        <ele>542</ele>
        <time>2015-03-01T08:30:22Z</time>
      </trkpt>
      <trkpt lat="43.7789" lon="7.25551">
        <ele>548</ele>
        <time>2015-03-01T08:30:46Z</time>
      </trkpt>
      <trkpt lat="43.7789" lon="7.25552">
        <ele>548</ele>
        <time>2015-03-01T08:30:49Z</time>
      </trkpt>
      <trkpt lat="43.77888" lon="7.25554">
        <ele>549</ele>
        <time>2015-03-01T08:30:52Z</time>
      </trkpt>
      <trkpt lat="43.77887" lon="7.25558">
        <ele>550</ele>
        <time>2015-03-01T08:30:55Z</time>
      </trkpt>
      <trkpt lat="43.77887" lon="7.2556">
        <ele>551</ele>
        <time>2015-03-01T08:30:58Z</time>
      </trkpt>
      <trkpt lat="43.77887" lon="7.25566">
        <ele>552</ele>
        <time>2015-03-01T08:31:04Z</time>
      </trkpt>
      <trkpt lat="43.77888" lon="7.25569">
        <ele>552</ele>
        <time>2015-03-01T08:31:07Z</time>
      </trkpt>
      <trkpt lat="43.77888" lon="7.25568">
        <ele>553</ele>
        <time>2015-03-01T08:31:13Z</time>
      </trkpt>
      <trkpt lat="43.77888" lon="7.25571">
        <ele>554</ele>
        <time>2015-03-01T08:31:16Z</time>
      </trkpt>
      <trkpt lat="43.77888" lon="7.25575">
        <ele>555</ele>
        <time>2015-03-01T08:31:19Z</time>
      </trkpt>
      <trkpt lat="43.77887" lon="7.25576">
        <ele>555</ele>
        <time>2015-03-01T08:31:22Z</time>
      </trkpt>
      <trkpt lat="43.77885" lon="7.25578">
        <ele>556</ele>
        <time>2015-03-01T08:31:25Z</time>
      </trkpt>
      <trkpt lat="43.77882" lon="7.25578">
        <ele>556</ele>
        <time>2015-03-01T08:31:28Z</time>
      </trkpt>
      <trkpt lat="43.77879" lon="7.25578">
        <ele>557</ele>
        <time>2015-03-01T08:31:31Z</time>
      </trkpt>
      <trkpt lat="43.77877" lon="7.25579">
        <ele>557</ele>
        <time>2015-03-01T08:31:34Z</time>
      </trkpt>
      <trkpt lat="43.77875" lon="7.25579">
        <ele>558</ele>
        <time>2015-03-01T08:31:37Z</time>
      </trkpt>
      <trkpt lat="43.77872" lon="7.25578">
        <ele>559</ele>
        <time>2015-03-01T08:31:40Z</time>
      </trkpt>
      <trkpt lat="43.77869" lon="7.25579">
        <ele>559</ele>
        <time>2015-03-01T08:31:43Z</time>
      </trkpt>
      <trkpt lat="43.77867" lon="7.25583">
        <ele>560</ele>
        <time>2015-03-01T08:31:46Z</time>
      </trkpt>
      <trkpt lat="43.77866" lon="7.25587">
        <ele>561</ele>
        <time>2015-03-01T08:31:49Z</time>
      </trkpt>
      <trkpt lat="43.77865" lon="7.2559">
        <ele>561</ele>
        <time>2015-03-01T08:31:52Z</time>
      </trkpt>
      <trkpt lat="43.77865" lon="7.25592">
        <ele>562</ele>
        <time>2015-03-01T08:31:55Z</time>
      </trkpt>
      <trkpt lat="43.77865" lon="7.25596">
        <ele>562</ele>
        <time>2015-03-01T08:31:58Z</time>
      </trkpt>
      <trkpt lat="43.77864" lon="7.25599">
        <ele>563</ele>
        <time>2015-03-01T08:32:01Z</time>
      </trkpt>
      <trkpt lat="43.77865" lon="7.25602">
        <ele>563</ele>
        <time>2015-03-01T08:32:04Z</time>
      </trkpt>
      <trkpt lat="43.77866" lon="7.25604">
        <ele>564</ele>
        <time>2015-03-01T08:32:07Z</time>
      </trkpt>
      <trkpt lat="43.77867" lon="7.25608">
        <ele>564</ele>
        <time>2015-03-01T08:32:10Z</time>
      </trkpt>
      <trkpt lat="43.77868" lon="7.25611">
        <ele>565</ele>
        <time>2015-03-01T08:32:13Z</time>
      </trkpt>
      <trkpt lat="43.77868" lon="7.25615">
        <ele>566</ele>
        <time>2015-03-01T08:32:16Z</time>
      </trkpt>
      <trkpt lat="43.77868" lon="7.25619">
        <ele>566</ele>
        <time>2015-03-01T08:32:19Z</time>
      </trkpt>
      <trkpt lat="43.77868" lon="7.25623">
        <ele>567</ele>
        <time>2015-03-01T08:32:22Z</time>
      </trkpt>
      <trkpt lat="43.77868" lon="7.25625">
        <ele>567</ele>
        <time>2015-03-01T08:32:25Z</time>
      </trkpt>
      <trkpt lat="43.77867" lon="7.25625">
        <ele>571</ele>
        <time>2015-03-01T08:32:46Z</time>
      </trkpt>
      <trkpt lat="43.77865" lon="7.25624">
        <ele>572</ele>
        <time>2015-03-01T08:32:49Z</time>
      </trkpt>
      <trkpt lat="43.77862" lon="7.25624">
        <ele>572</ele>
        <time>2015-03-01T08:32:52Z</time>
      </trkpt>
      <trkpt lat="43.77856" lon="7.25624">
        <ele>578</ele>
        <time>2015-03-01T08:33:22Z</time>
      </trkpt>
      <trkpt lat="43.77854" lon="7.25624">
        <ele>578</ele>
        <time>2015-03-01T08:33:25Z</time>
      </trkpt>
      <trkpt lat="43.77852" lon="7.25623">
        <ele>583</ele>
        <time>2015-03-01T08:33:52Z</time>
      </trkpt>
      <trkpt lat="43.77848" lon="7.25622">
        <ele>583</ele>
        <time>2015-03-01T08:33:55Z</time>
      </trkpt>
      <trkpt lat="43.77842" lon="7.2562">
        <ele>584</ele>
        <time>2015-03-01T08:33:58Z</time>
      </trkpt>
      <trkpt lat="43.77837" lon="7.25618">
        <ele>584</ele>
        <time>2015-03-01T08:34:01Z</time>
      </trkpt>
      <trkpt lat="43.77834" lon="7.25617">
        <ele>585</ele>
        <time>2015-03-01T08:34:04Z</time>
      </trkpt>
      <trkpt lat="43.7783" lon="7.25619">
        <ele>586</ele>
        <time>2015-03-01T08:34:07Z</time>
      </trkpt>
      <trkpt lat="43.77826" lon="7.25621">
        <ele>586</ele>
        <time>2015-03-01T08:34:10Z</time>
      </trkpt>
      <trkpt lat="43.77824" lon="7.25623">
        <ele>586</ele>
        <time>2015-03-01T08:34:13Z</time>
      </trkpt>
      <trkpt lat="43.77821" lon="7.25625">
        <ele>587</ele>
        <time>2015-03-01T08:34:16Z</time>
      </trkpt>
      <trkpt lat="43.77819" lon="7.25627">
        <ele>587</ele>
        <time>2015-03-01T08:34:19Z</time>
      </trkpt>
      <trkpt lat="43.77816" lon="7.25629">
        <ele>588</ele>
        <time>2015-03-01T08:34:22Z</time>
      </trkpt>
      <trkpt lat="43.77814" lon="7.25629">
        <ele>588</ele>
        <time>2015-03-01T08:34:25Z</time>
      </trkpt>
      <trkpt lat="43.77813" lon="7.25626">
        <ele>589</ele>
        <time>2015-03-01T08:34:28Z</time>
      </trkpt>
      <trkpt lat="43.77812" lon="7.25623">
        <ele>589</ele>
        <time>2015-03-01T08:34:31Z</time>
      </trkpt>
      <trkpt lat="43.77811" lon="7.2562">
        <ele>590</ele>
        <time>2015-03-01T08:34:34Z</time>
      </trkpt>
      <trkpt lat="43.77809" lon="7.25617">
        <ele>590</ele>
        <time>2015-03-01T08:34:37Z</time>
      </trkpt>
      <trkpt lat="43.77807" lon="7.25615">
        <ele>591</ele>
        <time>2015-03-01T08:34:40Z</time>
      </trkpt>
      <trkpt lat="43.77806" lon="7.25612">
        <ele>591</ele>
        <time>2015-03-01T08:34:43Z</time>
      </trkpt>
      <trkpt lat="43.77806" lon="7.25609">
        <ele>591</ele>
        <time>2015-03-01T08:34:46Z</time>
      </trkpt>
      <trkpt lat="43.77806" lon="7.25606">
        <ele>592</ele>
        <time>2015-03-01T08:34:49Z</time>
      </trkpt>
      <trkpt lat="43.77806" lon="7.25604">
        <ele>593</ele>
        <time>2015-03-01T08:34:52Z</time>
      </trkpt>
      <trkpt lat="43.77804" lon="7.25605">
        <ele>593</ele>
        <time>2015-03-01T08:34:55Z</time>
      </trkpt>
      <trkpt lat="43.77802" lon="7.25608">
        <ele>594</ele>
        <time>2015-03-01T08:34:58Z</time>
      </trkpt>
      <trkpt lat="43.77801" lon="7.25609">
        <ele>594</ele>
        <time>2015-03-01T08:35:01Z</time>
      </trkpt>
      <trkpt lat="43.77801" lon="7.2561">
        <ele>595</ele>
        <time>2015-03-01T08:35:04Z</time>
      </trkpt>
      <trkpt lat="43.77798" lon="7.25612">
        <ele>595</ele>
        <time>2015-03-01T08:35:07Z</time>
      </trkpt>
      <trkpt lat="43.77797" lon="7.25613">
        <ele>596</ele>
        <time>2015-03-01T08:35:10Z</time>
      </trkpt>
      <trkpt lat="43.77795" lon="7.25614">
        <ele>596</ele>
        <time>2015-03-01T08:35:13Z</time>
      </trkpt>
      <trkpt lat="43.77793" lon="7.25616">
        <ele>597</ele>
        <time>2015-03-01T08:35:16Z</time>
      </trkpt>
      <trkpt lat="43.77793" lon="7.25617">
        <ele>597</ele>
        <time>2015-03-01T08:35:19Z</time>
      </trkpt>
      <trkpt lat="43.77791" lon="7.25619">
        <ele>598</ele>
        <time>2015-03-01T08:35:22Z</time>
      </trkpt>
      <trkpt lat="43.77789" lon="7.25622">
        <ele>598</ele>
        <time>2015-03-01T08:35:25Z</time>
      </trkpt>
      <trkpt lat="43.77788" lon="7.25625">
        <ele>599</ele>
        <time>2015-03-01T08:35:28Z</time>
      </trkpt>
      <trkpt lat="43.77787" lon="7.25628">
        <ele>599</ele>
        <time>2015-03-01T08:35:31Z</time>
      </trkpt>
      <trkpt lat="43.77786" lon="7.2563">
        <ele>599</ele>
        <time>2015-03-01T08:35:34Z</time>
      </trkpt>
      <trkpt lat="43.77784" lon="7.25628">
        <ele>600</ele>
        <time>2015-03-01T08:35:37Z</time>
      </trkpt>
      <trkpt lat="43.77784" lon="7.25626">
        <ele>600</ele>
        <time>2015-03-01T08:35:40Z</time>
      </trkpt>
      <trkpt lat="43.77784" lon="7.25624">
        <ele>601</ele>
        <time>2015-03-01T08:35:43Z</time>
      </trkpt>
      <trkpt lat="43.77784" lon="7.25623">
        <ele>602</ele>
        <time>2015-03-01T08:35:46Z</time>
      </trkpt>
      <trkpt lat="43.77783" lon="7.25623">
        <ele>602</ele>
        <time>2015-03-01T08:35:49Z</time>
      </trkpt>
      <trkpt lat="43.77781" lon="7.25625">
        <ele>603</ele>
        <time>2015-03-01T08:35:52Z</time>
      </trkpt>
      <trkpt lat="43.7778" lon="7.25627">
        <ele>603</ele>
        <time>2015-03-01T08:35:55Z</time>
      </trkpt>
      <trkpt lat="43.77778" lon="7.25628">
        <ele>604</ele>
        <time>2015-03-01T08:35:58Z</time>
      </trkpt>
      <trkpt lat="43.77777" lon="7.25629">
        <ele>604</ele>
        <time>2015-03-01T08:36:01Z</time>
      </trkpt>
      <trkpt lat="43.77776" lon="7.25632">
        <ele>605</ele>
        <time>2015-03-01T08:36:04Z</time>
      </trkpt>
      <trkpt lat="43.77775" lon="7.25634">
        <ele>605</ele>
        <time>2015-03-01T08:36:07Z</time>
      </trkpt>
      <trkpt lat="43.77774" lon="7.25635">
        <ele>606</ele>
        <time>2015-03-01T08:36:10Z</time>
      </trkpt>
      <trkpt lat="43.77773" lon="7.25635">
        <ele>606</ele>
        <time>2015-03-01T08:36:13Z</time>
      </trkpt>
      <trkpt lat="43.7777" lon="7.25636">
        <ele>607</ele>
        <time>2015-03-01T08:36:16Z</time>
      </trkpt>
      <trkpt lat="43.77768" lon="7.25636">
        <ele>608</ele>
        <time>2015-03-01T08:36:19Z</time>
      </trkpt>
      <trkpt lat="43.77766" lon="7.25638">
        <ele>608</ele>
        <time>2015-03-01T08:36:22Z</time>
      </trkpt>
      <trkpt lat="43.77765" lon="7.2564">
        <ele>609</ele>
        <time>2015-03-01T08:36:25Z</time>
      </trkpt>
      <trkpt lat="43.77764" lon="7.25642">
        <ele>609</ele>
        <time>2015-03-01T08:36:28Z</time>
      </trkpt>
      <trkpt lat="43.77763" lon="7.25644">
        <ele>610</ele>
        <time>2015-03-01T08:36:31Z</time>
      </trkpt>
      <trkpt lat="43.77761" lon="7.25645">
        <ele>611</ele>
        <time>2015-03-01T08:36:34Z</time>
      </trkpt>
      <trkpt lat="43.7776" lon="7.25647">
        <ele>611</ele>
        <time>2015-03-01T08:36:37Z</time>
      </trkpt>
      <trkpt lat="43.77759" lon="7.2565">
        <ele>612</ele>
        <time>2015-03-01T08:36:40Z</time>
      </trkpt>
      <trkpt lat="43.77758" lon="7.25652">
        <ele>612</ele>
        <time>2015-03-01T08:36:43Z</time>
      </trkpt>
      <trkpt lat="43.77757" lon="7.25653">
        <ele>613</ele>
        <time>2015-03-01T08:36:46Z</time>
      </trkpt>
      <trkpt lat="43.77755" lon="7.25654">
        <ele>613</ele>
        <time>2015-03-01T08:36:49Z</time>
      </trkpt>
      <trkpt lat="43.77754" lon="7.25655">
        <ele>614</ele>
        <time>2015-03-01T08:36:52Z</time>
      </trkpt>
      <trkpt lat="43.77753" lon="7.25656">
        <ele>615</ele>
        <time>2015-03-01T08:36:55Z</time>
      </trkpt>
      <trkpt lat="43.77751" lon="7.25658">
        <ele>615</ele>
        <time>2015-03-01T08:36:58Z</time>
      </trkpt>
      <trkpt lat="43.7775" lon="7.2566">
        <ele>615</ele>
        <time>2015-03-01T08:37:01Z</time>
      </trkpt>
      <trkpt lat="43.77748" lon="7.25662">
        <ele>616</ele>
        <time>2015-03-01T08:37:04Z</time>
      </trkpt>
      <trkpt lat="43.77747" lon="7.25665">
        <ele>617</ele>
        <time>2015-03-01T08:37:07Z</time>
      </trkpt>
      <trkpt lat="43.77746" lon="7.25667">
        <ele>617</ele>
        <time>2015-03-01T08:37:10Z</time>
      </trkpt>
      <trkpt lat="43.77744" lon="7.25668">
        <ele>618</ele>
        <time>2015-03-01T08:37:13Z</time>
      </trkpt>
      <trkpt lat="43.77744" lon="7.25671">
        <ele>618</ele>
        <time>2015-03-01T08:37:16Z</time>
      </trkpt>
      <trkpt lat="43.77742" lon="7.25674">
        <ele>619</ele>
        <time>2015-03-01T08:37:19Z</time>
      </trkpt>
      <trkpt lat="43.77741" lon="7.25677">
        <ele>619</ele>
        <time>2015-03-01T08:37:22Z</time>
      </trkpt>
      <trkpt lat="43.7774" lon="7.25679">
        <ele>619</ele>
        <time>2015-03-01T08:37:25Z</time>
      </trkpt>
      <trkpt lat="43.77738" lon="7.25682">
        <ele>620</ele>
        <time>2015-03-01T08:37:28Z</time>
      </trkpt>
      <trkpt lat="43.77737" lon="7.25686">
        <ele>620</ele>
        <time>2015-03-01T08:37:31Z</time>
      </trkpt>
      <trkpt lat="43.77736" lon="7.25688">
        <ele>621</ele>
        <time>2015-03-01T08:37:34Z</time>
      </trkpt>
      <trkpt lat="43.77735" lon="7.25691">
        <ele>621</ele>
        <time>2015-03-01T08:37:37Z</time>
      </trkpt>
      <trkpt lat="43.77734" lon="7.25693">
        <ele>621</ele>
        <time>2015-03-01T08:37:40Z</time>
      </trkpt>
      <trkpt lat="43.77733" lon="7.25695">
        <ele>622</ele>
        <time>2015-03-01T08:37:43Z</time>
      </trkpt>
      <trkpt lat="43.77732" lon="7.25698">
        <ele>623</ele>
        <time>2015-03-01T08:37:46Z</time>
      </trkpt>
      <trkpt lat="43.77731" lon="7.257">
        <ele>623</ele>
        <time>2015-03-01T08:37:49Z</time>
      </trkpt>
      <trkpt lat="43.77731" lon="7.25702">
        <ele>623</ele>
        <time>2015-03-01T08:37:52Z</time>
      </trkpt>
      <trkpt lat="43.77729" lon="7.25705">
        <ele>624</ele>
        <time>2015-03-01T08:37:55Z</time>
      </trkpt>
      <trkpt lat="43.77729" lon="7.25708">
        <ele>624</ele>
        <time>2015-03-01T08:37:58Z</time>
      </trkpt>
      <trkpt lat="43.77728" lon="7.25712">
        <ele>624</ele>
        <time>2015-03-01T08:38:01Z</time>
      </trkpt>
      <trkpt lat="43.77728" lon="7.25716">
        <ele>625</ele>
        <time>2015-03-01T08:38:04Z</time>
      </trkpt>
      <trkpt lat="43.77728" lon="7.2572">
        <ele>626</ele>
        <time>2015-03-01T08:38:07Z</time>
      </trkpt>
      <trkpt lat="43.77727" lon="7.25723">
        <ele>626</ele>
        <time>2015-03-01T08:38:10Z</time>
      </trkpt>
      <trkpt lat="43.77726" lon="7.25726">
        <ele>626</ele>
        <time>2015-03-01T08:38:13Z</time>
      </trkpt>
      <trkpt lat="43.77726" lon="7.25729">
        <ele>627</ele>
        <time>2015-03-01T08:38:16Z</time>
      </trkpt>
      <trkpt lat="43.77725" lon="7.25732">
        <ele>627</ele>
        <time>2015-03-01T08:38:19Z</time>
      </trkpt>
      <trkpt lat="43.77724" lon="7.25736">
        <ele>628</ele>
        <time>2015-03-01T08:38:22Z</time>
      </trkpt>
      <trkpt lat="43.77724" lon="7.25739">
        <ele>628</ele>
        <time>2015-03-01T08:38:25Z</time>
      </trkpt>
      <trkpt lat="43.77723" lon="7.25742">
        <ele>628</ele>
        <time>2015-03-01T08:38:28Z</time>
      </trkpt>
      <trkpt lat="43.77723" lon="7.25745">
        <ele>629</ele>
        <time>2015-03-01T08:38:31Z</time>
      </trkpt>
      <trkpt lat="43.77723" lon="7.25749">
        <ele>629</ele>
        <time>2015-03-01T08:38:34Z</time>
      </trkpt>
      <trkpt lat="43.77723" lon="7.25753">
        <ele>630</ele>
        <time>2015-03-01T08:38:37Z</time>
      </trkpt>
      <trkpt lat="43.77724" lon="7.25756">
        <ele>630</ele>
        <time>2015-03-01T08:38:40Z</time>
      </trkpt>
      <trkpt lat="43.77723" lon="7.25758">
        <ele>630</ele>
        <time>2015-03-01T08:38:43Z</time>
      </trkpt>
      <trkpt lat="43.77724" lon="7.2576">
        <ele>630</ele>
        <time>2015-03-01T08:38:46Z</time>
      </trkpt>
      <trkpt lat="43.77725" lon="7.25766">
        <ele>630</ele>
        <time>2015-03-01T08:38:49Z</time>
      </trkpt>
      <trkpt lat="43.77723" lon="7.25771">
        <ele>631</ele>
        <time>2015-03-01T08:38:52Z</time>
      </trkpt>
      <trkpt lat="43.77723" lon="7.25777">
        <ele>632</ele>
        <time>2015-03-01T08:38:55Z</time>
      </trkpt>
      <trkpt lat="43.77721" lon="7.25782">
        <ele>632</ele>
        <time>2015-03-01T08:38:58Z</time>
      </trkpt>
      <trkpt lat="43.7772" lon="7.25787">
        <ele>633</ele>
        <time>2015-03-01T08:39:01Z</time>
      </trkpt>
      <trkpt lat="43.77718" lon="7.25791">
        <ele>633</ele>
        <time>2015-03-01T08:39:04Z</time>
      </trkpt>
      <trkpt lat="43.77715" lon="7.25795">
        <ele>634</ele>
        <time>2015-03-01T08:39:07Z</time>
      </trkpt>
      <trkpt lat="43.77713" lon="7.25799">
        <ele>635</ele>
        <time>2015-03-01T08:39:10Z</time>
      </trkpt>
      <trkpt lat="43.77712" lon="7.25804">
        <ele>635</ele>
        <time>2015-03-01T08:39:13Z</time>
      </trkpt>
      <trkpt lat="43.7771" lon="7.25808">
        <ele>636</ele>
        <time>2015-03-01T08:39:16Z</time>
      </trkpt>
      <trkpt lat="43.77709" lon="7.25813">
        <ele>636</ele>
        <time>2015-03-01T08:39:19Z</time>
      </trkpt>
      <trkpt lat="43.77707" lon="7.25818">
        <ele>637</ele>
        <time>2015-03-01T08:39:22Z</time>
      </trkpt>
      <trkpt lat="43.77704" lon="7.25821">
        <ele>637</ele>
        <time>2015-03-01T08:39:25Z</time>
      </trkpt>
      <trkpt lat="43.77701" lon="7.25824">
        <ele>637</ele>
        <time>2015-03-01T08:39:28Z</time>
      </trkpt>
      <trkpt lat="43.77698" lon="7.25827">
        <ele>638</ele>
        <time>2015-03-01T08:39:31Z</time>
      </trkpt>
      <trkpt lat="43.77696" lon="7.2583">
        <ele>638</ele>
        <time>2015-03-01T08:39:34Z</time>
      </trkpt>
      <trkpt lat="43.77693" lon="7.25834">
        <ele>638</ele>
        <time>2015-03-01T08:39:37Z</time>
      </trkpt>
      <trkpt lat="43.7769" lon="7.25837">
        <ele>639</ele>
        <time>2015-03-01T08:39:40Z</time>
      </trkpt>
      <trkpt lat="43.77688" lon="7.2584">
        <ele>639</ele>
        <time>2015-03-01T08:39:43Z</time>
      </trkpt>
      <trkpt lat="43.77686" lon="7.25844">
        <ele>640</ele>
        <time>2015-03-01T08:39:46Z</time>
      </trkpt>
      <trkpt lat="43.77683" lon="7.25847">
        <ele>640</ele>
        <time>2015-03-01T08:39:49Z</time>
      </trkpt>
      <trkpt lat="43.77681" lon="7.2585">
        <ele>641</ele>
        <time>2015-03-01T08:39:52Z</time>
      </trkpt>
      <trkpt lat="43.77678" lon="7.25854">
        <ele>641</ele>
        <time>2015-03-01T08:39:55Z</time>
      </trkpt>
      <trkpt lat="43.77675" lon="7.25857">
        <ele>642</ele>
        <time>2015-03-01T08:39:58Z</time>
      </trkpt>
      <trkpt lat="43.77673" lon="7.2586">
        <ele>642</ele>
        <time>2015-03-01T08:40:01Z</time>
      </trkpt>
      <trkpt lat="43.77671" lon="7.25863">
        <ele>643</ele>
        <time>2015-03-01T08:40:04Z</time>
      </trkpt>
      <trkpt lat="43.77669" lon="7.25867">
        <ele>643</ele>
        <time>2015-03-01T08:40:07Z</time>
      </trkpt>
      <trkpt lat="43.77667" lon="7.2587">
        <ele>644</ele>
        <time>2015-03-01T08:40:10Z</time>
      </trkpt>
      <trkpt lat="43.77664" lon="7.25872">
        <ele>645</ele>
        <time>2015-03-01T08:40:13Z</time>
      </trkpt>
      <trkpt lat="43.7766" lon="7.25875">
        <ele>645</ele>
        <time>2015-03-01T08:40:16Z</time>
      </trkpt>
      <trkpt lat="43.77658" lon="7.2588">
        <ele>646</ele>
        <time>2015-03-01T08:40:19Z</time>
      </trkpt>
      <trkpt lat="43.77656" lon="7.25884">
        <ele>646</ele>
        <time>2015-03-01T08:40:22Z</time>
      </trkpt>
      <trkpt lat="43.77653" lon="7.25887">
        <ele>647</ele>
        <time>2015-03-01T08:40:25Z</time>
      </trkpt>
      <trkpt lat="43.7765" lon="7.2589">
        <ele>648</ele>
        <time>2015-03-01T08:40:28Z</time>
      </trkpt>
      <trkpt lat="43.77648" lon="7.25894">
        <ele>648</ele>
        <time>2015-03-01T08:40:31Z</time>
      </trkpt>
      <trkpt lat="43.77646" lon="7.25897">
        <ele>649</ele>
        <time>2015-03-01T08:40:34Z</time>
      </trkpt>
      <trkpt lat="43.77643" lon="7.259">
        <ele>649</ele>
        <time>2015-03-01T08:40:37Z</time>
      </trkpt>
      <trkpt lat="43.77642" lon="7.25905">
        <ele>650</ele>
        <time>2015-03-01T08:40:40Z</time>
      </trkpt>
      <trkpt lat="43.77641" lon="7.25908">
        <ele>651</ele>
        <time>2015-03-01T08:40:43Z</time>
      </trkpt>
      <trkpt lat="43.77639" lon="7.25911">
        <ele>651</ele>
        <time>2015-03-01T08:40:46Z</time>
      </trkpt>
      <trkpt lat="43.77637" lon="7.25913">
        <ele>652</ele>
        <time>2015-03-01T08:40:49Z</time>
      </trkpt>
      <trkpt lat="43.77635" lon="7.25917">
        <ele>652</ele>
        <time>2015-03-01T08:40:52Z</time>
      </trkpt>
      <trkpt lat="43.77633" lon="7.2592">
        <ele>653</ele>
        <time>2015-03-01T08:40:55Z</time>
      </trkpt>
      <trkpt lat="43.77632" lon="7.25923">
        <ele>654</ele>
        <time>2015-03-01T08:40:58Z</time>
      </trkpt>
      <trkpt lat="43.77629" lon="7.25926">
        <ele>654</ele>
        <time>2015-03-01T08:41:01Z</time>
      </trkpt>
      <trkpt lat="43.77627" lon="7.25929">
        <ele>655</ele>
        <time>2015-03-01T08:41:04Z</time>
      </trkpt>
      <trkpt lat="43.77624" lon="7.25933">
        <ele>655</ele>
        <time>2015-03-01T08:41:07Z</time>
      </trkpt>
      <trkpt lat="43.77621" lon="7.25936">
        <ele>656</ele>
        <time>2015-03-01T08:41:10Z</time>
      </trkpt>
      <trkpt lat="43.77619" lon="7.25938">
        <ele>656</ele>
        <time>2015-03-01T08:41:13Z</time>
      </trkpt>
      <trkpt lat="43.77616" lon="7.2594">
        <ele>657</ele>
        <time>2015-03-01T08:41:16Z</time>
      </trkpt>
      <trkpt lat="43.77613" lon="7.25943">
        <ele>657</ele>
        <time>2015-03-01T08:41:19Z</time>
      </trkpt>
      <trkpt lat="43.77612" lon="7.25945">
        <ele>658</ele>
        <time>2015-03-01T08:41:22Z</time>
      </trkpt>
      <trkpt lat="43.7761" lon="7.25948">
        <ele>658</ele>
        <time>2015-03-01T08:41:25Z</time>
      </trkpt>
      <trkpt lat="43.77608" lon="7.25952">
        <ele>659</ele>
        <time>2015-03-01T08:41:28Z</time>
      </trkpt>
      <trkpt lat="43.77606" lon="7.25955">
        <ele>659</ele>
        <time>2015-03-01T08:41:31Z</time>
      </trkpt>
      <trkpt lat="43.77604" lon="7.25957">
        <ele>660</ele>
        <time>2015-03-01T08:41:34Z</time>
      </trkpt>
      <trkpt lat="43.77602" lon="7.2596">
        <ele>661</ele>
        <time>2015-03-01T08:41:37Z</time>
      </trkpt>
      <trkpt lat="43.77599" lon="7.25963">
        <ele>661</ele>
        <time>2015-03-01T08:41:40Z</time>
      </trkpt>
      <trkpt lat="43.77596" lon="7.25965">
        <ele>662</ele>
        <time>2015-03-01T08:41:43Z</time>
      </trkpt>
      <trkpt lat="43.77593" lon="7.25967">
        <ele>663</ele>
        <time>2015-03-01T08:41:46Z</time>
      </trkpt>
      <trkpt lat="43.7759" lon="7.2597">
        <ele>663</ele>
        <time>2015-03-01T08:41:49Z</time>
      </trkpt>
      <trkpt lat="43.77588" lon="7.25973">
        <ele>664</ele>
        <time>2015-03-01T08:41:52Z</time>
      </trkpt>
      <trkpt lat="43.77585" lon="7.25975">
        <ele>664</ele>
        <time>2015-03-01T08:41:55Z</time>
      </trkpt>
      <trkpt lat="43.77582" lon="7.25977">
        <ele>665</ele>
        <time>2015-03-01T08:41:58Z</time>
      </trkpt>
      <trkpt lat="43.7758" lon="7.25981">
        <ele>665</ele>
        <time>2015-03-01T08:42:01Z</time>
      </trkpt>
      <trkpt lat="43.77578" lon="7.25985">
        <ele>666</ele>
        <time>2015-03-01T08:42:04Z</time>
      </trkpt>
      <trkpt lat="43.77575" lon="7.25989">
        <ele>667</ele>
        <time>2015-03-01T08:42:07Z</time>
      </trkpt>
      <trkpt lat="43.77572" lon="7.25992">
        <ele>667</ele>
        <time>2015-03-01T08:42:10Z</time>
      </trkpt>
      <trkpt lat="43.77568" lon="7.25994">
        <ele>667</ele>
        <time>2015-03-01T08:42:13Z</time>
      </trkpt>
      <trkpt lat="43.77565" lon="7.25997">
        <ele>667</ele>
        <time>2015-03-01T08:42:16Z</time>
      </trkpt>
      <trkpt lat="43.7756" lon="7.26">
        <ele>667</ele>
        <time>2015-03-01T08:42:19Z</time>
      </trkpt>
      <trkpt lat="43.77556" lon="7.26002">
        <ele>668</ele>
        <time>2015-03-01T08:42:22Z</time>
      </trkpt>
      <trkpt lat="43.77553" lon="7.26005">
        <ele>668</ele>
        <time>2015-03-01T08:42:25Z</time>
      </trkpt>
      <trkpt lat="43.77549" lon="7.26009">
        <ele>668</ele>
        <time>2015-03-01T08:42:28Z</time>
      </trkpt>
      <trkpt lat="43.77544" lon="7.26011">
        <ele>669</ele>
        <time>2015-03-01T08:42:31Z</time>
      </trkpt>
      <trkpt lat="43.77541" lon="7.26014">
        <ele>670</ele>
        <time>2015-03-01T08:42:34Z</time>
      </trkpt>
      <trkpt lat="43.77538" lon="7.26016">
        <ele>670</ele>
        <time>2015-03-01T08:42:37Z</time>
      </trkpt>
      <trkpt lat="43.77535" lon="7.2602">
        <ele>671</ele>
        <time>2015-03-01T08:42:40Z</time>
      </trkpt>
      <trkpt lat="43.77533" lon="7.26024">
        <ele>671</ele>
        <time>2015-03-01T08:42:43Z</time>
      </trkpt>
      <trkpt lat="43.7753" lon="7.26027">
        <ele>672</ele>
        <time>2015-03-01T08:42:46Z</time>
      </trkpt>
      <trkpt lat="43.77526" lon="7.2603">
        <ele>672</ele>
        <time>2015-03-01T08:42:49Z</time>
      </trkpt>
      <trkpt lat="43.77522" lon="7.26034">
        <ele>672</ele>
        <time>2015-03-01T08:42:52Z</time>
      </trkpt>
      <trkpt lat="43.77518" lon="7.26037">
        <ele>672</ele>
        <time>2015-03-01T08:42:55Z</time>
      </trkpt>
      <trkpt lat="43.77517" lon="7.26043">
        <ele>673</ele>
        <time>2015-03-01T08:42:58Z</time>
      </trkpt>
      <trkpt lat="43.77516" lon="7.26049">
        <ele>673</ele>
        <time>2015-03-01T08:43:01Z</time>
      </trkpt>
      <trkpt lat="43.77517" lon="7.26055">
        <ele>673</ele>
        <time>2015-03-01T08:43:04Z</time>
      </trkpt>
      <trkpt lat="43.77516" lon="7.26061">
        <ele>673</ele>
        <time>2015-03-01T08:43:07Z</time>
      </trkpt>
      <trkpt lat="43.77514" lon="7.26068">
        <ele>673</ele>
        <time>2015-03-01T08:43:10Z</time>
      </trkpt>
      <trkpt lat="43.77511" lon="7.26081">
        <ele>672</ele>
        <time>2015-03-01T08:43:13Z</time>
      </trkpt>
      <trkpt lat="43.77501" lon="7.26093">
        <ele>671</ele>
        <time>2015-03-01T08:43:16Z</time>
      </trkpt>
      <trkpt lat="43.77494" lon="7.26106">
        <ele>670</ele>
        <time>2015-03-01T08:43:19Z</time>
      </trkpt>
      <trkpt lat="43.77484" lon="7.26114">
        <ele>669</ele>
        <time>2015-03-01T08:43:22Z</time>
      </trkpt>
      <trkpt lat="43.77475" lon="7.26121">
        <ele>669</ele>
        <time>2015-03-01T08:43:25Z</time>
      </trkpt>
      <trkpt lat="43.77467" lon="7.26129">
        <ele>669</ele>
        <time>2015-03-01T08:43:28Z</time>
      </trkpt>
      <trkpt lat="43.7746" lon="7.26138">
        <ele>668</ele>
        <time>2015-03-01T08:43:31Z</time>
      </trkpt>
      <trkpt lat="43.77455" lon="7.26148">
        <ele>667</ele>
        <time>2015-03-01T08:43:34Z</time>
      </trkpt>
      <trkpt lat="43.77448" lon="7.26157">
        <ele>668</ele>
        <time>2015-03-01T08:43:37Z</time>
      </trkpt>
      <trkpt lat="43.7744" lon="7.26165">
        <ele>667</ele>
        <time>2015-03-01T08:43:40Z</time>
      </trkpt>
      <trkpt lat="43.77433" lon="7.2617">
        <ele>668</ele>
        <time>2015-03-01T08:43:43Z</time>
      </trkpt>
      <trkpt lat="43.77427" lon="7.26172">
        <ele>668</ele>
        <time>2015-03-01T08:43:46Z</time>
      </trkpt>
      <trkpt lat="43.7742" lon="7.26178">
        <ele>668</ele>
        <time>2015-03-01T08:43:49Z</time>
      </trkpt>
      <trkpt lat="43.77414" lon="7.26183">
        <ele>669</ele>
        <time>2015-03-01T08:43:52Z</time>
      </trkpt>
      <trkpt lat="43.77409" lon="7.26189">
        <ele>668</ele>
        <time>2015-03-01T08:43:55Z</time>
      </trkpt>
      <trkpt lat="43.77403" lon="7.26194">
        <ele>669</ele>
        <time>2015-03-01T08:43:58Z</time>
      </trkpt>
      <trkpt lat="43.77399" lon="7.26201">
        <ele>669</ele>
        <time>2015-03-01T08:44:01Z</time>
      </trkpt>
      <trkpt lat="43.77394" lon="7.26208">
        <ele>669</ele>
        <time>2015-03-01T08:44:04Z</time>
      </trkpt>
      <trkpt lat="43.77389" lon="7.26213">
        <ele>669</ele>
        <time>2015-03-01T08:44:07Z</time>
      </trkpt>
      <trkpt lat="43.77383" lon="7.26217">
        <ele>669</ele>
        <time>2015-03-01T08:44:10Z</time>
      </trkpt>
      <trkpt lat="43.77379" lon="7.26225">
        <ele>669</ele>
        <time>2015-03-01T08:44:13Z</time>
      </trkpt>
      <trkpt lat="43.77375" lon="7.26231">
        <ele>669</ele>
        <time>2015-03-01T08:44:16Z</time>
      </trkpt>
      <trkpt lat="43.77367" lon="7.26233">
        <ele>669</ele>
        <time>2015-03-01T08:44:19Z</time>
      </trkpt>
      <trkpt lat="43.77359" lon="7.2624">
        <ele>668</ele>
        <time>2015-03-01T08:44:22Z</time>
      </trkpt>
      <trkpt lat="43.77348" lon="7.26248">
        <ele>667</ele>
        <time>2015-03-01T08:44:25Z</time>
      </trkpt>
      <trkpt lat="43.77337" lon="7.26256">
        <ele>666</ele>
        <time>2015-03-01T08:44:28Z</time>
      </trkpt>
      <trkpt lat="43.77325" lon="7.26261">
        <ele>666</ele>
        <time>2015-03-01T08:44:31Z</time>
      </trkpt>
      <trkpt lat="43.77314" lon="7.26267">
        <ele>666</ele>
        <time>2015-03-01T08:44:34Z</time>
      </trkpt>
      <trkpt lat="43.77304" lon="7.26275">
        <ele>666</ele>
        <time>2015-03-01T08:44:37Z</time>
      </trkpt>
      <trkpt lat="43.77293" lon="7.26282">
        <ele>666</ele>
        <time>2015-03-01T08:44:40Z</time>
      </trkpt>
      <trkpt lat="43.77282" lon="7.26287">
        <ele>666</ele>
        <time>2015-03-01T08:44:43Z</time>
      </trkpt>
      <trkpt lat="43.77269" lon="7.26289">
        <ele>666</ele>
        <time>2015-03-01T08:44:46Z</time>
      </trkpt>
      <trkpt lat="43.77255" lon="7.26291">
        <ele>666</ele>
        <time>2015-03-01T08:44:49Z</time>
      </trkpt>
      <trkpt lat="43.7724" lon="7.26292">
        <ele>665</ele>
        <time>2015-03-01T08:44:52Z</time>
      </trkpt>
      <trkpt lat="43.77228" lon="7.26293">
        <ele>665</ele>
        <time>2015-03-01T08:44:55Z</time>
      </trkpt>
      <trkpt lat="43.77216" lon="7.26294">
        <ele>665</ele>
        <time>2015-03-01T08:44:58Z</time>
      </trkpt>
      <trkpt lat="43.77204" lon="7.26291">
        <ele>664</ele>
        <time>2015-03-01T08:45:01Z</time>
      </trkpt>
      <trkpt lat="43.77198" lon="7.26276">
        <ele>664</ele>
        <time>2015-03-01T08:45:04Z</time>
      </trkpt>
      <trkpt lat="43.77195" lon="7.26258">
        <ele>664</ele>
        <time>2015-03-01T08:45:07Z</time>
      </trkpt>
      <trkpt lat="43.77195" lon="7.26238">
        <ele>663</ele>
        <time>2015-03-01T08:45:10Z</time>
      </trkpt>
      <trkpt lat="43.77198" lon="7.26215">
        <ele>662</ele>
        <time>2015-03-01T08:45:13Z</time>
      </trkpt>
      <trkpt lat="43.77201" lon="7.26188">
        <ele>660</ele>
        <time>2015-03-01T08:45:16Z</time>
      </trkpt>
      <trkpt lat="43.77205" lon="7.26159">
        <ele>657</ele>
        <time>2015-03-01T08:45:19Z</time>
      </trkpt>
      <trkpt lat="43.77208" lon="7.26127">
        <ele>655</ele>
        <time>2015-03-01T08:45:22Z</time>
      </trkpt>
      <trkpt lat="43.77213" lon="7.26093">
        <ele>654</ele>
        <time>2015-03-01T08:45:25Z</time>
      </trkpt>
      <trkpt lat="43.77219" lon="7.26059">
        <ele>651</ele>
        <time>2015-03-01T08:45:28Z</time>
      </trkpt>
      <trkpt lat="43.7723" lon="7.26031">
        <ele>651</ele>
        <time>2015-03-01T08:45:31Z</time>
      </trkpt>
      <trkpt lat="43.77239" lon="7.26015">
        <ele>653</ele>
        <time>2015-03-01T08:45:34Z</time>
      </trkpt>
      <trkpt lat="43.77244" lon="7.26004">
        <ele>655</ele>
        <time>2015-03-01T08:45:37Z</time>
      </trkpt>
      <trkpt lat="43.77247" lon="7.25996">
        <ele>656</ele>
        <time>2015-03-01T08:45:40Z</time>
      </trkpt>
      <trkpt lat="43.77248" lon="7.25987">
        <ele>656</ele>
        <time>2015-03-01T08:45:43Z</time>
      </trkpt>
      <trkpt lat="43.77247" lon="7.25979">
        <ele>657</ele>
        <time>2015-03-01T08:45:46Z</time>
      </trkpt>
      <trkpt lat="43.77244" lon="7.25971">
        <ele>657</ele>
        <time>2015-03-01T08:45:49Z</time>
      </trkpt>
      <trkpt lat="43.7724" lon="7.25963">
        <ele>657</ele>
        <time>2015-03-01T08:45:52Z</time>
      </trkpt>
      <trkpt lat="43.77236" lon="7.25957">
        <ele>658</ele>
        <time>2015-03-01T08:45:55Z</time>
      </trkpt>
      <trkpt lat="43.77229" lon="7.25954">
        <ele>658</ele>
        <time>2015-03-01T08:45:58Z</time>
      </trkpt>
      <trkpt lat="43.77225" lon="7.25952">
        <ele>658</ele>
        <time>2015-03-01T08:46:01Z</time>
      </trkpt>
      <trkpt lat="43.77219" lon="7.25948">
        <ele>658</ele>
        <time>2015-03-01T08:46:04Z</time>
      </trkpt>
      <trkpt lat="43.77212" lon="7.25945">
        <ele>658</ele>
        <time>2015-03-01T08:46:07Z</time>
      </trkpt>
      <trkpt lat="43.77205" lon="7.25942">
        <ele>659</ele>
        <time>2015-03-01T08:46:10Z</time>
      </trkpt>
      <trkpt lat="43.77199" lon="7.25937">
        <ele>659</ele>
        <time>2015-03-01T08:46:13Z</time>
      </trkpt>
      <trkpt lat="43.77193" lon="7.25933">
        <ele>659</ele>
        <time>2015-03-01T08:46:16Z</time>
      </trkpt>
      <trkpt lat="43.77187" lon="7.25928">
        <ele>660</ele>
        <time>2015-03-01T08:46:19Z</time>
      </trkpt>
      <trkpt lat="43.77181" lon="7.25924">
        <ele>660</ele>
        <time>2015-03-01T08:46:22Z</time>
      </trkpt>
      <trkpt lat="43.77175" lon="7.25919">
        <ele>661</ele>
        <time>2015-03-01T08:46:25Z</time>
      </trkpt>
      <trkpt lat="43.77169" lon="7.25915">
        <ele>661</ele>
        <time>2015-03-01T08:46:28Z</time>
      </trkpt>
      <trkpt lat="43.77162" lon="7.25912">
        <ele>662</ele>
        <time>2015-03-01T08:46:31Z</time>
      </trkpt>
      <trkpt lat="43.77155" lon="7.2591">
        <ele>662</ele>
        <time>2015-03-01T08:46:34Z</time>
      </trkpt>
      <trkpt lat="43.77148" lon="7.2591">
        <ele>663</ele>
        <time>2015-03-01T08:46:37Z</time>
      </trkpt>
      <trkpt lat="43.77141" lon="7.2591">
        <ele>663</ele>
        <time>2015-03-01T08:46:40Z</time>
      </trkpt>
      <trkpt lat="43.77135" lon="7.2591">
        <ele>664</ele>
        <time>2015-03-01T08:46:43Z</time>
      </trkpt>
      <trkpt lat="43.77127" lon="7.25911">
        <ele>664</ele>
        <time>2015-03-01T08:46:46Z</time>
      </trkpt>
      <trkpt lat="43.7712" lon="7.25912">
        <ele>665</ele>
        <time>2015-03-01T08:46:49Z</time>
      </trkpt>
      <trkpt lat="43.77113" lon="7.25914">
        <ele>665</ele>
        <time>2015-03-01T08:46:52Z</time>
      </trkpt>
      <trkpt lat="43.77107" lon="7.25915">
        <ele>665</ele>
        <time>2015-03-01T08:46:55Z</time>
      </trkpt>
      <trkpt lat="43.771" lon="7.25917">
        <ele>666</ele>
        <time>2015-03-01T08:46:58Z</time>
      </trkpt>
      <trkpt lat="43.77093" lon="7.25917">
        <ele>667</ele>
        <time>2015-03-01T08:47:01Z</time>
      </trkpt>
      <trkpt lat="43.77086" lon="7.25918">
        <ele>667</ele>
        <time>2015-03-01T08:47:04Z</time>
      </trkpt>
      <trkpt lat="43.77079" lon="7.25919">
        <ele>667</ele>
        <time>2015-03-01T08:47:07Z</time>
      </trkpt>
      <trkpt lat="43.77072" lon="7.25921">
        <ele>668</ele>
        <time>2015-03-01T08:47:10Z</time>
      </trkpt>
      <trkpt lat="43.77065" lon="7.25922">
        <ele>668</ele>
        <time>2015-03-01T08:47:13Z</time>
      </trkpt>
      <trkpt lat="43.77058" lon="7.25924">
        <ele>669</ele>
        <time>2015-03-01T08:47:16Z</time>
      </trkpt>
      <trkpt lat="43.77051" lon="7.25925">
        <ele>669</ele>
        <time>2015-03-01T08:47:19Z</time>
      </trkpt>
      <trkpt lat="43.77044" lon="7.25926">
        <ele>670</ele>
        <time>2015-03-01T08:47:22Z</time>
      </trkpt>
      <trkpt lat="43.77037" lon="7.25927">
        <ele>670</ele>
        <time>2015-03-01T08:47:25Z</time>
      </trkpt>
      <trkpt lat="43.7703" lon="7.25928">
        <ele>671</ele>
        <time>2015-03-01T08:47:28Z</time>
      </trkpt>
      <trkpt lat="43.77023" lon="7.25928">
        <ele>671</ele>
        <time>2015-03-01T08:47:31Z</time>
      </trkpt>
      <trkpt lat="43.77015" lon="7.25929">
        <ele>672</ele>
        <time>2015-03-01T08:47:34Z</time>
      </trkpt>
      <trkpt lat="43.77008" lon="7.25927">
        <ele>672</ele>
        <time>2015-03-01T08:47:37Z</time>
      </trkpt>
      <trkpt lat="43.77001" lon="7.25924">
        <ele>672</ele>
        <time>2015-03-01T08:47:40Z</time>
      </trkpt>
      <trkpt lat="43.76993" lon="7.25923">
        <ele>673</ele>
        <time>2015-03-01T08:47:43Z</time>
      </trkpt>
      <trkpt lat="43.76986" lon="7.25919">
        <ele>674</ele>
        <time>2015-03-01T08:47:46Z</time>
      </trkpt>
      <trkpt lat="43.7698" lon="7.25913">
        <ele>674</ele>
        <time>2015-03-01T08:47:49Z</time>
      </trkpt>
      <trkpt lat="43.76976" lon="7.25905">
        <ele>675</ele>
        <time>2015-03-01T08:47:52Z</time>
      </trkpt>
      <trkpt lat="43.76974" lon="7.25895">
        <ele>675</ele>
        <time>2015-03-01T08:47:55Z</time>
      </trkpt>
      <trkpt lat="43.76971" lon="7.25886">
        <ele>676</ele>
        <time>2015-03-01T08:47:58Z</time>
      </trkpt>
      <trkpt lat="43.76969" lon="7.25877">
        <ele>676</ele>
        <time>2015-03-01T08:48:01Z</time>
      </trkpt>
      <trkpt lat="43.76967" lon="7.25869">
        <ele>677</ele>
        <time>2015-03-01T08:48:04Z</time>
      </trkpt>
      <trkpt lat="43.76964" lon="7.25862">
        <ele>677</ele>
        <time>2015-03-01T08:48:07Z</time>
      </trkpt>
      <trkpt lat="43.7696" lon="7.25855">
        <ele>678</ele>
        <time>2015-03-01T08:48:10Z</time>
      </trkpt>
      <trkpt lat="43.76956" lon="7.25849">
        <ele>678</ele>
        <time>2015-03-01T08:48:13Z</time>
      </trkpt>
      <trkpt lat="43.76951" lon="7.25844">
        <ele>679</ele>
        <time>2015-03-01T08:48:16Z</time>
      </trkpt>
      <trkpt lat="43.76946" lon="7.25839">
        <ele>679</ele>
        <time>2015-03-01T08:48:19Z</time>
      </trkpt>
      <trkpt lat="43.76941" lon="7.25833">
        <ele>680</ele>
        <time>2015-03-01T08:48:22Z</time>
      </trkpt>
      <trkpt lat="43.76938" lon="7.25827">
        <ele>681</ele>
        <time>2015-03-01T08:48:25Z</time>
      </trkpt>
      <trkpt lat="43.76934" lon="7.25822">
        <ele>681</ele>
        <time>2015-03-01T08:48:28Z</time>
      </trkpt>
      <trkpt lat="43.76931" lon="7.25816">
        <ele>682</ele>
        <time>2015-03-01T08:48:31Z</time>
      </trkpt>
      <trkpt lat="43.76927" lon="7.25809">
        <ele>683</ele>
        <time>2015-03-01T08:48:34Z</time>
      </trkpt>
      <trkpt lat="43.76925" lon="7.25802">
        <ele>683</ele>
        <time>2015-03-01T08:48:37Z</time>
      </trkpt>
      <trkpt lat="43.76923" lon="7.25795">
        <ele>684</ele>
        <time>2015-03-01T08:48:40Z</time>
      </trkpt>
      <trkpt lat="43.7692" lon="7.25789">
        <ele>684</ele>
        <time>2015-03-01T08:48:43Z</time>
      </trkpt>
      <trkpt lat="43.76917" lon="7.25782">
        <ele>685</ele>
        <time>2015-03-01T08:48:46Z</time>
      </trkpt>
      <trkpt lat="43.76914" lon="7.25776">
        <ele>685</ele>
        <time>2015-03-01T08:48:49Z</time>
      </trkpt>
      <trkpt lat="43.7691" lon="7.2577">
        <ele>686</ele>
        <time>2015-03-01T08:48:52Z</time>
      </trkpt>
      <trkpt lat="43.76906" lon="7.25765">
        <ele>687</ele>
        <time>2015-03-01T08:48:55Z</time>
      </trkpt>
      <trkpt lat="43.76902" lon="7.2576">
        <ele>687</ele>
        <time>2015-03-01T08:48:58Z</time>
      </trkpt>
      <trkpt lat="43.76898" lon="7.25754">
        <ele>688</ele>
        <time>2015-03-01T08:49:01Z</time>
      </trkpt>
      <trkpt lat="43.76894" lon="7.25749">
        <ele>688</ele>
        <time>2015-03-01T08:49:04Z</time>
      </trkpt>
      <trkpt lat="43.7689" lon="7.25744">
        <ele>689</ele>
        <time>2015-03-01T08:49:07Z</time>
      </trkpt>
      <trkpt lat="43.76887" lon="7.25738">
        <ele>690</ele>
        <time>2015-03-01T08:49:10Z</time>
      </trkpt>
      <trkpt lat="43.76884" lon="7.25733">
        <ele>690</ele>
        <time>2015-03-01T08:49:13Z</time>
      </trkpt>
      <trkpt lat="43.76882" lon="7.25726">
        <ele>691</ele>
        <time>2015-03-01T08:49:16Z</time>
      </trkpt>
      <trkpt lat="43.76879" lon="7.25721">
        <ele>692</ele>
        <time>2015-03-01T08:49:19Z</time>
      </trkpt>
      <trkpt lat="43.76877" lon="7.25714">
        <ele>692</ele>
        <time>2015-03-01T08:49:22Z</time>
      </trkpt>
      <trkpt lat="43.76875" lon="7.25707">
        <ele>693</ele>
        <time>2015-03-01T08:49:25Z</time>
      </trkpt>
      <trkpt lat="43.76872" lon="7.25701">
        <ele>693</ele>
        <time>2015-03-01T08:49:28Z</time>
      </trkpt>
      <trkpt lat="43.7687" lon="7.25695">
        <ele>694</ele>
        <time>2015-03-01T08:49:31Z</time>
      </trkpt>
      <trkpt lat="43.76867" lon="7.25688">
        <ele>695</ele>
        <time>2015-03-01T08:49:34Z</time>
      </trkpt>
      <trkpt lat="43.76865" lon="7.25682">
        <ele>695</ele>
        <time>2015-03-01T08:49:37Z</time>
      </trkpt>
      <trkpt lat="43.76863" lon="7.25676">
        <ele>696</ele>
        <time>2015-03-01T08:49:40Z</time>
      </trkpt>
      <trkpt lat="43.76861" lon="7.2567">
        <ele>697</ele>
        <time>2015-03-01T08:49:43Z</time>
      </trkpt>
      <trkpt lat="43.76859" lon="7.25664">
        <ele>697</ele>
        <time>2015-03-01T08:49:46Z</time>
      </trkpt>
      <trkpt lat="43.76857" lon="7.25658">
        <ele>698</ele>
        <time>2015-03-01T08:49:49Z</time>
      </trkpt>
      <trkpt lat="43.76854" lon="7.25651">
        <ele>698</ele>
        <time>2015-03-01T08:49:52Z</time>
      </trkpt>
      <trkpt lat="43.76853" lon="7.25645">
        <ele>699</ele>
        <time>2015-03-01T08:49:55Z</time>
      </trkpt>
      <trkpt lat="43.76851" lon="7.25638">
        <ele>700</ele>
        <time>2015-03-01T08:49:58Z</time>
      </trkpt>
      <trkpt lat="43.76849" lon="7.25632">
        <ele>700</ele>
        <time>2015-03-01T08:50:01Z</time>
      </trkpt>
      <trkpt lat="43.76847" lon="7.25626">
        <ele>701</ele>
        <time>2015-03-01T08:50:04Z</time>
      </trkpt>
      <trkpt lat="43.76846" lon="7.25619">
        <ele>701</ele>
        <time>2015-03-01T08:50:07Z</time>
      </trkpt>
      <trkpt lat="43.76844" lon="7.25613">
        <ele>702</ele>
        <time>2015-03-01T08:50:10Z</time>
      </trkpt>
      <trkpt lat="43.76843" lon="7.25606">
        <ele>703</ele>
        <time>2015-03-01T08:50:13Z</time>
      </trkpt>
      <trkpt lat="43.76843" lon="7.25599">
        <ele>703</ele>
        <time>2015-03-01T08:50:16Z</time>
      </trkpt>
      <trkpt lat="43.76842" lon="7.25592">
        <ele>704</ele>
        <time>2015-03-01T08:50:19Z</time>
      </trkpt>
      <trkpt lat="43.76842" lon="7.25585">
        <ele>704</ele>
        <time>2015-03-01T08:50:22Z</time>
      </trkpt>
      <trkpt lat="43.76843" lon="7.25579">
        <ele>705</ele>
        <time>2015-03-01T08:50:25Z</time>
      </trkpt>
      <trkpt lat="43.76844" lon="7.25573">
        <ele>705</ele>
        <time>2015-03-01T08:50:28Z</time>
      </trkpt>
      <trkpt lat="43.76846" lon="7.25566">
        <ele>706</ele>
        <time>2015-03-01T08:50:31Z</time>
      </trkpt>
      <trkpt lat="43.76848" lon="7.25561">
        <ele>707</ele>
        <time>2015-03-01T08:50:34Z</time>
      </trkpt>
      <trkpt lat="43.7685" lon="7.25554">
        <ele>707</ele>
        <time>2015-03-01T08:50:37Z</time>
      </trkpt>
      <trkpt lat="43.76852" lon="7.25547">
        <ele>708</ele>
        <time>2015-03-01T08:50:40Z</time>
      </trkpt>
      <trkpt lat="43.76854" lon="7.25541">
        <ele>708</ele>
        <time>2015-03-01T08:50:43Z</time>
      </trkpt>
      <trkpt lat="43.76855" lon="7.25534">
        <ele>709</ele>
        <time>2015-03-01T08:50:46Z</time>
      </trkpt>
      <trkpt lat="43.76858" lon="7.2553">
        <ele>709</ele>
        <time>2015-03-01T08:50:49Z</time>
      </trkpt>
      <trkpt lat="43.76862" lon="7.25534">
        <ele>710</ele>
        <time>2015-03-01T08:50:52Z</time>
      </trkpt>
      <trkpt lat="43.7686" lon="7.25541">
        <ele>710</ele>
        <time>2015-03-01T08:50:55Z</time>
      </trkpt>
      <trkpt lat="43.76859" lon="7.25547">
        <ele>711</ele>
        <time>2015-03-01T08:50:58Z</time>
      </trkpt>
      <trkpt lat="43.76858" lon="7.25554">
        <ele>711</ele>
        <time>2015-03-01T08:51:01Z</time>
      </trkpt>
      <trkpt lat="43.76856" lon="7.25561">
        <ele>712</ele>
        <time>2015-03-01T08:51:04Z</time>
      </trkpt>
      <trkpt lat="43.76856" lon="7.25567">
        <ele>713</ele>
        <time>2015-03-01T08:51:07Z</time>
      </trkpt>
      <trkpt lat="43.76854" lon="7.25573">
        <ele>713</ele>
        <time>2015-03-01T08:51:10Z</time>
      </trkpt>
      <trkpt lat="43.76855" lon="7.2558">
        <ele>713</ele>
        <time>2015-03-01T08:51:13Z</time>
      </trkpt>
      <trkpt lat="43.76856" lon="7.25587">
        <ele>714</ele>
        <time>2015-03-01T08:51:16Z</time>
      </trkpt>
      <trkpt lat="43.76859" lon="7.25593">
        <ele>715</ele>
        <time>2015-03-01T08:51:19Z</time>
      </trkpt>
      <trkpt lat="43.76862" lon="7.25599">
        <ele>715</ele>
        <time>2015-03-01T08:51:22Z</time>
      </trkpt>
      <trkpt lat="43.76865" lon="7.25605">
        <ele>716</ele>
        <time>2015-03-01T08:51:25Z</time>
      </trkpt>
      <trkpt lat="43.76867" lon="7.2561">
        <ele>716</ele>
        <time>2015-03-01T08:51:28Z</time>
      </trkpt>
      <trkpt lat="43.76871" lon="7.25615">
        <ele>717</ele>
        <time>2015-03-01T08:51:31Z</time>
      </trkpt>
      <trkpt lat="43.76875" lon="7.2562">
        <ele>718</ele>
        <time>2015-03-01T08:51:34Z</time>
      </trkpt>
      <trkpt lat="43.76878" lon="7.25624">
        <ele>718</ele>
        <time>2015-03-01T08:51:37Z</time>
      </trkpt>
      <trkpt lat="43.76883" lon="7.25629">
        <ele>718</ele>
        <time>2015-03-01T08:51:40Z</time>
      </trkpt>
      <trkpt lat="43.76887" lon="7.25634">
        <ele>719</ele>
        <time>2015-03-01T08:51:43Z</time>
      </trkpt>
      <trkpt lat="43.7689" lon="7.25638">
        <ele>720</ele>
        <time>2015-03-01T08:51:46Z</time>
      </trkpt>
      <trkpt lat="43.76894" lon="7.25644">
        <ele>720</ele>
        <time>2015-03-01T08:51:49Z</time>
      </trkpt>
      <trkpt lat="43.76897" lon="7.25649">
        <ele>721</ele>
        <time>2015-03-01T08:51:52Z</time>
      </trkpt>
      <trkpt lat="43.769" lon="7.25654">
        <ele>721</ele>
        <time>2015-03-01T08:51:55Z</time>
      </trkpt>
      <trkpt lat="43.76903" lon="7.25658">
        <ele>722</ele>
        <time>2015-03-01T08:51:58Z</time>
      </trkpt>
      <trkpt lat="43.76907" lon="7.25663">
        <ele>722</ele>
        <time>2015-03-01T08:52:01Z</time>
      </trkpt>
      <trkpt lat="43.76911" lon="7.25668">
        <ele>723</ele>
        <time>2015-03-01T08:52:04Z</time>
      </trkpt>
      <trkpt lat="43.76914" lon="7.25672">
        <ele>724</ele>
        <time>2015-03-01T08:52:07Z</time>
      </trkpt>
      <trkpt lat="43.76917" lon="7.25676">
        <ele>724</ele>
        <time>2015-03-01T08:52:10Z</time>
      </trkpt>
      <trkpt lat="43.7692" lon="7.25683">
        <ele>725</ele>
        <time>2015-03-01T08:52:13Z</time>
      </trkpt>
      <trkpt lat="43.76923" lon="7.25687">
        <ele>726</ele>
        <time>2015-03-01T08:52:16Z</time>
      </trkpt>
      <trkpt lat="43.76926" lon="7.25693">
        <ele>726</ele>
        <time>2015-03-01T08:52:19Z</time>
      </trkpt>
      <trkpt lat="43.76929" lon="7.25699">
        <ele>727</ele>
        <time>2015-03-01T08:52:22Z</time>
      </trkpt>
      <trkpt lat="43.76933" lon="7.25703">
        <ele>727</ele>
        <time>2015-03-01T08:52:25Z</time>
      </trkpt>
      <trkpt lat="43.76938" lon="7.25704">
        <ele>728</ele>
        <time>2015-03-01T08:52:28Z</time>
      </trkpt>
      <trkpt lat="43.76938" lon="7.25695">
        <ele>728</ele>
        <time>2015-03-01T08:52:31Z</time>
      </trkpt>
      <trkpt lat="43.76935" lon="7.25687">
        <ele>728</ele>
        <time>2015-03-01T08:52:34Z</time>
      </trkpt>
      <trkpt lat="43.76932" lon="7.25681">
        <ele>729</ele>
        <time>2015-03-01T08:52:37Z</time>
      </trkpt>
      <trkpt lat="43.7693" lon="7.25674">
        <ele>730</ele>
        <time>2015-03-01T08:52:40Z</time>
      </trkpt>
      <trkpt lat="43.76927" lon="7.25668">
        <ele>730</ele>
        <time>2015-03-01T08:52:43Z</time>
      </trkpt>
      <trkpt lat="43.76925" lon="7.25662">
        <ele>731</ele>
        <time>2015-03-01T08:52:46Z</time>
      </trkpt>
      <trkpt lat="43.76925" lon="7.25656">
        <ele>732</ele>
        <time>2015-03-01T08:52:49Z</time>
      </trkpt>
      <trkpt lat="43.76922" lon="7.25651">
        <ele>732</ele>
        <time>2015-03-01T08:52:52Z</time>
      </trkpt>
      <trkpt lat="43.7692" lon="7.25644">
        <ele>733</ele>
        <time>2015-03-01T08:52:55Z</time>
      </trkpt>
      <trkpt lat="43.76917" lon="7.25637">
        <ele>734</ele>
        <time>2015-03-01T08:52:58Z</time>
      </trkpt>
      <trkpt lat="43.76915" lon="7.2563">
        <ele>734</ele>
        <time>2015-03-01T08:53:01Z</time>
      </trkpt>
      <trkpt lat="43.76912" lon="7.25624">
        <ele>735</ele>
        <time>2015-03-01T08:53:04Z</time>
      </trkpt>
      <trkpt lat="43.7691" lon="7.25617">
        <ele>735</ele>
        <time>2015-03-01T08:53:07Z</time>
      </trkpt>
      <trkpt lat="43.76907" lon="7.2561">
        <ele>736</ele>
        <time>2015-03-01T08:53:10Z</time>
      </trkpt>
      <trkpt lat="43.76905" lon="7.25603">
        <ele>737</ele>
        <time>2015-03-01T08:53:13Z</time>
      </trkpt>
      <trkpt lat="43.76902" lon="7.25596">
        <ele>737</ele>
        <time>2015-03-01T08:53:16Z</time>
      </trkpt>
      <trkpt lat="43.769" lon="7.25588">
        <ele>738</ele>
        <time>2015-03-01T08:53:19Z</time>
      </trkpt>
      <trkpt lat="43.76897" lon="7.25582">
        <ele>738</ele>
        <time>2015-03-01T08:53:22Z</time>
      </trkpt>
      <trkpt lat="43.76896" lon="7.25575">
        <ele>739</ele>
        <time>2015-03-01T08:53:25Z</time>
      </trkpt>
      <trkpt lat="43.769" lon="7.25569">
        <ele>739</ele>
        <time>2015-03-01T08:53:28Z</time>
      </trkpt>
      <trkpt lat="43.76904" lon="7.25573">
        <ele>739</ele>
        <time>2015-03-01T08:53:31Z</time>
      </trkpt>
      <trkpt lat="43.76906" lon="7.25581">
        <ele>740</ele>
        <time>2015-03-01T08:53:34Z</time>
      </trkpt>
      <trkpt lat="43.7691" lon="7.25587">
        <ele>740</ele>
        <time>2015-03-01T08:53:37Z</time>
      </trkpt>
      <trkpt lat="43.76913" lon="7.25592">
        <ele>741</ele>
        <time>2015-03-01T08:53:40Z</time>
      </trkpt>
      <trkpt lat="43.76916" lon="7.25597">
        <ele>742</ele>
        <time>2015-03-01T08:53:43Z</time>
      </trkpt>
      <trkpt lat="43.7692" lon="7.25603">
        <ele>742</ele>
        <time>2015-03-01T08:53:46Z</time>
      </trkpt>
      <trkpt lat="43.76923" lon="7.25607">
        <ele>743</ele>
        <time>2015-03-01T08:53:49Z</time>
      </trkpt>
      <trkpt lat="43.76927" lon="7.25612">
        <ele>744</ele>
        <time>2015-03-01T08:53:52Z</time>
      </trkpt>
      <trkpt lat="43.7693" lon="7.25618">
        <ele>744</ele>
        <time>2015-03-01T08:53:55Z</time>
      </trkpt>
      <trkpt lat="43.76934" lon="7.25622">
        <ele>744</ele>
        <time>2015-03-01T08:53:58Z</time>
      </trkpt>
      <trkpt lat="43.76937" lon="7.25627">
        <ele>745</ele>
        <time>2015-03-01T08:54:01Z</time>
      </trkpt>
      <trkpt lat="43.76941" lon="7.25631">
        <ele>745</ele>
        <time>2015-03-01T08:54:04Z</time>
      </trkpt>
      <trkpt lat="43.76945" lon="7.25637">
        <ele>746</ele>
        <time>2015-03-01T08:54:07Z</time>
      </trkpt>
      <trkpt lat="43.76949" lon="7.25641">
        <ele>747</ele>
        <time>2015-03-01T08:54:10Z</time>
      </trkpt>
      <trkpt lat="43.76952" lon="7.25646">
        <ele>748</ele>
        <time>2015-03-01T08:54:13Z</time>
      </trkpt>
      <trkpt lat="43.76956" lon="7.25651">
        <ele>748</ele>
        <time>2015-03-01T08:54:16Z</time>
      </trkpt>
      <trkpt lat="43.76958" lon="7.25658">
        <ele>749</ele>
        <time>2015-03-01T08:54:19Z</time>
      </trkpt>
      <trkpt lat="43.76962" lon="7.25663">
        <ele>749</ele>
        <time>2015-03-01T08:54:22Z</time>
      </trkpt>
      <trkpt lat="43.76966" lon="7.25669">
        <ele>750</ele>
        <time>2015-03-01T08:54:25Z</time>
      </trkpt>
      <trkpt lat="43.7697" lon="7.25671">
        <ele>750</ele>
        <time>2015-03-01T08:54:28Z</time>
      </trkpt>
      <trkpt lat="43.76971" lon="7.25664">
        <ele>750</ele>
        <time>2015-03-01T08:54:31Z</time>
      </trkpt>
      <trkpt lat="43.76968" lon="7.25657">
        <ele>751</ele>
        <time>2015-03-01T08:54:34Z</time>
      </trkpt>
      <trkpt lat="43.76966" lon="7.25651">
        <ele>751</ele>
        <time>2015-03-01T08:54:37Z</time>
      </trkpt>
      <trkpt lat="43.76963" lon="7.25645">
        <ele>752</ele>
        <time>2015-03-01T08:54:40Z</time>
      </trkpt>
      <trkpt lat="43.7696" lon="7.25638">
        <ele>752</ele>
        <time>2015-03-01T08:54:43Z</time>
      </trkpt>
      <trkpt lat="43.76957" lon="7.25632">
        <ele>753</ele>
        <time>2015-03-01T08:54:46Z</time>
      </trkpt>
      <trkpt lat="43.76954" lon="7.25625">
        <ele>753</ele>
        <time>2015-03-01T08:54:49Z</time>
      </trkpt>
      <trkpt lat="43.76951" lon="7.25618">
        <ele>754</ele>
        <time>2015-03-01T08:54:52Z</time>
      </trkpt>
      <trkpt lat="43.76949" lon="7.25612">
        <ele>754</ele>
        <time>2015-03-01T08:54:55Z</time>
      </trkpt>
      <trkpt lat="43.76946" lon="7.25605">
        <ele>755</ele>
        <time>2015-03-01T08:54:58Z</time>
      </trkpt>
      <trkpt lat="43.76943" lon="7.25598">
        <ele>755</ele>
        <time>2015-03-01T08:55:01Z</time>
      </trkpt>
      <trkpt lat="43.7694" lon="7.25591">
        <ele>756</ele>
        <time>2015-03-01T08:55:04Z</time>
      </trkpt>
      <trkpt lat="43.76938" lon="7.25584">
        <ele>756</ele>
        <time>2015-03-01T08:55:07Z</time>
      </trkpt>
      <trkpt lat="43.76936" lon="7.25578">
        <ele>756</ele>
        <time>2015-03-01T08:55:10Z</time>
      </trkpt>
      <trkpt lat="43.76932" lon="7.25571">
        <ele>757</ele>
        <time>2015-03-01T08:55:13Z</time>
      </trkpt>
      <trkpt lat="43.7693" lon="7.25563">
        <ele>757</ele>
        <time>2015-03-01T08:55:16Z</time>
      </trkpt>
      <trkpt lat="43.76933" lon="7.25556">
        <ele>758</ele>
        <time>2015-03-01T08:55:19Z</time>
      </trkpt>
      <trkpt lat="43.76938" lon="7.25561">
        <ele>758</ele>
        <time>2015-03-01T08:55:22Z</time>
      </trkpt>
      <trkpt lat="43.76941" lon="7.25568">
        <ele>759</ele>
        <time>2015-03-01T08:55:25Z</time>
      </trkpt>
      <trkpt lat="43.76944" lon="7.25573">
        <ele>760</ele>
        <time>2015-03-01T08:55:28Z</time>
      </trkpt>
      <trkpt lat="43.76947" lon="7.25578">
        <ele>760</ele>
        <time>2015-03-01T08:55:31Z</time>
      </trkpt>
      <trkpt lat="43.7695" lon="7.25583">
        <ele>760</ele>
        <time>2015-03-01T08:55:34Z</time>
      </trkpt>
      <trkpt lat="43.76954" lon="7.25588">
        <ele>761</ele>
        <time>2015-03-01T08:55:37Z</time>
      </trkpt>
      <trkpt lat="43.76958" lon="7.25593">
        <ele>762</ele>
        <time>2015-03-01T08:55:40Z</time>
      </trkpt>
      <trkpt lat="43.76962" lon="7.25597">
        <ele>762</ele>
        <time>2015-03-01T08:55:43Z</time>
      </trkpt>
      <trkpt lat="43.76966" lon="7.25602">
        <ele>763</ele>
        <time>2015-03-01T08:55:46Z</time>
      </trkpt>
      <trkpt lat="43.76969" lon="7.25607">
        <ele>763</ele>
        <time>2015-03-01T08:55:49Z</time>
      </trkpt>
      <trkpt lat="43.76973" lon="7.25612">
        <ele>764</ele>
        <time>2015-03-01T08:55:52Z</time>
      </trkpt>
      <trkpt lat="43.76976" lon="7.25618">
        <ele>764</ele>
        <time>2015-03-01T08:55:55Z</time>
      </trkpt>
      <trkpt lat="43.76979" lon="7.25624">
        <ele>765</ele>
        <time>2015-03-01T08:55:58Z</time>
      </trkpt>
      <trkpt lat="43.76983" lon="7.2563">
        <ele>765</ele>
        <time>2015-03-01T08:56:01Z</time>
      </trkpt>
      <trkpt lat="43.76988" lon="7.2563">
        <ele>766</ele>
        <time>2015-03-01T08:56:04Z</time>
      </trkpt>
      <trkpt lat="43.76988" lon="7.25623">
        <ele>766</ele>
        <time>2015-03-01T08:56:07Z</time>
      </trkpt>
      <trkpt lat="43.76985" lon="7.25618">
        <ele>766</ele>
        <time>2015-03-01T08:56:10Z</time>
      </trkpt>
      <trkpt lat="43.76982" lon="7.25613">
        <ele>767</ele>
        <time>2015-03-01T08:56:13Z</time>
      </trkpt>
      <trkpt lat="43.76979" lon="7.25607">
        <ele>768</ele>
        <time>2015-03-01T08:56:16Z</time>
      </trkpt>
      <trkpt lat="43.76976" lon="7.25601">
        <ele>769</ele>
        <time>2015-03-01T08:56:19Z</time>
      </trkpt>
      <trkpt lat="43.76974" lon="7.25596">
        <ele>769</ele>
        <time>2015-03-01T08:56:22Z</time>
      </trkpt>
      <trkpt lat="43.76972" lon="7.2559">
        <ele>769</ele>
        <time>2015-03-01T08:56:25Z</time>
      </trkpt>
      <trkpt lat="43.76969" lon="7.25583">
        <ele>770</ele>
        <time>2015-03-01T08:56:28Z</time>
      </trkpt>
      <trkpt lat="43.76966" lon="7.25576">
        <ele>770</ele>
        <time>2015-03-01T08:56:31Z</time>
      </trkpt>
      <trkpt lat="43.76964" lon="7.2557">
        <ele>771</ele>
        <time>2015-03-01T08:56:34Z</time>
      </trkpt>
      <trkpt lat="43.76962" lon="7.25563">
        <ele>772</ele>
        <time>2015-03-01T08:56:37Z</time>
      </trkpt>
      <trkpt lat="43.76961" lon="7.25556">
        <ele>772</ele>
        <time>2015-03-01T08:56:40Z</time>
      </trkpt>
      <trkpt lat="43.76959" lon="7.25549">
        <ele>773</ele>
        <time>2015-03-01T08:56:43Z</time>
      </trkpt>
      <trkpt lat="43.76958" lon="7.25543">
        <ele>773</ele>
        <time>2015-03-01T08:56:46Z</time>
      </trkpt>
      <trkpt lat="43.76958" lon="7.25536">
        <ele>774</ele>
        <time>2015-03-01T08:56:49Z</time>
      </trkpt>
      <trkpt lat="43.76958" lon="7.25529">
        <ele>774</ele>
        <time>2015-03-01T08:56:52Z</time>
      </trkpt>
      <trkpt lat="43.76958" lon="7.2552">
        <ele>774</ele>
        <time>2015-03-01T08:56:55Z</time>
      </trkpt>
      <trkpt lat="43.76959" lon="7.25512">
        <ele>774</ele>
        <time>2015-03-01T08:56:58Z</time>
      </trkpt>
      <trkpt lat="43.76962" lon="7.25504">
        <ele>775</ele>
        <time>2015-03-01T08:57:01Z</time>
      </trkpt>
      <trkpt lat="43.76964" lon="7.25495">
        <ele>775</ele>
        <time>2015-03-01T08:57:04Z</time>
      </trkpt>
      <trkpt lat="43.76966" lon="7.25487">
        <ele>775</ele>
        <time>2015-03-01T08:57:07Z</time>
      </trkpt>
      <trkpt lat="43.76968" lon="7.25479">
        <ele>775</ele>
        <time>2015-03-01T08:57:10Z</time>
      </trkpt>
      <trkpt lat="43.7697" lon="7.2547">
        <ele>775</ele>
        <time>2015-03-01T08:57:13Z</time>
      </trkpt>
      <trkpt lat="43.76973" lon="7.25463">
        <ele>776</ele>
        <time>2015-03-01T08:57:16Z</time>
      </trkpt>
      <trkpt lat="43.76975" lon="7.25456">
        <ele>776</ele>
        <time>2015-03-01T08:57:19Z</time>
      </trkpt>
      <trkpt lat="43.76978" lon="7.2545">
        <ele>777</ele>
        <time>2015-03-01T08:57:22Z</time>
      </trkpt>
      <trkpt lat="43.76982" lon="7.25445">
        <ele>777</ele>
        <time>2015-03-01T08:57:25Z</time>
      </trkpt>
      <trkpt lat="43.76985" lon="7.25439">
        <ele>778</ele>
        <time>2015-03-01T08:57:28Z</time>
      </trkpt>
      <trkpt lat="43.76988" lon="7.25433">
        <ele>779</ele>
        <time>2015-03-01T08:57:31Z</time>
      </trkpt>
      <trkpt lat="43.76991" lon="7.25428">
        <ele>779</ele>
        <time>2015-03-01T08:57:34Z</time>
      </trkpt>
      <trkpt lat="43.76993" lon="7.25422">
        <ele>780</ele>
        <time>2015-03-01T08:57:37Z</time>
      </trkpt>
      <trkpt lat="43.76996" lon="7.25417">
        <ele>780</ele>
        <time>2015-03-01T08:57:40Z</time>
      </trkpt>
      <trkpt lat="43.76999" lon="7.25411">
        <ele>781</ele>
        <time>2015-03-01T08:57:43Z</time>
      </trkpt>
      <trkpt lat="43.77" lon="7.25405">
        <ele>781</ele>
        <time>2015-03-01T08:57:46Z</time>
      </trkpt>
      <trkpt lat="43.77003" lon="7.254">
        <ele>782</ele>
        <time>2015-03-01T08:57:49Z</time>
      </trkpt>
      <trkpt lat="43.77006" lon="7.25394">
        <ele>782</ele>
        <time>2015-03-01T08:57:52Z</time>
      </trkpt>
      <trkpt lat="43.77009" lon="7.25388">
        <ele>783</ele>
        <time>2015-03-01T08:57:55Z</time>
      </trkpt>
      <trkpt lat="43.77013" lon="7.25383">
        <ele>783</ele>
        <time>2015-03-01T08:57:58Z</time>
      </trkpt>
      <trkpt lat="43.77016" lon="7.25378">
        <ele>784</ele>
        <time>2015-03-01T08:58:01Z</time>
      </trkpt>
      <trkpt lat="43.7702" lon="7.25374">
        <ele>785</ele>
        <time>2015-03-01T08:58:04Z</time>
      </trkpt>
      <trkpt lat="43.77024" lon="7.25379">
        <ele>785</ele>
        <time>2015-03-01T08:58:07Z</time>
      </trkpt>
      <trkpt lat="43.77022" lon="7.25384">
        <ele>785</ele>
        <time>2015-03-01T08:58:10Z</time>
      </trkpt>
      <trkpt lat="43.77018" lon="7.2539">
        <ele>786</ele>
        <time>2015-03-01T08:58:13Z</time>
      </trkpt>
      <trkpt lat="43.77015" lon="7.25396">
        <ele>786</ele>
        <time>2015-03-01T08:58:16Z</time>
      </trkpt>
      <trkpt lat="43.77012" lon="7.25402">
        <ele>787</ele>
        <time>2015-03-01T08:58:19Z</time>
      </trkpt>
      <trkpt lat="43.7701" lon="7.25408">
        <ele>787</ele>
        <time>2015-03-01T08:58:22Z</time>
      </trkpt>
      <trkpt lat="43.77008" lon="7.25415">
        <ele>788</ele>
        <time>2015-03-01T08:58:25Z</time>
      </trkpt>
      <trkpt lat="43.77005" lon="7.25422">
        <ele>788</ele>
        <time>2015-03-01T08:58:28Z</time>
      </trkpt>
      <trkpt lat="43.77003" lon="7.25429">
        <ele>789</ele>
        <time>2015-03-01T08:58:31Z</time>
      </trkpt>
      <trkpt lat="43.77001" lon="7.25436">
        <ele>789</ele>
        <time>2015-03-01T08:58:34Z</time>
      </trkpt>
      <trkpt lat="43.76997" lon="7.25442">
        <ele>789</ele>
        <time>2015-03-01T08:58:37Z</time>
      </trkpt>
      <trkpt lat="43.76994" lon="7.25449">
        <ele>790</ele>
        <time>2015-03-01T08:58:40Z</time>
      </trkpt>
      <trkpt lat="43.76991" lon="7.25455">
        <ele>791</ele>
        <time>2015-03-01T08:58:43Z</time>
      </trkpt>
      <trkpt lat="43.76989" lon="7.25462">
        <ele>791</ele>
        <time>2015-03-01T08:58:46Z</time>
      </trkpt>
      <trkpt lat="43.76989" lon="7.25469">
        <ele>792</ele>
        <time>2015-03-01T08:58:49Z</time>
      </trkpt>
      <trkpt lat="43.7699" lon="7.25476">
        <ele>792</ele>
        <time>2015-03-01T08:58:52Z</time>
      </trkpt>
      <trkpt lat="43.7699" lon="7.25483">
        <ele>793</ele>
        <time>2015-03-01T08:58:55Z</time>
      </trkpt>
      <trkpt lat="43.7699" lon="7.2549">
        <ele>793</ele>
        <time>2015-03-01T08:58:58Z</time>
      </trkpt>
      <trkpt lat="43.7699" lon="7.25495">
        <ele>794</ele>
        <time>2015-03-01T08:59:01Z</time>
      </trkpt>
      <trkpt lat="43.76991" lon="7.25497">
        <ele>794</ele>
        <time>2015-03-01T08:59:04Z</time>
      </trkpt>
      <trkpt lat="43.76992" lon="7.25498">
        <ele>794</ele>
        <time>2015-03-01T08:59:07Z</time>
      </trkpt>
      <trkpt lat="43.76992" lon="7.255">
        <ele>794</ele>
        <time>2015-03-01T08:59:10Z</time>
      </trkpt>
      <trkpt lat="43.76991" lon="7.25501">
        <ele>795</ele>
        <time>2015-03-01T08:59:13Z</time>
      </trkpt>
      <trkpt lat="43.76991" lon="7.25502">
        <ele>795</ele>
        <time>2015-03-01T08:59:16Z</time>
      </trkpt>
      <trkpt lat="43.76992" lon="7.25504">
        <ele>797</ele>
        <time>2015-03-01T08:59:25Z</time>
      </trkpt>
      <trkpt lat="43.76992" lon="7.25509">
        <ele>798</ele>
        <time>2015-03-01T08:59:28Z</time>
      </trkpt>
      <trkpt lat="43.76995" lon="7.25512">
        <ele>798</ele>
        <time>2015-03-01T08:59:31Z</time>
      </trkpt>
      <trkpt lat="43.76997" lon="7.25514">
        <ele>798</ele>
        <time>2015-03-01T08:59:34Z</time>
      </trkpt>
      <trkpt lat="43.76998" lon="7.25514">
        <ele>799</ele>
        <time>2015-03-01T08:59:37Z</time>
      </trkpt>
      <trkpt lat="43.76999" lon="7.25514">
        <ele>799</ele>
        <time>2015-03-01T08:59:40Z</time>
      </trkpt>
      <trkpt lat="43.77002" lon="7.25517">
        <ele>799</ele>
        <time>2015-03-01T08:59:58Z</time>
      </trkpt>
      <trkpt lat="43.77003" lon="7.2553">
        <ele>798</ele>
        <time>2015-03-01T09:00:01Z</time>
      </trkpt>
      <trkpt lat="43.77002" lon="7.25548">
        <ele>795</ele>
        <time>2015-03-01T09:00:04Z</time>
      </trkpt>
      <trkpt lat="43.77" lon="7.2557">
        <ele>789</ele>
        <time>2015-03-01T09:00:07Z</time>
      </trkpt>
      <trkpt lat="43.77015" lon="7.25577">
        <ele>786</ele>
        <time>2015-03-01T09:00:10Z</time>
      </trkpt>
      <trkpt lat="43.77032" lon="7.25572">
        <ele>783</ele>
        <time>2015-03-01T09:00:13Z</time>
      </trkpt>
      <trkpt lat="43.77046" lon="7.25566">
        <ele>783</ele>
        <time>2015-03-01T09:00:16Z</time>
      </trkpt>
      <trkpt lat="43.77061" lon="7.2556">
        <ele>782</ele>
        <time>2015-03-01T09:00:19Z</time>
      </trkpt>
      <trkpt lat="43.77081" lon="7.25562">
        <ele>779</ele>
        <time>2015-03-01T09:00:22Z</time>
      </trkpt>
      <trkpt lat="43.77106" lon="7.25559">
        <ele>774</ele>
        <time>2015-03-01T09:00:25Z</time>
      </trkpt>
      <trkpt lat="43.77123" lon="7.25552">
        <ele>772</ele>
        <time>2015-03-01T09:00:28Z</time>
      </trkpt>
      <trkpt lat="43.77136" lon="7.25549">
        <ele>773</ele>
        <time>2015-03-01T09:00:31Z</time>
      </trkpt>
      <trkpt lat="43.77151" lon="7.25546">
        <ele>771</ele>
        <time>2015-03-01T09:00:34Z</time>
      </trkpt>
      <trkpt lat="43.77162" lon="7.2554">
        <ele>772</ele>
        <time>2015-03-01T09:00:37Z</time>
      </trkpt>
      <trkpt lat="43.7717" lon="7.25537">
        <ele>772</ele>
        <time>2015-03-01T09:00:40Z</time>
      </trkpt>
      <trkpt lat="43.77182" lon="7.25539">
        <ele>770</ele>
        <time>2015-03-01T09:00:43Z</time>
      </trkpt>
      <trkpt lat="43.77191" lon="7.25537">
        <ele>770</ele>
        <time>2015-03-01T09:00:46Z</time>
      </trkpt>
      <trkpt lat="43.772" lon="7.25534">
        <ele>769</ele>
        <time>2015-03-01T09:00:49Z</time>
      </trkpt>
      <trkpt lat="43.77208" lon="7.25531">
        <ele>767</ele>
        <time>2015-03-01T09:00:52Z</time>
      </trkpt>
      <trkpt lat="43.7721" lon="7.25527">
        <ele>767</ele>
        <time>2015-03-01T09:00:58Z</time>
      </trkpt>
      <trkpt lat="43.77211" lon="7.25525">
        <ele>768</ele>
        <time>2015-03-01T09:01:07Z</time>
      </trkpt>
      <trkpt lat="43.77213" lon="7.25521">
        <ele>768</ele>
        <time>2015-03-01T09:01:10Z</time>
      </trkpt>
      <trkpt lat="43.77213" lon="7.2552">
        <ele>769</ele>
        <time>2015-03-01T09:01:16Z</time>
      </trkpt>
      <trkpt lat="43.77214" lon="7.25519">
        <ele>769</ele>
        <time>2015-03-01T09:01:19Z</time>
      </trkpt>
      <trkpt lat="43.77214" lon="7.25518">
        <ele>770</ele>
        <time>2015-03-01T09:01:22Z</time>
      </trkpt>
      <trkpt lat="43.77215" lon="7.25517">
        <ele>770</ele>
        <time>2015-03-01T09:01:25Z</time>
      </trkpt>
      <trkpt lat="43.77216" lon="7.25513">
        <ele>772</ele>
        <time>2015-03-01T09:01:37Z</time>
      </trkpt>
      <trkpt lat="43.77217" lon="7.25507">
        <ele>772</ele>
        <time>2015-03-01T09:01:40Z</time>
      </trkpt>
      <trkpt lat="43.7722" lon="7.25503">
        <ele>774</ele>
        <time>2015-03-01T09:01:49Z</time>
      </trkpt>
      <trkpt lat="43.77221" lon="7.25497">
        <ele>774</ele>
        <time>2015-03-01T09:01:52Z</time>
      </trkpt>
      <trkpt lat="43.77224" lon="7.25493">
        <ele>774</ele>
        <time>2015-03-01T09:01:55Z</time>
      </trkpt>
      <trkpt lat="43.77225" lon="7.25491">
        <ele>774</ele>
        <time>2015-03-01T09:01:58Z</time>
      </trkpt>
      <trkpt lat="43.77227" lon="7.25487">
        <ele>774</ele>
        <time>2015-03-01T09:02:01Z</time>
      </trkpt>
      <trkpt lat="43.77228" lon="7.25485">
        <ele>775</ele>
        <time>2015-03-01T09:02:04Z</time>
      </trkpt>
      <trkpt lat="43.77228" lon="7.25482">
        <ele>778</ele>
        <time>2015-03-01T09:02:19Z</time>
      </trkpt>
      <trkpt lat="43.77228" lon="7.25477">
        <ele>779</ele>
        <time>2015-03-01T09:02:22Z</time>
      </trkpt>
      <trkpt lat="43.77229" lon="7.25477">
        <ele>779</ele>
        <time>2015-03-01T09:02:25Z</time>
      </trkpt>
      <trkpt lat="43.77229" lon="7.25472">
        <ele>780</ele>
        <time>2015-03-01T09:02:28Z</time>
      </trkpt>
      <trkpt lat="43.77229" lon="7.2547">
        <ele>781</ele>
        <time>2015-03-01T09:02:37Z</time>
      </trkpt>
      <trkpt lat="43.77228" lon="7.25469">
        <ele>782</ele>
        <time>2015-03-01T09:02:40Z</time>
      </trkpt>
      <trkpt lat="43.77228" lon="7.25465">
        <ele>784</ele>
        <time>2015-03-01T09:02:55Z</time>
      </trkpt>
      <trkpt lat="43.77226" lon="7.25464">
        <ele>785</ele>
        <time>2015-03-01T09:02:58Z</time>
      </trkpt>
      <trkpt lat="43.77227" lon="7.25464">
        <ele>785</ele>
        <time>2015-03-01T09:03:01Z</time>
      </trkpt>
      <trkpt lat="43.77225" lon="7.25463">
        <ele>786</ele>
        <time>2015-03-01T09:03:07Z</time>
      </trkpt>
      <trkpt lat="43.77221" lon="7.25459">
        <ele>787</ele>
        <time>2015-03-01T09:03:10Z</time>
      </trkpt>
      <trkpt lat="43.77217" lon="7.25457">
        <ele>786</ele>
        <time>2015-03-01T09:03:13Z</time>
      </trkpt>
      <trkpt lat="43.77212" lon="7.25455">
        <ele>787</ele>
        <time>2015-03-01T09:03:16Z</time>
      </trkpt>
      <trkpt lat="43.77209" lon="7.25456">
        <ele>787</ele>
        <time>2015-03-01T09:03:19Z</time>
      </trkpt>
      <trkpt lat="43.77205" lon="7.2546">
        <ele>787</ele>
        <time>2015-03-01T09:03:22Z</time>
      </trkpt>
      <trkpt lat="43.77202" lon="7.25463">
        <ele>787</ele>
        <time>2015-03-01T09:03:25Z</time>
      </trkpt>
      <trkpt lat="43.77198" lon="7.25465">
        <ele>788</ele>
        <time>2015-03-01T09:03:28Z</time>
      </trkpt>
      <trkpt lat="43.77194" lon="7.25464">
        <ele>788</ele>
        <time>2015-03-01T09:03:31Z</time>
      </trkpt>
      <trkpt lat="43.7719" lon="7.25465">
        <ele>789</ele>
        <time>2015-03-01T09:03:34Z</time>
      </trkpt>
      <trkpt lat="43.77188" lon="7.2547">
        <ele>789</ele>
        <time>2015-03-01T09:03:37Z</time>
      </trkpt>
      <trkpt lat="43.77186" lon="7.25475">
        <ele>790</ele>
        <time>2015-03-01T09:03:40Z</time>
      </trkpt>
      <trkpt lat="43.77183" lon="7.2548">
        <ele>790</ele>
        <time>2015-03-01T09:03:43Z</time>
      </trkpt>
      <trkpt lat="43.7718" lon="7.25485">
        <ele>791</ele>
        <time>2015-03-01T09:03:46Z</time>
      </trkpt>
      <trkpt lat="43.77176" lon="7.25488">
        <ele>791</ele>
        <time>2015-03-01T09:03:49Z</time>
      </trkpt>
      <trkpt lat="43.77173" lon="7.2549">
        <ele>791</ele>
        <time>2015-03-01T09:03:52Z</time>
      </trkpt>
      <trkpt lat="43.77171" lon="7.2549">
        <ele>792</ele>
        <time>2015-03-01T09:03:55Z</time>
      </trkpt>
      <trkpt lat="43.7717" lon="7.2549">
        <ele>792</ele>
        <time>2015-03-01T09:03:58Z</time>
      </trkpt>
      <trkpt lat="43.77171" lon="7.2549">
        <ele>791</ele>
        <time>2015-03-01T09:05:07Z</time>
      </trkpt>
      <trkpt lat="43.7717" lon="7.2549">
        <ele>791</ele>
        <time>2015-03-01T09:05:10Z</time>
      </trkpt>
      <trkpt lat="43.77171" lon="7.2549">
        <ele>791</ele>
        <time>2015-03-01T09:05:16Z</time>
      </trkpt>
      <trkpt lat="43.77171" lon="7.25489">
        <ele>791</ele>
        <time>2015-03-01T09:05:58Z</time>
      </trkpt>
      <trkpt lat="43.7717" lon="7.25489">
        <ele>792</ele>
        <time>2015-03-01T09:07:58Z</time>
      </trkpt>
      <trkpt lat="43.7717" lon="7.25488">
        <ele>792</ele>
        <time>2015-03-01T09:09:16Z</time>
      </trkpt>
      <trkpt lat="43.77169" lon="7.25488">
        <ele>792</ele>
        <time>2015-03-01T09:09:58Z</time>
      </trkpt>
      <trkpt lat="43.77168" lon="7.25487">
        <ele>793</ele>
        <time>2015-03-01T09:15:25Z</time>
      </trkpt>
      <trkpt lat="43.77169" lon="7.25487">
        <ele>793</ele>
        <time>2015-03-01T09:17:24Z</time>
      </trkpt>
      <trkpt lat="43.77168" lon="7.25487">
        <ele>793</ele>
        <time>2015-03-01T09:18:04Z</time>
      </trkpt>
      <trkpt lat="43.77169" lon="7.25485">
        <ele>794</ele>
        <time>2015-03-01T09:18:55Z</time>
      </trkpt>
      <trkpt lat="43.77169" lon="7.25476">
        <ele>793</ele>
        <time>2015-03-01T09:18:58Z</time>
      </trkpt>
      <trkpt lat="43.7717" lon="7.25466">
        <ele>793</ele>
        <time>2015-03-01T09:19:01Z</time>
      </trkpt>
      <trkpt lat="43.77171" lon="7.25463">
        <ele>793</ele>
        <time>2015-03-01T09:19:04Z</time>
      </trkpt>
      <trkpt lat="43.7717" lon="7.25463">
        <ele>793</ele>
        <time>2015-03-01T09:19:07Z</time>
      </trkpt>
      <trkpt lat="43.7717" lon="7.25459">
        <ele>793</ele>
        <time>2015-03-01T09:19:13Z</time>
      </trkpt>
      <trkpt lat="43.77171" lon="7.25454">
        <ele>793</ele>
        <time>2015-03-01T09:19:16Z</time>
      </trkpt>
      <trkpt lat="43.77172" lon="7.25447">
        <ele>793</ele>
        <time>2015-03-01T09:19:19Z</time>
      </trkpt>
      <trkpt lat="43.77172" lon="7.25438">
        <ele>794</ele>
        <time>2015-03-01T09:19:22Z</time>
      </trkpt>
      <trkpt lat="43.77173" lon="7.25428">
        <ele>794</ele>
        <time>2015-03-01T09:19:25Z</time>
      </trkpt>
      <trkpt lat="43.77174" lon="7.25416">
        <ele>793</ele>
        <time>2015-03-01T09:19:28Z</time>
      </trkpt>
      <trkpt lat="43.77171" lon="7.25406">
        <ele>793</ele>
        <time>2015-03-01T09:19:31Z</time>
      </trkpt>
      <trkpt lat="43.77176" lon="7.25385">
        <ele>792</ele>
        <time>2015-03-01T09:19:34Z</time>
      </trkpt>
      <trkpt lat="43.77187" lon="7.25366">
        <ele>786</ele>
        <time>2015-03-01T09:19:37Z</time>
      </trkpt>
      <trkpt lat="43.77198" lon="7.25353">
        <ele>780</ele>
        <time>2015-03-01T09:19:40Z</time>
      </trkpt>
      <trkpt lat="43.77203" lon="7.25348">
        <ele>779</ele>
        <time>2015-03-01T09:19:43Z</time>
      </trkpt>
      <trkpt lat="43.77204" lon="7.25348">
        <ele>778</ele>
        <time>2015-03-01T09:19:46Z</time>
      </trkpt>
      <trkpt lat="43.77201" lon="7.25346">
        <ele>776</ele>
        <time>2015-03-01T09:19:49Z</time>
      </trkpt>
      <trkpt lat="43.77202" lon="7.25347">
        <ele>776</ele>
        <time>2015-03-01T09:19:58Z</time>
      </trkpt>
      <trkpt lat="43.77203" lon="7.25348">
        <ele>776</ele>
        <time>2015-03-01T09:20:01Z</time>
      </trkpt>
      <trkpt lat="43.77204" lon="7.25349">
        <ele>776</ele>
        <time>2015-03-01T09:20:04Z</time>
      </trkpt>
      <trkpt lat="43.77204" lon="7.25351">
        <ele>777</ele>
        <time>2015-03-01T09:20:07Z</time>
      </trkpt>
      <trkpt lat="43.77205" lon="7.25351">
        <ele>778</ele>
        <time>2015-03-01T09:20:10Z</time>
      </trkpt>
      <trkpt lat="43.77205" lon="7.25353">
        <ele>779</ele>
        <time>2015-03-01T09:20:19Z</time>
      </trkpt>
      <trkpt lat="43.77204" lon="7.25353">
        <ele>779</ele>
        <time>2015-03-01T09:20:22Z</time>
      </trkpt>
      <trkpt lat="43.77204" lon="7.25354">
        <ele>779</ele>
        <time>2015-03-01T09:20:25Z</time>
      </trkpt>
      <trkpt lat="43.77203" lon="7.25355">
        <ele>780</ele>
        <time>2015-03-01T09:20:28Z</time>
      </trkpt>
      <trkpt lat="43.77203" lon="7.25356">
        <ele>780</ele>
        <time>2015-03-01T09:20:31Z</time>
      </trkpt>
      <trkpt lat="43.772" lon="7.25359">
        <ele>780</ele>
        <time>2015-03-01T09:20:34Z</time>
      </trkpt>
      <trkpt lat="43.77199" lon="7.2536">
        <ele>781</ele>
        <time>2015-03-01T09:20:37Z</time>
      </trkpt>
      <trkpt lat="43.77198" lon="7.25361">
        <ele>781</ele>
        <time>2015-03-01T09:20:40Z</time>
      </trkpt>
      <trkpt lat="43.77194" lon="7.25364">
        <ele>782</ele>
        <time>2015-03-01T09:20:43Z</time>
      </trkpt>
      <trkpt lat="43.77193" lon="7.25364">
        <ele>782</ele>
        <time>2015-03-01T09:20:46Z</time>
      </trkpt>
      <trkpt lat="43.77192" lon="7.25365">
        <ele>783</ele>
        <time>2015-03-01T09:20:49Z</time>
      </trkpt>
      <trkpt lat="43.77191" lon="7.25366">
        <ele>783</ele>
        <time>2015-03-01T09:20:52Z</time>
      </trkpt>
      <trkpt lat="43.7719" lon="7.25368">
        <ele>784</ele>
        <time>2015-03-01T09:20:55Z</time>
      </trkpt>
      <trkpt lat="43.77188" lon="7.25369">
        <ele>785</ele>
        <time>2015-03-01T09:20:58Z</time>
      </trkpt>
      <trkpt lat="43.77185" lon="7.25372">
        <ele>785</ele>
        <time>2015-03-01T09:21:01Z</time>
      </trkpt>
      <trkpt lat="43.77184" lon="7.25373">
        <ele>786</ele>
        <time>2015-03-01T09:21:04Z</time>
      </trkpt>
      <trkpt lat="43.77183" lon="7.25377">
        <ele>786</ele>
        <time>2015-03-01T09:21:16Z</time>
      </trkpt>
      <trkpt lat="43.77183" lon="7.25378">
        <ele>787</ele>
        <time>2015-03-01T09:21:19Z</time>
      </trkpt>
      <trkpt lat="43.77181" lon="7.2538">
        <ele>788</ele>
        <time>2015-03-01T09:21:22Z</time>
      </trkpt>
      <trkpt lat="43.77179" lon="7.25384">
        <ele>789</ele>
        <time>2015-03-01T09:21:25Z</time>
      </trkpt>
      <trkpt lat="43.77178" lon="7.25388">
        <ele>789</ele>
        <time>2015-03-01T09:21:28Z</time>
      </trkpt>
      <trkpt lat="43.77176" lon="7.25391">
        <ele>790</ele>
        <time>2015-03-01T09:21:31Z</time>
      </trkpt>
      <trkpt lat="43.77175" lon="7.25392">
        <ele>790</ele>
        <time>2015-03-01T09:21:34Z</time>
      </trkpt>
      <trkpt lat="43.77173" lon="7.25394">
        <ele>791</ele>
        <time>2015-03-01T09:21:37Z</time>
      </trkpt>
      <trkpt lat="43.77173" lon="7.25396">
        <ele>792</ele>
        <time>2015-03-01T09:21:40Z</time>
      </trkpt>
      <trkpt lat="43.77172" lon="7.25397">
        <ele>792</ele>
        <time>2015-03-01T09:21:43Z</time>
      </trkpt>
      <trkpt lat="43.77173" lon="7.254">
        <ele>792</ele>
        <time>2015-03-01T09:21:58Z</time>
      </trkpt>
      <trkpt lat="43.77174" lon="7.25406">
        <ele>792</ele>
        <time>2015-03-01T09:22:01Z</time>
      </trkpt>
      <trkpt lat="43.77174" lon="7.25411">
        <ele>793</ele>
        <time>2015-03-01T09:22:04Z</time>
      </trkpt>
      <trkpt lat="43.77174" lon="7.25416">
        <ele>793</ele>
        <time>2015-03-01T09:22:07Z</time>
      </trkpt>
      <trkpt lat="43.77174" lon="7.25421">
        <ele>793</ele>
        <time>2015-03-01T09:22:10Z</time>
      </trkpt>
      <trkpt lat="43.77174" lon="7.25427">
        <ele>793</ele>
        <time>2015-03-01T09:22:13Z</time>
      </trkpt>
      <trkpt lat="43.77173" lon="7.25431">
        <ele>793</ele>
        <time>2015-03-01T09:22:16Z</time>
      </trkpt>
      <trkpt lat="43.77173" lon="7.25436">
        <ele>793</ele>
        <time>2015-03-01T09:22:19Z</time>
      </trkpt>
      <trkpt lat="43.77173" lon="7.25442">
        <ele>793</ele>
        <time>2015-03-01T09:22:22Z</time>
      </trkpt>
      <trkpt lat="43.77172" lon="7.25446">
        <ele>793</ele>
        <time>2015-03-01T09:22:25Z</time>
      </trkpt>
      <trkpt lat="43.77172" lon="7.25452">
        <ele>793</ele>
        <time>2015-03-01T09:22:28Z</time>
      </trkpt>
      <trkpt lat="43.77172" lon="7.25457">
        <ele>793</ele>
        <time>2015-03-01T09:22:31Z</time>
      </trkpt>
      <trkpt lat="43.77172" lon="7.25462">
        <ele>793</ele>
        <time>2015-03-01T09:22:34Z</time>
      </trkpt>
      <trkpt lat="43.77173" lon="7.25463">
        <ele>793</ele>
        <time>2015-03-01T09:22:37Z</time>
      </trkpt>
      <trkpt lat="43.77173" lon="7.25464">
        <ele>793</ele>
        <time>2015-03-01T09:22:58Z</time>
      </trkpt>
      <trkpt lat="43.77173" lon="7.25467">
        <ele>793</ele>
        <time>2015-03-01T09:23:07Z</time>
      </trkpt>
      <trkpt lat="43.77173" lon="7.25471">
        <ele>793</ele>
        <time>2015-03-01T09:23:10Z</time>
      </trkpt>
      <trkpt lat="43.77173" lon="7.25474">
        <ele>793</ele>
        <time>2015-03-01T09:23:13Z</time>
      </trkpt>
      <trkpt lat="43.77173" lon="7.25478">
        <ele>793</ele>
        <time>2015-03-01T09:23:16Z</time>
      </trkpt>
      <trkpt lat="43.77172" lon="7.2548">
        <ele>793</ele>
        <time>2015-03-01T09:23:19Z</time>
      </trkpt>
      <trkpt lat="43.77172" lon="7.25482">
        <ele>793</ele>
        <time>2015-03-01T09:23:22Z</time>
      </trkpt>
      <trkpt lat="43.77172" lon="7.25483">
        <ele>793</ele>
        <time>2015-03-01T09:23:25Z</time>
      </trkpt>
      <trkpt lat="43.77172" lon="7.25484">
        <ele>793</ele>
        <time>2015-03-01T09:23:31Z</time>
      </trkpt>
      <trkpt lat="43.77172" lon="7.25485">
        <ele>793</ele>
        <time>2015-03-01T09:24:16Z</time>
      </trkpt>
      <trkpt lat="43.77171" lon="7.25487">
        <ele>792</ele>
        <time>2015-03-01T09:24:19Z</time>
      </trkpt>
      <trkpt lat="43.77171" lon="7.25488">
        <ele>793</ele>
        <time>2015-03-01T09:24:22Z</time>
      </trkpt>
      <trkpt lat="43.7717" lon="7.25488">
        <ele>792</ele>
        <time>2015-03-01T09:25:01Z</time>
      </trkpt>
      <trkpt lat="43.7717" lon="7.25486">
        <ele>792</ele>
        <time>2015-03-01T09:28:52Z</time>
      </trkpt>
      <trkpt lat="43.77169" lon="7.25484">
        <ele>793</ele>
        <time>2015-03-01T09:28:55Z</time>
      </trkpt>
      <trkpt lat="43.77169" lon="7.25483">
        <ele>793</ele>
        <time>2015-03-01T09:29:37Z</time>
      </trkpt>
      <trkpt lat="43.7717" lon="7.25481">
        <ele>793</ele>
        <time>2015-03-01T09:29:40Z</time>
      </trkpt>
      <trkpt lat="43.77171" lon="7.25475">
        <ele>793</ele>
        <time>2015-03-01T09:31:13Z</time>
      </trkpt>
      <trkpt lat="43.77171" lon="7.25473">
        <ele>793</ele>
        <time>2015-03-01T09:31:16Z</time>
      </trkpt>
      <trkpt lat="43.77171" lon="7.25472">
        <ele>793</ele>
        <time>2015-03-01T09:31:19Z</time>
      </trkpt>
      <trkpt lat="43.77171" lon="7.25471">
        <ele>793</ele>
        <time>2015-03-01T09:31:34Z</time>
      </trkpt>
      <trkpt lat="43.77172" lon="7.25453">
        <ele>793</ele>
        <time>2015-03-01T09:31:37Z</time>
      </trkpt>
      <trkpt lat="43.77171" lon="7.25422">
        <ele>792</ele>
        <time>2015-03-01T09:31:40Z</time>
      </trkpt>
      <trkpt lat="43.77172" lon="7.2539">
        <ele>792</ele>
        <time>2015-03-01T09:31:43Z</time>
      </trkpt>
      <trkpt lat="43.77187" lon="7.25361">
        <ele>786</ele>
        <time>2015-03-01T09:31:46Z</time>
      </trkpt>
      <trkpt lat="43.77198" lon="7.25347">
        <ele>779</ele>
        <time>2015-03-01T09:31:49Z</time>
      </trkpt>
      <trkpt lat="43.77201" lon="7.25342">
        <ele>778</ele>
        <time>2015-03-01T09:31:52Z</time>
      </trkpt>
      <trkpt lat="43.77203" lon="7.25331">
        <ele>774</ele>
        <time>2015-03-01T09:31:55Z</time>
      </trkpt>
      <trkpt lat="43.77203" lon="7.25328">
        <ele>770</ele>
        <time>2015-03-01T09:31:58Z</time>
      </trkpt>
      <trkpt lat="43.77196" lon="7.25321">
        <ele>769</ele>
        <time>2015-03-01T09:32:01Z</time>
      </trkpt>
      <trkpt lat="43.77199" lon="7.25312">
        <ele>766</ele>
        <time>2015-03-01T09:32:04Z</time>
      </trkpt>
      <trkpt lat="43.772" lon="7.25304">
        <ele>764</ele>
        <time>2015-03-01T09:32:07Z</time>
      </trkpt>
      <trkpt lat="43.77207" lon="7.25297">
        <ele>761</ele>
        <time>2015-03-01T09:32:10Z</time>
      </trkpt>
      <trkpt lat="43.77219" lon="7.25293">
        <ele>756</ele>
        <time>2015-03-01T09:32:13Z</time>
      </trkpt>
      <trkpt lat="43.77234" lon="7.25289">
        <ele>752</ele>
        <time>2015-03-01T09:32:16Z</time>
      </trkpt>
      <trkpt lat="43.77247" lon="7.25281">
        <ele>748</ele>
        <time>2015-03-01T09:32:19Z</time>
      </trkpt>
      <trkpt lat="43.77257" lon="7.25275">
        <ele>744</ele>
        <time>2015-03-01T09:32:22Z</time>
      </trkpt>
      <trkpt lat="43.7726" lon="7.25267">
        <ele>742</ele>
        <time>2015-03-01T09:32:25Z</time>
      </trkpt>
      <trkpt lat="43.77258" lon="7.25259">
        <ele>738</ele>
        <time>2015-03-01T09:32:28Z</time>
      </trkpt>
      <trkpt lat="43.77255" lon="7.25251">
        <ele>735</ele>
        <time>2015-03-01T09:32:31Z</time>
      </trkpt>
      <trkpt lat="43.77256" lon="7.25242">
        <ele>732</ele>
        <time>2015-03-01T09:32:34Z</time>
      </trkpt>
      <trkpt lat="43.77259" lon="7.25237">
        <ele>728</ele>
        <time>2015-03-01T09:32:37Z</time>
      </trkpt>
      <trkpt lat="43.77261" lon="7.2523">
        <ele>726</ele>
        <time>2015-03-01T09:32:40Z</time>
      </trkpt>
      <trkpt lat="43.77251" lon="7.25221">
        <ele>723</ele>
        <time>2015-03-01T09:32:43Z</time>
      </trkpt>
      <trkpt lat="43.77248" lon="7.25213">
        <ele>719</ele>
        <time>2015-03-01T09:32:46Z</time>
      </trkpt>
      <trkpt lat="43.77259" lon="7.25207">
        <ele>717</ele>
        <time>2015-03-01T09:32:49Z</time>
      </trkpt>
      <trkpt lat="43.77264" lon="7.25193">
        <ele>714</ele>
        <time>2015-03-01T09:32:52Z</time>
      </trkpt>
      <trkpt lat="43.77264" lon="7.25188">
        <ele>710</ele>
        <time>2015-03-01T09:32:55Z</time>
      </trkpt>
      <trkpt lat="43.77259" lon="7.25181">
        <ele>708</ele>
        <time>2015-03-01T09:32:58Z</time>
      </trkpt>
      <trkpt lat="43.7727" lon="7.2517">
        <ele>703</ele>
        <time>2015-03-01T09:33:01Z</time>
      </trkpt>
      <trkpt lat="43.77285" lon="7.25157">
        <ele>698</ele>
        <time>2015-03-01T09:33:04Z</time>
      </trkpt>
      <trkpt lat="43.773" lon="7.25146">
        <ele>694</ele>
        <time>2015-03-01T09:33:07Z</time>
      </trkpt>
      <trkpt lat="43.77314" lon="7.25138">
        <ele>690</ele>
        <time>2015-03-01T09:33:10Z</time>
      </trkpt>
      <trkpt lat="43.77305" lon="7.25125">
        <ele>687</ele>
        <time>2015-03-01T09:33:13Z</time>
      </trkpt>
      <trkpt lat="43.77295" lon="7.2512">
        <ele>684</ele>
        <time>2015-03-01T09:33:16Z</time>
      </trkpt>
      <trkpt lat="43.77291" lon="7.25118">
        <ele>681</ele>
        <time>2015-03-01T09:33:19Z</time>
      </trkpt>
      <trkpt lat="43.77282" lon="7.25112">
        <ele>678</ele>
        <time>2015-03-01T09:33:22Z</time>
      </trkpt>
      <trkpt lat="43.77273" lon="7.25113">
        <ele>676</ele>
        <time>2015-03-01T09:33:25Z</time>
      </trkpt>
      <trkpt lat="43.77269" lon="7.25115">
        <ele>677</ele>
        <time>2015-03-01T09:33:28Z</time>
      </trkpt>
      <trkpt lat="43.77262" lon="7.25116">
        <ele>676</ele>
        <time>2015-03-01T09:33:31Z</time>
      </trkpt>
      <trkpt lat="43.77246" lon="7.25107">
        <ele>672</ele>
        <time>2015-03-01T09:33:34Z</time>
      </trkpt>
      <trkpt lat="43.77227" lon="7.251">
        <ele>670</ele>
        <time>2015-03-01T09:33:37Z</time>
      </trkpt>
      <trkpt lat="43.77214" lon="7.25102">
        <ele>668</ele>
        <time>2015-03-01T09:33:40Z</time>
      </trkpt>
      <trkpt lat="43.77198" lon="7.25103">
        <ele>667</ele>
        <time>2015-03-01T09:33:43Z</time>
      </trkpt>
      <trkpt lat="43.77184" lon="7.25107">
        <ele>668</ele>
        <time>2015-03-01T09:33:46Z</time>
      </trkpt>
      <trkpt lat="43.77171" lon="7.25101">
        <ele>668</ele>
        <time>2015-03-01T09:33:49Z</time>
      </trkpt>
      <trkpt lat="43.77165" lon="7.25089">
        <ele>666</ele>
        <time>2015-03-01T09:33:52Z</time>
      </trkpt>
      <trkpt lat="43.77154" lon="7.25076">
        <ele>663</ele>
        <time>2015-03-01T09:33:55Z</time>
      </trkpt>
      <trkpt lat="43.77141" lon="7.25065">
        <ele>661</ele>
        <time>2015-03-01T09:33:58Z</time>
      </trkpt>
      <trkpt lat="43.77124" lon="7.25059">
        <ele>658</ele>
        <time>2015-03-01T09:34:01Z</time>
      </trkpt>
      <trkpt lat="43.77102" lon="7.2506">
        <ele>655</ele>
        <time>2015-03-01T09:34:04Z</time>
      </trkpt>
      <trkpt lat="43.7708" lon="7.25059">
        <ele>655</ele>
        <time>2015-03-01T09:34:07Z</time>
      </trkpt>
      <trkpt lat="43.77059" lon="7.25061">
        <ele>655</ele>
        <time>2015-03-01T09:34:10Z</time>
      </trkpt>
      <trkpt lat="43.7704" lon="7.25065">
        <ele>656</ele>
        <time>2015-03-01T09:34:13Z</time>
      </trkpt>
      <trkpt lat="43.77024" lon="7.25065">
        <ele>657</ele>
        <time>2015-03-01T09:34:16Z</time>
      </trkpt>
      <trkpt lat="43.77014" lon="7.25058">
        <ele>656</ele>
        <time>2015-03-01T09:34:19Z</time>
      </trkpt>
      <trkpt lat="43.77019" lon="7.25035">
        <ele>654</ele>
        <time>2015-03-01T09:34:22Z</time>
      </trkpt>
      <trkpt lat="43.77019" lon="7.25021">
        <ele>653</ele>
        <time>2015-03-01T09:34:25Z</time>
      </trkpt>
      <trkpt lat="43.77025" lon="7.25002">
        <ele>650</ele>
        <time>2015-03-01T09:34:28Z</time>
      </trkpt>
      <trkpt lat="43.7704" lon="7.24991">
        <ele>648</ele>
        <time>2015-03-01T09:34:31Z</time>
      </trkpt>
      <trkpt lat="43.77045" lon="7.24976">
        <ele>645</ele>
        <time>2015-03-01T09:34:34Z</time>
      </trkpt>
      <trkpt lat="43.77037" lon="7.24962">
        <ele>641</ele>
        <time>2015-03-01T09:34:37Z</time>
      </trkpt>
      <trkpt lat="43.77024" lon="7.24967">
        <ele>640</ele>
        <time>2015-03-01T09:34:40Z</time>
      </trkpt>
      <trkpt lat="43.77016" lon="7.24975">
        <ele>643</ele>
        <time>2015-03-01T09:34:43Z</time>
      </trkpt>
      <trkpt lat="43.77006" lon="7.24982">
        <ele>642</ele>
        <time>2015-03-01T09:34:46Z</time>
      </trkpt>
      <trkpt lat="43.76991" lon="7.24989">
        <ele>642</ele>
        <time>2015-03-01T09:34:49Z</time>
      </trkpt>
      <trkpt lat="43.76973" lon="7.24996">
        <ele>640</ele>
        <time>2015-03-01T09:34:52Z</time>
      </trkpt>
      <trkpt lat="43.76952" lon="7.25003">
        <ele>639</ele>
        <time>2015-03-01T09:34:55Z</time>
      </trkpt>
      <trkpt lat="43.76934" lon="7.25007">
        <ele>637</ele>
        <time>2015-03-01T09:34:58Z</time>
      </trkpt>
      <trkpt lat="43.76914" lon="7.25018">
        <ele>633</ele>
        <time>2015-03-01T09:35:01Z</time>
      </trkpt>
      <trkpt lat="43.76893" lon="7.2503">
        <ele>630</ele>
        <time>2015-03-01T09:35:04Z</time>
      </trkpt>
      <trkpt lat="43.76868" lon="7.25033">
        <ele>627</ele>
        <time>2015-03-01T09:35:07Z</time>
      </trkpt>
      <trkpt lat="43.76842" lon="7.25037">
        <ele>623</ele>
        <time>2015-03-01T09:35:10Z</time>
      </trkpt>
      <trkpt lat="43.76817" lon="7.25046">
        <ele>620</ele>
        <time>2015-03-01T09:35:13Z</time>
      </trkpt>
      <trkpt lat="43.768" lon="7.25035">
        <ele>619</ele>
        <time>2015-03-01T09:35:16Z</time>
      </trkpt>
      <trkpt lat="43.76783" lon="7.25033">
        <ele>619</ele>
        <time>2015-03-01T09:35:19Z</time>
      </trkpt>
      <trkpt lat="43.76775" lon="7.25053">
        <ele>619</ele>
        <time>2015-03-01T09:35:22Z</time>
      </trkpt>
      <trkpt lat="43.76769" lon="7.25078">
        <ele>613</ele>
        <time>2015-03-01T09:35:25Z</time>
      </trkpt>
      <trkpt lat="43.76754" lon="7.25099">
        <ele>608</ele>
        <time>2015-03-01T09:35:28Z</time>
      </trkpt>
      <trkpt lat="43.76747" lon="7.25119">
        <ele>606</ele>
        <time>2015-03-01T09:35:31Z</time>
      </trkpt>
      <trkpt lat="43.76739" lon="7.2514">
        <ele>602</ele>
        <time>2015-03-01T09:35:34Z</time>
      </trkpt>
      <trkpt lat="43.76729" lon="7.25156">
        <ele>596</ele>
        <time>2015-03-01T09:35:37Z</time>
      </trkpt>
      <trkpt lat="43.76715" lon="7.25172">
        <ele>591</ele>
        <time>2015-03-01T09:35:40Z</time>
      </trkpt>
      <trkpt lat="43.76695" lon="7.25186">
        <ele>586</ele>
        <time>2015-03-01T09:35:43Z</time>
      </trkpt>
      <trkpt lat="43.76673" lon="7.252">
        <ele>583</ele>
        <time>2015-03-01T09:35:46Z</time>
      </trkpt>
      <trkpt lat="43.76659" lon="7.25218">
        <ele>579</ele>
        <time>2015-03-01T09:35:49Z</time>
      </trkpt>
      <trkpt lat="43.76658" lon="7.25235">
        <ele>577</ele>
        <time>2015-03-01T09:35:52Z</time>
      </trkpt>
      <trkpt lat="43.76648" lon="7.25253">
        <ele>574</ele>
        <time>2015-03-01T09:35:55Z</time>
      </trkpt>
      <trkpt lat="43.7663" lon="7.25273">
        <ele>568</ele>
        <time>2015-03-01T09:35:58Z</time>
      </trkpt>
      <trkpt lat="43.76609" lon="7.25297">
        <ele>562</ele>
        <time>2015-03-01T09:36:01Z</time>
      </trkpt>
      <trkpt lat="43.76598" lon="7.25322">
        <ele>557</ele>
        <time>2015-03-01T09:36:04Z</time>
      </trkpt>
      <trkpt lat="43.76602" lon="7.25335">
        <ele>556</ele>
        <time>2015-03-01T09:36:07Z</time>
      </trkpt>
      <trkpt lat="43.76617" lon="7.25331">
        <ele>554</ele>
        <time>2015-03-01T09:36:10Z</time>
      </trkpt>
      <trkpt lat="43.76635" lon="7.25327">
        <ele>548</ele>
        <time>2015-03-01T09:36:13Z</time>
      </trkpt>
      <trkpt lat="43.76649" lon="7.25333">
        <ele>545</ele>
        <time>2015-03-01T09:36:16Z</time>
      </trkpt>
      <trkpt lat="43.76664" lon="7.25341">
        <ele>542</ele>
        <time>2015-03-01T09:36:19Z</time>
      </trkpt>
      <trkpt lat="43.76672" lon="7.25346">
        <ele>540</ele>
        <time>2015-03-01T09:36:22Z</time>
      </trkpt>
      <trkpt lat="43.76675" lon="7.25352">
        <ele>540</ele>
        <time>2015-03-01T09:36:25Z</time>
      </trkpt>
      <trkpt lat="43.76675" lon="7.2537">
        <ele>538</ele>
        <time>2015-03-01T09:36:28Z</time>
      </trkpt>
      <trkpt lat="43.76671" lon="7.25392">
        <ele>537</ele>
        <time>2015-03-01T09:36:31Z</time>
      </trkpt>
      <trkpt lat="43.76671" lon="7.25414">
        <ele>536</ele>
        <time>2015-03-01T09:36:34Z</time>
      </trkpt>
      <trkpt lat="43.76669" lon="7.25435">
        <ele>533</ele>
        <time>2015-03-01T09:36:37Z</time>
      </trkpt>
      <trkpt lat="43.76666" lon="7.25458">
        <ele>530</ele>
        <time>2015-03-01T09:36:40Z</time>
      </trkpt>
      <trkpt lat="43.76665" lon="7.25474">
        <ele>529</ele>
        <time>2015-03-01T09:36:43Z</time>
      </trkpt>
      <trkpt lat="43.76655" lon="7.25476">
        <ele>528</ele>
        <time>2015-03-01T09:36:46Z</time>
      </trkpt>
      <trkpt lat="43.76645" lon="7.25482">
        <ele>524</ele>
        <time>2015-03-01T09:36:49Z</time>
      </trkpt>
      <trkpt lat="43.76639" lon="7.25469">
        <ele>523</ele>
        <time>2015-03-01T09:36:52Z</time>
      </trkpt>
      <trkpt lat="43.76633" lon="7.25455">
        <ele>523</ele>
        <time>2015-03-01T09:36:55Z</time>
      </trkpt>
      <trkpt lat="43.7662" lon="7.25459">
        <ele>521</ele>
        <time>2015-03-01T09:36:58Z</time>
      </trkpt>
      <trkpt lat="43.76613" lon="7.25476">
        <ele>517</ele>
        <time>2015-03-01T09:37:01Z</time>
      </trkpt>
      <trkpt lat="43.76609" lon="7.25493">
        <ele>513</ele>
        <time>2015-03-01T09:37:04Z</time>
      </trkpt>
      <trkpt lat="43.76607" lon="7.2551">
        <ele>509</ele>
        <time>2015-03-01T09:37:07Z</time>
      </trkpt>
      <trkpt lat="43.76607" lon="7.25528">
        <ele>505</ele>
        <time>2015-03-01T09:37:10Z</time>
      </trkpt>
      <trkpt lat="43.76601" lon="7.2554">
        <ele>502</ele>
        <time>2015-03-01T09:37:13Z</time>
      </trkpt>
      <trkpt lat="43.76595" lon="7.25546">
        <ele>499</ele>
        <time>2015-03-01T09:37:16Z</time>
      </trkpt>
      <trkpt lat="43.76593" lon="7.25552">
        <ele>497</ele>
        <time>2015-03-01T09:37:19Z</time>
      </trkpt>
      <trkpt lat="43.76584" lon="7.25549">
        <ele>495</ele>
        <time>2015-03-01T09:37:22Z</time>
      </trkpt>
      <trkpt lat="43.76573" lon="7.25559">
        <ele>491</ele>
        <time>2015-03-01T09:37:25Z</time>
      </trkpt>
      <trkpt lat="43.76563" lon="7.25577">
        <ele>488</ele>
        <time>2015-03-01T09:37:28Z</time>
      </trkpt>
      <trkpt lat="43.76549" lon="7.25583">
        <ele>486</ele>
        <time>2015-03-01T09:37:31Z</time>
      </trkpt>
      <trkpt lat="43.76539" lon="7.25595">
        <ele>483</ele>
        <time>2015-03-01T09:37:34Z</time>
      </trkpt>
      <trkpt lat="43.76537" lon="7.25617">
        <ele>481</ele>
        <time>2015-03-01T09:37:37Z</time>
      </trkpt>
      <trkpt lat="43.76529" lon="7.2563">
        <ele>480</ele>
        <time>2015-03-01T09:37:40Z</time>
      </trkpt>
      <trkpt lat="43.7652" lon="7.25637">
        <ele>477</ele>
        <time>2015-03-01T09:37:43Z</time>
      </trkpt>
      <trkpt lat="43.76508" lon="7.2565">
        <ele>474</ele>
        <time>2015-03-01T09:37:46Z</time>
      </trkpt>
      <trkpt lat="43.76496" lon="7.25667">
        <ele>469</ele>
        <time>2015-03-01T09:37:49Z</time>
      </trkpt>
      <trkpt lat="43.76484" lon="7.25681">
        <ele>464</ele>
        <time>2015-03-01T09:37:52Z</time>
      </trkpt>
      <trkpt lat="43.76488" lon="7.25695">
        <ele>462</ele>
        <time>2015-03-01T09:37:55Z</time>
      </trkpt>
      <trkpt lat="43.76504" lon="7.25711">
        <ele>460</ele>
        <time>2015-03-01T09:37:58Z</time>
      </trkpt>
      <trkpt lat="43.76514" lon="7.25738">
        <ele>459</ele>
        <time>2015-03-01T09:38:01Z</time>
      </trkpt>
      <trkpt lat="43.76517" lon="7.25768">
        <ele>458</ele>
        <time>2015-03-01T09:38:04Z</time>
      </trkpt>
      <trkpt lat="43.76522" lon="7.25795">
        <ele>460</ele>
        <time>2015-03-01T09:38:07Z</time>
      </trkpt>
      <trkpt lat="43.7653" lon="7.25817">
        <ele>460</ele>
        <time>2015-03-01T09:38:10Z</time>
      </trkpt>
      <trkpt lat="43.76538" lon="7.25831">
        <ele>464</ele>
        <time>2015-03-01T09:38:13Z</time>
      </trkpt>
      <trkpt lat="43.76545" lon="7.25841">
        <ele>466</ele>
        <time>2015-03-01T09:38:16Z</time>
      </trkpt>
      <trkpt lat="43.76551" lon="7.25852">
        <ele>468</ele>
        <time>2015-03-01T09:38:19Z</time>
      </trkpt>
      <trkpt lat="43.76554" lon="7.25867">
        <ele>469</ele>
        <time>2015-03-01T09:38:22Z</time>
      </trkpt>
      <trkpt lat="43.76561" lon="7.25884">
        <ele>469</ele>
        <time>2015-03-01T09:38:25Z</time>
      </trkpt>
      <trkpt lat="43.76571" lon="7.259">
        <ele>469</ele>
        <time>2015-03-01T09:38:28Z</time>
      </trkpt>
      <trkpt lat="43.76582" lon="7.25916">
        <ele>469</ele>
        <time>2015-03-01T09:38:31Z</time>
      </trkpt>
      <trkpt lat="43.76591" lon="7.25935">
        <ele>469</ele>
        <time>2015-03-01T09:38:34Z</time>
      </trkpt>
      <trkpt lat="43.76595" lon="7.2595">
        <ele>472</ele>
        <time>2015-03-01T09:38:37Z</time>
      </trkpt>
      <trkpt lat="43.76597" lon="7.25962">
        <ele>474</ele>
        <time>2015-03-01T09:38:40Z</time>
      </trkpt>
      <trkpt lat="43.766" lon="7.25975">
        <ele>476</ele>
        <time>2015-03-01T09:38:43Z</time>
      </trkpt>
      <trkpt lat="43.76603" lon="7.25987">
        <ele>477</ele>
        <time>2015-03-01T09:38:46Z</time>
      </trkpt>
      <trkpt lat="43.76605" lon="7.25997">
        <ele>478</ele>
        <time>2015-03-01T09:38:49Z</time>
      </trkpt>
      <trkpt lat="43.76602" lon="7.26006">
        <ele>479</ele>
        <time>2015-03-01T09:38:52Z</time>
      </trkpt>
      <trkpt lat="43.76598" lon="7.26019">
        <ele>476</ele>
        <time>2015-03-01T09:38:55Z</time>
      </trkpt>
      <trkpt lat="43.76595" lon="7.26027">
        <ele>472</ele>
        <time>2015-03-01T09:38:58Z</time>
      </trkpt>
      <trkpt lat="43.76585" lon="7.26016">
        <ele>469</ele>
        <time>2015-03-01T09:39:01Z</time>
      </trkpt>
      <trkpt lat="43.76576" lon="7.2602">
        <ele>465</ele>
        <time>2015-03-01T09:39:04Z</time>
      </trkpt>
      <trkpt lat="43.76564" lon="7.26016">
        <ele>461</ele>
        <time>2015-03-01T09:39:07Z</time>
      </trkpt>
      <trkpt lat="43.76551" lon="7.26003">
        <ele>460</ele>
        <time>2015-03-01T09:39:10Z</time>
      </trkpt>
      <trkpt lat="43.7654" lon="7.26">
        <ele>457</ele>
        <time>2015-03-01T09:39:13Z</time>
      </trkpt>
      <trkpt lat="43.7653" lon="7.2601">
        <ele>455</ele>
        <time>2015-03-01T09:39:16Z</time>
      </trkpt>
      <trkpt lat="43.76514" lon="7.26011">
        <ele>452</ele>
        <time>2015-03-01T09:39:19Z</time>
      </trkpt>
      <trkpt lat="43.76501" lon="7.2601">
        <ele>448</ele>
        <time>2015-03-01T09:39:22Z</time>
      </trkpt>
      <trkpt lat="43.76495" lon="7.26014">
        <ele>444</ele>
        <time>2015-03-01T09:39:25Z</time>
      </trkpt>
      <trkpt lat="43.76489" lon="7.26015">
        <ele>442</ele>
        <time>2015-03-01T09:39:28Z</time>
      </trkpt>
      <trkpt lat="43.76482" lon="7.26006">
        <ele>441</ele>
        <time>2015-03-01T09:39:31Z</time>
      </trkpt>
      <trkpt lat="43.76476" lon="7.26008">
        <ele>439</ele>
        <time>2015-03-01T09:39:34Z</time>
      </trkpt>
      <trkpt lat="43.76468" lon="7.26015">
        <ele>437</ele>
        <time>2015-03-01T09:39:37Z</time>
      </trkpt>
      <trkpt lat="43.76459" lon="7.2602">
        <ele>434</ele>
        <time>2015-03-01T09:39:40Z</time>
      </trkpt>
      <trkpt lat="43.76455" lon="7.26032">
        <ele>432</ele>
        <time>2015-03-01T09:39:43Z</time>
      </trkpt>
      <trkpt lat="43.76452" lon="7.26046">
        <ele>428</ele>
        <time>2015-03-01T09:39:46Z</time>
      </trkpt>
      <trkpt lat="43.76445" lon="7.26059">
        <ele>425</ele>
        <time>2015-03-01T09:39:49Z</time>
      </trkpt>
      <trkpt lat="43.76438" lon="7.26066">
        <ele>422</ele>
        <time>2015-03-01T09:39:52Z</time>
      </trkpt>
      <trkpt lat="43.76445" lon="7.26077">
        <ele>420</ele>
        <time>2015-03-01T09:39:55Z</time>
      </trkpt>
      <trkpt lat="43.76462" lon="7.26088">
        <ele>416</ele>
        <time>2015-03-01T09:39:58Z</time>
      </trkpt>
      <trkpt lat="43.76474" lon="7.26101">
        <ele>416</ele>
        <time>2015-03-01T09:40:01Z</time>
      </trkpt>
      <trkpt lat="43.76476" lon="7.26104">
        <ele>416</ele>
        <time>2015-03-01T09:40:04Z</time>
      </trkpt>
      <trkpt lat="43.76477" lon="7.26106">
        <ele>417</ele>
        <time>2015-03-01T09:40:07Z</time>
      </trkpt>
      <trkpt lat="43.76475" lon="7.26106">
        <ele>417</ele>
        <time>2015-03-01T09:40:28Z</time>
      </trkpt>
      <trkpt lat="43.76474" lon="7.26106">
        <ele>417</ele>
        <time>2015-03-01T09:40:31Z</time>
      </trkpt>
      <trkpt lat="43.76474" lon="7.26107">
        <ele>416</ele>
        <time>2015-03-01T09:40:34Z</time>
      </trkpt>
      <trkpt lat="43.76476" lon="7.26107">
        <ele>417</ele>
        <time>2015-03-01T09:40:37Z</time>
      </trkpt>
      <trkpt lat="43.76478" lon="7.26108">
        <ele>417</ele>
        <time>2015-03-01T09:40:40Z</time>
      </trkpt>
      <trkpt lat="43.76482" lon="7.26111">
        <ele>417</ele>
        <time>2015-03-01T09:40:43Z</time>
      </trkpt>
      <trkpt lat="43.76486" lon="7.26113">
        <ele>417</ele>
        <time>2015-03-01T09:40:46Z</time>
      </trkpt>
      <trkpt lat="43.76489" lon="7.26112">
        <ele>418</ele>
        <time>2015-03-01T09:40:49Z</time>
      </trkpt>
      <trkpt lat="43.76492" lon="7.26115">
        <ele>418</ele>
        <time>2015-03-01T09:40:52Z</time>
      </trkpt>
      <trkpt lat="43.76494" lon="7.26118">
        <ele>418</ele>
        <time>2015-03-01T09:40:55Z</time>
      </trkpt>
      <trkpt lat="43.76495" lon="7.26119">
        <ele>418</ele>
        <time>2015-03-01T09:40:58Z</time>
      </trkpt>
      <trkpt lat="43.76495" lon="7.26118">
        <ele>418</ele>
        <time>2015-03-01T09:41:34Z</time>
      </trkpt>
      <trkpt lat="43.76496" lon="7.26118">
        <ele>418</ele>
        <time>2015-03-01T09:43:37Z</time>
      </trkpt>
      <trkpt lat="43.76498" lon="7.26122">
        <ele>418</ele>
        <time>2015-03-01T09:43:40Z</time>
      </trkpt>
      <trkpt lat="43.76502" lon="7.26126">
        <ele>418</ele>
        <time>2015-03-01T09:43:43Z</time>
      </trkpt>
      <trkpt lat="43.76506" lon="7.26129">
        <ele>419</ele>
        <time>2015-03-01T09:43:46Z</time>
      </trkpt>
      <trkpt lat="43.7651" lon="7.26132">
        <ele>419</ele>
        <time>2015-03-01T09:43:49Z</time>
      </trkpt>
      <trkpt lat="43.76514" lon="7.26134">
        <ele>420</ele>
        <time>2015-03-01T09:43:52Z</time>
      </trkpt>
      <trkpt lat="43.76517" lon="7.26137">
        <ele>420</ele>
        <time>2015-03-01T09:43:55Z</time>
      </trkpt>
      <trkpt lat="43.7652" lon="7.26136">
        <ele>420</ele>
        <time>2015-03-01T09:43:58Z</time>
      </trkpt>
      <trkpt lat="43.76521" lon="7.26138">
        <ele>421</ele>
        <time>2015-03-01T09:44:01Z</time>
      </trkpt>
      <trkpt lat="43.76523" lon="7.26139">
        <ele>421</ele>
        <time>2015-03-01T09:44:04Z</time>
      </trkpt>
      <trkpt lat="43.76526" lon="7.26141">
        <ele>421</ele>
        <time>2015-03-01T09:44:07Z</time>
      </trkpt>
      <trkpt lat="43.76528" lon="7.26142">
        <ele>421</ele>
        <time>2015-03-01T09:44:10Z</time>
      </trkpt>
      <trkpt lat="43.76531" lon="7.26142">
        <ele>422</ele>
        <time>2015-03-01T09:44:13Z</time>
      </trkpt>
      <trkpt lat="43.76534" lon="7.26143">
        <ele>422</ele>
        <time>2015-03-01T09:44:16Z</time>
      </trkpt>
      <trkpt lat="43.76535" lon="7.26146">
        <ele>422</ele>
        <time>2015-03-01T09:44:19Z</time>
      </trkpt>
      <trkpt lat="43.76538" lon="7.26146">
        <ele>422</ele>
        <time>2015-03-01T09:44:22Z</time>
      </trkpt>
      <trkpt lat="43.7654" lon="7.26147">
        <ele>422</ele>
        <time>2015-03-01T09:44:25Z</time>
      </trkpt>
      <trkpt lat="43.76543" lon="7.2615">
        <ele>422</ele>
        <time>2015-03-01T09:44:28Z</time>
      </trkpt>
      <trkpt lat="43.76547" lon="7.2615">
        <ele>423</ele>
        <time>2015-03-01T09:44:31Z</time>
      </trkpt>
      <trkpt lat="43.76551" lon="7.26151">
        <ele>423</ele>
        <time>2015-03-01T09:44:34Z</time>
      </trkpt>
      <trkpt lat="43.76554" lon="7.26153">
        <ele>424</ele>
        <time>2015-03-01T09:44:37Z</time>
      </trkpt>
      <trkpt lat="43.76558" lon="7.26156">
        <ele>424</ele>
        <time>2015-03-01T09:44:40Z</time>
      </trkpt>
      <trkpt lat="43.76562" lon="7.26158">
        <ele>424</ele>
        <time>2015-03-01T09:44:43Z</time>
      </trkpt>
      <trkpt lat="43.76566" lon="7.26161">
        <ele>425</ele>
        <time>2015-03-01T09:44:46Z</time>
      </trkpt>
      <trkpt lat="43.76571" lon="7.26163">
        <ele>425</ele>
        <time>2015-03-01T09:44:49Z</time>
      </trkpt>
      <trkpt lat="43.76575" lon="7.26167">
        <ele>425</ele>
        <time>2015-03-01T09:44:52Z</time>
      </trkpt>
      <trkpt lat="43.76579" lon="7.26171">
        <ele>426</ele>
        <time>2015-03-01T09:44:55Z</time>
      </trkpt>
      <trkpt lat="43.76583" lon="7.26174">
        <ele>427</ele>
        <time>2015-03-01T09:44:58Z</time>
      </trkpt>
      <trkpt lat="43.76588" lon="7.26176">
        <ele>427</ele>
        <time>2015-03-01T09:45:01Z</time>
      </trkpt>
      <trkpt lat="43.76592" lon="7.2618">
        <ele>427</ele>
        <time>2015-03-01T09:45:04Z</time>
      </trkpt>
      <trkpt lat="43.76596" lon="7.26184">
        <ele>428</ele>
        <time>2015-03-01T09:45:07Z</time>
      </trkpt>
      <trkpt lat="43.766" lon="7.26188">
        <ele>428</ele>
        <time>2015-03-01T09:45:10Z</time>
      </trkpt>
      <trkpt lat="43.76604" lon="7.26192">
        <ele>429</ele>
        <time>2015-03-01T09:45:13Z</time>
      </trkpt>
      <trkpt lat="43.76608" lon="7.26194">
        <ele>429</ele>
        <time>2015-03-01T09:45:16Z</time>
      </trkpt>
      <trkpt lat="43.76612" lon="7.26198">
        <ele>429</ele>
        <time>2015-03-01T09:45:19Z</time>
      </trkpt>
      <trkpt lat="43.76616" lon="7.26201">
        <ele>430</ele>
        <time>2015-03-01T09:45:22Z</time>
      </trkpt>
      <trkpt lat="43.7662" lon="7.26206">
        <ele>431</ele>
        <time>2015-03-01T09:45:25Z</time>
      </trkpt>
      <trkpt lat="43.76624" lon="7.26209">
        <ele>431</ele>
        <time>2015-03-01T09:45:28Z</time>
      </trkpt>
      <trkpt lat="43.76629" lon="7.26214">
        <ele>431</ele>
        <time>2015-03-01T09:45:31Z</time>
      </trkpt>
      <trkpt lat="43.76633" lon="7.2622">
        <ele>432</ele>
        <time>2015-03-01T09:45:34Z</time>
      </trkpt>
      <trkpt lat="43.76636" lon="7.26227">
        <ele>432</ele>
        <time>2015-03-01T09:45:37Z</time>
      </trkpt>
      <trkpt lat="43.76637" lon="7.26234">
        <ele>432</ele>
        <time>2015-03-01T09:45:40Z</time>
      </trkpt>
      <trkpt lat="43.76638" lon="7.26242">
        <ele>433</ele>
        <time>2015-03-01T09:45:43Z</time>
      </trkpt>
      <trkpt lat="43.76637" lon="7.2625">
        <ele>433</ele>
        <time>2015-03-01T09:45:46Z</time>
      </trkpt>
      <trkpt lat="43.76634" lon="7.26257">
        <ele>434</ele>
        <time>2015-03-01T09:45:49Z</time>
      </trkpt>
      <trkpt lat="43.76631" lon="7.26263">
        <ele>435</ele>
        <time>2015-03-01T09:45:52Z</time>
      </trkpt>
      <trkpt lat="43.76627" lon="7.26269">
        <ele>435</ele>
        <time>2015-03-01T09:45:55Z</time>
      </trkpt>
      <trkpt lat="43.76623" lon="7.26275">
        <ele>435</ele>
        <time>2015-03-01T09:45:58Z</time>
      </trkpt>
      <trkpt lat="43.76619" lon="7.26281">
        <ele>436</ele>
        <time>2015-03-01T09:46:01Z</time>
      </trkpt>
      <trkpt lat="43.76616" lon="7.26287">
        <ele>436</ele>
        <time>2015-03-01T09:46:04Z</time>
      </trkpt>
      <trkpt lat="43.76612" lon="7.26292">
        <ele>437</ele>
        <time>2015-03-01T09:46:07Z</time>
      </trkpt>
      <trkpt lat="43.76608" lon="7.26297">
        <ele>437</ele>
        <time>2015-03-01T09:46:10Z</time>
      </trkpt>
      <trkpt lat="43.76604" lon="7.26302">
        <ele>438</ele>
        <time>2015-03-01T09:46:13Z</time>
      </trkpt>
      <trkpt lat="43.766" lon="7.26308">
        <ele>438</ele>
        <time>2015-03-01T09:46:16Z</time>
      </trkpt>
      <trkpt lat="43.76596" lon="7.26314">
        <ele>439</ele>
        <time>2015-03-01T09:46:19Z</time>
      </trkpt>
      <trkpt lat="43.76593" lon="7.2632">
        <ele>439</ele>
        <time>2015-03-01T09:46:22Z</time>
      </trkpt>
      <trkpt lat="43.76589" lon="7.26326">
        <ele>440</ele>
        <time>2015-03-01T09:46:25Z</time>
      </trkpt>
      <trkpt lat="43.76585" lon="7.26331">
        <ele>440</ele>
        <time>2015-03-01T09:46:28Z</time>
      </trkpt>
      <trkpt lat="43.76581" lon="7.26336">
        <ele>441</ele>
        <time>2015-03-01T09:46:31Z</time>
      </trkpt>
      <trkpt lat="43.76578" lon="7.26342">
        <ele>441</ele>
        <time>2015-03-01T09:46:34Z</time>
      </trkpt>
      <trkpt lat="43.76574" lon="7.26347">
        <ele>442</ele>
        <time>2015-03-01T09:46:37Z</time>
      </trkpt>
      <trkpt lat="43.76571" lon="7.26351">
        <ele>442</ele>
        <time>2015-03-01T09:46:40Z</time>
      </trkpt>
      <trkpt lat="43.76568" lon="7.26356">
        <ele>443</ele>
        <time>2015-03-01T09:46:43Z</time>
      </trkpt>
      <trkpt lat="43.76564" lon="7.26362">
        <ele>443</ele>
        <time>2015-03-01T09:46:46Z</time>
      </trkpt>
      <trkpt lat="43.76561" lon="7.26368">
        <ele>444</ele>
        <time>2015-03-01T09:46:49Z</time>
      </trkpt>
      <trkpt lat="43.76558" lon="7.26373">
        <ele>444</ele>
        <time>2015-03-01T09:46:52Z</time>
      </trkpt>
      <trkpt lat="43.76554" lon="7.26378">
        <ele>445</ele>
        <time>2015-03-01T09:46:55Z</time>
      </trkpt>
      <trkpt lat="43.76551" lon="7.26384">
        <ele>445</ele>
        <time>2015-03-01T09:46:58Z</time>
      </trkpt>
      <trkpt lat="43.76547" lon="7.2639">
        <ele>446</ele>
        <time>2015-03-01T09:47:01Z</time>
      </trkpt>
      <trkpt lat="43.76544" lon="7.26396">
        <ele>446</ele>
        <time>2015-03-01T09:47:04Z</time>
      </trkpt>
      <trkpt lat="43.76541" lon="7.26401">
        <ele>447</ele>
        <time>2015-03-01T09:47:07Z</time>
      </trkpt>
      <trkpt lat="43.76537" lon="7.26407">
        <ele>447</ele>
        <time>2015-03-01T09:47:10Z</time>
      </trkpt>
      <trkpt lat="43.76533" lon="7.26413">
        <ele>448</ele>
        <time>2015-03-01T09:47:13Z</time>
      </trkpt>
      <trkpt lat="43.76529" lon="7.2642">
        <ele>448</ele>
        <time>2015-03-01T09:47:16Z</time>
      </trkpt>
      <trkpt lat="43.76524" lon="7.26425">
        <ele>448</ele>
        <time>2015-03-01T09:47:19Z</time>
      </trkpt>
      <trkpt lat="43.7652" lon="7.26431">
        <ele>449</ele>
        <time>2015-03-01T09:47:22Z</time>
      </trkpt>
      <trkpt lat="43.76516" lon="7.26438">
        <ele>449</ele>
        <time>2015-03-01T09:47:25Z</time>
      </trkpt>
      <trkpt lat="43.76512" lon="7.26447">
        <ele>449</ele>
        <time>2015-03-01T09:47:28Z</time>
      </trkpt>
      <trkpt lat="43.76509" lon="7.26455">
        <ele>449</ele>
        <time>2015-03-01T09:47:31Z</time>
      </trkpt>
      <trkpt lat="43.76506" lon="7.26464">
        <ele>449</ele>
        <time>2015-03-01T09:47:34Z</time>
      </trkpt>
      <trkpt lat="43.76502" lon="7.26473">
        <ele>450</ele>
        <time>2015-03-01T09:47:37Z</time>
      </trkpt>
      <trkpt lat="43.76502" lon="7.26484">
        <ele>450</ele>
        <time>2015-03-01T09:47:40Z</time>
      </trkpt>
      <trkpt lat="43.76504" lon="7.26494">
        <ele>450</ele>
        <time>2015-03-01T09:47:43Z</time>
      </trkpt>
      <trkpt lat="43.76509" lon="7.26507">
        <ele>450</ele>
        <time>2015-03-01T09:47:46Z</time>
      </trkpt>
      <trkpt lat="43.76514" lon="7.26519">
        <ele>450</ele>
        <time>2015-03-01T09:47:49Z</time>
      </trkpt>
      <trkpt lat="43.76519" lon="7.26532">
        <ele>450</ele>
        <time>2015-03-01T09:47:52Z</time>
      </trkpt>
      <trkpt lat="43.76523" lon="7.26544">
        <ele>450</ele>
        <time>2015-03-01T09:47:55Z</time>
      </trkpt>
      <trkpt lat="43.76528" lon="7.26554">
        <ele>450</ele>
        <time>2015-03-01T09:47:58Z</time>
      </trkpt>
      <trkpt lat="43.76534" lon="7.26566">
        <ele>450</ele>
        <time>2015-03-01T09:48:01Z</time>
      </trkpt>
      <trkpt lat="43.76541" lon="7.26576">
        <ele>450</ele>
        <time>2015-03-01T09:48:04Z</time>
      </trkpt>
      <trkpt lat="43.76548" lon="7.26588">
        <ele>450</ele>
        <time>2015-03-01T09:48:07Z</time>
      </trkpt>
      <trkpt lat="43.76553" lon="7.26602">
        <ele>449</ele>
        <time>2015-03-01T09:48:10Z</time>
      </trkpt>
      <trkpt lat="43.76555" lon="7.26617">
        <ele>450</ele>
        <time>2015-03-01T09:48:13Z</time>
      </trkpt>
      <trkpt lat="43.76555" lon="7.26632">
        <ele>450</ele>
        <time>2015-03-01T09:48:16Z</time>
      </trkpt>
      <trkpt lat="43.76554" lon="7.26646">
        <ele>450</ele>
        <time>2015-03-01T09:48:19Z</time>
      </trkpt>
      <trkpt lat="43.76554" lon="7.2666">
        <ele>450</ele>
        <time>2015-03-01T09:48:22Z</time>
      </trkpt>
      <trkpt lat="43.76554" lon="7.26673">
        <ele>451</ele>
        <time>2015-03-01T09:48:25Z</time>
      </trkpt>
      <trkpt lat="43.76553" lon="7.26687">
        <ele>451</ele>
        <time>2015-03-01T09:48:28Z</time>
      </trkpt>
      <trkpt lat="43.76553" lon="7.267">
        <ele>451</ele>
        <time>2015-03-01T09:48:31Z</time>
      </trkpt>
      <trkpt lat="43.76553" lon="7.26712">
        <ele>452</ele>
        <time>2015-03-01T09:48:34Z</time>
      </trkpt>
      <trkpt lat="43.76552" lon="7.26724">
        <ele>453</ele>
        <time>2015-03-01T09:48:37Z</time>
      </trkpt>
      <trkpt lat="43.76552" lon="7.26735">
        <ele>453</ele>
        <time>2015-03-01T09:48:40Z</time>
      </trkpt>
      <trkpt lat="43.76553" lon="7.26746">
        <ele>453</ele>
        <time>2015-03-01T09:48:43Z</time>
      </trkpt>
      <trkpt lat="43.76556" lon="7.26756">
        <ele>454</ele>
        <time>2015-03-01T09:48:46Z</time>
      </trkpt>
      <trkpt lat="43.76561" lon="7.26765">
        <ele>454</ele>
        <time>2015-03-01T09:48:49Z</time>
      </trkpt>
      <trkpt lat="43.76567" lon="7.26773">
        <ele>455</ele>
        <time>2015-03-01T09:48:52Z</time>
      </trkpt>
      <trkpt lat="43.76571" lon="7.26784">
        <ele>455</ele>
        <time>2015-03-01T09:48:55Z</time>
      </trkpt>
      <trkpt lat="43.76574" lon="7.26796">
        <ele>455</ele>
        <time>2015-03-01T09:48:58Z</time>
      </trkpt>
      <trkpt lat="43.76575" lon="7.2681">
        <ele>455</ele>
        <time>2015-03-01T09:49:01Z</time>
      </trkpt>
      <trkpt lat="43.76575" lon="7.26823">
        <ele>455</ele>
        <time>2015-03-01T09:49:04Z</time>
      </trkpt>
      <trkpt lat="43.76575" lon="7.26837">
        <ele>456</ele>
        <time>2015-03-01T09:49:07Z</time>
      </trkpt>
      <trkpt lat="43.76575" lon="7.26849">
        <ele>456</ele>
        <time>2015-03-01T09:49:10Z</time>
      </trkpt>
      <trkpt lat="43.76574" lon="7.26863">
        <ele>457</ele>
        <time>2015-03-01T09:49:13Z</time>
      </trkpt>
      <trkpt lat="43.76573" lon="7.26877">
        <ele>457</ele>
        <time>2015-03-01T09:49:16Z</time>
      </trkpt>
      <trkpt lat="43.76571" lon="7.26889">
        <ele>457</ele>
        <time>2015-03-01T09:49:19Z</time>
      </trkpt>
      <trkpt lat="43.76569" lon="7.26903">
        <ele>456</ele>
        <time>2015-03-01T09:49:22Z</time>
      </trkpt>
      <trkpt lat="43.76571" lon="7.26938">
        <ele>455</ele>
        <time>2015-03-01T09:49:28Z</time>
      </trkpt>
      <trkpt lat="43.76578" lon="7.26956">
        <ele>455</ele>
        <time>2015-03-01T09:49:31Z</time>
      </trkpt>
      <trkpt lat="43.76588" lon="7.26974">
        <ele>454</ele>
        <time>2015-03-01T09:49:34Z</time>
      </trkpt>
      <trkpt lat="43.766" lon="7.26992">
        <ele>452</ele>
        <time>2015-03-01T09:49:37Z</time>
      </trkpt>
      <trkpt lat="43.76613" lon="7.27007">
        <ele>452</ele>
        <time>2015-03-01T09:49:40Z</time>
      </trkpt>
      <trkpt lat="43.76624" lon="7.27022">
        <ele>452</ele>
        <time>2015-03-01T09:49:43Z</time>
      </trkpt>
      <trkpt lat="43.76627" lon="7.27041">
        <ele>452</ele>
        <time>2015-03-01T09:49:46Z</time>
      </trkpt>
      <trkpt lat="43.76621" lon="7.27058">
        <ele>452</ele>
        <time>2015-03-01T09:49:49Z</time>
      </trkpt>
      <trkpt lat="43.76613" lon="7.27073">
        <ele>452</ele>
        <time>2015-03-01T09:49:52Z</time>
      </trkpt>
      <trkpt lat="43.76605" lon="7.27087">
        <ele>451</ele>
        <time>2015-03-01T09:49:55Z</time>
      </trkpt>
      <trkpt lat="43.76596" lon="7.27101">
        <ele>452</ele>
        <time>2015-03-01T09:49:58Z</time>
      </trkpt>
      <trkpt lat="43.76586" lon="7.27113">
        <ele>451</ele>
        <time>2015-03-01T09:50:01Z</time>
      </trkpt>
      <trkpt lat="43.76577" lon="7.27126">
        <ele>451</ele>
        <time>2015-03-01T09:50:04Z</time>
      </trkpt>
      <trkpt lat="43.76569" lon="7.27139">
        <ele>451</ele>
        <time>2015-03-01T09:50:07Z</time>
      </trkpt>
      <trkpt lat="43.76561" lon="7.27151">
        <ele>452</ele>
        <time>2015-03-01T09:50:10Z</time>
      </trkpt>
      <trkpt lat="43.76554" lon="7.27162">
        <ele>452</ele>
        <time>2015-03-01T09:50:13Z</time>
      </trkpt>
      <trkpt lat="43.76549" lon="7.27175">
        <ele>452</ele>
        <time>2015-03-01T09:50:16Z</time>
      </trkpt>
      <trkpt lat="43.76549" lon="7.27185">
        <ele>453</ele>
        <time>2015-03-01T09:50:19Z</time>
      </trkpt>
      <trkpt lat="43.76548" lon="7.27193">
        <ele>455</ele>
        <time>2015-03-01T09:50:22Z</time>
      </trkpt>
      <trkpt lat="43.76548" lon="7.27202">
        <ele>457</ele>
        <time>2015-03-01T09:50:25Z</time>
      </trkpt>
      <trkpt lat="43.76551" lon="7.2721">
        <ele>458</ele>
        <time>2015-03-01T09:50:28Z</time>
      </trkpt>
      <trkpt lat="43.76554" lon="7.27218">
        <ele>459</ele>
        <time>2015-03-01T09:50:31Z</time>
      </trkpt>
      <trkpt lat="43.76557" lon="7.27225">
        <ele>459</ele>
        <time>2015-03-01T09:50:34Z</time>
      </trkpt>
      <trkpt lat="43.7656" lon="7.27236">
        <ele>459</ele>
        <time>2015-03-01T09:50:37Z</time>
      </trkpt>
      <trkpt lat="43.76564" lon="7.27249">
        <ele>458</ele>
        <time>2015-03-01T09:50:40Z</time>
      </trkpt>
      <trkpt lat="43.76567" lon="7.27272">
        <ele>456</ele>
        <time>2015-03-01T09:50:43Z</time>
      </trkpt>
      <trkpt lat="43.76584" lon="7.27279">
        <ele>454</ele>
        <time>2015-03-01T09:50:46Z</time>
      </trkpt>
      <trkpt lat="43.76602" lon="7.27265">
        <ele>453</ele>
        <time>2015-03-01T09:50:49Z</time>
      </trkpt>
      <trkpt lat="43.76625" lon="7.27264">
        <ele>449</ele>
        <time>2015-03-01T09:50:52Z</time>
      </trkpt>
      <trkpt lat="43.76652" lon="7.27268">
        <ele>446</ele>
        <time>2015-03-01T09:50:55Z</time>
      </trkpt>
      <trkpt lat="43.76675" lon="7.27273">
        <ele>446</ele>
        <time>2015-03-01T09:50:58Z</time>
      </trkpt>
      <trkpt lat="43.76687" lon="7.2729">
        <ele>447</ele>
        <time>2015-03-01T09:51:01Z</time>
      </trkpt>
      <trkpt lat="43.76699" lon="7.2731">
        <ele>445</ele>
        <time>2015-03-01T09:51:04Z</time>
      </trkpt>
      <trkpt lat="43.76722" lon="7.27317">
        <ele>441</ele>
        <time>2015-03-01T09:51:07Z</time>
      </trkpt>
      <trkpt lat="43.76747" lon="7.27323">
        <ele>437</ele>
        <time>2015-03-01T09:51:10Z</time>
      </trkpt>
      <trkpt lat="43.76773" lon="7.27325">
        <ele>434</ele>
        <time>2015-03-01T09:51:13Z</time>
      </trkpt>
      <trkpt lat="43.76801" lon="7.27326">
        <ele>432</ele>
        <time>2015-03-01T09:51:16Z</time>
      </trkpt>
      <trkpt lat="43.7683" lon="7.27324">
        <ele>429</ele>
        <time>2015-03-01T09:51:19Z</time>
      </trkpt>
      <trkpt lat="43.76859" lon="7.2732">
        <ele>425</ele>
        <time>2015-03-01T09:51:22Z</time>
      </trkpt>
      <trkpt lat="43.76888" lon="7.27309">
        <ele>421</ele>
        <time>2015-03-01T09:51:25Z</time>
      </trkpt>
      <trkpt lat="43.76919" lon="7.27299">
        <ele>418</ele>
        <time>2015-03-01T09:51:28Z</time>
      </trkpt>
      <trkpt lat="43.7695" lon="7.27289">
        <ele>414</ele>
        <time>2015-03-01T09:51:31Z</time>
      </trkpt>
      <trkpt lat="43.76983" lon="7.27289">
        <ele>410</ele>
        <time>2015-03-01T09:51:34Z</time>
      </trkpt>
      <trkpt lat="43.77015" lon="7.27279">
        <ele>406</ele>
        <time>2015-03-01T09:51:37Z</time>
      </trkpt>
      <trkpt lat="43.77047" lon="7.27264">
        <ele>403</ele>
        <time>2015-03-01T09:51:40Z</time>
      </trkpt>
      <trkpt lat="43.77078" lon="7.2728">
        <ele>400</ele>
        <time>2015-03-01T09:51:43Z</time>
      </trkpt>
      <trkpt lat="43.77088" lon="7.27303">
        <ele>399</ele>
        <time>2015-03-01T09:51:46Z</time>
      </trkpt>
      <trkpt lat="43.77075" lon="7.27306">
        <ele>398</ele>
        <time>2015-03-01T09:51:49Z</time>
      </trkpt>
      <trkpt lat="43.77057" lon="7.27304">
        <ele>395</ele>
        <time>2015-03-01T09:51:52Z</time>
      </trkpt>
      <trkpt lat="43.77051" lon="7.27315">
        <ele>394</ele>
        <time>2015-03-01T09:51:55Z</time>
      </trkpt>
      <trkpt lat="43.77064" lon="7.2732">
        <ele>393</ele>
        <time>2015-03-01T09:51:58Z</time>
      </trkpt>
      <trkpt lat="43.77082" lon="7.27324">
        <ele>391</ele>
        <time>2015-03-01T09:52:01Z</time>
      </trkpt>
      <trkpt lat="43.77104" lon="7.27334">
        <ele>388</ele>
        <time>2015-03-01T09:52:04Z</time>
      </trkpt>
      <trkpt lat="43.77128" lon="7.27347">
        <ele>386</ele>
        <time>2015-03-01T09:52:07Z</time>
      </trkpt>
      <trkpt lat="43.77155" lon="7.27353">
        <ele>383</ele>
        <time>2015-03-01T09:52:10Z</time>
      </trkpt>
      <trkpt lat="43.77181" lon="7.2736">
        <ele>381</ele>
        <time>2015-03-01T09:52:13Z</time>
      </trkpt>
      <trkpt lat="43.77208" lon="7.27366">
        <ele>380</ele>
        <time>2015-03-01T09:52:16Z</time>
      </trkpt>
      <trkpt lat="43.77231" lon="7.27382">
        <ele>378</ele>
        <time>2015-03-01T09:52:19Z</time>
      </trkpt>
      <trkpt lat="43.77249" lon="7.27384">
        <ele>377</ele>
        <time>2015-03-01T09:52:22Z</time>
      </trkpt>
      <trkpt lat="43.77262" lon="7.27369">
        <ele>376</ele>
        <time>2015-03-01T09:52:25Z</time>
      </trkpt>
      <trkpt lat="43.77262" lon="7.27367">
        <ele>377</ele>
        <time>2015-03-01T09:52:28Z</time>
      </trkpt>
      <trkpt lat="43.77262" lon="7.27368">
        <ele>377</ele>
        <time>2015-03-01T09:52:31Z</time>
      </trkpt>
      <trkpt lat="43.77262" lon="7.27367">
        <ele>377</ele>
        <time>2015-03-01T09:52:40Z</time>
      </trkpt>
      <trkpt lat="43.77262" lon="7.27366">
        <ele>377</ele>
        <time>2015-03-01T09:52:43Z</time>
      </trkpt>
      <trkpt lat="43.77262" lon="7.27358">
        <ele>377</ele>
        <time>2015-03-01T09:52:46Z</time>
      </trkpt>
      <trkpt lat="43.77262" lon="7.27344">
        <ele>376</ele>
        <time>2015-03-01T09:52:49Z</time>
      </trkpt>
      <trkpt lat="43.77266" lon="7.2732">
        <ele>374</ele>
        <time>2015-03-01T09:52:52Z</time>
      </trkpt>
      <trkpt lat="43.77274" lon="7.27302">
        <ele>373</ele>
        <time>2015-03-01T09:52:55Z</time>
      </trkpt>
      <trkpt lat="43.77278" lon="7.27294">
        <ele>373</ele>
        <time>2015-03-01T09:52:58Z</time>
      </trkpt>
      <trkpt lat="43.77281" lon="7.2728">
        <ele>373</ele>
        <time>2015-03-01T09:53:01Z</time>
      </trkpt>
      <trkpt lat="43.77285" lon="7.27264">
        <ele>373</ele>
        <time>2015-03-01T09:53:04Z</time>
      </trkpt>
      <trkpt lat="43.77292" lon="7.27252">
        <ele>373</ele>
        <time>2015-03-01T09:53:07Z</time>
      </trkpt>
      <trkpt lat="43.77303" lon="7.27245">
        <ele>372</ele>
        <time>2015-03-01T09:53:10Z</time>
      </trkpt>
      <trkpt lat="43.77318" lon="7.27241">
        <ele>370</ele>
        <time>2015-03-01T09:53:13Z</time>
      </trkpt>
      <trkpt lat="43.77339" lon="7.27236">
        <ele>367</ele>
        <time>2015-03-01T09:53:16Z</time>
      </trkpt>
      <trkpt lat="43.77365" lon="7.27233">
        <ele>364</ele>
        <time>2015-03-01T09:53:19Z</time>
      </trkpt>
      <trkpt lat="43.77389" lon="7.27243">
        <ele>361</ele>
        <time>2015-03-01T09:53:22Z</time>
      </trkpt>
      <trkpt lat="43.77411" lon="7.27251">
        <ele>358</ele>
        <time>2015-03-01T09:53:25Z</time>
      </trkpt>
      <trkpt lat="43.77437" lon="7.27259">
        <ele>355</ele>
        <time>2015-03-01T09:53:28Z</time>
      </trkpt>
      <trkpt lat="43.77466" lon="7.27267">
        <ele>351</ele>
        <time>2015-03-01T09:53:31Z</time>
      </trkpt>
      <trkpt lat="43.775" lon="7.27273">
        <ele>345</ele>
        <time>2015-03-01T09:53:34Z</time>
      </trkpt>
      <trkpt lat="43.77535" lon="7.27274">
        <ele>340</ele>
        <time>2015-03-01T09:53:37Z</time>
      </trkpt>
      <trkpt lat="43.7757" lon="7.27275">
        <ele>335</ele>
        <time>2015-03-01T09:53:40Z</time>
      </trkpt>
      <trkpt lat="43.77606" lon="7.2728">
        <ele>331</ele>
        <time>2015-03-01T09:53:43Z</time>
      </trkpt>
      <trkpt lat="43.77641" lon="7.27279">
        <ele>329</ele>
        <time>2015-03-01T09:53:46Z</time>
      </trkpt>
      <trkpt lat="43.77673" lon="7.27282">
        <ele>327</ele>
        <time>2015-03-01T09:53:49Z</time>
      </trkpt>
      <trkpt lat="43.77705" lon="7.27276">
        <ele>326</ele>
        <time>2015-03-01T09:53:52Z</time>
      </trkpt>
      <trkpt lat="43.77728" lon="7.27268">
        <ele>328</ele>
        <time>2015-03-01T09:53:55Z</time>
      </trkpt>
      <trkpt lat="43.77742" lon="7.27255">
        <ele>330</ele>
        <time>2015-03-01T09:53:58Z</time>
      </trkpt>
      <trkpt lat="43.77753" lon="7.27242">
        <ele>332</ele>
        <time>2015-03-01T09:54:01Z</time>
      </trkpt>
      <trkpt lat="43.77765" lon="7.27235">
        <ele>332</ele>
        <time>2015-03-01T09:54:04Z</time>
      </trkpt>
      <trkpt lat="43.77777" lon="7.27229">
        <ele>332</ele>
        <time>2015-03-01T09:54:07Z</time>
      </trkpt>
      <trkpt lat="43.7779" lon="7.27225">
        <ele>331</ele>
        <time>2015-03-01T09:54:10Z</time>
      </trkpt>
      <trkpt lat="43.77805" lon="7.27221">
        <ele>330</ele>
        <time>2015-03-01T09:54:13Z</time>
      </trkpt>
      <trkpt lat="43.7782" lon="7.27213">
        <ele>330</ele>
        <time>2015-03-01T09:54:16Z</time>
      </trkpt>
      <trkpt lat="43.77835" lon="7.27208">
        <ele>329</ele>
        <time>2015-03-01T09:54:19Z</time>
      </trkpt>
      <trkpt lat="43.77849" lon="7.27204">
        <ele>330</ele>
        <time>2015-03-01T09:54:22Z</time>
      </trkpt>
      <trkpt lat="43.7786" lon="7.272">
        <ele>331</ele>
        <time>2015-03-01T09:54:25Z</time>
      </trkpt>
      <trkpt lat="43.77869" lon="7.27198">
        <ele>332</ele>
        <time>2015-03-01T09:54:28Z</time>
      </trkpt>
      <trkpt lat="43.77877" lon="7.27197">
        <ele>333</ele>
        <time>2015-03-01T09:54:31Z</time>
      </trkpt>
      <trkpt lat="43.77884" lon="7.27199">
        <ele>334</ele>
        <time>2015-03-01T09:54:34Z</time>
      </trkpt>
      <trkpt lat="43.7789" lon="7.27202">
        <ele>335</ele>
        <time>2015-03-01T09:54:37Z</time>
      </trkpt>
      <trkpt lat="43.77895" lon="7.27205">
        <ele>337</ele>
        <time>2015-03-01T09:54:40Z</time>
      </trkpt>
      <trkpt lat="43.779" lon="7.27208">
        <ele>337</ele>
        <time>2015-03-01T09:54:43Z</time>
      </trkpt>
      <trkpt lat="43.77905" lon="7.27212">
        <ele>338</ele>
        <time>2015-03-01T09:54:46Z</time>
      </trkpt>
      <trkpt lat="43.7791" lon="7.27216">
        <ele>339</ele>
        <time>2015-03-01T09:54:49Z</time>
      </trkpt>
      <trkpt lat="43.77914" lon="7.27221">
        <ele>339</ele>
        <time>2015-03-01T09:54:52Z</time>
      </trkpt>
      <trkpt lat="43.77919" lon="7.27225">
        <ele>340</ele>
        <time>2015-03-01T09:54:55Z</time>
      </trkpt>
      <trkpt lat="43.77924" lon="7.27228">
        <ele>341</ele>
        <time>2015-03-01T09:54:58Z</time>
      </trkpt>
      <trkpt lat="43.77928" lon="7.27232">
        <ele>342</ele>
        <time>2015-03-01T09:55:01Z</time>
      </trkpt>
      <trkpt lat="43.77932" lon="7.27236">
        <ele>343</ele>
        <time>2015-03-01T09:55:04Z</time>
      </trkpt>
      <trkpt lat="43.77937" lon="7.2724">
        <ele>344</ele>
        <time>2015-03-01T09:55:07Z</time>
      </trkpt>
      <trkpt lat="43.77941" lon="7.27243">
        <ele>344</ele>
        <time>2015-03-01T09:55:10Z</time>
      </trkpt>
      <trkpt lat="43.77946" lon="7.27246">
        <ele>345</ele>
        <time>2015-03-01T09:55:13Z</time>
      </trkpt>
      <trkpt lat="43.7795" lon="7.2725">
        <ele>346</ele>
        <time>2015-03-01T09:55:16Z</time>
      </trkpt>
      <trkpt lat="43.77954" lon="7.27253">
        <ele>347</ele>
        <time>2015-03-01T09:55:19Z</time>
      </trkpt>
      <trkpt lat="43.77959" lon="7.27256">
        <ele>347</ele>
        <time>2015-03-01T09:55:22Z</time>
      </trkpt>
      <trkpt lat="43.77964" lon="7.27258">
        <ele>348</ele>
        <time>2015-03-01T09:55:25Z</time>
      </trkpt>
      <trkpt lat="43.77968" lon="7.2726">
        <ele>349</ele>
        <time>2015-03-01T09:55:28Z</time>
      </trkpt>
      <trkpt lat="43.77972" lon="7.27262">
        <ele>349</ele>
        <time>2015-03-01T09:55:31Z</time>
      </trkpt>
      <trkpt lat="43.77977" lon="7.27262">
        <ele>350</ele>
        <time>2015-03-01T09:55:34Z</time>
      </trkpt>
      <trkpt lat="43.77982" lon="7.27261">
        <ele>351</ele>
        <time>2015-03-01T09:55:37Z</time>
      </trkpt>
      <trkpt lat="43.77987" lon="7.27261">
        <ele>351</ele>
        <time>2015-03-01T09:55:40Z</time>
      </trkpt>
      <trkpt lat="43.77992" lon="7.27261">
        <ele>352</ele>
        <time>2015-03-01T09:55:43Z</time>
      </trkpt>
      <trkpt lat="43.77996" lon="7.2726">
        <ele>353</ele>
        <time>2015-03-01T09:55:46Z</time>
      </trkpt>
      <trkpt lat="43.78" lon="7.27259">
        <ele>354</ele>
        <time>2015-03-01T09:55:49Z</time>
      </trkpt>
      <trkpt lat="43.78005" lon="7.27256">
        <ele>354</ele>
        <time>2015-03-01T09:55:52Z</time>
      </trkpt>
      <trkpt lat="43.78009" lon="7.27253">
        <ele>355</ele>
        <time>2015-03-01T09:55:55Z</time>
      </trkpt>
      <trkpt lat="43.78015" lon="7.27249">
        <ele>356</ele>
        <time>2015-03-01T09:55:58Z</time>
      </trkpt>
      <trkpt lat="43.7802" lon="7.27245">
        <ele>356</ele>
        <time>2015-03-01T09:56:01Z</time>
      </trkpt>
      <trkpt lat="43.78025" lon="7.27239">
        <ele>356</ele>
        <time>2015-03-01T09:56:04Z</time>
      </trkpt>
      <trkpt lat="43.7803" lon="7.27234">
        <ele>357</ele>
        <time>2015-03-01T09:56:07Z</time>
      </trkpt>
      <trkpt lat="43.78035" lon="7.27229">
        <ele>357</ele>
        <time>2015-03-01T09:56:10Z</time>
      </trkpt>
      <trkpt lat="43.7804" lon="7.27224">
        <ele>358</ele>
        <time>2015-03-01T09:56:13Z</time>
      </trkpt>
      <trkpt lat="43.78045" lon="7.27218">
        <ele>358</ele>
        <time>2015-03-01T09:56:16Z</time>
      </trkpt>
      <trkpt lat="43.7805" lon="7.27214">
        <ele>359</ele>
        <time>2015-03-01T09:56:19Z</time>
      </trkpt>
      <trkpt lat="43.78055" lon="7.2721">
        <ele>359</ele>
        <time>2015-03-01T09:56:22Z</time>
      </trkpt>
      <trkpt lat="43.7806" lon="7.27207">
        <ele>360</ele>
        <time>2015-03-01T09:56:25Z</time>
      </trkpt>
      <trkpt lat="43.78063" lon="7.27204">
        <ele>360</ele>
        <time>2015-03-01T09:56:28Z</time>
      </trkpt>
      <trkpt lat="43.78067" lon="7.27202">
        <ele>360</ele>
        <time>2015-03-01T09:56:31Z</time>
      </trkpt>
      <trkpt lat="43.78069" lon="7.27198">
        <ele>361</ele>
        <time>2015-03-01T09:56:34Z</time>
      </trkpt>
      <trkpt lat="43.78072" lon="7.27195">
        <ele>361</ele>
        <time>2015-03-01T09:56:37Z</time>
      </trkpt>
      <trkpt lat="43.78074" lon="7.27192">
        <ele>362</ele>
        <time>2015-03-01T09:56:40Z</time>
      </trkpt>
      <trkpt lat="43.78077" lon="7.27187">
        <ele>362</ele>
        <time>2015-03-01T09:56:43Z</time>
      </trkpt>
      <trkpt lat="43.7808" lon="7.27181">
        <ele>362</ele>
        <time>2015-03-01T09:56:46Z</time>
      </trkpt>
      <trkpt lat="43.78081" lon="7.27175">
        <ele>363</ele>
        <time>2015-03-01T09:56:49Z</time>
      </trkpt>
      <trkpt lat="43.78082" lon="7.27168">
        <ele>363</ele>
        <time>2015-03-01T09:56:52Z</time>
      </trkpt>
      <trkpt lat="43.78081" lon="7.27161">
        <ele>364</ele>
        <time>2015-03-01T09:56:55Z</time>
      </trkpt>
      <trkpt lat="43.7808" lon="7.27154">
        <ele>364</ele>
        <time>2015-03-01T09:56:58Z</time>
      </trkpt>
      <trkpt lat="43.78078" lon="7.27148">
        <ele>365</ele>
        <time>2015-03-01T09:57:01Z</time>
      </trkpt>
      <trkpt lat="43.78075" lon="7.27142">
        <ele>365</ele>
        <time>2015-03-01T09:57:04Z</time>
      </trkpt>
      <trkpt lat="43.78071" lon="7.27138">
        <ele>366</ele>
        <time>2015-03-01T09:57:07Z</time>
      </trkpt>
      <trkpt lat="43.78067" lon="7.27134">
        <ele>367</ele>
        <time>2015-03-01T09:57:10Z</time>
      </trkpt>
      <trkpt lat="43.78062" lon="7.27132">
        <ele>367</ele>
        <time>2015-03-01T09:57:13Z</time>
      </trkpt>
      <trkpt lat="43.78057" lon="7.2713">
        <ele>368</ele>
        <time>2015-03-01T09:57:16Z</time>
      </trkpt>
      <trkpt lat="43.78052" lon="7.27129">
        <ele>368</ele>
        <time>2015-03-01T09:57:19Z</time>
      </trkpt>
      <trkpt lat="43.78047" lon="7.27128">
        <ele>369</ele>
        <time>2015-03-01T09:57:22Z</time>
      </trkpt>
      <trkpt lat="43.78043" lon="7.27127">
        <ele>369</ele>
        <time>2015-03-01T09:57:25Z</time>
      </trkpt>
      <trkpt lat="43.78038" lon="7.27126">
        <ele>370</ele>
        <time>2015-03-01T09:57:28Z</time>
      </trkpt>
      <trkpt lat="43.78032" lon="7.27126">
        <ele>371</ele>
        <time>2015-03-01T09:57:31Z</time>
      </trkpt>
      <trkpt lat="43.78027" lon="7.27125">
        <ele>371</ele>
        <time>2015-03-01T09:57:34Z</time>
      </trkpt>
      <trkpt lat="43.78022" lon="7.27123">
        <ele>372</ele>
        <time>2015-03-01T09:57:37Z</time>
      </trkpt>
      <trkpt lat="43.78016" lon="7.2712">
        <ele>372</ele>
        <time>2015-03-01T09:57:40Z</time>
      </trkpt>
      <trkpt lat="43.78011" lon="7.27117">
        <ele>373</ele>
        <time>2015-03-01T09:57:43Z</time>
      </trkpt>
      <trkpt lat="43.78005" lon="7.27113">
        <ele>373</ele>
        <time>2015-03-01T09:57:46Z</time>
      </trkpt>
      <trkpt lat="43.78001" lon="7.27109">
        <ele>374</ele>
        <time>2015-03-01T09:57:49Z</time>
      </trkpt>
      <trkpt lat="43.77997" lon="7.27104">
        <ele>374</ele>
        <time>2015-03-01T09:57:52Z</time>
      </trkpt>
      <trkpt lat="43.77992" lon="7.27097">
        <ele>375</ele>
        <time>2015-03-01T09:57:55Z</time>
      </trkpt>
      <trkpt lat="43.77989" lon="7.2709">
        <ele>375</ele>
        <time>2015-03-01T09:57:58Z</time>
      </trkpt>
      <trkpt lat="43.77986" lon="7.27082">
        <ele>375</ele>
        <time>2015-03-01T09:58:01Z</time>
      </trkpt>
      <trkpt lat="43.77983" lon="7.27075">
        <ele>376</ele>
        <time>2015-03-01T09:58:04Z</time>
      </trkpt>
      <trkpt lat="43.77981" lon="7.27065">
        <ele>376</ele>
        <time>2015-03-01T09:58:07Z</time>
      </trkpt>
      <trkpt lat="43.77978" lon="7.27056">
        <ele>376</ele>
        <time>2015-03-01T09:58:10Z</time>
      </trkpt>
      <trkpt lat="43.77977" lon="7.27047">
        <ele>376</ele>
        <time>2015-03-01T09:58:13Z</time>
      </trkpt>
      <trkpt lat="43.77976" lon="7.27037">
        <ele>376</ele>
        <time>2015-03-01T09:58:16Z</time>
      </trkpt>
      <trkpt lat="43.77975" lon="7.27026">
        <ele>377</ele>
        <time>2015-03-01T09:58:19Z</time>
      </trkpt>
      <trkpt lat="43.77976" lon="7.27015">
        <ele>376</ele>
        <time>2015-03-01T09:58:22Z</time>
      </trkpt>
      <trkpt lat="43.77978" lon="7.27002">
        <ele>376</ele>
        <time>2015-03-01T09:58:25Z</time>
      </trkpt>
      <trkpt lat="43.7798" lon="7.26989">
        <ele>376</ele>
        <time>2015-03-01T09:58:28Z</time>
      </trkpt>
      <trkpt lat="43.77983" lon="7.26973">
        <ele>375</ele>
        <time>2015-03-01T09:58:31Z</time>
      </trkpt>
      <trkpt lat="43.77987" lon="7.26958">
        <ele>375</ele>
        <time>2015-03-01T09:58:34Z</time>
      </trkpt>
      <trkpt lat="43.77992" lon="7.26943">
        <ele>374</ele>
        <time>2015-03-01T09:58:37Z</time>
      </trkpt>
      <trkpt lat="43.77999" lon="7.26929">
        <ele>374</ele>
        <time>2015-03-01T09:58:40Z</time>
      </trkpt>
      <trkpt lat="43.7801" lon="7.26917">
        <ele>373</ele>
        <time>2015-03-01T09:58:43Z</time>
      </trkpt>
      <trkpt lat="43.78022" lon="7.26907">
        <ele>373</ele>
        <time>2015-03-01T09:58:46Z</time>
      </trkpt>
      <trkpt lat="43.78035" lon="7.26902">
        <ele>372</ele>
        <time>2015-03-01T09:58:49Z</time>
      </trkpt>
      <trkpt lat="43.78049" lon="7.26898">
        <ele>371</ele>
        <time>2015-03-01T09:58:52Z</time>
      </trkpt>
      <trkpt lat="43.78062" lon="7.26894">
        <ele>371</ele>
        <time>2015-03-01T09:58:55Z</time>
      </trkpt>
      <trkpt lat="43.78075" lon="7.26892">
        <ele>371</ele>
        <time>2015-03-01T09:58:58Z</time>
      </trkpt>
      <trkpt lat="43.78087" lon="7.26889">
        <ele>371</ele>
        <time>2015-03-01T09:59:01Z</time>
      </trkpt>
      <trkpt lat="43.78099" lon="7.26886">
        <ele>371</ele>
        <time>2015-03-01T09:59:04Z</time>
      </trkpt>
      <trkpt lat="43.78109" lon="7.26882">
        <ele>371</ele>
        <time>2015-03-01T09:59:07Z</time>
      </trkpt>
      <trkpt lat="43.78119" lon="7.26877">
        <ele>371</ele>
        <time>2015-03-01T09:59:10Z</time>
      </trkpt>
      <trkpt lat="43.78126" lon="7.26873">
        <ele>372</ele>
        <time>2015-03-01T09:59:13Z</time>
      </trkpt>
      <trkpt lat="43.78132" lon="7.26869">
        <ele>373</ele>
        <time>2015-03-01T09:59:16Z</time>
      </trkpt>
      <trkpt lat="43.78137" lon="7.26864">
        <ele>374</ele>
        <time>2015-03-01T09:59:19Z</time>
      </trkpt>
      <trkpt lat="43.78142" lon="7.26859">
        <ele>375</ele>
        <time>2015-03-01T09:59:22Z</time>
      </trkpt>
      <trkpt lat="43.78146" lon="7.26855">
        <ele>375</ele>
        <time>2015-03-01T09:59:25Z</time>
      </trkpt>
      <trkpt lat="43.78152" lon="7.26851">
        <ele>376</ele>
        <time>2015-03-01T09:59:28Z</time>
      </trkpt>
      <trkpt lat="43.78157" lon="7.26847">
        <ele>377</ele>
        <time>2015-03-01T09:59:31Z</time>
      </trkpt>
      <trkpt lat="43.78162" lon="7.26843">
        <ele>378</ele>
        <time>2015-03-01T09:59:34Z</time>
      </trkpt>
      <trkpt lat="43.78167" lon="7.26842">
        <ele>379</ele>
        <time>2015-03-01T09:59:37Z</time>
      </trkpt>
      <trkpt lat="43.78172" lon="7.26839">
        <ele>379</ele>
        <time>2015-03-01T09:59:40Z</time>
      </trkpt>
      <trkpt lat="43.78177" lon="7.26837">
        <ele>380</ele>
        <time>2015-03-01T09:59:43Z</time>
      </trkpt>
      <trkpt lat="43.78183" lon="7.26836">
        <ele>381</ele>
        <time>2015-03-01T09:59:46Z</time>
      </trkpt>
      <trkpt lat="43.78187" lon="7.26832">
        <ele>381</ele>
        <time>2015-03-01T09:59:49Z</time>
      </trkpt>
      <trkpt lat="43.78191" lon="7.26829">
        <ele>382</ele>
        <time>2015-03-01T09:59:52Z</time>
      </trkpt>
      <trkpt lat="43.78194" lon="7.26826">
        <ele>382</ele>
        <time>2015-03-01T09:59:55Z</time>
      </trkpt>
      <trkpt lat="43.78197" lon="7.26822">
        <ele>382</ele>
        <time>2015-03-01T09:59:58Z</time>
      </trkpt>
      <trkpt lat="43.782" lon="7.26816">
        <ele>383</ele>
        <time>2015-03-01T10:00:01Z</time>
      </trkpt>
      <trkpt lat="43.78202" lon="7.26809">
        <ele>383</ele>
        <time>2015-03-01T10:00:04Z</time>
      </trkpt>
      <trkpt lat="43.78204" lon="7.26804">
        <ele>384</ele>
        <time>2015-03-01T10:00:07Z</time>
      </trkpt>
      <trkpt lat="43.78206" lon="7.26799">
        <ele>384</ele>
        <time>2015-03-01T10:00:10Z</time>
      </trkpt>
      <trkpt lat="43.78209" lon="7.26793">
        <ele>384</ele>
        <time>2015-03-01T10:00:13Z</time>
      </trkpt>
      <trkpt lat="43.7821" lon="7.26787">
        <ele>385</ele>
        <time>2015-03-01T10:00:16Z</time>
      </trkpt>
      <trkpt lat="43.78211" lon="7.26782">
        <ele>385</ele>
        <time>2015-03-01T10:00:19Z</time>
      </trkpt>
      <trkpt lat="43.78213" lon="7.26776">
        <ele>386</ele>
        <time>2015-03-01T10:00:22Z</time>
      </trkpt>
      <trkpt lat="43.78214" lon="7.26769">
        <ele>386</ele>
        <time>2015-03-01T10:00:25Z</time>
      </trkpt>
      <trkpt lat="43.78214" lon="7.26761">
        <ele>387</ele>
        <time>2015-03-01T10:00:28Z</time>
      </trkpt>
      <trkpt lat="43.78214" lon="7.26753">
        <ele>387</ele>
        <time>2015-03-01T10:00:31Z</time>
      </trkpt>
      <trkpt lat="43.78215" lon="7.26746">
        <ele>388</ele>
        <time>2015-03-01T10:00:34Z</time>
      </trkpt>
      <trkpt lat="43.78214" lon="7.26738">
        <ele>388</ele>
        <time>2015-03-01T10:00:37Z</time>
      </trkpt>
      <trkpt lat="43.78214" lon="7.26731">
        <ele>389</ele>
        <time>2015-03-01T10:00:40Z</time>
      </trkpt>
      <trkpt lat="43.78215" lon="7.26725">
        <ele>390</ele>
        <time>2015-03-01T10:00:43Z</time>
      </trkpt>
      <trkpt lat="43.78214" lon="7.26718">
        <ele>390</ele>
        <time>2015-03-01T10:00:46Z</time>
      </trkpt>
      <trkpt lat="43.78214" lon="7.2671">
        <ele>391</ele>
        <time>2015-03-01T10:00:49Z</time>
      </trkpt>
      <trkpt lat="43.78214" lon="7.26704">
        <ele>391</ele>
        <time>2015-03-01T10:00:52Z</time>
      </trkpt>
      <trkpt lat="43.78214" lon="7.26697">
        <ele>392</ele>
        <time>2015-03-01T10:00:55Z</time>
      </trkpt>
      <trkpt lat="43.78213" lon="7.26689">
        <ele>392</ele>
        <time>2015-03-01T10:00:58Z</time>
      </trkpt>
      <trkpt lat="43.78213" lon="7.26681">
        <ele>393</ele>
        <time>2015-03-01T10:01:01Z</time>
      </trkpt>
      <trkpt lat="43.78212" lon="7.26674">
        <ele>394</ele>
        <time>2015-03-01T10:01:04Z</time>
      </trkpt>
      <trkpt lat="43.78212" lon="7.26667">
        <ele>395</ele>
        <time>2015-03-01T10:01:07Z</time>
      </trkpt>
      <trkpt lat="43.78212" lon="7.26659">
        <ele>395</ele>
        <time>2015-03-01T10:01:10Z</time>
      </trkpt>
      <trkpt lat="43.78213" lon="7.26652">
        <ele>396</ele>
        <time>2015-03-01T10:01:13Z</time>
      </trkpt>
      <trkpt lat="43.78213" lon="7.26644">
        <ele>397</ele>
        <time>2015-03-01T10:01:16Z</time>
      </trkpt>
      <trkpt lat="43.78213" lon="7.26636">
        <ele>397</ele>
        <time>2015-03-01T10:01:19Z</time>
      </trkpt>
      <trkpt lat="43.78213" lon="7.26629">
        <ele>398</ele>
        <time>2015-03-01T10:01:22Z</time>
      </trkpt>
      <trkpt lat="43.78213" lon="7.26621">
        <ele>398</ele>
        <time>2015-03-01T10:01:25Z</time>
      </trkpt>
      <trkpt lat="43.78213" lon="7.26614">
        <ele>399</ele>
        <time>2015-03-01T10:01:28Z</time>
      </trkpt>
      <trkpt lat="43.78212" lon="7.26606">
        <ele>399</ele>
        <time>2015-03-01T10:01:31Z</time>
      </trkpt>
      <trkpt lat="43.78212" lon="7.26597">
        <ele>399</ele>
        <time>2015-03-01T10:01:34Z</time>
      </trkpt>
      <trkpt lat="43.78212" lon="7.26587">
        <ele>399</ele>
        <time>2015-03-01T10:01:37Z</time>
      </trkpt>
      <trkpt lat="43.78211" lon="7.26577">
        <ele>399</ele>
        <time>2015-03-01T10:01:40Z</time>
      </trkpt>
      <trkpt lat="43.78212" lon="7.26566">
        <ele>399</ele>
        <time>2015-03-01T10:01:43Z</time>
      </trkpt>
      <trkpt lat="43.78212" lon="7.26555">
        <ele>399</ele>
        <time>2015-03-01T10:01:46Z</time>
      </trkpt>
      <trkpt lat="43.78212" lon="7.26545">
        <ele>399</ele>
        <time>2015-03-01T10:01:49Z</time>
      </trkpt>
      <trkpt lat="43.78213" lon="7.26535">
        <ele>399</ele>
        <time>2015-03-01T10:01:52Z</time>
      </trkpt>
      <trkpt lat="43.78213" lon="7.26525">
        <ele>399</ele>
        <time>2015-03-01T10:01:55Z</time>
      </trkpt>
      <trkpt lat="43.78215" lon="7.26516">
        <ele>399</ele>
        <time>2015-03-01T10:01:58Z</time>
      </trkpt>
      <trkpt lat="43.78216" lon="7.26505">
        <ele>399</ele>
        <time>2015-03-01T10:02:01Z</time>
      </trkpt>
      <trkpt lat="43.78218" lon="7.26495">
        <ele>399</ele>
        <time>2015-03-01T10:02:04Z</time>
      </trkpt>
      <trkpt lat="43.7822" lon="7.26485">
        <ele>399</ele>
        <time>2015-03-01T10:02:07Z</time>
      </trkpt>
      <trkpt lat="43.78222" lon="7.26476">
        <ele>399</ele>
        <time>2015-03-01T10:02:10Z</time>
      </trkpt>
      <trkpt lat="43.78224" lon="7.26465">
        <ele>399</ele>
        <time>2015-03-01T10:02:13Z</time>
      </trkpt>
      <trkpt lat="43.78226" lon="7.26454">
        <ele>399</ele>
        <time>2015-03-01T10:02:16Z</time>
      </trkpt>
      <trkpt lat="43.78228" lon="7.26444">
        <ele>399</ele>
        <time>2015-03-01T10:02:19Z</time>
      </trkpt>
      <trkpt lat="43.78231" lon="7.26433">
        <ele>399</ele>
        <time>2015-03-01T10:02:22Z</time>
      </trkpt>
      <trkpt lat="43.78233" lon="7.26422">
        <ele>400</ele>
        <time>2015-03-01T10:02:25Z</time>
      </trkpt>
      <trkpt lat="43.78235" lon="7.26411">
        <ele>400</ele>
        <time>2015-03-01T10:02:28Z</time>
      </trkpt>
      <trkpt lat="43.78237" lon="7.26401">
        <ele>400</ele>
        <time>2015-03-01T10:02:31Z</time>
      </trkpt>
      <trkpt lat="43.7824" lon="7.26391">
        <ele>400</ele>
        <time>2015-03-01T10:02:34Z</time>
      </trkpt>
      <trkpt lat="43.78242" lon="7.2638">
        <ele>400</ele>
        <time>2015-03-01T10:02:37Z</time>
      </trkpt>
      <trkpt lat="43.78244" lon="7.26368">
        <ele>400</ele>
        <time>2015-03-01T10:02:40Z</time>
      </trkpt>
      <trkpt lat="43.78247" lon="7.26358">
        <ele>400</ele>
        <time>2015-03-01T10:02:43Z</time>
      </trkpt>
      <trkpt lat="43.78248" lon="7.26346">
        <ele>399</ele>
        <time>2015-03-01T10:02:46Z</time>
      </trkpt>
      <trkpt lat="43.78251" lon="7.26334">
        <ele>399</ele>
        <time>2015-03-01T10:02:49Z</time>
      </trkpt>
      <trkpt lat="43.78254" lon="7.26321">
        <ele>399</ele>
        <time>2015-03-01T10:02:52Z</time>
      </trkpt>
      <trkpt lat="43.78257" lon="7.26309">
        <ele>399</ele>
        <time>2015-03-01T10:02:55Z</time>
      </trkpt>
      <trkpt lat="43.78259" lon="7.26296">
        <ele>399</ele>
        <time>2015-03-01T10:02:58Z</time>
      </trkpt>
      <trkpt lat="43.78261" lon="7.26284">
        <ele>400</ele>
        <time>2015-03-01T10:03:01Z</time>
      </trkpt>
      <trkpt lat="43.78263" lon="7.26272">
        <ele>400</ele>
        <time>2015-03-01T10:03:04Z</time>
      </trkpt>
      <trkpt lat="43.78265" lon="7.2626">
        <ele>400</ele>
        <time>2015-03-01T10:03:07Z</time>
      </trkpt>
      <trkpt lat="43.78265" lon="7.2625">
        <ele>401</ele>
        <time>2015-03-01T10:03:10Z</time>
      </trkpt>
      <trkpt lat="43.78266" lon="7.26241">
        <ele>401</ele>
        <time>2015-03-01T10:03:13Z</time>
      </trkpt>
      <trkpt lat="43.78268" lon="7.26233">
        <ele>402</ele>
        <time>2015-03-01T10:03:16Z</time>
      </trkpt>
      <trkpt lat="43.78268" lon="7.26224">
        <ele>403</ele>
        <time>2015-03-01T10:03:19Z</time>
      </trkpt>
      <trkpt lat="43.7827" lon="7.26217">
        <ele>404</ele>
        <time>2015-03-01T10:03:22Z</time>
      </trkpt>
      <trkpt lat="43.78271" lon="7.2621">
        <ele>405</ele>
        <time>2015-03-01T10:03:25Z</time>
      </trkpt>
      <trkpt lat="43.78272" lon="7.26202">
        <ele>406</ele>
        <time>2015-03-01T10:03:28Z</time>
      </trkpt>
      <trkpt lat="43.78274" lon="7.26194">
        <ele>407</ele>
        <time>2015-03-01T10:03:31Z</time>
      </trkpt>
      <trkpt lat="43.78275" lon="7.26187">
        <ele>408</ele>
        <time>2015-03-01T10:03:34Z</time>
      </trkpt>
      <trkpt lat="43.78277" lon="7.26179">
        <ele>409</ele>
        <time>2015-03-01T10:03:37Z</time>
      </trkpt>
      <trkpt lat="43.78279" lon="7.26172">
        <ele>410</ele>
        <time>2015-03-01T10:03:40Z</time>
      </trkpt>
      <trkpt lat="43.78281" lon="7.26164">
        <ele>411</ele>
        <time>2015-03-01T10:03:43Z</time>
      </trkpt>
      <trkpt lat="43.78283" lon="7.26158">
        <ele>411</ele>
        <time>2015-03-01T10:03:46Z</time>
      </trkpt>
      <trkpt lat="43.78284" lon="7.26151">
        <ele>412</ele>
        <time>2015-03-01T10:03:49Z</time>
      </trkpt>
      <trkpt lat="43.78285" lon="7.26143">
        <ele>413</ele>
        <time>2015-03-01T10:03:52Z</time>
      </trkpt>
      <trkpt lat="43.78286" lon="7.26136">
        <ele>413</ele>
        <time>2015-03-01T10:03:55Z</time>
      </trkpt>
      <trkpt lat="43.78286" lon="7.26129">
        <ele>414</ele>
        <time>2015-03-01T10:03:58Z</time>
      </trkpt>
      <trkpt lat="43.78286" lon="7.26121">
        <ele>414</ele>
        <time>2015-03-01T10:04:01Z</time>
      </trkpt>
      <trkpt lat="43.78285" lon="7.26113">
        <ele>415</ele>
        <time>2015-03-01T10:04:04Z</time>
      </trkpt>
      <trkpt lat="43.78285" lon="7.26107">
        <ele>415</ele>
        <time>2015-03-01T10:04:07Z</time>
      </trkpt>
      <trkpt lat="43.78283" lon="7.261">
        <ele>416</ele>
        <time>2015-03-01T10:04:10Z</time>
      </trkpt>
      <trkpt lat="43.78282" lon="7.26092">
        <ele>416</ele>
        <time>2015-03-01T10:04:13Z</time>
      </trkpt>
      <trkpt lat="43.78279" lon="7.26086">
        <ele>417</ele>
        <time>2015-03-01T10:04:16Z</time>
      </trkpt>
      <trkpt lat="43.78277" lon="7.26079">
        <ele>418</ele>
        <time>2015-03-01T10:04:19Z</time>
      </trkpt>
      <trkpt lat="43.78274" lon="7.26072">
        <ele>418</ele>
        <time>2015-03-01T10:04:22Z</time>
      </trkpt>
      <trkpt lat="43.78271" lon="7.26065">
        <ele>418</ele>
        <time>2015-03-01T10:04:25Z</time>
      </trkpt>
      <trkpt lat="43.78268" lon="7.26059">
        <ele>419</ele>
        <time>2015-03-01T10:04:28Z</time>
      </trkpt>
      <trkpt lat="43.78265" lon="7.26054">
        <ele>420</ele>
        <time>2015-03-01T10:04:31Z</time>
      </trkpt>
      <trkpt lat="43.78263" lon="7.26048">
        <ele>421</ele>
        <time>2015-03-01T10:04:34Z</time>
      </trkpt>
      <trkpt lat="43.7826" lon="7.26042">
        <ele>421</ele>
        <time>2015-03-01T10:04:37Z</time>
      </trkpt>
      <trkpt lat="43.78257" lon="7.26037">
        <ele>422</ele>
        <time>2015-03-01T10:04:40Z</time>
      </trkpt>
      <trkpt lat="43.78254" lon="7.26032">
        <ele>423</ele>
        <time>2015-03-01T10:04:43Z</time>
      </trkpt>
      <trkpt lat="43.78251" lon="7.26027">
        <ele>424</ele>
        <time>2015-03-01T10:04:46Z</time>
      </trkpt>
      <trkpt lat="43.78248" lon="7.26022">
        <ele>425</ele>
        <time>2015-03-01T10:04:49Z</time>
      </trkpt>
      <trkpt lat="43.78244" lon="7.26017">
        <ele>426</ele>
        <time>2015-03-01T10:04:52Z</time>
      </trkpt>
      <trkpt lat="43.78242" lon="7.26013">
        <ele>426</ele>
        <time>2015-03-01T10:04:55Z</time>
      </trkpt>
      <trkpt lat="43.78238" lon="7.26008">
        <ele>427</ele>
        <time>2015-03-01T10:04:58Z</time>
      </trkpt>
      <trkpt lat="43.78236" lon="7.26003">
        <ele>428</ele>
        <time>2015-03-01T10:05:01Z</time>
      </trkpt>
      <trkpt lat="43.78233" lon="7.25998">
        <ele>429</ele>
        <time>2015-03-01T10:05:04Z</time>
      </trkpt>
      <trkpt lat="43.78231" lon="7.25993">
        <ele>430</ele>
        <time>2015-03-01T10:05:07Z</time>
      </trkpt>
      <trkpt lat="43.78228" lon="7.25987">
        <ele>430</ele>
        <time>2015-03-01T10:05:10Z</time>
      </trkpt>
      <trkpt lat="43.78226" lon="7.2598">
        <ele>431</ele>
        <time>2015-03-01T10:05:13Z</time>
      </trkpt>
      <trkpt lat="43.78225" lon="7.25974">
        <ele>432</ele>
        <time>2015-03-01T10:05:16Z</time>
      </trkpt>
      <trkpt lat="43.78223" lon="7.25968">
        <ele>433</ele>
        <time>2015-03-01T10:05:19Z</time>
      </trkpt>
      <trkpt lat="43.78224" lon="7.25961">
        <ele>433</ele>
        <time>2015-03-01T10:05:22Z</time>
      </trkpt>
      <trkpt lat="43.78225" lon="7.25954">
        <ele>434</ele>
        <time>2015-03-01T10:05:25Z</time>
      </trkpt>
      <trkpt lat="43.78227" lon="7.25948">
        <ele>435</ele>
        <time>2015-03-01T10:05:28Z</time>
      </trkpt>
      <trkpt lat="43.78229" lon="7.25941">
        <ele>436</ele>
        <time>2015-03-01T10:05:31Z</time>
      </trkpt>
      <trkpt lat="43.78233" lon="7.25933">
        <ele>436</ele>
        <time>2015-03-01T10:05:34Z</time>
      </trkpt>
      <trkpt lat="43.78238" lon="7.25927">
        <ele>436</ele>
        <time>2015-03-01T10:05:37Z</time>
      </trkpt>
      <trkpt lat="43.7824" lon="7.25919">
        <ele>436</ele>
        <time>2015-03-01T10:05:40Z</time>
      </trkpt>
      <trkpt lat="43.78244" lon="7.25911">
        <ele>437</ele>
        <time>2015-03-01T10:05:43Z</time>
      </trkpt>
      <trkpt lat="43.78247" lon="7.25901">
        <ele>437</ele>
        <time>2015-03-01T10:05:46Z</time>
      </trkpt>
      <trkpt lat="43.78249" lon="7.2589">
        <ele>437</ele>
        <time>2015-03-01T10:05:49Z</time>
      </trkpt>
      <trkpt lat="43.78251" lon="7.25879">
        <ele>437</ele>
        <time>2015-03-01T10:05:52Z</time>
      </trkpt>
      <trkpt lat="43.78251" lon="7.25866">
        <ele>436</ele>
        <time>2015-03-01T10:05:55Z</time>
      </trkpt>
      <trkpt lat="43.7825" lon="7.25854">
        <ele>436</ele>
        <time>2015-03-01T10:05:58Z</time>
      </trkpt>
      <trkpt lat="43.78247" lon="7.25844">
        <ele>436</ele>
        <time>2015-03-01T10:06:01Z</time>
      </trkpt>
      <trkpt lat="43.78242" lon="7.25836">
        <ele>437</ele>
        <time>2015-03-01T10:06:04Z</time>
      </trkpt>
      <trkpt lat="43.78237" lon="7.25827">
        <ele>437</ele>
        <time>2015-03-01T10:06:07Z</time>
      </trkpt>
      <trkpt lat="43.78232" lon="7.25819">
        <ele>438</ele>
        <time>2015-03-01T10:06:10Z</time>
      </trkpt>
      <trkpt lat="43.78227" lon="7.2581">
        <ele>438</ele>
        <time>2015-03-01T10:06:13Z</time>
      </trkpt>
      <trkpt lat="43.78223" lon="7.25799">
        <ele>439</ele>
        <time>2015-03-01T10:06:16Z</time>
      </trkpt>
      <trkpt lat="43.78218" lon="7.2579">
        <ele>439</ele>
        <time>2015-03-01T10:06:19Z</time>
      </trkpt>
      <trkpt lat="43.78214" lon="7.25779">
        <ele>439</ele>
        <time>2015-03-01T10:06:22Z</time>
      </trkpt>
      <trkpt lat="43.7821" lon="7.25769">
        <ele>440</ele>
        <time>2015-03-01T10:06:25Z</time>
      </trkpt>
      <trkpt lat="43.78206" lon="7.25758">
        <ele>440</ele>
        <time>2015-03-01T10:06:28Z</time>
      </trkpt>
      <trkpt lat="43.78201" lon="7.25747">
        <ele>440</ele>
        <time>2015-03-01T10:06:31Z</time>
      </trkpt>
      <trkpt lat="43.78196" lon="7.25736">
        <ele>440</ele>
        <time>2015-03-01T10:06:34Z</time>
      </trkpt>
      <trkpt lat="43.78191" lon="7.25725">
        <ele>440</ele>
        <time>2015-03-01T10:06:37Z</time>
      </trkpt>
      <trkpt lat="43.78184" lon="7.25716">
        <ele>440</ele>
        <time>2015-03-01T10:06:40Z</time>
      </trkpt>
      <trkpt lat="43.78179" lon="7.25704">
        <ele>440</ele>
        <time>2015-03-01T10:06:43Z</time>
      </trkpt>
      <trkpt lat="43.78177" lon="7.25691">
        <ele>440</ele>
        <time>2015-03-01T10:06:46Z</time>
      </trkpt>
      <trkpt lat="43.78177" lon="7.25679">
        <ele>441</ele>
        <time>2015-03-01T10:06:49Z</time>
      </trkpt>
      <trkpt lat="43.78177" lon="7.25666">
        <ele>442</ele>
        <time>2015-03-01T10:06:52Z</time>
      </trkpt>
      <trkpt lat="43.78176" lon="7.25656">
        <ele>442</ele>
        <time>2015-03-01T10:06:55Z</time>
      </trkpt>
      <trkpt lat="43.78175" lon="7.25644">
        <ele>443</ele>
        <time>2015-03-01T10:06:58Z</time>
      </trkpt>
      <trkpt lat="43.78172" lon="7.25635">
        <ele>444</ele>
        <time>2015-03-01T10:07:01Z</time>
      </trkpt>
      <trkpt lat="43.7817" lon="7.25625">
        <ele>444</ele>
        <time>2015-03-01T10:07:04Z</time>
      </trkpt>
      <trkpt lat="43.78167" lon="7.25613">
        <ele>444</ele>
        <time>2015-03-01T10:07:07Z</time>
      </trkpt>
      <trkpt lat="43.78163" lon="7.25603">
        <ele>444</ele>
        <time>2015-03-01T10:07:10Z</time>
      </trkpt>
      <trkpt lat="43.78159" lon="7.25593">
        <ele>444</ele>
        <time>2015-03-01T10:07:13Z</time>
      </trkpt>
      <trkpt lat="43.78157" lon="7.25582">
        <ele>445</ele>
        <time>2015-03-01T10:07:16Z</time>
      </trkpt>
      <trkpt lat="43.78157" lon="7.2557">
        <ele>445</ele>
        <time>2015-03-01T10:07:19Z</time>
      </trkpt>
      <trkpt lat="43.78159" lon="7.25559">
        <ele>445</ele>
        <time>2015-03-01T10:07:22Z</time>
      </trkpt>
      <trkpt lat="43.78162" lon="7.25549">
        <ele>446</ele>
        <time>2015-03-01T10:07:25Z</time>
      </trkpt>
      <trkpt lat="43.78164" lon="7.2554">
        <ele>447</ele>
        <time>2015-03-01T10:07:28Z</time>
      </trkpt>
      <trkpt lat="43.78167" lon="7.25532">
        <ele>448</ele>
        <time>2015-03-01T10:07:31Z</time>
      </trkpt>
      <trkpt lat="43.7817" lon="7.25523">
        <ele>448</ele>
        <time>2015-03-01T10:07:34Z</time>
      </trkpt>
      <trkpt lat="43.78173" lon="7.25517">
        <ele>449</ele>
        <time>2015-03-01T10:07:37Z</time>
      </trkpt>
      <trkpt lat="43.78176" lon="7.25509">
        <ele>450</ele>
        <time>2015-03-01T10:07:40Z</time>
      </trkpt>
      <trkpt lat="43.7818" lon="7.25502">
        <ele>450</ele>
        <time>2015-03-01T10:07:43Z</time>
      </trkpt>
      <trkpt lat="43.78183" lon="7.25496">
        <ele>450</ele>
        <time>2015-03-01T10:07:46Z</time>
      </trkpt>
      <trkpt lat="43.78186" lon="7.25488">
        <ele>451</ele>
        <time>2015-03-01T10:07:49Z</time>
      </trkpt>
      <trkpt lat="43.7819" lon="7.25482">
        <ele>452</ele>
        <time>2015-03-01T10:07:52Z</time>
      </trkpt>
      <trkpt lat="43.78195" lon="7.25477">
        <ele>452</ele>
        <time>2015-03-01T10:07:55Z</time>
      </trkpt>
      <trkpt lat="43.782" lon="7.25472">
        <ele>453</ele>
        <time>2015-03-01T10:07:58Z</time>
      </trkpt>
      <trkpt lat="43.78204" lon="7.25468">
        <ele>454</ele>
        <time>2015-03-01T10:08:01Z</time>
      </trkpt>
      <trkpt lat="43.78209" lon="7.25465">
        <ele>454</ele>
        <time>2015-03-01T10:08:04Z</time>
      </trkpt>
      <trkpt lat="43.78214" lon="7.25463">
        <ele>455</ele>
        <time>2015-03-01T10:08:07Z</time>
      </trkpt>
      <trkpt lat="43.78218" lon="7.2546">
        <ele>455</ele>
        <time>2015-03-01T10:08:10Z</time>
      </trkpt>
      <trkpt lat="43.78219" lon="7.2546">
        <ele>456</ele>
        <time>2015-03-01T10:08:13Z</time>
      </trkpt>
      <trkpt lat="43.78221" lon="7.2546">
        <ele>456</ele>
        <time>2015-03-01T10:08:16Z</time>
      </trkpt>
      <trkpt lat="43.7822" lon="7.25457">
        <ele>456</ele>
        <time>2015-03-01T10:08:19Z</time>
      </trkpt>
      <trkpt lat="43.78218" lon="7.25456">
        <ele>456</ele>
        <time>2015-03-01T10:08:22Z</time>
      </trkpt>
      <trkpt lat="43.78215" lon="7.25456">
        <ele>457</ele>
        <time>2015-03-01T10:08:25Z</time>
      </trkpt>
      <trkpt lat="43.78214" lon="7.25456">
        <ele>457</ele>
        <time>2015-03-01T10:08:28Z</time>
      </trkpt>
      <trkpt lat="43.78212" lon="7.25454">
        <ele>458</ele>
        <time>2015-03-01T10:08:31Z</time>
      </trkpt>
      <trkpt lat="43.7821" lon="7.25454">
        <ele>459</ele>
        <time>2015-03-01T10:08:34Z</time>
      </trkpt>
      <trkpt lat="43.78211" lon="7.25453">
        <ele>459</ele>
        <time>2015-03-01T10:08:40Z</time>
      </trkpt>
      <trkpt lat="43.78213" lon="7.25452">
        <ele>460</ele>
        <time>2015-03-01T10:08:43Z</time>
      </trkpt>
      <trkpt lat="43.78214" lon="7.25451">
        <ele>461</ele>
        <time>2015-03-01T10:08:46Z</time>
      </trkpt>
      <trkpt lat="43.78215" lon="7.25449">
        <ele>461</ele>
        <time>2015-03-01T10:08:49Z</time>
      </trkpt>
      <trkpt lat="43.78218" lon="7.25448">
        <ele>462</ele>
        <time>2015-03-01T10:08:52Z</time>
      </trkpt>
      <trkpt lat="43.7822" lon="7.25447">
        <ele>462</ele>
        <time>2015-03-01T10:08:55Z</time>
      </trkpt>
      <trkpt lat="43.78222" lon="7.25446">
        <ele>463</ele>
        <time>2015-03-01T10:08:58Z</time>
      </trkpt>
      <trkpt lat="43.78224" lon="7.25444">
        <ele>463</ele>
        <time>2015-03-01T10:09:01Z</time>
      </trkpt>
      <trkpt lat="43.78225" lon="7.25443">
        <ele>464</ele>
        <time>2015-03-01T10:09:04Z</time>
      </trkpt>
      <trkpt lat="43.78226" lon="7.25442">
        <ele>465</ele>
        <time>2015-03-01T10:09:07Z</time>
      </trkpt>
      <trkpt lat="43.78228" lon="7.25441">
        <ele>465</ele>
        <time>2015-03-01T10:09:10Z</time>
      </trkpt>
      <trkpt lat="43.78229" lon="7.25441">
        <ele>466</ele>
        <time>2015-03-01T10:09:13Z</time>
      </trkpt>
      <trkpt lat="43.78231" lon="7.2544">
        <ele>466</ele>
        <time>2015-03-01T10:09:16Z</time>
      </trkpt>
      <trkpt lat="43.78232" lon="7.2544">
        <ele>467</ele>
        <time>2015-03-01T10:09:22Z</time>
      </trkpt>
      <trkpt lat="43.78232" lon="7.25438">
        <ele>467</ele>
        <time>2015-03-01T10:09:34Z</time>
      </trkpt>
      <trkpt lat="43.7823" lon="7.25435">
        <ele>468</ele>
        <time>2015-03-01T10:09:40Z</time>
      </trkpt>
      <trkpt lat="43.78228" lon="7.25433">
        <ele>468</ele>
        <time>2015-03-01T10:09:43Z</time>
      </trkpt>
      <trkpt lat="43.78227" lon="7.2543">
        <ele>469</ele>
        <time>2015-03-01T10:09:46Z</time>
      </trkpt>
      <trkpt lat="43.78226" lon="7.25427">
        <ele>470</ele>
        <time>2015-03-01T10:09:49Z</time>
      </trkpt>
      <trkpt lat="43.78225" lon="7.25425">
        <ele>470</ele>
        <time>2015-03-01T10:09:52Z</time>
      </trkpt>
      <trkpt lat="43.78225" lon="7.25422">
        <ele>471</ele>
        <time>2015-03-01T10:09:55Z</time>
      </trkpt>
      <trkpt lat="43.78225" lon="7.25419">
        <ele>471</ele>
        <time>2015-03-01T10:09:58Z</time>
      </trkpt>
      <trkpt lat="43.78224" lon="7.25417">
        <ele>472</ele>
        <time>2015-03-01T10:10:01Z</time>
      </trkpt>
      <trkpt lat="43.78224" lon="7.25415">
        <ele>472</ele>
        <time>2015-03-01T10:10:04Z</time>
      </trkpt>
      <trkpt lat="43.78224" lon="7.25413">
        <ele>473</ele>
        <time>2015-03-01T10:10:07Z</time>
      </trkpt>
      <trkpt lat="43.78224" lon="7.25411">
        <ele>474</ele>
        <time>2015-03-01T10:10:10Z</time>
      </trkpt>
      <trkpt lat="43.78223" lon="7.25409">
        <ele>474</ele>
        <time>2015-03-01T10:10:13Z</time>
      </trkpt>
      <trkpt lat="43.78223" lon="7.25407">
        <ele>475</ele>
        <time>2015-03-01T10:10:16Z</time>
      </trkpt>
      <trkpt lat="43.78223" lon="7.25404">
        <ele>475</ele>
        <time>2015-03-01T10:10:19Z</time>
      </trkpt>
      <trkpt lat="43.78223" lon="7.25402">
        <ele>476</ele>
        <time>2015-03-01T10:10:22Z</time>
      </trkpt>
      <trkpt lat="43.78221" lon="7.25401">
        <ele>477</ele>
        <time>2015-03-01T10:10:25Z</time>
      </trkpt>
      <trkpt lat="43.78219" lon="7.25397">
        <ele>478</ele>
        <time>2015-03-01T10:10:31Z</time>
      </trkpt>
      <trkpt lat="43.78218" lon="7.25395">
        <ele>479</ele>
        <time>2015-03-01T10:10:34Z</time>
      </trkpt>
      <trkpt lat="43.78216" lon="7.25392">
        <ele>479</ele>
        <time>2015-03-01T10:10:37Z</time>
      </trkpt>
      <trkpt lat="43.78214" lon="7.25389">
        <ele>479</ele>
        <time>2015-03-01T10:10:40Z</time>
      </trkpt>
      <trkpt lat="43.78213" lon="7.25385">
        <ele>480</ele>
        <time>2015-03-01T10:10:43Z</time>
      </trkpt>
      <trkpt lat="43.78212" lon="7.25381">
        <ele>480</ele>
        <time>2015-03-01T10:10:46Z</time>
      </trkpt>
      <trkpt lat="43.78211" lon="7.25378">
        <ele>481</ele>
        <time>2015-03-01T10:10:49Z</time>
      </trkpt>
      <trkpt lat="43.78211" lon="7.25375">
        <ele>481</ele>
        <time>2015-03-01T10:10:52Z</time>
      </trkpt>
      <trkpt lat="43.7821" lon="7.25372">
        <ele>482</ele>
        <time>2015-03-01T10:10:55Z</time>
      </trkpt>
      <trkpt lat="43.78209" lon="7.25369">
        <ele>482</ele>
        <time>2015-03-01T10:10:58Z</time>
      </trkpt>
      <trkpt lat="43.78208" lon="7.25365">
        <ele>482</ele>
        <time>2015-03-01T10:11:01Z</time>
      </trkpt>
      <trkpt lat="43.78207" lon="7.25361">
        <ele>483</ele>
        <time>2015-03-01T10:11:04Z</time>
      </trkpt>
      <trkpt lat="43.78207" lon="7.25357">
        <ele>483</ele>
        <time>2015-03-01T10:11:07Z</time>
      </trkpt>
      <trkpt lat="43.78206" lon="7.25354">
        <ele>484</ele>
        <time>2015-03-01T10:11:10Z</time>
      </trkpt>
      <trkpt lat="43.78205" lon="7.25351">
        <ele>484</ele>
        <time>2015-03-01T10:11:13Z</time>
      </trkpt>
      <trkpt lat="43.78205" lon="7.25347">
        <ele>484</ele>
        <time>2015-03-01T10:11:16Z</time>
      </trkpt>
      <trkpt lat="43.78207" lon="7.25343">
        <ele>485</ele>
        <time>2015-03-01T10:11:19Z</time>
      </trkpt>
      <trkpt lat="43.78206" lon="7.25338">
        <ele>485</ele>
        <time>2015-03-01T10:11:22Z</time>
      </trkpt>
      <trkpt lat="43.78207" lon="7.25331">
        <ele>485</ele>
        <time>2015-03-01T10:11:25Z</time>
      </trkpt>
      <trkpt lat="43.78205" lon="7.25322">
        <ele>485</ele>
        <time>2015-03-01T10:11:28Z</time>
      </trkpt>
      <trkpt lat="43.78202" lon="7.25312">
        <ele>485</ele>
        <time>2015-03-01T10:11:31Z</time>
      </trkpt>
      <trkpt lat="43.78201" lon="7.253">
        <ele>485</ele>
        <time>2015-03-01T10:11:34Z</time>
      </trkpt>
      <trkpt lat="43.782" lon="7.25289">
        <ele>486</ele>
        <time>2015-03-01T10:11:37Z</time>
      </trkpt>
      <trkpt lat="43.78202" lon="7.25278">
        <ele>486</ele>
        <time>2015-03-01T10:11:40Z</time>
      </trkpt>
      <trkpt lat="43.78203" lon="7.25266">
        <ele>486</ele>
        <time>2015-03-01T10:11:43Z</time>
      </trkpt>
      <trkpt lat="43.78206" lon="7.25256">
        <ele>486</ele>
        <time>2015-03-01T10:11:46Z</time>
      </trkpt>
      <trkpt lat="43.78211" lon="7.25246">
        <ele>486</ele>
        <time>2015-03-01T10:11:49Z</time>
      </trkpt>
      <trkpt lat="43.78214" lon="7.25237">
        <ele>485</ele>
        <time>2015-03-01T10:11:52Z</time>
      </trkpt>
      <trkpt lat="43.78212" lon="7.25236">
        <ele>485</ele>
        <time>2015-03-01T10:11:55Z</time>
      </trkpt>
      <trkpt lat="43.78211" lon="7.25236">
        <ele>485</ele>
        <time>2015-03-01T10:13:25Z</time>
      </trkpt>
      <trkpt lat="43.78211" lon="7.25239">
        <ele>485</ele>
        <time>2015-03-01T10:13:28Z</time>
      </trkpt>
      <trkpt lat="43.78211" lon="7.25242">
        <ele>485</ele>
        <time>2015-03-01T10:13:31Z</time>
      </trkpt>
      <trkpt lat="43.78211" lon="7.25241">
        <ele>485</ele>
        <time>2015-03-01T10:13:34Z</time>
      </trkpt>
      <trkpt lat="43.78211" lon="7.25242">
        <ele>485</ele>
        <time>2015-03-01T10:13:49Z</time>
      </trkpt>
      <trkpt lat="43.78213" lon="7.25244">
        <ele>485</ele>
        <time>2015-03-01T10:13:52Z</time>
      </trkpt>
      <trkpt lat="43.78213" lon="7.25249">
        <ele>485</ele>
        <time>2015-03-01T10:13:55Z</time>
      </trkpt>
      <trkpt lat="43.78209" lon="7.25252">
        <ele>486</ele>
        <time>2015-03-01T10:13:58Z</time>
      </trkpt>
      <trkpt lat="43.78205" lon="7.25254">
        <ele>486</ele>
        <time>2015-03-01T10:14:01Z</time>
      </trkpt>
      <trkpt lat="43.78205" lon="7.2526">
        <ele>486</ele>
        <time>2015-03-01T10:14:04Z</time>
      </trkpt>
      <trkpt lat="43.78212" lon="7.25262">
        <ele>486</ele>
        <time>2015-03-01T10:14:08Z</time>
      </trkpt>
      <trkpt lat="43.78217" lon="7.25258">
        <ele>486</ele>
        <time>2015-03-01T10:14:11Z</time>
      </trkpt>
      <trkpt lat="43.78221" lon="7.25255">
        <ele>487</ele>
        <time>2015-03-01T10:14:14Z</time>
      </trkpt>
      <trkpt lat="43.78225" lon="7.25251">
        <ele>487</ele>
        <time>2015-03-01T10:14:17Z</time>
      </trkpt>
      <trkpt lat="43.78228" lon="7.25248">
        <ele>487</ele>
        <time>2015-03-01T10:14:20Z</time>
      </trkpt>
      <trkpt lat="43.78232" lon="7.25245">
        <ele>488</ele>
        <time>2015-03-01T10:14:23Z</time>
      </trkpt>
      <trkpt lat="43.78236" lon="7.25243">
        <ele>488</ele>
        <time>2015-03-01T10:14:26Z</time>
      </trkpt>
      <trkpt lat="43.78239" lon="7.25239">
        <ele>489</ele>
        <time>2015-03-01T10:14:29Z</time>
      </trkpt>
      <trkpt lat="43.78243" lon="7.25237">
        <ele>489</ele>
        <time>2015-03-01T10:14:32Z</time>
      </trkpt>
      <trkpt lat="43.78247" lon="7.25234">
        <ele>490</ele>
        <time>2015-03-01T10:14:35Z</time>
      </trkpt>
      <trkpt lat="43.7825" lon="7.25232">
        <ele>490</ele>
        <time>2015-03-01T10:14:38Z</time>
      </trkpt>
      <trkpt lat="43.78254" lon="7.25228">
        <ele>491</ele>
        <time>2015-03-01T10:14:41Z</time>
      </trkpt>
      <trkpt lat="43.78258" lon="7.25224">
        <ele>491</ele>
        <time>2015-03-01T10:14:44Z</time>
      </trkpt>
      <trkpt lat="43.78261" lon="7.25222">
        <ele>492</ele>
        <time>2015-03-01T10:14:47Z</time>
      </trkpt>
      <trkpt lat="43.78264" lon="7.25218">
        <ele>492</ele>
        <time>2015-03-01T10:14:50Z</time>
      </trkpt>
      <trkpt lat="43.78268" lon="7.25217">
        <ele>493</ele>
        <time>2015-03-01T10:14:53Z</time>
      </trkpt>
      <trkpt lat="43.78272" lon="7.25216">
        <ele>493</ele>
        <time>2015-03-01T10:14:56Z</time>
      </trkpt>
      <trkpt lat="43.78276" lon="7.25213">
        <ele>494</ele>
        <time>2015-03-01T10:14:59Z</time>
      </trkpt>
      <trkpt lat="43.78279" lon="7.2521">
        <ele>494</ele>
        <time>2015-03-01T10:15:02Z</time>
      </trkpt>
      <trkpt lat="43.78283" lon="7.25207">
        <ele>495</ele>
        <time>2015-03-01T10:15:05Z</time>
      </trkpt>
      <trkpt lat="43.78286" lon="7.25206">
        <ele>495</ele>
        <time>2015-03-01T10:15:08Z</time>
      </trkpt>
      <trkpt lat="43.7829" lon="7.25204">
        <ele>496</ele>
        <time>2015-03-01T10:15:11Z</time>
      </trkpt>
      <trkpt lat="43.78294" lon="7.25202">
        <ele>496</ele>
        <time>2015-03-01T10:15:14Z</time>
      </trkpt>
      <trkpt lat="43.78298" lon="7.252">
        <ele>497</ele>
        <time>2015-03-01T10:15:17Z</time>
      </trkpt>
      <trkpt lat="43.78302" lon="7.25197">
        <ele>497</ele>
        <time>2015-03-01T10:15:20Z</time>
      </trkpt>
      <trkpt lat="43.78306" lon="7.25195">
        <ele>497</ele>
        <time>2015-03-01T10:15:23Z</time>
      </trkpt>
      <trkpt lat="43.7831" lon="7.25193">
        <ele>498</ele>
        <time>2015-03-01T10:15:26Z</time>
      </trkpt>
      <trkpt lat="43.78315" lon="7.2519">
        <ele>499</ele>
        <time>2015-03-01T10:15:29Z</time>
      </trkpt>
      <trkpt lat="43.78319" lon="7.25187">
        <ele>499</ele>
        <time>2015-03-01T10:15:32Z</time>
      </trkpt>
      <trkpt lat="43.78323" lon="7.25184">
        <ele>499</ele>
        <time>2015-03-01T10:15:35Z</time>
      </trkpt>
      <trkpt lat="43.78327" lon="7.25182">
        <ele>500</ele>
        <time>2015-03-01T10:15:38Z</time>
      </trkpt>
      <trkpt lat="43.7833" lon="7.25179">
        <ele>500</ele>
        <time>2015-03-01T10:15:41Z</time>
      </trkpt>
      <trkpt lat="43.78334" lon="7.25175">
        <ele>501</ele>
        <time>2015-03-01T10:15:44Z</time>
      </trkpt>
      <trkpt lat="43.78338" lon="7.25171">
        <ele>501</ele>
        <time>2015-03-01T10:15:47Z</time>
      </trkpt>
      <trkpt lat="43.78341" lon="7.25168">
        <ele>502</ele>
        <time>2015-03-01T10:15:50Z</time>
      </trkpt>
      <trkpt lat="43.78344" lon="7.25164">
        <ele>502</ele>
        <time>2015-03-01T10:15:53Z</time>
      </trkpt>
      <trkpt lat="43.78348" lon="7.25162">
        <ele>503</ele>
        <time>2015-03-01T10:15:56Z</time>
      </trkpt>
      <trkpt lat="43.78352" lon="7.2516">
        <ele>503</ele>
        <time>2015-03-01T10:15:59Z</time>
      </trkpt>
      <trkpt lat="43.78356" lon="7.25157">
        <ele>504</ele>
        <time>2015-03-01T10:16:02Z</time>
      </trkpt>
      <trkpt lat="43.7836" lon="7.25155">
        <ele>504</ele>
        <time>2015-03-01T10:16:05Z</time>
      </trkpt>
      <trkpt lat="43.78364" lon="7.25153">
        <ele>505</ele>
        <time>2015-03-01T10:16:08Z</time>
      </trkpt>
      <trkpt lat="43.78368" lon="7.25151">
        <ele>505</ele>
        <time>2015-03-01T10:16:11Z</time>
      </trkpt>
      <trkpt lat="43.78372" lon="7.25149">
        <ele>506</ele>
        <time>2015-03-01T10:16:14Z</time>
      </trkpt>
      <trkpt lat="43.78377" lon="7.25147">
        <ele>506</ele>
        <time>2015-03-01T10:16:17Z</time>
      </trkpt>
      <trkpt lat="43.78381" lon="7.25145">
        <ele>507</ele>
        <time>2015-03-01T10:16:20Z</time>
      </trkpt>
      <trkpt lat="43.78386" lon="7.25143">
        <ele>507</ele>
        <time>2015-03-01T10:16:23Z</time>
      </trkpt>
      <trkpt lat="43.7839" lon="7.25141">
        <ele>508</ele>
        <time>2015-03-01T10:16:26Z</time>
      </trkpt>
      <trkpt lat="43.78394" lon="7.25139">
        <ele>508</ele>
        <time>2015-03-01T10:16:29Z</time>
      </trkpt>
      <trkpt lat="43.78399" lon="7.25137">
        <ele>509</ele>
        <time>2015-03-01T10:16:32Z</time>
      </trkpt>
      <trkpt lat="43.78403" lon="7.25134">
        <ele>509</ele>
        <time>2015-03-01T10:16:35Z</time>
      </trkpt>
      <trkpt lat="43.78407" lon="7.25132">
        <ele>510</ele>
        <time>2015-03-01T10:16:38Z</time>
      </trkpt>
      <trkpt lat="43.78411" lon="7.2513">
        <ele>510</ele>
        <time>2015-03-01T10:16:41Z</time>
      </trkpt>
      <trkpt lat="43.78415" lon="7.25127">
        <ele>510</ele>
        <time>2015-03-01T10:16:44Z</time>
      </trkpt>
      <trkpt lat="43.78418" lon="7.25123">
        <ele>511</ele>
        <time>2015-03-01T10:16:47Z</time>
      </trkpt>
      <trkpt lat="43.78422" lon="7.25121">
        <ele>511</ele>
        <time>2015-03-01T10:16:50Z</time>
      </trkpt>
      <trkpt lat="43.78426" lon="7.25117">
        <ele>511</ele>
        <time>2015-03-01T10:16:53Z</time>
      </trkpt>
      <trkpt lat="43.7843" lon="7.25113">
        <ele>512</ele>
        <time>2015-03-01T10:16:56Z</time>
      </trkpt>
      <trkpt lat="43.78433" lon="7.25109">
        <ele>512</ele>
        <time>2015-03-01T10:16:59Z</time>
      </trkpt>
      <trkpt lat="43.78437" lon="7.25105">
        <ele>513</ele>
        <time>2015-03-01T10:17:02Z</time>
      </trkpt>
      <trkpt lat="43.78441" lon="7.25101">
        <ele>513</ele>
        <time>2015-03-01T10:17:05Z</time>
      </trkpt>
      <trkpt lat="43.78444" lon="7.25097">
        <ele>514</ele>
        <time>2015-03-01T10:17:08Z</time>
      </trkpt>
      <trkpt lat="43.78447" lon="7.25093">
        <ele>514</ele>
        <time>2015-03-01T10:17:11Z</time>
      </trkpt>
      <trkpt lat="43.7845" lon="7.25088">
        <ele>515</ele>
        <time>2015-03-01T10:17:14Z</time>
      </trkpt>
      <trkpt lat="43.78454" lon="7.25084">
        <ele>515</ele>
        <time>2015-03-01T10:17:17Z</time>
      </trkpt>
      <trkpt lat="43.78457" lon="7.25081">
        <ele>515</ele>
        <time>2015-03-01T10:17:20Z</time>
      </trkpt>
      <trkpt lat="43.78461" lon="7.25077">
        <ele>516</ele>
        <time>2015-03-01T10:17:23Z</time>
      </trkpt>
      <trkpt lat="43.78464" lon="7.25073">
        <ele>516</ele>
        <time>2015-03-01T10:17:26Z</time>
      </trkpt>
      <trkpt lat="43.78467" lon="7.25069">
        <ele>517</ele>
        <time>2015-03-01T10:17:29Z</time>
      </trkpt>
      <trkpt lat="43.7847" lon="7.25064">
        <ele>517</ele>
        <time>2015-03-01T10:17:32Z</time>
      </trkpt>
      <trkpt lat="43.78473" lon="7.2506">
        <ele>518</ele>
        <time>2015-03-01T10:17:35Z</time>
      </trkpt>
      <trkpt lat="43.78476" lon="7.25054">
        <ele>518</ele>
        <time>2015-03-01T10:17:38Z</time>
      </trkpt>
      <trkpt lat="43.78479" lon="7.2505">
        <ele>518</ele>
        <time>2015-03-01T10:17:41Z</time>
      </trkpt>
      <trkpt lat="43.78482" lon="7.25044">
        <ele>518</ele>
        <time>2015-03-01T10:17:44Z</time>
      </trkpt>
      <trkpt lat="43.78485" lon="7.2504">
        <ele>519</ele>
        <time>2015-03-01T10:17:47Z</time>
      </trkpt>
      <trkpt lat="43.78489" lon="7.25035">
        <ele>519</ele>
        <time>2015-03-01T10:17:50Z</time>
      </trkpt>
      <trkpt lat="43.78492" lon="7.25029">
        <ele>519</ele>
        <time>2015-03-01T10:17:53Z</time>
      </trkpt>
      <trkpt lat="43.78495" lon="7.25023">
        <ele>519</ele>
        <time>2015-03-01T10:17:56Z</time>
      </trkpt>
      <trkpt lat="43.78499" lon="7.25016">
        <ele>520</ele>
        <time>2015-03-01T10:17:59Z</time>
      </trkpt>
      <trkpt lat="43.78503" lon="7.25009">
        <ele>520</ele>
        <time>2015-03-01T10:18:02Z</time>
      </trkpt>
      <trkpt lat="43.78507" lon="7.25003">
        <ele>520</ele>
        <time>2015-03-01T10:18:05Z</time>
      </trkpt>
      <trkpt lat="43.78511" lon="7.24998">
        <ele>520</ele>
        <time>2015-03-01T10:18:08Z</time>
      </trkpt>
      <trkpt lat="43.78515" lon="7.24993">
        <ele>520</ele>
        <time>2015-03-01T10:18:11Z</time>
      </trkpt>
      <trkpt lat="43.7852" lon="7.24989">
        <ele>520</ele>
        <time>2015-03-01T10:18:14Z</time>
      </trkpt>
      <trkpt lat="43.78525" lon="7.24985">
        <ele>520</ele>
        <time>2015-03-01T10:18:17Z</time>
      </trkpt>
      <trkpt lat="43.78531" lon="7.2498">
        <ele>520</ele>
        <time>2015-03-01T10:18:20Z</time>
      </trkpt>
      <trkpt lat="43.78536" lon="7.24976">
        <ele>520</ele>
        <time>2015-03-01T10:18:23Z</time>
      </trkpt>
      <trkpt lat="43.78542" lon="7.24971">
        <ele>520</ele>
        <time>2015-03-01T10:18:26Z</time>
      </trkpt>
      <trkpt lat="43.78547" lon="7.24967">
        <ele>520</ele>
        <time>2015-03-01T10:18:29Z</time>
      </trkpt>
      <trkpt lat="43.78552" lon="7.24962">
        <ele>520</ele>
        <time>2015-03-01T10:18:32Z</time>
      </trkpt>
      <trkpt lat="43.78558" lon="7.24958">
        <ele>520</ele>
        <time>2015-03-01T10:18:35Z</time>
      </trkpt>
      <trkpt lat="43.78564" lon="7.24954">
        <ele>520</ele>
        <time>2015-03-01T10:18:38Z</time>
      </trkpt>
      <trkpt lat="43.78569" lon="7.2495">
        <ele>520</ele>
        <time>2015-03-01T10:18:41Z</time>
      </trkpt>
      <trkpt lat="43.78575" lon="7.24946">
        <ele>520</ele>
        <time>2015-03-01T10:18:44Z</time>
      </trkpt>
      <trkpt lat="43.78581" lon="7.24942">
        <ele>520</ele>
        <time>2015-03-01T10:18:47Z</time>
      </trkpt>
      <trkpt lat="43.78587" lon="7.24939">
        <ele>520</ele>
        <time>2015-03-01T10:18:50Z</time>
      </trkpt>
      <trkpt lat="43.78594" lon="7.24935">
        <ele>520</ele>
        <time>2015-03-01T10:18:53Z</time>
      </trkpt>
      <trkpt lat="43.78601" lon="7.24931">
        <ele>520</ele>
        <time>2015-03-01T10:18:56Z</time>
      </trkpt>
      <trkpt lat="43.78608" lon="7.24927">
        <ele>519</ele>
        <time>2015-03-01T10:18:59Z</time>
      </trkpt>
      <trkpt lat="43.78616" lon="7.24924">
        <ele>519</ele>
        <time>2015-03-01T10:19:02Z</time>
      </trkpt>
      <trkpt lat="43.78624" lon="7.24923">
        <ele>519</ele>
        <time>2015-03-01T10:19:05Z</time>
      </trkpt>
      <trkpt lat="43.78631" lon="7.24921">
        <ele>519</ele>
        <time>2015-03-01T10:19:08Z</time>
      </trkpt>
      <trkpt lat="43.7864" lon="7.24919">
        <ele>519</ele>
        <time>2015-03-01T10:19:11Z</time>
      </trkpt>
      <trkpt lat="43.78648" lon="7.24916">
        <ele>519</ele>
        <time>2015-03-01T10:19:14Z</time>
      </trkpt>
      <trkpt lat="43.78657" lon="7.24914">
        <ele>519</ele>
        <time>2015-03-01T10:19:17Z</time>
      </trkpt>
      <trkpt lat="43.7866" lon="7.24905">
        <ele>519</ele>
        <time>2015-03-01T10:19:20Z</time>
      </trkpt>
      <trkpt lat="43.78658" lon="7.24893">
        <ele>518</ele>
        <time>2015-03-01T10:19:23Z</time>
      </trkpt>
      <trkpt lat="43.78656" lon="7.24879">
        <ele>518</ele>
        <time>2015-03-01T10:19:26Z</time>
      </trkpt>
      <trkpt lat="43.78652" lon="7.24862">
        <ele>517</ele>
        <time>2015-03-01T10:19:29Z</time>
      </trkpt>
      <trkpt lat="43.78648" lon="7.24844">
        <ele>516</ele>
        <time>2015-03-01T10:19:32Z</time>
      </trkpt>
      <trkpt lat="43.78644" lon="7.24826">
        <ele>515</ele>
        <time>2015-03-01T10:19:35Z</time>
      </trkpt>
      <trkpt lat="43.78641" lon="7.2481">
        <ele>515</ele>
        <time>2015-03-01T10:19:38Z</time>
      </trkpt>
      <trkpt lat="43.78639" lon="7.24796">
        <ele>515</ele>
        <time>2015-03-01T10:19:41Z</time>
      </trkpt>
      <trkpt lat="43.78645" lon="7.24787">
        <ele>516</ele>
        <time>2015-03-01T10:19:44Z</time>
      </trkpt>
      <trkpt lat="43.78655" lon="7.24779">
        <ele>515</ele>
        <time>2015-03-01T10:19:47Z</time>
      </trkpt>
      <trkpt lat="43.78666" lon="7.24769">
        <ele>514</ele>
        <time>2015-03-01T10:19:50Z</time>
      </trkpt>
      <trkpt lat="43.78679" lon="7.24758">
        <ele>513</ele>
        <time>2015-03-01T10:19:53Z</time>
      </trkpt>
      <trkpt lat="43.78694" lon="7.24754">
        <ele>512</ele>
        <time>2015-03-01T10:19:56Z</time>
      </trkpt>
      <trkpt lat="43.78709" lon="7.24761">
        <ele>512</ele>
        <time>2015-03-01T10:19:59Z</time>
      </trkpt>
      <trkpt lat="43.78721" lon="7.24763">
        <ele>512</ele>
        <time>2015-03-01T10:20:02Z</time>
      </trkpt>
      <trkpt lat="43.78731" lon="7.24764">
        <ele>512</ele>
        <time>2015-03-01T10:20:05Z</time>
      </trkpt>
      <trkpt lat="43.78738" lon="7.24763">
        <ele>513</ele>
        <time>2015-03-01T10:20:08Z</time>
      </trkpt>
      <trkpt lat="43.78745" lon="7.2476">
        <ele>514</ele>
        <time>2015-03-01T10:20:11Z</time>
      </trkpt>
      <trkpt lat="43.7875" lon="7.24757">
        <ele>515</ele>
        <time>2015-03-01T10:20:14Z</time>
      </trkpt>
      <trkpt lat="43.78755" lon="7.24752">
        <ele>515</ele>
        <time>2015-03-01T10:20:17Z</time>
      </trkpt>
      <trkpt lat="43.78759" lon="7.24744">
        <ele>516</ele>
        <time>2015-03-01T10:20:20Z</time>
      </trkpt>
      <trkpt lat="43.78763" lon="7.24738">
        <ele>516</ele>
        <time>2015-03-01T10:20:23Z</time>
      </trkpt>
      <trkpt lat="43.78765" lon="7.24729">
        <ele>517</ele>
        <time>2015-03-01T10:20:26Z</time>
      </trkpt>
      <trkpt lat="43.78768" lon="7.2472">
        <ele>517</ele>
        <time>2015-03-01T10:20:29Z</time>
      </trkpt>
      <trkpt lat="43.78771" lon="7.24712">
        <ele>517</ele>
        <time>2015-03-01T10:20:32Z</time>
      </trkpt>
      <trkpt lat="43.78773" lon="7.24703">
        <ele>517</ele>
        <time>2015-03-01T10:20:35Z</time>
      </trkpt>
      <trkpt lat="43.78774" lon="7.24694">
        <ele>518</ele>
        <time>2015-03-01T10:20:38Z</time>
      </trkpt>
      <trkpt lat="43.78777" lon="7.24685">
        <ele>519</ele>
        <time>2015-03-01T10:20:41Z</time>
      </trkpt>
      <trkpt lat="43.78779" lon="7.24678">
        <ele>519</ele>
        <time>2015-03-01T10:20:44Z</time>
      </trkpt>
      <trkpt lat="43.7878" lon="7.2467">
        <ele>519</ele>
        <time>2015-03-01T10:20:47Z</time>
      </trkpt>
      <trkpt lat="43.78781" lon="7.24662">
        <ele>520</ele>
        <time>2015-03-01T10:20:50Z</time>
      </trkpt>
      <trkpt lat="43.78783" lon="7.24654">
        <ele>520</ele>
        <time>2015-03-01T10:20:53Z</time>
      </trkpt>
      <trkpt lat="43.78786" lon="7.24647">
        <ele>521</ele>
        <time>2015-03-01T10:20:56Z</time>
      </trkpt>
      <trkpt lat="43.78787" lon="7.24638">
        <ele>521</ele>
        <time>2015-03-01T10:20:59Z</time>
      </trkpt>
      <trkpt lat="43.78789" lon="7.24629">
        <ele>521</ele>
        <time>2015-03-01T10:21:02Z</time>
      </trkpt>
      <trkpt lat="43.78792" lon="7.24621">
        <ele>522</ele>
        <time>2015-03-01T10:21:05Z</time>
      </trkpt>
      <trkpt lat="43.78794" lon="7.24613">
        <ele>522</ele>
        <time>2015-03-01T10:21:08Z</time>
      </trkpt>
      <trkpt lat="43.78796" lon="7.24606">
        <ele>523</ele>
        <time>2015-03-01T10:21:11Z</time>
      </trkpt>
      <trkpt lat="43.78798" lon="7.24597">
        <ele>523</ele>
        <time>2015-03-01T10:21:14Z</time>
      </trkpt>
      <trkpt lat="43.78802" lon="7.24591">
        <ele>524</ele>
        <time>2015-03-01T10:21:17Z</time>
      </trkpt>
      <trkpt lat="43.78807" lon="7.2459">
        <ele>525</ele>
        <time>2015-03-01T10:21:20Z</time>
      </trkpt>
      <trkpt lat="43.78812" lon="7.24598">
        <ele>525</ele>
        <time>2015-03-01T10:21:23Z</time>
      </trkpt>
      <trkpt lat="43.78815" lon="7.24607">
        <ele>525</ele>
        <time>2015-03-01T10:21:26Z</time>
      </trkpt>
      <trkpt lat="43.78818" lon="7.24615">
        <ele>525</ele>
        <time>2015-03-01T10:21:29Z</time>
      </trkpt>
      <trkpt lat="43.78822" lon="7.24622">
        <ele>526</ele>
        <time>2015-03-01T10:21:32Z</time>
      </trkpt>
      <trkpt lat="43.78826" lon="7.24628">
        <ele>526</ele>
        <time>2015-03-01T10:21:35Z</time>
      </trkpt>
      <trkpt lat="43.78831" lon="7.24631">
        <ele>527</ele>
        <time>2015-03-01T10:21:38Z</time>
      </trkpt>
      <trkpt lat="43.78835" lon="7.24633">
        <ele>528</ele>
        <time>2015-03-01T10:21:41Z</time>
      </trkpt>
      <trkpt lat="43.78839" lon="7.24637">
        <ele>528</ele>
        <time>2015-03-01T10:21:44Z</time>
      </trkpt>
      <trkpt lat="43.78843" lon="7.24641">
        <ele>529</ele>
        <time>2015-03-01T10:21:47Z</time>
      </trkpt>
      <trkpt lat="43.78848" lon="7.24645">
        <ele>529</ele>
        <time>2015-03-01T10:21:50Z</time>
      </trkpt>
      <trkpt lat="43.78852" lon="7.24648">
        <ele>530</ele>
        <time>2015-03-01T10:21:53Z</time>
      </trkpt>
      <trkpt lat="43.78856" lon="7.24651">
        <ele>531</ele>
        <time>2015-03-01T10:21:56Z</time>
      </trkpt>
      <trkpt lat="43.7886" lon="7.24655">
        <ele>532</ele>
        <time>2015-03-01T10:21:59Z</time>
      </trkpt>
      <trkpt lat="43.78866" lon="7.24657">
        <ele>533</ele>
        <time>2015-03-01T10:22:02Z</time>
      </trkpt>
      <trkpt lat="43.7887" lon="7.24658">
        <ele>533</ele>
        <time>2015-03-01T10:22:05Z</time>
      </trkpt>
      <trkpt lat="43.78875" lon="7.24657">
        <ele>534</ele>
        <time>2015-03-01T10:22:08Z</time>
      </trkpt>
      <trkpt lat="43.7888" lon="7.24653">
        <ele>534</ele>
        <time>2015-03-01T10:22:11Z</time>
      </trkpt>
      <trkpt lat="43.78885" lon="7.24649">
        <ele>534</ele>
        <time>2015-03-01T10:22:14Z</time>
      </trkpt>
      <trkpt lat="43.7889" lon="7.24644">
        <ele>535</ele>
        <time>2015-03-01T10:22:17Z</time>
      </trkpt>
      <trkpt lat="43.78896" lon="7.2464">
        <ele>535</ele>
        <time>2015-03-01T10:22:20Z</time>
      </trkpt>
      <trkpt lat="43.78902" lon="7.24638">
        <ele>535</ele>
        <time>2015-03-01T10:22:23Z</time>
      </trkpt>
      <trkpt lat="43.78909" lon="7.24639">
        <ele>536</ele>
        <time>2015-03-01T10:22:26Z</time>
      </trkpt>
      <trkpt lat="43.78915" lon="7.24641">
        <ele>536</ele>
        <time>2015-03-01T10:22:29Z</time>
      </trkpt>
      <trkpt lat="43.78922" lon="7.24642">
        <ele>537</ele>
        <time>2015-03-01T10:22:32Z</time>
      </trkpt>
      <trkpt lat="43.78929" lon="7.24644">
        <ele>537</ele>
        <time>2015-03-01T10:22:35Z</time>
      </trkpt>
      <trkpt lat="43.78936" lon="7.24652">
        <ele>537</ele>
        <time>2015-03-01T10:22:39Z</time>
      </trkpt>
      <trkpt lat="43.78941" lon="7.24659">
        <ele>538</ele>
        <time>2015-03-01T10:22:42Z</time>
      </trkpt>
      <trkpt lat="43.78945" lon="7.24666">
        <ele>538</ele>
        <time>2015-03-01T10:22:45Z</time>
      </trkpt>
      <trkpt lat="43.78949" lon="7.24672">
        <ele>538</ele>
        <time>2015-03-01T10:22:48Z</time>
      </trkpt>
      <trkpt lat="43.78953" lon="7.24679">
        <ele>539</ele>
        <time>2015-03-01T10:22:51Z</time>
      </trkpt>
      <trkpt lat="43.78958" lon="7.24685">
        <ele>539</ele>
        <time>2015-03-01T10:22:54Z</time>
      </trkpt>
      <trkpt lat="43.78963" lon="7.24688">
        <ele>540</ele>
        <time>2015-03-01T10:22:57Z</time>
      </trkpt>
      <trkpt lat="43.7897" lon="7.24691">
        <ele>540</ele>
        <time>2015-03-01T10:23:00Z</time>
      </trkpt>
      <trkpt lat="43.78975" lon="7.24694">
        <ele>540</ele>
        <time>2015-03-01T10:23:03Z</time>
      </trkpt>
      <trkpt lat="43.78981" lon="7.24693">
        <ele>541</ele>
        <time>2015-03-01T10:23:06Z</time>
      </trkpt>
      <trkpt lat="43.78986" lon="7.24691">
        <ele>542</ele>
        <time>2015-03-01T10:23:09Z</time>
      </trkpt>
      <trkpt lat="43.78993" lon="7.24689">
        <ele>542</ele>
        <time>2015-03-01T10:23:12Z</time>
      </trkpt>
      <trkpt lat="43.78998" lon="7.24687">
        <ele>543</ele>
        <time>2015-03-01T10:23:15Z</time>
      </trkpt>
      <trkpt lat="43.79005" lon="7.24685">
        <ele>543</ele>
        <time>2015-03-01T10:23:18Z</time>
      </trkpt>
      <trkpt lat="43.79011" lon="7.24682">
        <ele>543</ele>
        <time>2015-03-01T10:23:21Z</time>
      </trkpt>
      <trkpt lat="43.79017" lon="7.2468">
        <ele>544</ele>
        <time>2015-03-01T10:23:24Z</time>
      </trkpt>
      <trkpt lat="43.79023" lon="7.24678">
        <ele>544</ele>
        <time>2015-03-01T10:23:27Z</time>
      </trkpt>
      <trkpt lat="43.79029" lon="7.24676">
        <ele>545</ele>
        <time>2015-03-01T10:23:30Z</time>
      </trkpt>
      <trkpt lat="43.79035" lon="7.24676">
        <ele>545</ele>
        <time>2015-03-01T10:23:33Z</time>
      </trkpt>
      <trkpt lat="43.79042" lon="7.24679">
        <ele>546</ele>
        <time>2015-03-01T10:23:36Z</time>
      </trkpt>
      <trkpt lat="43.79047" lon="7.24681">
        <ele>546</ele>
        <time>2015-03-01T10:23:39Z</time>
      </trkpt>
      <trkpt lat="43.79054" lon="7.24682">
        <ele>546</ele>
        <time>2015-03-01T10:23:42Z</time>
      </trkpt>
      <trkpt lat="43.7906" lon="7.2468">
        <ele>546</ele>
        <time>2015-03-01T10:23:45Z</time>
      </trkpt>
      <trkpt lat="43.79067" lon="7.24679">
        <ele>547</ele>
        <time>2015-03-01T10:23:48Z</time>
      </trkpt>
      <trkpt lat="43.79073" lon="7.24676">
        <ele>547</ele>
        <time>2015-03-01T10:23:51Z</time>
      </trkpt>
      <trkpt lat="43.79078" lon="7.24673">
        <ele>547</ele>
        <time>2015-03-01T10:23:54Z</time>
      </trkpt>
      <trkpt lat="43.79084" lon="7.24672">
        <ele>548</ele>
        <time>2015-03-01T10:23:57Z</time>
      </trkpt>
      <trkpt lat="43.79089" lon="7.2467">
        <ele>548</ele>
        <time>2015-03-01T10:24:00Z</time>
      </trkpt>
      <trkpt lat="43.79095" lon="7.24668">
        <ele>548</ele>
        <time>2015-03-01T10:24:03Z</time>
      </trkpt>
      <trkpt lat="43.79102" lon="7.24667">
        <ele>548</ele>
        <time>2015-03-01T10:24:06Z</time>
      </trkpt>
      <trkpt lat="43.79108" lon="7.24665">
        <ele>549</ele>
        <time>2015-03-01T10:24:09Z</time>
      </trkpt>
      <trkpt lat="43.79114" lon="7.24664">
        <ele>549</ele>
        <time>2015-03-01T10:24:12Z</time>
      </trkpt>
      <trkpt lat="43.79119" lon="7.24662">
        <ele>549</ele>
        <time>2015-03-01T10:24:15Z</time>
      </trkpt>
      <trkpt lat="43.79126" lon="7.2466">
        <ele>550</ele>
        <time>2015-03-01T10:24:18Z</time>
      </trkpt>
      <trkpt lat="43.79133" lon="7.24658">
        <ele>550</ele>
        <time>2015-03-01T10:24:21Z</time>
      </trkpt>
      <trkpt lat="43.79139" lon="7.24655">
        <ele>550</ele>
        <time>2015-03-01T10:24:24Z</time>
      </trkpt>
      <trkpt lat="43.79145" lon="7.24652">
        <ele>550</ele>
        <time>2015-03-01T10:24:27Z</time>
      </trkpt>
      <trkpt lat="43.79151" lon="7.24649">
        <ele>551</ele>
        <time>2015-03-01T10:24:30Z</time>
      </trkpt>
      <trkpt lat="43.79157" lon="7.24646">
        <ele>551</ele>
        <time>2015-03-01T10:24:33Z</time>
      </trkpt>
      <trkpt lat="43.79163" lon="7.24643">
        <ele>551</ele>
        <time>2015-03-01T10:24:36Z</time>
      </trkpt>
      <trkpt lat="43.79169" lon="7.24641">
        <ele>552</ele>
        <time>2015-03-01T10:24:39Z</time>
      </trkpt>
      <trkpt lat="43.79175" lon="7.24638">
        <ele>552</ele>
        <time>2015-03-01T10:24:42Z</time>
      </trkpt>
      <trkpt lat="43.7918" lon="7.24635">
        <ele>553</ele>
        <time>2015-03-01T10:24:45Z</time>
      </trkpt>
      <trkpt lat="43.79185" lon="7.24633">
        <ele>553</ele>
        <time>2015-03-01T10:24:48Z</time>
      </trkpt>
      <trkpt lat="43.79192" lon="7.24631">
        <ele>554</ele>
        <time>2015-03-01T10:24:51Z</time>
      </trkpt>
      <trkpt lat="43.79197" lon="7.24627">
        <ele>554</ele>
        <time>2015-03-01T10:24:54Z</time>
      </trkpt>
      <trkpt lat="43.79201" lon="7.24622">
        <ele>555</ele>
        <time>2015-03-01T10:24:57Z</time>
      </trkpt>
      <trkpt lat="43.79206" lon="7.24616">
        <ele>555</ele>
        <time>2015-03-01T10:25:00Z</time>
      </trkpt>
      <trkpt lat="43.79209" lon="7.24609">
        <ele>555</ele>
        <time>2015-03-01T10:25:03Z</time>
      </trkpt>
      <trkpt lat="43.79212" lon="7.24602">
        <ele>556</ele>
        <time>2015-03-01T10:25:06Z</time>
      </trkpt>
      <trkpt lat="43.79216" lon="7.24595">
        <ele>556</ele>
        <time>2015-03-01T10:25:09Z</time>
      </trkpt>
      <trkpt lat="43.79219" lon="7.24587">
        <ele>557</ele>
        <time>2015-03-01T10:25:12Z</time>
      </trkpt>
      <trkpt lat="43.79222" lon="7.24581">
        <ele>557</ele>
        <time>2015-03-01T10:25:15Z</time>
      </trkpt>
      <trkpt lat="43.79225" lon="7.24574">
        <ele>558</ele>
        <time>2015-03-01T10:25:18Z</time>
      </trkpt>
      <trkpt lat="43.79228" lon="7.24567">
        <ele>558</ele>
        <time>2015-03-01T10:25:21Z</time>
      </trkpt>
      <trkpt lat="43.79231" lon="7.24561">
        <ele>558</ele>
        <time>2015-03-01T10:25:24Z</time>
      </trkpt>
      <trkpt lat="43.79235" lon="7.24554">
        <ele>559</ele>
        <time>2015-03-01T10:25:27Z</time>
      </trkpt>
      <trkpt lat="43.7924" lon="7.24549">
        <ele>559</ele>
        <time>2015-03-01T10:25:30Z</time>
      </trkpt>
      <trkpt lat="43.79244" lon="7.24543">
        <ele>560</ele>
        <time>2015-03-01T10:25:33Z</time>
      </trkpt>
      <trkpt lat="43.79249" lon="7.24537">
        <ele>560</ele>
        <time>2015-03-01T10:25:36Z</time>
      </trkpt>
      <trkpt lat="43.79253" lon="7.24533">
        <ele>561</ele>
        <time>2015-03-01T10:25:39Z</time>
      </trkpt>
      <trkpt lat="43.79258" lon="7.24528">
        <ele>561</ele>
        <time>2015-03-01T10:25:42Z</time>
      </trkpt>
      <trkpt lat="43.79264" lon="7.24524">
        <ele>562</ele>
        <time>2015-03-01T10:25:45Z</time>
      </trkpt>
      <trkpt lat="43.79269" lon="7.2452">
        <ele>562</ele>
        <time>2015-03-01T10:25:48Z</time>
      </trkpt>
      <trkpt lat="43.79274" lon="7.24514">
        <ele>563</ele>
        <time>2015-03-01T10:25:51Z</time>
      </trkpt>
      <trkpt lat="43.79279" lon="7.24509">
        <ele>563</ele>
        <time>2015-03-01T10:25:54Z</time>
      </trkpt>
      <trkpt lat="43.79284" lon="7.24504">
        <ele>564</ele>
        <time>2015-03-01T10:25:57Z</time>
      </trkpt>
      <trkpt lat="43.79288" lon="7.24498">
        <ele>564</ele>
        <time>2015-03-01T10:26:00Z</time>
      </trkpt>
      <trkpt lat="43.79293" lon="7.24492">
        <ele>565</ele>
        <time>2015-03-01T10:26:03Z</time>
      </trkpt>
      <trkpt lat="43.79297" lon="7.24487">
        <ele>565</ele>
        <time>2015-03-01T10:26:06Z</time>
      </trkpt>
      <trkpt lat="43.79302" lon="7.24481">
        <ele>565</ele>
        <time>2015-03-01T10:26:09Z</time>
      </trkpt>
      <trkpt lat="43.79306" lon="7.24475">
        <ele>566</ele>
        <time>2015-03-01T10:26:12Z</time>
      </trkpt>
      <trkpt lat="43.79311" lon="7.2447">
        <ele>566</ele>
        <time>2015-03-01T10:26:15Z</time>
      </trkpt>
      <trkpt lat="43.79315" lon="7.24465">
        <ele>567</ele>
        <time>2015-03-01T10:26:18Z</time>
      </trkpt>
      <trkpt lat="43.79321" lon="7.24461">
        <ele>568</ele>
        <time>2015-03-01T10:26:21Z</time>
      </trkpt>
      <trkpt lat="43.79326" lon="7.24457">
        <ele>568</ele>
        <time>2015-03-01T10:26:24Z</time>
      </trkpt>
      <trkpt lat="43.79331" lon="7.24454">
        <ele>569</ele>
        <time>2015-03-01T10:26:27Z</time>
      </trkpt>
      <trkpt lat="43.79337" lon="7.24451">
        <ele>569</ele>
        <time>2015-03-01T10:26:30Z</time>
      </trkpt>
      <trkpt lat="43.79342" lon="7.24448">
        <ele>570</ele>
        <time>2015-03-01T10:26:33Z</time>
      </trkpt>
      <trkpt lat="43.79348" lon="7.24444">
        <ele>570</ele>
        <time>2015-03-01T10:26:36Z</time>
      </trkpt>
      <trkpt lat="43.79353" lon="7.2444">
        <ele>571</ele>
        <time>2015-03-01T10:26:39Z</time>
      </trkpt>
      <trkpt lat="43.79357" lon="7.24435">
        <ele>572</ele>
        <time>2015-03-01T10:26:42Z</time>
      </trkpt>
      <trkpt lat="43.79362" lon="7.24432">
        <ele>573</ele>
        <time>2015-03-01T10:26:45Z</time>
      </trkpt>
      <trkpt lat="43.79367" lon="7.24429">
        <ele>573</ele>
        <time>2015-03-01T10:26:48Z</time>
      </trkpt>
      <trkpt lat="43.79373" lon="7.24427">
        <ele>573</ele>
        <time>2015-03-01T10:26:51Z</time>
      </trkpt>
      <trkpt lat="43.79378" lon="7.24423">
        <ele>574</ele>
        <time>2015-03-01T10:26:54Z</time>
      </trkpt>
      <trkpt lat="43.79383" lon="7.2442">
        <ele>574</ele>
        <time>2015-03-01T10:26:57Z</time>
      </trkpt>
      <trkpt lat="43.79388" lon="7.24416">
        <ele>574</ele>
        <time>2015-03-01T10:27:00Z</time>
      </trkpt>
      <trkpt lat="43.79394" lon="7.24412">
        <ele>575</ele>
        <time>2015-03-01T10:27:03Z</time>
      </trkpt>
      <trkpt lat="43.79399" lon="7.24408">
        <ele>575</ele>
        <time>2015-03-01T10:27:06Z</time>
      </trkpt>
      <trkpt lat="43.79405" lon="7.24405">
        <ele>576</ele>
        <time>2015-03-01T10:27:09Z</time>
      </trkpt>
      <trkpt lat="43.7941" lon="7.244">
        <ele>576</ele>
        <time>2015-03-01T10:27:12Z</time>
      </trkpt>
      <trkpt lat="43.79415" lon="7.24396">
        <ele>577</ele>
        <time>2015-03-01T10:27:15Z</time>
      </trkpt>
      <trkpt lat="43.7942" lon="7.24392">
        <ele>577</ele>
        <time>2015-03-01T10:27:18Z</time>
      </trkpt>
      <trkpt lat="43.79425" lon="7.24388">
        <ele>578</ele>
        <time>2015-03-01T10:27:21Z</time>
      </trkpt>
      <trkpt lat="43.7943" lon="7.24383">
        <ele>578</ele>
        <time>2015-03-01T10:27:24Z</time>
      </trkpt>
      <trkpt lat="43.79435" lon="7.24378">
        <ele>578</ele>
        <time>2015-03-01T10:27:27Z</time>
      </trkpt>
      <trkpt lat="43.7944" lon="7.24372">
        <ele>579</ele>
        <time>2015-03-01T10:27:30Z</time>
      </trkpt>
      <trkpt lat="43.79445" lon="7.24367">
        <ele>580</ele>
        <time>2015-03-01T10:27:33Z</time>
      </trkpt>
      <trkpt lat="43.79449" lon="7.24363">
        <ele>580</ele>
        <time>2015-03-01T10:27:36Z</time>
      </trkpt>
      <trkpt lat="43.79454" lon="7.24358">
        <ele>581</ele>
        <time>2015-03-01T10:27:39Z</time>
      </trkpt>
      <trkpt lat="43.79459" lon="7.24353">
        <ele>581</ele>
        <time>2015-03-01T10:27:42Z</time>
      </trkpt>
      <trkpt lat="43.79463" lon="7.24349">
        <ele>581</ele>
        <time>2015-03-01T10:27:45Z</time>
      </trkpt>
      <trkpt lat="43.79463" lon="7.24348">
        <ele>582</ele>
        <time>2015-03-01T10:27:48Z</time>
      </trkpt>
      <trkpt lat="43.79463" lon="7.24349">
        <ele>582</ele>
        <time>2015-03-01T10:27:51Z</time>
      </trkpt>
      <trkpt lat="43.79465" lon="7.24347">
        <ele>582</ele>
        <time>2015-03-01T10:27:54Z</time>
      </trkpt>
      <trkpt lat="43.79471" lon="7.24342">
        <ele>582</ele>
        <time>2015-03-01T10:27:57Z</time>
      </trkpt>
      <trkpt lat="43.79477" lon="7.24337">
        <ele>583</ele>
        <time>2015-03-01T10:28:00Z</time>
      </trkpt>
      <trkpt lat="43.79482" lon="7.24331">
        <ele>583</ele>
        <time>2015-03-01T10:28:03Z</time>
      </trkpt>
      <trkpt lat="43.79487" lon="7.24325">
        <ele>584</ele>
        <time>2015-03-01T10:28:06Z</time>
      </trkpt>
      <trkpt lat="43.79492" lon="7.2432">
        <ele>584</ele>
        <time>2015-03-01T10:28:09Z</time>
      </trkpt>
      <trkpt lat="43.79497" lon="7.24314">
        <ele>585</ele>
        <time>2015-03-01T10:28:12Z</time>
      </trkpt>
      <trkpt lat="43.79501" lon="7.24307">
        <ele>585</ele>
        <time>2015-03-01T10:28:15Z</time>
      </trkpt>
      <trkpt lat="43.79506" lon="7.24301">
        <ele>586</ele>
        <time>2015-03-01T10:28:18Z</time>
      </trkpt>
      <trkpt lat="43.79511" lon="7.24295">
        <ele>586</ele>
        <time>2015-03-01T10:28:21Z</time>
      </trkpt>
      <trkpt lat="43.79516" lon="7.24291">
        <ele>587</ele>
        <time>2015-03-01T10:28:24Z</time>
      </trkpt>
      <trkpt lat="43.79521" lon="7.24285">
        <ele>587</ele>
        <time>2015-03-01T10:28:27Z</time>
      </trkpt>
      <trkpt lat="43.79525" lon="7.24278">
        <ele>588</ele>
        <time>2015-03-01T10:28:30Z</time>
      </trkpt>
      <trkpt lat="43.7953" lon="7.24271">
        <ele>588</ele>
        <time>2015-03-01T10:28:33Z</time>
      </trkpt>
      <trkpt lat="43.79535" lon="7.24264">
        <ele>588</ele>
        <time>2015-03-01T10:28:36Z</time>
      </trkpt>
      <trkpt lat="43.79539" lon="7.24258">
        <ele>589</ele>
        <time>2015-03-01T10:28:39Z</time>
      </trkpt>
      <trkpt lat="43.79544" lon="7.24251">
        <ele>589</ele>
        <time>2015-03-01T10:28:42Z</time>
      </trkpt>
      <trkpt lat="43.79549" lon="7.24244">
        <ele>590</ele>
        <time>2015-03-01T10:28:45Z</time>
      </trkpt>
      <trkpt lat="43.79552" lon="7.24236">
        <ele>590</ele>
        <time>2015-03-01T10:28:48Z</time>
      </trkpt>
      <trkpt lat="43.79556" lon="7.24228">
        <ele>590</ele>
        <time>2015-03-01T10:28:51Z</time>
      </trkpt>
      <trkpt lat="43.79559" lon="7.24219">
        <ele>591</ele>
        <time>2015-03-01T10:28:54Z</time>
      </trkpt>
      <trkpt lat="43.79561" lon="7.2421">
        <ele>591</ele>
        <time>2015-03-01T10:28:57Z</time>
      </trkpt>
      <trkpt lat="43.79564" lon="7.24201">
        <ele>592</ele>
        <time>2015-03-01T10:29:00Z</time>
      </trkpt>
      <trkpt lat="43.79567" lon="7.24192">
        <ele>592</ele>
        <time>2015-03-01T10:29:03Z</time>
      </trkpt>
      <trkpt lat="43.79569" lon="7.24184">
        <ele>593</ele>
        <time>2015-03-01T10:29:06Z</time>
      </trkpt>
      <trkpt lat="43.79573" lon="7.24176">
        <ele>593</ele>
        <time>2015-03-01T10:29:09Z</time>
      </trkpt>
      <trkpt lat="43.79576" lon="7.24169">
        <ele>593</ele>
        <time>2015-03-01T10:29:12Z</time>
      </trkpt>
      <trkpt lat="43.79578" lon="7.24161">
        <ele>594</ele>
        <time>2015-03-01T10:29:15Z</time>
      </trkpt>
      <trkpt lat="43.79582" lon="7.24155">
        <ele>595</ele>
        <time>2015-03-01T10:29:18Z</time>
      </trkpt>
      <trkpt lat="43.79587" lon="7.24155">
        <ele>595</ele>
        <time>2015-03-01T10:29:21Z</time>
      </trkpt>
      <trkpt lat="43.79588" lon="7.24161">
        <ele>595</ele>
        <time>2015-03-01T10:29:24Z</time>
      </trkpt>
      <trkpt lat="43.79585" lon="7.24168">
        <ele>597</ele>
        <time>2015-03-01T10:29:27Z</time>
      </trkpt>
      <trkpt lat="43.79583" lon="7.24175">
        <ele>597</ele>
        <time>2015-03-01T10:29:30Z</time>
      </trkpt>
      <trkpt lat="43.79582" lon="7.24182">
        <ele>598</ele>
        <time>2015-03-01T10:29:33Z</time>
      </trkpt>
      <trkpt lat="43.79579" lon="7.24189">
        <ele>599</ele>
        <time>2015-03-01T10:29:36Z</time>
      </trkpt>
      <trkpt lat="43.79578" lon="7.24197">
        <ele>599</ele>
        <time>2015-03-01T10:29:39Z</time>
      </trkpt>
      <trkpt lat="43.79578" lon="7.24204">
        <ele>600</ele>
        <time>2015-03-01T10:29:42Z</time>
      </trkpt>
      <trkpt lat="43.79577" lon="7.24211">
        <ele>600</ele>
        <time>2015-03-01T10:29:45Z</time>
      </trkpt>
      <trkpt lat="43.79576" lon="7.24219">
        <ele>601</ele>
        <time>2015-03-01T10:29:48Z</time>
      </trkpt>
      <trkpt lat="43.79575" lon="7.24227">
        <ele>602</ele>
        <time>2015-03-01T10:29:51Z</time>
      </trkpt>
      <trkpt lat="43.79574" lon="7.24235">
        <ele>602</ele>
        <time>2015-03-01T10:29:54Z</time>
      </trkpt>
      <trkpt lat="43.79574" lon="7.24243">
        <ele>603</ele>
        <time>2015-03-01T10:29:57Z</time>
      </trkpt>
      <trkpt lat="43.79573" lon="7.2425">
        <ele>603</ele>
        <time>2015-03-01T10:30:00Z</time>
      </trkpt>
      <trkpt lat="43.79571" lon="7.24258">
        <ele>604</ele>
        <time>2015-03-01T10:30:03Z</time>
      </trkpt>
      <trkpt lat="43.79569" lon="7.24265">
        <ele>604</ele>
        <time>2015-03-01T10:30:06Z</time>
      </trkpt>
      <trkpt lat="43.79567" lon="7.24272">
        <ele>605</ele>
        <time>2015-03-01T10:30:09Z</time>
      </trkpt>
      <trkpt lat="43.79564" lon="7.24279">
        <ele>605</ele>
        <time>2015-03-01T10:30:12Z</time>
      </trkpt>
      <trkpt lat="43.79561" lon="7.24285">
        <ele>606</ele>
        <time>2015-03-01T10:30:15Z</time>
      </trkpt>
      <trkpt lat="43.79558" lon="7.24292">
        <ele>606</ele>
        <time>2015-03-01T10:30:18Z</time>
      </trkpt>
      <trkpt lat="43.79555" lon="7.24299">
        <ele>606</ele>
        <time>2015-03-01T10:30:21Z</time>
      </trkpt>
      <trkpt lat="43.79551" lon="7.24306">
        <ele>607</ele>
        <time>2015-03-01T10:30:24Z</time>
      </trkpt>
      <trkpt lat="43.79549" lon="7.24312">
        <ele>607</ele>
        <time>2015-03-01T10:30:27Z</time>
      </trkpt>
      <trkpt lat="43.79546" lon="7.2432">
        <ele>608</ele>
        <time>2015-03-01T10:30:30Z</time>
      </trkpt>
      <trkpt lat="43.79542" lon="7.24327">
        <ele>608</ele>
        <time>2015-03-01T10:30:33Z</time>
      </trkpt>
      <trkpt lat="43.79538" lon="7.24333">
        <ele>608</ele>
        <time>2015-03-01T10:30:36Z</time>
      </trkpt>
      <trkpt lat="43.79535" lon="7.24339">
        <ele>609</ele>
        <time>2015-03-01T10:30:39Z</time>
      </trkpt>
      <trkpt lat="43.79531" lon="7.24346">
        <ele>609</ele>
        <time>2015-03-01T10:30:42Z</time>
      </trkpt>
      <trkpt lat="43.79528" lon="7.24352">
        <ele>610</ele>
        <time>2015-03-01T10:30:45Z</time>
      </trkpt>
      <trkpt lat="43.79524" lon="7.24358">
        <ele>610</ele>
        <time>2015-03-01T10:30:48Z</time>
      </trkpt>
      <trkpt lat="43.79519" lon="7.24365">
        <ele>611</ele>
        <time>2015-03-01T10:30:51Z</time>
      </trkpt>
      <trkpt lat="43.79515" lon="7.24372">
        <ele>611</ele>
        <time>2015-03-01T10:30:54Z</time>
      </trkpt>
      <trkpt lat="43.79511" lon="7.2438">
        <ele>612</ele>
        <time>2015-03-01T10:30:57Z</time>
      </trkpt>
      <trkpt lat="43.79507" lon="7.24387">
        <ele>612</ele>
        <time>2015-03-01T10:31:00Z</time>
      </trkpt>
      <trkpt lat="43.79502" lon="7.24394">
        <ele>613</ele>
        <time>2015-03-01T10:31:03Z</time>
      </trkpt>
      <trkpt lat="43.79498" lon="7.24402">
        <ele>613</ele>
        <time>2015-03-01T10:31:06Z</time>
      </trkpt>
      <trkpt lat="43.79493" lon="7.2441">
        <ele>614</ele>
        <time>2015-03-01T10:31:09Z</time>
      </trkpt>
      <trkpt lat="43.79489" lon="7.24417">
        <ele>614</ele>
        <time>2015-03-01T10:31:12Z</time>
      </trkpt>
      <trkpt lat="43.79485" lon="7.24424">
        <ele>615</ele>
        <time>2015-03-01T10:31:15Z</time>
      </trkpt>
      <trkpt lat="43.79481" lon="7.24431">
        <ele>615</ele>
        <time>2015-03-01T10:31:18Z</time>
      </trkpt>
      <trkpt lat="43.79476" lon="7.24439">
        <ele>615</ele>
        <time>2015-03-01T10:31:21Z</time>
      </trkpt>
      <trkpt lat="43.79472" lon="7.24446">
        <ele>616</ele>
        <time>2015-03-01T10:31:24Z</time>
      </trkpt>
      <trkpt lat="43.79467" lon="7.24453">
        <ele>616</ele>
        <time>2015-03-01T10:31:27Z</time>
      </trkpt>
      <trkpt lat="43.79461" lon="7.24459">
        <ele>617</ele>
        <time>2015-03-01T10:31:30Z</time>
      </trkpt>
      <trkpt lat="43.79456" lon="7.24465">
        <ele>617</ele>
        <time>2015-03-01T10:31:33Z</time>
      </trkpt>
      <trkpt lat="43.79451" lon="7.2447">
        <ele>617</ele>
        <time>2015-03-01T10:31:36Z</time>
      </trkpt>
      <trkpt lat="43.79445" lon="7.24476">
        <ele>618</ele>
        <time>2015-03-01T10:31:39Z</time>
      </trkpt>
      <trkpt lat="43.7944" lon="7.24481">
        <ele>618</ele>
        <time>2015-03-01T10:31:42Z</time>
      </trkpt>
      <trkpt lat="43.79435" lon="7.24487">
        <ele>619</ele>
        <time>2015-03-01T10:31:45Z</time>
      </trkpt>
      <trkpt lat="43.7943" lon="7.24494">
        <ele>619</ele>
        <time>2015-03-01T10:31:48Z</time>
      </trkpt>
      <trkpt lat="43.79426" lon="7.245">
        <ele>620</ele>
        <time>2015-03-01T10:31:51Z</time>
      </trkpt>
      <trkpt lat="43.79421" lon="7.24506">
        <ele>621</ele>
        <time>2015-03-01T10:31:54Z</time>
      </trkpt>
      <trkpt lat="43.79416" lon="7.24512">
        <ele>621</ele>
        <time>2015-03-01T10:31:57Z</time>
      </trkpt>
      <trkpt lat="43.79411" lon="7.24518">
        <ele>622</ele>
        <time>2015-03-01T10:32:00Z</time>
      </trkpt>
      <trkpt lat="43.79407" lon="7.24524">
        <ele>622</ele>
        <time>2015-03-01T10:32:03Z</time>
      </trkpt>
      <trkpt lat="43.79402" lon="7.2453">
        <ele>623</ele>
        <time>2015-03-01T10:32:06Z</time>
      </trkpt>
      <trkpt lat="43.79397" lon="7.24536">
        <ele>623</ele>
        <time>2015-03-01T10:32:09Z</time>
      </trkpt>
      <trkpt lat="43.79393" lon="7.24543">
        <ele>624</ele>
        <time>2015-03-01T10:32:12Z</time>
      </trkpt>
      <trkpt lat="43.79388" lon="7.2455">
        <ele>624</ele>
        <time>2015-03-01T10:32:15Z</time>
      </trkpt>
      <trkpt lat="43.79384" lon="7.24556">
        <ele>625</ele>
        <time>2015-03-01T10:32:18Z</time>
      </trkpt>
      <trkpt lat="43.7938" lon="7.24562">
        <ele>626</ele>
        <time>2015-03-01T10:32:21Z</time>
      </trkpt>
      <trkpt lat="43.79377" lon="7.2457">
        <ele>626</ele>
        <time>2015-03-01T10:32:24Z</time>
      </trkpt>
      <trkpt lat="43.79373" lon="7.24577">
        <ele>627</ele>
        <time>2015-03-01T10:32:27Z</time>
      </trkpt>
      <trkpt lat="43.7937" lon="7.24584">
        <ele>628</ele>
        <time>2015-03-01T10:32:30Z</time>
      </trkpt>
      <trkpt lat="43.79367" lon="7.24592">
        <ele>628</ele>
        <time>2015-03-01T10:32:33Z</time>
      </trkpt>
      <trkpt lat="43.79364" lon="7.24601">
        <ele>629</ele>
        <time>2015-03-01T10:32:36Z</time>
      </trkpt>
      <trkpt lat="43.79361" lon="7.24608">
        <ele>629</ele>
        <time>2015-03-01T10:32:39Z</time>
      </trkpt>
      <trkpt lat="43.79359" lon="7.24617">
        <ele>630</ele>
        <time>2015-03-01T10:32:42Z</time>
      </trkpt>
      <trkpt lat="43.79356" lon="7.24625">
        <ele>631</ele>
        <time>2015-03-01T10:32:45Z</time>
      </trkpt>
      <trkpt lat="43.79352" lon="7.24635">
        <ele>631</ele>
        <time>2015-03-01T10:32:48Z</time>
      </trkpt>
      <trkpt lat="43.79349" lon="7.24643">
        <ele>631</ele>
        <time>2015-03-01T10:32:51Z</time>
      </trkpt>
      <trkpt lat="43.79346" lon="7.24652">
        <ele>632</ele>
        <time>2015-03-01T10:32:54Z</time>
      </trkpt>
      <trkpt lat="43.79344" lon="7.24661">
        <ele>632</ele>
        <time>2015-03-01T10:32:57Z</time>
      </trkpt>
      <trkpt lat="43.79341" lon="7.2467">
        <ele>633</ele>
        <time>2015-03-01T10:33:00Z</time>
      </trkpt>
      <trkpt lat="43.79338" lon="7.24679">
        <ele>633</ele>
        <time>2015-03-01T10:33:03Z</time>
      </trkpt>
      <trkpt lat="43.79337" lon="7.24688">
        <ele>634</ele>
        <time>2015-03-01T10:33:06Z</time>
      </trkpt>
      <trkpt lat="43.79335" lon="7.24698">
        <ele>634</ele>
        <time>2015-03-01T10:33:09Z</time>
      </trkpt>
      <trkpt lat="43.79332" lon="7.24708">
        <ele>635</ele>
        <time>2015-03-01T10:33:12Z</time>
      </trkpt>
      <trkpt lat="43.79331" lon="7.24719">
        <ele>635</ele>
        <time>2015-03-01T10:33:15Z</time>
      </trkpt>
      <trkpt lat="43.79329" lon="7.24729">
        <ele>636</ele>
        <time>2015-03-01T10:33:18Z</time>
      </trkpt>
      <trkpt lat="43.79329" lon="7.24741">
        <ele>636</ele>
        <time>2015-03-01T10:33:21Z</time>
      </trkpt>
      <trkpt lat="43.79328" lon="7.24753">
        <ele>636</ele>
        <time>2015-03-01T10:33:24Z</time>
      </trkpt>
      <trkpt lat="43.79329" lon="7.24763">
        <ele>637</ele>
        <time>2015-03-01T10:33:27Z</time>
      </trkpt>
      <trkpt lat="43.79331" lon="7.24774">
        <ele>637</ele>
        <time>2015-03-01T10:33:30Z</time>
      </trkpt>
      <trkpt lat="43.79333" lon="7.24782">
        <ele>638</ele>
        <time>2015-03-01T10:33:33Z</time>
      </trkpt>
      <trkpt lat="43.79334" lon="7.2479">
        <ele>638</ele>
        <time>2015-03-01T10:33:36Z</time>
      </trkpt>
      <trkpt lat="43.79338" lon="7.24803">
        <ele>637</ele>
        <time>2015-03-01T10:33:39Z</time>
      </trkpt>
      <trkpt lat="43.79348" lon="7.2482">
        <ele>635</ele>
        <time>2015-03-01T10:33:42Z</time>
      </trkpt>
      <trkpt lat="43.7936" lon="7.24832">
        <ele>633</ele>
        <time>2015-03-01T10:33:45Z</time>
      </trkpt>
      <trkpt lat="43.79368" lon="7.24839">
        <ele>632</ele>
        <time>2015-03-01T10:33:48Z</time>
      </trkpt>
      <trkpt lat="43.79375" lon="7.24839">
        <ele>632</ele>
        <time>2015-03-01T10:33:51Z</time>
      </trkpt>
      <trkpt lat="43.79384" lon="7.24841">
        <ele>632</ele>
        <time>2015-03-01T10:33:54Z</time>
      </trkpt>
      <trkpt lat="43.79395" lon="7.24845">
        <ele>631</ele>
        <time>2015-03-01T10:33:57Z</time>
      </trkpt>
      <trkpt lat="43.79406" lon="7.24848">
        <ele>631</ele>
        <time>2015-03-01T10:34:00Z</time>
      </trkpt>
      <trkpt lat="43.79416" lon="7.24854">
        <ele>631</ele>
        <time>2015-03-01T10:34:03Z</time>
      </trkpt>
      <trkpt lat="43.79427" lon="7.2486">
        <ele>631</ele>
        <time>2015-03-01T10:34:06Z</time>
      </trkpt>
      <trkpt lat="43.79436" lon="7.24865">
        <ele>631</ele>
        <time>2015-03-01T10:34:09Z</time>
      </trkpt>
      <trkpt lat="43.79444" lon="7.2487">
        <ele>632</ele>
        <time>2015-03-01T10:34:12Z</time>
      </trkpt>
      <trkpt lat="43.79451" lon="7.24872">
        <ele>632</ele>
        <time>2015-03-01T10:34:15Z</time>
      </trkpt>
      <trkpt lat="43.79458" lon="7.24876">
        <ele>633</ele>
        <time>2015-03-01T10:34:18Z</time>
      </trkpt>
      <trkpt lat="43.79465" lon="7.24878">
        <ele>633</ele>
        <time>2015-03-01T10:34:21Z</time>
      </trkpt>
      <trkpt lat="43.79472" lon="7.24882">
        <ele>634</ele>
        <time>2015-03-01T10:34:24Z</time>
      </trkpt>
      <trkpt lat="43.79479" lon="7.24885">
        <ele>634</ele>
        <time>2015-03-01T10:34:27Z</time>
      </trkpt>
      <trkpt lat="43.79486" lon="7.24887">
        <ele>634</ele>
        <time>2015-03-01T10:34:30Z</time>
      </trkpt>
      <trkpt lat="43.79494" lon="7.2489">
        <ele>634</ele>
        <time>2015-03-01T10:34:33Z</time>
      </trkpt>
      <trkpt lat="43.79501" lon="7.24892">
        <ele>635</ele>
        <time>2015-03-01T10:34:36Z</time>
      </trkpt>
      <trkpt lat="43.79508" lon="7.24895">
        <ele>635</ele>
        <time>2015-03-01T10:34:39Z</time>
      </trkpt>
      <trkpt lat="43.79515" lon="7.24896">
        <ele>635</ele>
        <time>2015-03-01T10:34:42Z</time>
      </trkpt>
      <trkpt lat="43.79521" lon="7.24897">
        <ele>636</ele>
        <time>2015-03-01T10:34:45Z</time>
      </trkpt>
      <trkpt lat="43.79528" lon="7.24897">
        <ele>637</ele>
        <time>2015-03-01T10:34:48Z</time>
      </trkpt>
      <trkpt lat="43.79535" lon="7.24898">
        <ele>637</ele>
        <time>2015-03-01T10:34:51Z</time>
      </trkpt>
      <trkpt lat="43.79542" lon="7.24899">
        <ele>637</ele>
        <time>2015-03-01T10:34:54Z</time>
      </trkpt>
      <trkpt lat="43.7955" lon="7.249">
        <ele>637</ele>
        <time>2015-03-01T10:34:57Z</time>
      </trkpt>
      <trkpt lat="43.79557" lon="7.249">
        <ele>638</ele>
        <time>2015-03-01T10:35:00Z</time>
      </trkpt>
      <trkpt lat="43.79564" lon="7.24899">
        <ele>638</ele>
        <time>2015-03-01T10:35:03Z</time>
      </trkpt>
      <trkpt lat="43.79571" lon="7.249">
        <ele>638</ele>
        <time>2015-03-01T10:35:06Z</time>
      </trkpt>
      <trkpt lat="43.79578" lon="7.24901">
        <ele>639</ele>
        <time>2015-03-01T10:35:09Z</time>
      </trkpt>
      <trkpt lat="43.79585" lon="7.24901">
        <ele>639</ele>
        <time>2015-03-01T10:35:12Z</time>
      </trkpt>
      <trkpt lat="43.79592" lon="7.24901">
        <ele>640</ele>
        <time>2015-03-01T10:35:15Z</time>
      </trkpt>
      <trkpt lat="43.79599" lon="7.24901">
        <ele>640</ele>
        <time>2015-03-01T10:35:18Z</time>
      </trkpt>
      <trkpt lat="43.79605" lon="7.249">
        <ele>641</ele>
        <time>2015-03-01T10:35:21Z</time>
      </trkpt>
      <trkpt lat="43.79611" lon="7.24899">
        <ele>642</ele>
        <time>2015-03-01T10:35:24Z</time>
      </trkpt>
      <trkpt lat="43.79617" lon="7.24899">
        <ele>643</ele>
        <time>2015-03-01T10:35:27Z</time>
      </trkpt>
      <trkpt lat="43.79623" lon="7.24899">
        <ele>643</ele>
        <time>2015-03-01T10:35:30Z</time>
      </trkpt>
      <trkpt lat="43.79629" lon="7.24897">
        <ele>644</ele>
        <time>2015-03-01T10:35:33Z</time>
      </trkpt>
      <trkpt lat="43.79634" lon="7.24896">
        <ele>644</ele>
        <time>2015-03-01T10:35:36Z</time>
      </trkpt>
      <trkpt lat="43.7964" lon="7.24895">
        <ele>645</ele>
        <time>2015-03-01T10:35:39Z</time>
      </trkpt>
      <trkpt lat="43.79645" lon="7.24892">
        <ele>646</ele>
        <time>2015-03-01T10:35:42Z</time>
      </trkpt>
      <trkpt lat="43.7965" lon="7.24887">
        <ele>646</ele>
        <time>2015-03-01T10:35:45Z</time>
      </trkpt>
      <trkpt lat="43.79654" lon="7.24883">
        <ele>647</ele>
        <time>2015-03-01T10:35:48Z</time>
      </trkpt>
      <trkpt lat="43.79658" lon="7.24879">
        <ele>647</ele>
        <time>2015-03-01T10:35:51Z</time>
      </trkpt>
      <trkpt lat="43.79662" lon="7.24875">
        <ele>649</ele>
        <time>2015-03-01T10:35:54Z</time>
      </trkpt>
      <trkpt lat="43.79666" lon="7.2487">
        <ele>649</ele>
        <time>2015-03-01T10:35:57Z</time>
      </trkpt>
      <trkpt lat="43.79671" lon="7.24866">
        <ele>650</ele>
        <time>2015-03-01T10:36:00Z</time>
      </trkpt>
      <trkpt lat="43.79675" lon="7.24862">
        <ele>651</ele>
        <time>2015-03-01T10:36:03Z</time>
      </trkpt>
      <trkpt lat="43.79679" lon="7.24856">
        <ele>651</ele>
        <time>2015-03-01T10:36:06Z</time>
      </trkpt>
      <trkpt lat="43.79683" lon="7.24852">
        <ele>652</ele>
        <time>2015-03-01T10:36:09Z</time>
      </trkpt>
      <trkpt lat="43.79688" lon="7.24846">
        <ele>653</ele>
        <time>2015-03-01T10:36:12Z</time>
      </trkpt>
      <trkpt lat="43.79692" lon="7.24841">
        <ele>653</ele>
        <time>2015-03-01T10:36:15Z</time>
      </trkpt>
      <trkpt lat="43.79696" lon="7.24836">
        <ele>654</ele>
        <time>2015-03-01T10:36:18Z</time>
      </trkpt>
      <trkpt lat="43.79701" lon="7.24832">
        <ele>654</ele>
        <time>2015-03-01T10:36:21Z</time>
      </trkpt>
      <trkpt lat="43.79706" lon="7.24827">
        <ele>655</ele>
        <time>2015-03-01T10:36:24Z</time>
      </trkpt>
      <trkpt lat="43.7971" lon="7.24822">
        <ele>656</ele>
        <time>2015-03-01T10:36:27Z</time>
      </trkpt>
      <trkpt lat="43.79715" lon="7.24817">
        <ele>656</ele>
        <time>2015-03-01T10:36:30Z</time>
      </trkpt>
      <trkpt lat="43.7972" lon="7.24812">
        <ele>657</ele>
        <time>2015-03-01T10:36:33Z</time>
      </trkpt>
      <trkpt lat="43.79725" lon="7.24807">
        <ele>657</ele>
        <time>2015-03-01T10:36:36Z</time>
      </trkpt>
      <trkpt lat="43.7973" lon="7.24803">
        <ele>657</ele>
        <time>2015-03-01T10:36:39Z</time>
      </trkpt>
      <trkpt lat="43.79735" lon="7.24801">
        <ele>658</ele>
        <time>2015-03-01T10:36:42Z</time>
      </trkpt>
      <trkpt lat="43.79739" lon="7.24798">
        <ele>659</ele>
        <time>2015-03-01T10:36:45Z</time>
      </trkpt>
      <trkpt lat="43.79743" lon="7.24796">
        <ele>659</ele>
        <time>2015-03-01T10:36:48Z</time>
      </trkpt>
      <trkpt lat="43.79747" lon="7.24793">
        <ele>660</ele>
        <time>2015-03-01T10:36:51Z</time>
      </trkpt>
      <trkpt lat="43.79752" lon="7.24791">
        <ele>660</ele>
        <time>2015-03-01T10:36:54Z</time>
      </trkpt>
      <trkpt lat="43.79758" lon="7.24788">
        <ele>661</ele>
        <time>2015-03-01T10:36:57Z</time>
      </trkpt>
      <trkpt lat="43.79763" lon="7.24786">
        <ele>661</ele>
        <time>2015-03-01T10:37:00Z</time>
      </trkpt>
      <trkpt lat="43.7977" lon="7.24783">
        <ele>662</ele>
        <time>2015-03-01T10:37:03Z</time>
      </trkpt>
      <trkpt lat="43.79775" lon="7.24781">
        <ele>663</ele>
        <time>2015-03-01T10:37:06Z</time>
      </trkpt>
      <trkpt lat="43.79781" lon="7.24777">
        <ele>663</ele>
        <time>2015-03-01T10:37:09Z</time>
      </trkpt>
      <trkpt lat="43.79788" lon="7.24773">
        <ele>663</ele>
        <time>2015-03-01T10:37:12Z</time>
      </trkpt>
      <trkpt lat="43.79794" lon="7.24768">
        <ele>663</ele>
        <time>2015-03-01T10:37:15Z</time>
      </trkpt>
      <trkpt lat="43.79799" lon="7.24765">
        <ele>663</ele>
        <time>2015-03-01T10:37:18Z</time>
      </trkpt>
      <trkpt lat="43.79804" lon="7.24759">
        <ele>663</ele>
        <time>2015-03-01T10:37:21Z</time>
      </trkpt>
      <trkpt lat="43.7981" lon="7.24756">
        <ele>663</ele>
        <time>2015-03-01T10:37:24Z</time>
      </trkpt>
      <trkpt lat="43.79815" lon="7.2475">
        <ele>663</ele>
        <time>2015-03-01T10:37:27Z</time>
      </trkpt>
      <trkpt lat="43.7982" lon="7.24743">
        <ele>663</ele>
        <time>2015-03-01T10:37:30Z</time>
      </trkpt>
      <trkpt lat="43.79825" lon="7.24737">
        <ele>664</ele>
        <time>2015-03-01T10:37:33Z</time>
      </trkpt>
      <trkpt lat="43.7983" lon="7.2473">
        <ele>664</ele>
        <time>2015-03-01T10:37:36Z</time>
      </trkpt>
      <trkpt lat="43.79834" lon="7.24723">
        <ele>665</ele>
        <time>2015-03-01T10:37:39Z</time>
      </trkpt>
      <trkpt lat="43.79839" lon="7.24716">
        <ele>665</ele>
        <time>2015-03-01T10:37:42Z</time>
      </trkpt>
      <trkpt lat="43.79843" lon="7.24709">
        <ele>665</ele>
        <time>2015-03-01T10:37:45Z</time>
      </trkpt>
      <trkpt lat="43.79848" lon="7.24703">
        <ele>666</ele>
        <time>2015-03-01T10:37:48Z</time>
      </trkpt>
      <trkpt lat="43.79853" lon="7.24698">
        <ele>667</ele>
        <time>2015-03-01T10:37:51Z</time>
      </trkpt>
      <trkpt lat="43.79859" lon="7.24694">
        <ele>668</ele>
        <time>2015-03-01T10:37:54Z</time>
      </trkpt>
      <trkpt lat="43.79864" lon="7.24689">
        <ele>668</ele>
        <time>2015-03-01T10:37:57Z</time>
      </trkpt>
      <trkpt lat="43.7987" lon="7.24684">
        <ele>669</ele>
        <time>2015-03-01T10:38:00Z</time>
      </trkpt>
      <trkpt lat="43.79876" lon="7.24681">
        <ele>669</ele>
        <time>2015-03-01T10:38:03Z</time>
      </trkpt>
      <trkpt lat="43.79881" lon="7.24677">
        <ele>670</ele>
        <time>2015-03-01T10:38:06Z</time>
      </trkpt>
      <trkpt lat="43.79888" lon="7.24674">
        <ele>671</ele>
        <time>2015-03-01T10:38:09Z</time>
      </trkpt>
      <trkpt lat="43.79893" lon="7.24668">
        <ele>671</ele>
        <time>2015-03-01T10:38:12Z</time>
      </trkpt>
      <trkpt lat="43.79899" lon="7.24663">
        <ele>671</ele>
        <time>2015-03-01T10:38:15Z</time>
      </trkpt>
      <trkpt lat="43.79904" lon="7.24657">
        <ele>672</ele>
        <time>2015-03-01T10:38:18Z</time>
      </trkpt>
      <trkpt lat="43.79909" lon="7.2465">
        <ele>673</ele>
        <time>2015-03-01T10:38:21Z</time>
      </trkpt>
      <trkpt lat="43.79913" lon="7.24643">
        <ele>673</ele>
        <time>2015-03-01T10:38:24Z</time>
      </trkpt>
      <trkpt lat="43.79919" lon="7.24635">
        <ele>673</ele>
        <time>2015-03-01T10:38:27Z</time>
      </trkpt>
      <trkpt lat="43.79924" lon="7.24628">
        <ele>674</ele>
        <time>2015-03-01T10:38:30Z</time>
      </trkpt>
      <trkpt lat="43.79928" lon="7.24621">
        <ele>675</ele>
        <time>2015-03-01T10:38:33Z</time>
      </trkpt>
      <trkpt lat="43.79932" lon="7.24614">
        <ele>675</ele>
        <time>2015-03-01T10:38:36Z</time>
      </trkpt>
      <trkpt lat="43.79936" lon="7.24606">
        <ele>676</ele>
        <time>2015-03-01T10:38:39Z</time>
      </trkpt>
      <trkpt lat="43.79938" lon="7.24598">
        <ele>676</ele>
        <time>2015-03-01T10:38:42Z</time>
      </trkpt>
      <trkpt lat="43.7994" lon="7.24591">
        <ele>677</ele>
        <time>2015-03-01T10:38:45Z</time>
      </trkpt>
      <trkpt lat="43.79941" lon="7.24583">
        <ele>677</ele>
        <time>2015-03-01T10:38:48Z</time>
      </trkpt>
      <trkpt lat="43.79944" lon="7.24574">
        <ele>677</ele>
        <time>2015-03-01T10:38:51Z</time>
      </trkpt>
      <trkpt lat="43.79946" lon="7.24564">
        <ele>677</ele>
        <time>2015-03-01T10:38:54Z</time>
      </trkpt>
      <trkpt lat="43.79949" lon="7.24556">
        <ele>678</ele>
        <time>2015-03-01T10:38:57Z</time>
      </trkpt>
      <trkpt lat="43.79953" lon="7.24547">
        <ele>678</ele>
        <time>2015-03-01T10:39:00Z</time>
      </trkpt>
      <trkpt lat="43.79956" lon="7.2454">
        <ele>678</ele>
        <time>2015-03-01T10:39:03Z</time>
      </trkpt>
      <trkpt lat="43.79961" lon="7.24536">
        <ele>679</ele>
        <time>2015-03-01T10:39:06Z</time>
      </trkpt>
      <trkpt lat="43.79968" lon="7.24533">
        <ele>679</ele>
        <time>2015-03-01T10:39:09Z</time>
      </trkpt>
      <trkpt lat="43.79974" lon="7.24532">
        <ele>680</ele>
        <time>2015-03-01T10:39:12Z</time>
      </trkpt>
      <trkpt lat="43.7998" lon="7.24533">
        <ele>680</ele>
        <time>2015-03-01T10:39:15Z</time>
      </trkpt>
      <trkpt lat="43.79986" lon="7.24533">
        <ele>680</ele>
        <time>2015-03-01T10:39:18Z</time>
      </trkpt>
      <trkpt lat="43.79993" lon="7.24535">
        <ele>681</ele>
        <time>2015-03-01T10:39:21Z</time>
      </trkpt>
      <trkpt lat="43.79999" lon="7.24536">
        <ele>682</ele>
        <time>2015-03-01T10:39:24Z</time>
      </trkpt>
      <trkpt lat="43.80003" lon="7.24537">
        <ele>682</ele>
        <time>2015-03-01T10:39:27Z</time>
      </trkpt>
      <trkpt lat="43.80009" lon="7.2454">
        <ele>683</ele>
        <time>2015-03-01T10:39:30Z</time>
      </trkpt>
      <trkpt lat="43.80014" lon="7.24542">
        <ele>684</ele>
        <time>2015-03-01T10:39:33Z</time>
      </trkpt>
      <trkpt lat="43.80019" lon="7.24544">
        <ele>684</ele>
        <time>2015-03-01T10:39:36Z</time>
      </trkpt>
      <trkpt lat="43.80025" lon="7.24546">
        <ele>685</ele>
        <time>2015-03-01T10:39:39Z</time>
      </trkpt>
      <trkpt lat="43.8003" lon="7.24549">
        <ele>685</ele>
        <time>2015-03-01T10:39:42Z</time>
      </trkpt>
      <trkpt lat="43.80036" lon="7.24549">
        <ele>685</ele>
        <time>2015-03-01T10:39:45Z</time>
      </trkpt>
      <trkpt lat="43.80039" lon="7.24546">
        <ele>686</ele>
        <time>2015-03-01T10:39:48Z</time>
      </trkpt>
      <trkpt lat="43.8004" lon="7.2454">
        <ele>687</ele>
        <time>2015-03-01T10:39:51Z</time>
      </trkpt>
      <trkpt lat="43.80039" lon="7.24532">
        <ele>687</ele>
        <time>2015-03-01T10:39:54Z</time>
      </trkpt>
      <trkpt lat="43.8004" lon="7.24525">
        <ele>688</ele>
        <time>2015-03-01T10:39:57Z</time>
      </trkpt>
      <trkpt lat="43.80041" lon="7.2452">
        <ele>689</ele>
        <time>2015-03-01T10:40:00Z</time>
      </trkpt>
      <trkpt lat="43.80043" lon="7.24513">
        <ele>689</ele>
        <time>2015-03-01T10:40:03Z</time>
      </trkpt>
      <trkpt lat="43.80044" lon="7.24504">
        <ele>690</ele>
        <time>2015-03-01T10:40:06Z</time>
      </trkpt>
      <trkpt lat="43.80047" lon="7.24498">
        <ele>690</ele>
        <time>2015-03-01T10:40:09Z</time>
      </trkpt>
      <trkpt lat="43.80052" lon="7.24493">
        <ele>690</ele>
        <time>2015-03-01T10:40:12Z</time>
      </trkpt>
      <trkpt lat="43.80055" lon="7.24489">
        <ele>691</ele>
        <time>2015-03-01T10:40:15Z</time>
      </trkpt>
      <trkpt lat="43.80059" lon="7.24485">
        <ele>691</ele>
        <time>2015-03-01T10:40:18Z</time>
      </trkpt>
      <trkpt lat="43.80065" lon="7.24484">
        <ele>692</ele>
        <time>2015-03-01T10:40:21Z</time>
      </trkpt>
      <trkpt lat="43.80071" lon="7.24482">
        <ele>692</ele>
        <time>2015-03-01T10:40:24Z</time>
      </trkpt>
      <trkpt lat="43.80074" lon="7.2448">
        <ele>693</ele>
        <time>2015-03-01T10:40:27Z</time>
      </trkpt>
      <trkpt lat="43.8008" lon="7.24479">
        <ele>693</ele>
        <time>2015-03-01T10:40:30Z</time>
      </trkpt>
      <trkpt lat="43.80087" lon="7.2448">
        <ele>692</ele>
        <time>2015-03-01T10:40:33Z</time>
      </trkpt>
      <trkpt lat="43.80093" lon="7.2448">
        <ele>692</ele>
        <time>2015-03-01T10:40:36Z</time>
      </trkpt>
      <trkpt lat="43.80096" lon="7.24485">
        <ele>693</ele>
        <time>2015-03-01T10:40:39Z</time>
      </trkpt>
      <trkpt lat="43.80099" lon="7.24489">
        <ele>694</ele>
        <time>2015-03-01T10:40:42Z</time>
      </trkpt>
      <trkpt lat="43.80103" lon="7.24494">
        <ele>694</ele>
        <time>2015-03-01T10:40:45Z</time>
      </trkpt>
      <trkpt lat="43.80106" lon="7.24499">
        <ele>694</ele>
        <time>2015-03-01T10:40:48Z</time>
      </trkpt>
      <trkpt lat="43.8011" lon="7.24505">
        <ele>695</ele>
        <time>2015-03-01T10:40:51Z</time>
      </trkpt>
      <trkpt lat="43.80113" lon="7.24511">
        <ele>695</ele>
        <time>2015-03-01T10:40:54Z</time>
      </trkpt>
      <trkpt lat="43.80116" lon="7.24516">
        <ele>695</ele>
        <time>2015-03-01T10:40:57Z</time>
      </trkpt>
      <trkpt lat="43.80119" lon="7.24522">
        <ele>696</ele>
        <time>2015-03-01T10:41:00Z</time>
      </trkpt>
      <trkpt lat="43.80122" lon="7.24528">
        <ele>696</ele>
        <time>2015-03-01T10:41:03Z</time>
      </trkpt>
      <trkpt lat="43.80126" lon="7.24533">
        <ele>697</ele>
        <time>2015-03-01T10:41:06Z</time>
      </trkpt>
      <trkpt lat="43.8013" lon="7.24537">
        <ele>697</ele>
        <time>2015-03-01T10:41:09Z</time>
      </trkpt>
      <trkpt lat="43.80133" lon="7.24543">
        <ele>697</ele>
        <time>2015-03-01T10:41:12Z</time>
      </trkpt>
      <trkpt lat="43.80135" lon="7.24546">
        <ele>698</ele>
        <time>2015-03-01T10:41:15Z</time>
      </trkpt>
      <trkpt lat="43.80138" lon="7.24548">
        <ele>698</ele>
        <time>2015-03-01T10:41:18Z</time>
      </trkpt>
      <trkpt lat="43.8014" lon="7.24551">
        <ele>698</ele>
        <time>2015-03-01T10:41:21Z</time>
      </trkpt>
      <trkpt lat="43.80143" lon="7.24555">
        <ele>699</ele>
        <time>2015-03-01T10:41:24Z</time>
      </trkpt>
      <trkpt lat="43.80145" lon="7.24559">
        <ele>699</ele>
        <time>2015-03-01T10:41:27Z</time>
      </trkpt>
      <trkpt lat="43.80147" lon="7.24562">
        <ele>699</ele>
        <time>2015-03-01T10:41:30Z</time>
      </trkpt>
      <trkpt lat="43.80149" lon="7.24566">
        <ele>700</ele>
        <time>2015-03-01T10:41:33Z</time>
      </trkpt>
      <trkpt lat="43.80151" lon="7.24569">
        <ele>700</ele>
        <time>2015-03-01T10:41:36Z</time>
      </trkpt>
      <trkpt lat="43.80154" lon="7.24571">
        <ele>701</ele>
        <time>2015-03-01T10:41:39Z</time>
      </trkpt>
      <trkpt lat="43.80156" lon="7.24574">
        <ele>701</ele>
        <time>2015-03-01T10:41:42Z</time>
      </trkpt>
      <trkpt lat="43.80158" lon="7.24579">
        <ele>701</ele>
        <time>2015-03-01T10:41:45Z</time>
      </trkpt>
      <trkpt lat="43.8016" lon="7.24582">
        <ele>702</ele>
        <time>2015-03-01T10:41:48Z</time>
      </trkpt>
      <trkpt lat="43.80163" lon="7.24583">
        <ele>702</ele>
        <time>2015-03-01T10:41:51Z</time>
      </trkpt>
      <trkpt lat="43.80167" lon="7.24584">
        <ele>703</ele>
        <time>2015-03-01T10:41:54Z</time>
      </trkpt>
      <trkpt lat="43.8017" lon="7.24584">
        <ele>703</ele>
        <time>2015-03-01T10:41:57Z</time>
      </trkpt>
      <trkpt lat="43.80174" lon="7.24584">
        <ele>704</ele>
        <time>2015-03-01T10:42:00Z</time>
      </trkpt>
      <trkpt lat="43.80176" lon="7.24584">
        <ele>704</ele>
        <time>2015-03-01T10:42:03Z</time>
      </trkpt>
      <trkpt lat="43.80178" lon="7.24584">
        <ele>705</ele>
        <time>2015-03-01T10:42:06Z</time>
      </trkpt>
      <trkpt lat="43.80182" lon="7.24584">
        <ele>705</ele>
        <time>2015-03-01T10:42:09Z</time>
      </trkpt>
      <trkpt lat="43.80184" lon="7.24583">
        <ele>706</ele>
        <time>2015-03-01T10:42:12Z</time>
      </trkpt>
      <trkpt lat="43.80188" lon="7.24583">
        <ele>707</ele>
        <time>2015-03-01T10:42:15Z</time>
      </trkpt>
      <trkpt lat="43.8019" lon="7.24583">
        <ele>707</ele>
        <time>2015-03-01T10:42:18Z</time>
      </trkpt>
      <trkpt lat="43.80193" lon="7.24582">
        <ele>708</ele>
        <time>2015-03-01T10:42:21Z</time>
      </trkpt>
      <trkpt lat="43.80196" lon="7.2458">
        <ele>708</ele>
        <time>2015-03-01T10:42:24Z</time>
      </trkpt>
      <trkpt lat="43.80198" lon="7.2458">
        <ele>709</ele>
        <time>2015-03-01T10:42:27Z</time>
      </trkpt>
      <trkpt lat="43.80202" lon="7.24578">
        <ele>709</ele>
        <time>2015-03-01T10:42:30Z</time>
      </trkpt>
      <trkpt lat="43.80204" lon="7.24576">
        <ele>709</ele>
        <time>2015-03-01T10:42:33Z</time>
      </trkpt>
      <trkpt lat="43.80207" lon="7.24575">
        <ele>710</ele>
        <time>2015-03-01T10:42:36Z</time>
      </trkpt>
      <trkpt lat="43.80209" lon="7.24574">
        <ele>710</ele>
        <time>2015-03-01T10:42:39Z</time>
      </trkpt>
      <trkpt lat="43.80211" lon="7.24572">
        <ele>711</ele>
        <time>2015-03-01T10:42:42Z</time>
      </trkpt>
      <trkpt lat="43.80213" lon="7.24571">
        <ele>711</ele>
        <time>2015-03-01T10:42:45Z</time>
      </trkpt>
      <trkpt lat="43.80216" lon="7.24569">
        <ele>712</ele>
        <time>2015-03-01T10:42:48Z</time>
      </trkpt>
      <trkpt lat="43.80218" lon="7.24568">
        <ele>712</ele>
        <time>2015-03-01T10:42:51Z</time>
      </trkpt>
      <trkpt lat="43.8022" lon="7.24567">
        <ele>713</ele>
        <time>2015-03-01T10:42:54Z</time>
      </trkpt>
      <trkpt lat="43.80223" lon="7.24565">
        <ele>713</ele>
        <time>2015-03-01T10:42:57Z</time>
      </trkpt>
      <trkpt lat="43.80226" lon="7.24564">
        <ele>714</ele>
        <time>2015-03-01T10:43:00Z</time>
      </trkpt>
      <trkpt lat="43.80229" lon="7.24562">
        <ele>714</ele>
        <time>2015-03-01T10:43:03Z</time>
      </trkpt>
      <trkpt lat="43.80231" lon="7.2456">
        <ele>715</ele>
        <time>2015-03-01T10:43:06Z</time>
      </trkpt>
      <trkpt lat="43.80233" lon="7.24558">
        <ele>715</ele>
        <time>2015-03-01T10:43:09Z</time>
      </trkpt>
      <trkpt lat="43.80236" lon="7.24556">
        <ele>716</ele>
        <time>2015-03-01T10:43:12Z</time>
      </trkpt>
      <trkpt lat="43.80238" lon="7.24555">
        <ele>716</ele>
        <time>2015-03-01T10:43:15Z</time>
      </trkpt>
      <trkpt lat="43.8024" lon="7.24552">
        <ele>717</ele>
        <time>2015-03-01T10:43:18Z</time>
      </trkpt>
      <trkpt lat="43.80242" lon="7.24549">
        <ele>717</ele>
        <time>2015-03-01T10:43:21Z</time>
      </trkpt>
      <trkpt lat="43.80244" lon="7.24547">
        <ele>718</ele>
        <time>2015-03-01T10:43:24Z</time>
      </trkpt>
      <trkpt lat="43.80245" lon="7.24545">
        <ele>718</ele>
        <time>2015-03-01T10:43:27Z</time>
      </trkpt>
      <trkpt lat="43.80248" lon="7.24544">
        <ele>719</ele>
        <time>2015-03-01T10:43:30Z</time>
      </trkpt>
      <trkpt lat="43.80249" lon="7.24542">
        <ele>720</ele>
        <time>2015-03-01T10:43:33Z</time>
      </trkpt>
      <trkpt lat="43.80252" lon="7.2454">
        <ele>720</ele>
        <time>2015-03-01T10:43:36Z</time>
      </trkpt>
      <trkpt lat="43.80254" lon="7.24539">
        <ele>720</ele>
        <time>2015-03-01T10:43:39Z</time>
      </trkpt>
      <trkpt lat="43.80257" lon="7.24537">
        <ele>720</ele>
        <time>2015-03-01T10:43:42Z</time>
      </trkpt>
      <trkpt lat="43.8026" lon="7.24536">
        <ele>721</ele>
        <time>2015-03-01T10:43:45Z</time>
      </trkpt>
      <trkpt lat="43.80263" lon="7.24536">
        <ele>721</ele>
        <time>2015-03-01T10:43:48Z</time>
      </trkpt>
      <trkpt lat="43.80265" lon="7.24536">
        <ele>722</ele>
        <time>2015-03-01T10:43:51Z</time>
      </trkpt>
      <trkpt lat="43.80268" lon="7.24536">
        <ele>722</ele>
        <time>2015-03-01T10:43:54Z</time>
      </trkpt>
      <trkpt lat="43.80271" lon="7.24536">
        <ele>723</ele>
        <time>2015-03-01T10:43:57Z</time>
      </trkpt>
      <trkpt lat="43.80273" lon="7.24535">
        <ele>723</ele>
        <time>2015-03-01T10:44:00Z</time>
      </trkpt>
      <trkpt lat="43.80275" lon="7.24535">
        <ele>724</ele>
        <time>2015-03-01T10:44:03Z</time>
      </trkpt>
      <trkpt lat="43.80277" lon="7.24535">
        <ele>724</ele>
        <time>2015-03-01T10:44:06Z</time>
      </trkpt>
      <trkpt lat="43.8028" lon="7.24535">
        <ele>725</ele>
        <time>2015-03-01T10:44:09Z</time>
      </trkpt>
      <trkpt lat="43.80282" lon="7.24535">
        <ele>725</ele>
        <time>2015-03-01T10:44:12Z</time>
      </trkpt>
      <trkpt lat="43.80284" lon="7.24534">
        <ele>726</ele>
        <time>2015-03-01T10:44:15Z</time>
      </trkpt>
      <trkpt lat="43.80287" lon="7.24532">
        <ele>726</ele>
        <time>2015-03-01T10:44:18Z</time>
      </trkpt>
      <trkpt lat="43.80289" lon="7.24532">
        <ele>727</ele>
        <time>2015-03-01T10:44:21Z</time>
      </trkpt>
      <trkpt lat="43.80292" lon="7.24531">
        <ele>727</ele>
        <time>2015-03-01T10:44:24Z</time>
      </trkpt>
      <trkpt lat="43.80295" lon="7.24529">
        <ele>728</ele>
        <time>2015-03-01T10:44:27Z</time>
      </trkpt>
      <trkpt lat="43.80298" lon="7.24529">
        <ele>728</ele>
        <time>2015-03-01T10:44:30Z</time>
      </trkpt>
      <trkpt lat="43.80301" lon="7.24527">
        <ele>728</ele>
        <time>2015-03-01T10:44:33Z</time>
      </trkpt>
      <trkpt lat="43.80305" lon="7.24526">
        <ele>729</ele>
        <time>2015-03-01T10:44:36Z</time>
      </trkpt>
      <trkpt lat="43.80307" lon="7.24525">
        <ele>729</ele>
        <time>2015-03-01T10:44:39Z</time>
      </trkpt>
      <trkpt lat="43.8031" lon="7.24523">
        <ele>729</ele>
        <time>2015-03-01T10:44:42Z</time>
      </trkpt>
      <trkpt lat="43.80314" lon="7.24522">
        <ele>729</ele>
        <time>2015-03-01T10:44:45Z</time>
      </trkpt>
      <trkpt lat="43.80316" lon="7.2452">
        <ele>730</ele>
        <time>2015-03-01T10:44:48Z</time>
      </trkpt>
      <trkpt lat="43.80318" lon="7.2452">
        <ele>730</ele>
        <time>2015-03-01T10:44:51Z</time>
      </trkpt>
      <trkpt lat="43.80319" lon="7.2452">
        <ele>730</ele>
        <time>2015-03-01T10:44:54Z</time>
      </trkpt>
      <trkpt lat="43.8032" lon="7.2452">
        <ele>730</ele>
        <time>2015-03-01T10:44:57Z</time>
      </trkpt>
      <trkpt lat="43.80321" lon="7.2452">
        <ele>730</ele>
        <time>2015-03-01T10:45:06Z</time>
      </trkpt>
      <trkpt lat="43.80325" lon="7.24519">
        <ele>730</ele>
        <time>2015-03-01T10:45:09Z</time>
      </trkpt>
      <trkpt lat="43.80329" lon="7.24519">
        <ele>730</ele>
        <time>2015-03-01T10:45:12Z</time>
      </trkpt>
      <trkpt lat="43.80335" lon="7.24519">
        <ele>731</ele>
        <time>2015-03-01T10:45:15Z</time>
      </trkpt>
      <trkpt lat="43.8034" lon="7.24518">
        <ele>731</ele>
        <time>2015-03-01T10:45:18Z</time>
      </trkpt>
      <trkpt lat="43.80346" lon="7.24517">
        <ele>731</ele>
        <time>2015-03-01T10:45:21Z</time>
      </trkpt>
      <trkpt lat="43.80352" lon="7.24517">
        <ele>731</ele>
        <time>2015-03-01T10:45:24Z</time>
      </trkpt>
      <trkpt lat="43.80357" lon="7.24517">
        <ele>731</ele>
        <time>2015-03-01T10:45:27Z</time>
      </trkpt>
      <trkpt lat="43.80363" lon="7.24516">
        <ele>731</ele>
        <time>2015-03-01T10:45:30Z</time>
      </trkpt>
      <trkpt lat="43.80368" lon="7.24515">
        <ele>731</ele>
        <time>2015-03-01T10:45:33Z</time>
      </trkpt>
      <trkpt lat="43.80375" lon="7.24515">
        <ele>732</ele>
        <time>2015-03-01T10:45:36Z</time>
      </trkpt>
      <trkpt lat="43.80381" lon="7.24515">
        <ele>732</ele>
        <time>2015-03-01T10:45:39Z</time>
      </trkpt>
      <trkpt lat="43.80386" lon="7.24514">
        <ele>732</ele>
        <time>2015-03-01T10:45:42Z</time>
      </trkpt>
      <trkpt lat="43.80393" lon="7.24513">
        <ele>732</ele>
        <time>2015-03-01T10:45:45Z</time>
      </trkpt>
      <trkpt lat="43.80399" lon="7.24513">
        <ele>732</ele>
        <time>2015-03-01T10:45:48Z</time>
      </trkpt>
      <trkpt lat="43.80406" lon="7.24512">
        <ele>733</ele>
        <time>2015-03-01T10:45:51Z</time>
      </trkpt>
      <trkpt lat="43.80412" lon="7.24511">
        <ele>733</ele>
        <time>2015-03-01T10:45:54Z</time>
      </trkpt>
      <trkpt lat="43.80418" lon="7.2451">
        <ele>733</ele>
        <time>2015-03-01T10:45:57Z</time>
      </trkpt>
      <trkpt lat="43.80424" lon="7.2451">
        <ele>733</ele>
        <time>2015-03-01T10:46:00Z</time>
      </trkpt>
      <trkpt lat="43.80429" lon="7.24508">
        <ele>734</ele>
        <time>2015-03-01T10:46:03Z</time>
      </trkpt>
      <trkpt lat="43.80434" lon="7.24507">
        <ele>734</ele>
        <time>2015-03-01T10:46:06Z</time>
      </trkpt>
      <trkpt lat="43.8044" lon="7.24506">
        <ele>734</ele>
        <time>2015-03-01T10:46:09Z</time>
      </trkpt>
      <trkpt lat="43.80444" lon="7.24505">
        <ele>735</ele>
        <time>2015-03-01T10:46:12Z</time>
      </trkpt>
      <trkpt lat="43.80448" lon="7.24504">
        <ele>735</ele>
        <time>2015-03-01T10:46:15Z</time>
      </trkpt>
      <trkpt lat="43.80452" lon="7.24504">
        <ele>736</ele>
        <time>2015-03-01T10:46:18Z</time>
      </trkpt>
      <trkpt lat="43.80455" lon="7.24504">
        <ele>736</ele>
        <time>2015-03-01T10:46:21Z</time>
      </trkpt>
      <trkpt lat="43.80458" lon="7.24504">
        <ele>736</ele>
        <time>2015-03-01T10:46:24Z</time>
      </trkpt>
      <trkpt lat="43.80458" lon="7.24505">
        <ele>737</ele>
        <time>2015-03-01T10:46:27Z</time>
      </trkpt>
      <trkpt lat="43.80457" lon="7.24504">
        <ele>736</ele>
        <time>2015-03-01T10:46:36Z</time>
      </trkpt>
      <trkpt lat="43.80458" lon="7.24504">
        <ele>736</ele>
        <time>2015-03-01T10:46:39Z</time>
      </trkpt>
      <trkpt lat="43.80457" lon="7.24504">
        <ele>736</ele>
        <time>2015-03-01T10:46:51Z</time>
      </trkpt>
      <trkpt lat="43.80456" lon="7.24504">
        <ele>736</ele>
        <time>2015-03-01T10:46:54Z</time>
      </trkpt>
      <trkpt lat="43.80454" lon="7.24505">
        <ele>736</ele>
        <time>2015-03-01T10:47:00Z</time>
      </trkpt>
      <trkpt lat="43.80453" lon="7.24507">
        <ele>736</ele>
        <time>2015-03-01T10:47:03Z</time>
      </trkpt>
      <trkpt lat="43.8045" lon="7.24508">
        <ele>736</ele>
        <time>2015-03-01T10:47:06Z</time>
      </trkpt>
      <trkpt lat="43.8045" lon="7.24507">
        <ele>736</ele>
        <time>2015-03-01T10:47:09Z</time>
      </trkpt>
      <trkpt lat="43.8045" lon="7.24508">
        <ele>736</ele>
        <time>2015-03-01T10:53:48Z</time>
      </trkpt>
      <trkpt lat="43.80449" lon="7.24508">
        <ele>737</ele>
        <time>2015-03-01T10:59:48Z</time>
      </trkpt>
      <trkpt lat="43.80449" lon="7.24509">
        <ele>737</ele>
        <time>2015-03-01T11:00:27Z</time>
      </trkpt>
      <trkpt lat="43.80449" lon="7.2451">
        <ele>738</ele>
        <time>2015-03-01T11:07:46Z</time>
      </trkpt>
      <trkpt lat="43.80449" lon="7.24509">
        <ele>738</ele>
        <time>2015-03-01T11:10:28Z</time>
      </trkpt>
      <trkpt lat="43.80449" lon="7.2451">
        <ele>738</ele>
        <time>2015-03-01T11:11:07Z</time>
      </trkpt>
      <trkpt lat="43.80448" lon="7.24509">
        <ele>738</ele>
        <time>2015-03-01T11:13:07Z</time>
      </trkpt>
      <trkpt lat="43.80448" lon="7.2451">
        <ele>739</ele>
        <time>2015-03-01T11:13:46Z</time>
      </trkpt>
      <trkpt lat="43.80448" lon="7.24509">
        <ele>739</ele>
        <time>2015-03-01T11:14:28Z</time>
      </trkpt>
      <trkpt lat="43.80449" lon="7.2451">
        <ele>739</ele>
        <time>2015-03-01T11:16:28Z</time>
      </trkpt>
      <trkpt lat="43.80448" lon="7.24509">
        <ele>740</ele>
        <time>2015-03-01T11:18:28Z</time>
      </trkpt>
      <trkpt lat="43.80449" lon="7.2451">
        <ele>740</ele>
        <time>2015-03-01T11:23:08Z</time>
      </trkpt>
      <trkpt lat="43.80449" lon="7.24509">
        <ele>740</ele>
        <time>2015-03-01T11:24:29Z</time>
      </trkpt>
      <trkpt lat="43.80449" lon="7.2451">
        <ele>740</ele>
        <time>2015-03-01T11:26:29Z</time>
      </trkpt>
      <trkpt lat="43.8045" lon="7.24509">
        <ele>741</ele>
        <time>2015-03-01T11:28:14Z</time>
      </trkpt>
      <trkpt lat="43.80451" lon="7.24509">
        <ele>741</ele>
        <time>2015-03-01T11:28:20Z</time>
      </trkpt>
      <trkpt lat="43.80454" lon="7.24509">
        <ele>741</ele>
        <time>2015-03-01T11:28:23Z</time>
      </trkpt>
      <trkpt lat="43.80454" lon="7.2451">
        <ele>742</ele>
        <time>2015-03-01T11:28:32Z</time>
      </trkpt>
      <trkpt lat="43.80455" lon="7.24509">
        <ele>741</ele>
        <time>2015-03-01T11:29:11Z</time>
      </trkpt>
      <trkpt lat="43.80456" lon="7.24509">
        <ele>741</ele>
        <time>2015-03-01T11:29:14Z</time>
      </trkpt>
      <trkpt lat="43.80457" lon="7.24509">
        <ele>742</ele>
        <time>2015-03-01T11:29:26Z</time>
      </trkpt>
      <trkpt lat="43.80458" lon="7.24509">
        <ele>742</ele>
        <time>2015-03-01T11:29:29Z</time>
      </trkpt>
      <trkpt lat="43.80461" lon="7.24508">
        <ele>742</ele>
        <time>2015-03-01T11:29:41Z</time>
      </trkpt>
      <trkpt lat="43.80477" lon="7.24505">
        <ele>742</ele>
        <time>2015-03-01T11:29:44Z</time>
      </trkpt>
      <trkpt lat="43.805" lon="7.24501">
        <ele>740</ele>
        <time>2015-03-01T11:29:47Z</time>
      </trkpt>
      <trkpt lat="43.80526" lon="7.24503">
        <ele>739</ele>
        <time>2015-03-01T11:29:50Z</time>
      </trkpt>
      <trkpt lat="43.80554" lon="7.24506">
        <ele>739</ele>
        <time>2015-03-01T11:29:53Z</time>
      </trkpt>
      <trkpt lat="43.80583" lon="7.24503">
        <ele>738</ele>
        <time>2015-03-01T11:29:56Z</time>
      </trkpt>
      <trkpt lat="43.80611" lon="7.24495">
        <ele>737</ele>
        <time>2015-03-01T11:29:59Z</time>
      </trkpt>
      <trkpt lat="43.80636" lon="7.24494">
        <ele>736</ele>
        <time>2015-03-01T11:30:02Z</time>
      </trkpt>
      <trkpt lat="43.80659" lon="7.24491">
        <ele>737</ele>
        <time>2015-03-01T11:30:05Z</time>
      </trkpt>
      <trkpt lat="43.80682" lon="7.24488">
        <ele>737</ele>
        <time>2015-03-01T11:30:08Z</time>
      </trkpt>
      <trkpt lat="43.80702" lon="7.24484">
        <ele>738</ele>
        <time>2015-03-01T11:30:11Z</time>
      </trkpt>
      <trkpt lat="43.80721" lon="7.24481">
        <ele>740</ele>
        <time>2015-03-01T11:30:14Z</time>
      </trkpt>
      <trkpt lat="43.8074" lon="7.2448">
        <ele>741</ele>
        <time>2015-03-01T11:30:17Z</time>
      </trkpt>
      <trkpt lat="43.80761" lon="7.2448">
        <ele>741</ele>
        <time>2015-03-01T11:30:20Z</time>
      </trkpt>
      <trkpt lat="43.80783" lon="7.24484">
        <ele>741</ele>
        <time>2015-03-01T11:30:23Z</time>
      </trkpt>
      <trkpt lat="43.80801" lon="7.245">
        <ele>740</ele>
        <time>2015-03-01T11:30:26Z</time>
      </trkpt>
      <trkpt lat="43.8081" lon="7.24526">
        <ele>740</ele>
        <time>2015-03-01T11:30:29Z</time>
      </trkpt>
      <trkpt lat="43.80815" lon="7.24552">
        <ele>741</ele>
        <time>2015-03-01T11:30:32Z</time>
      </trkpt>
      <trkpt lat="43.80825" lon="7.24558">
        <ele>743</ele>
        <time>2015-03-01T11:30:35Z</time>
      </trkpt>
      <trkpt lat="43.80836" lon="7.2455">
        <ele>744</ele>
        <time>2015-03-01T11:30:38Z</time>
      </trkpt>
      <trkpt lat="43.80852" lon="7.24542">
        <ele>743</ele>
        <time>2015-03-01T11:30:41Z</time>
      </trkpt>
      <trkpt lat="43.80866" lon="7.24535">
        <ele>744</ele>
        <time>2015-03-01T11:30:44Z</time>
      </trkpt>
      <trkpt lat="43.80882" lon="7.24524">
        <ele>743</ele>
        <time>2015-03-01T11:30:47Z</time>
      </trkpt>
      <trkpt lat="43.809" lon="7.2452">
        <ele>741</ele>
        <time>2015-03-01T11:30:50Z</time>
      </trkpt>
      <trkpt lat="43.80921" lon="7.24519">
        <ele>740</ele>
        <time>2015-03-01T11:30:53Z</time>
      </trkpt>
      <trkpt lat="43.80931" lon="7.24511">
        <ele>740</ele>
        <time>2015-03-01T11:30:56Z</time>
      </trkpt>
      <trkpt lat="43.80934" lon="7.24495">
        <ele>739</ele>
        <time>2015-03-01T11:30:59Z</time>
      </trkpt>
      <trkpt lat="43.80944" lon="7.24474">
        <ele>737</ele>
        <time>2015-03-01T11:31:02Z</time>
      </trkpt>
      <trkpt lat="43.80958" lon="7.2445">
        <ele>733</ele>
        <time>2015-03-01T11:31:05Z</time>
      </trkpt>
      <trkpt lat="43.80968" lon="7.24429">
        <ele>729</ele>
        <time>2015-03-01T11:31:08Z</time>
      </trkpt>
      <trkpt lat="43.80974" lon="7.244">
        <ele>722</ele>
        <time>2015-03-01T11:31:11Z</time>
      </trkpt>
      <trkpt lat="43.80981" lon="7.24376">
        <ele>718</ele>
        <time>2015-03-01T11:31:14Z</time>
      </trkpt>
      <trkpt lat="43.80988" lon="7.24354">
        <ele>715</ele>
        <time>2015-03-01T11:31:17Z</time>
      </trkpt>
      <trkpt lat="43.80999" lon="7.24331">
        <ele>712</ele>
        <time>2015-03-01T11:31:20Z</time>
      </trkpt>
      <trkpt lat="43.81011" lon="7.24308">
        <ele>707</ele>
        <time>2015-03-01T11:31:23Z</time>
      </trkpt>
      <trkpt lat="43.81028" lon="7.24283">
        <ele>704</ele>
        <time>2015-03-01T11:31:26Z</time>
      </trkpt>
      <trkpt lat="43.81044" lon="7.24254">
        <ele>699</ele>
        <time>2015-03-01T11:31:29Z</time>
      </trkpt>
      <trkpt lat="43.81061" lon="7.24228">
        <ele>695</ele>
        <time>2015-03-01T11:31:32Z</time>
      </trkpt>
      <trkpt lat="43.81077" lon="7.24205">
        <ele>691</ele>
        <time>2015-03-01T11:31:35Z</time>
      </trkpt>
      <trkpt lat="43.81092" lon="7.24185">
        <ele>687</ele>
        <time>2015-03-01T11:31:38Z</time>
      </trkpt>
      <trkpt lat="43.8111" lon="7.24161">
        <ele>682</ele>
        <time>2015-03-01T11:31:41Z</time>
      </trkpt>
      <trkpt lat="43.81129" lon="7.24139">
        <ele>679</ele>
        <time>2015-03-01T11:31:44Z</time>
      </trkpt>
      <trkpt lat="43.81142" lon="7.24119">
        <ele>676</ele>
        <time>2015-03-01T11:31:47Z</time>
      </trkpt>
      <trkpt lat="43.81145" lon="7.24092">
        <ele>672</ele>
        <time>2015-03-01T11:31:50Z</time>
      </trkpt>
      <trkpt lat="43.81159" lon="7.24096">
        <ele>669</ele>
        <time>2015-03-01T11:31:53Z</time>
      </trkpt>
      <trkpt lat="43.81171" lon="7.24112">
        <ele>663</ele>
        <time>2015-03-01T11:31:56Z</time>
      </trkpt>
      <trkpt lat="43.81181" lon="7.24113">
        <ele>657</ele>
        <time>2015-03-01T11:31:59Z</time>
      </trkpt>
      <trkpt lat="43.81193" lon="7.2413">
        <ele>651</ele>
        <time>2015-03-01T11:32:02Z</time>
      </trkpt>
      <trkpt lat="43.81202" lon="7.24127">
        <ele>645</ele>
        <time>2015-03-01T11:32:05Z</time>
      </trkpt>
      <trkpt lat="43.81215" lon="7.24132">
        <ele>641</ele>
        <time>2015-03-01T11:32:08Z</time>
      </trkpt>
      <trkpt lat="43.81233" lon="7.24132">
        <ele>635</ele>
        <time>2015-03-01T11:32:11Z</time>
      </trkpt>
      <trkpt lat="43.81254" lon="7.24132">
        <ele>629</ele>
        <time>2015-03-01T11:32:14Z</time>
      </trkpt>
      <trkpt lat="43.81272" lon="7.24137">
        <ele>624</ele>
        <time>2015-03-01T11:32:17Z</time>
      </trkpt>
      <trkpt lat="43.81288" lon="7.24147">
        <ele>620</ele>
        <time>2015-03-01T11:32:20Z</time>
      </trkpt>
      <trkpt lat="43.81305" lon="7.24157">
        <ele>612</ele>
        <time>2015-03-01T11:32:23Z</time>
      </trkpt>
      <trkpt lat="43.81327" lon="7.24166">
        <ele>606</ele>
        <time>2015-03-01T11:32:26Z</time>
      </trkpt>
      <trkpt lat="43.81339" lon="7.24162">
        <ele>601</ele>
        <time>2015-03-01T11:32:29Z</time>
      </trkpt>
      <trkpt lat="43.81349" lon="7.24173">
        <ele>597</ele>
        <time>2015-03-01T11:32:32Z</time>
      </trkpt>
      <trkpt lat="43.81363" lon="7.24176">
        <ele>591</ele>
        <time>2015-03-01T11:32:35Z</time>
      </trkpt>
      <trkpt lat="43.8137" lon="7.24193">
        <ele>585</ele>
        <time>2015-03-01T11:32:38Z</time>
      </trkpt>
      <trkpt lat="43.81376" lon="7.2421">
        <ele>580</ele>
        <time>2015-03-01T11:32:41Z</time>
      </trkpt>
      <trkpt lat="43.81384" lon="7.24229">
        <ele>575</ele>
        <time>2015-03-01T11:32:44Z</time>
      </trkpt>
      <trkpt lat="43.81395" lon="7.24246">
        <ele>568</ele>
        <time>2015-03-01T11:32:47Z</time>
      </trkpt>
      <trkpt lat="43.81401" lon="7.24246">
        <ele>563</ele>
        <time>2015-03-01T11:32:50Z</time>
      </trkpt>
      <trkpt lat="43.81404" lon="7.24253">
        <ele>560</ele>
        <time>2015-03-01T11:32:53Z</time>
      </trkpt>
      <trkpt lat="43.81406" lon="7.24242">
        <ele>558</ele>
        <time>2015-03-01T11:32:56Z</time>
      </trkpt>
      <trkpt lat="43.81411" lon="7.24235">
        <ele>556</ele>
        <time>2015-03-01T11:32:59Z</time>
      </trkpt>
      <trkpt lat="43.8141" lon="7.24249">
        <ele>553</ele>
        <time>2015-03-01T11:33:02Z</time>
      </trkpt>
      <trkpt lat="43.8141" lon="7.24268">
        <ele>549</ele>
        <time>2015-03-01T11:33:05Z</time>
      </trkpt>
      <trkpt lat="43.81403" lon="7.2428">
        <ele>545</ele>
        <time>2015-03-01T11:33:08Z</time>
      </trkpt>
      <trkpt lat="43.81401" lon="7.24302">
        <ele>537</ele>
        <time>2015-03-01T11:33:11Z</time>
      </trkpt>
      <trkpt lat="43.81419" lon="7.24307">
        <ele>529</ele>
        <time>2015-03-01T11:33:14Z</time>
      </trkpt>
      <trkpt lat="43.81441" lon="7.24301">
        <ele>524</ele>
        <time>2015-03-01T11:33:17Z</time>
      </trkpt>
      <trkpt lat="43.81452" lon="7.24311">
        <ele>522</ele>
        <time>2015-03-01T11:33:20Z</time>
      </trkpt>
      <trkpt lat="43.81462" lon="7.24307">
        <ele>520</ele>
        <time>2015-03-01T11:33:23Z</time>
      </trkpt>
      <trkpt lat="43.81466" lon="7.24284">
        <ele>517</ele>
        <time>2015-03-01T11:33:26Z</time>
      </trkpt>
      <trkpt lat="43.81463" lon="7.24252">
        <ele>514</ele>
        <time>2015-03-01T11:33:29Z</time>
      </trkpt>
      <trkpt lat="43.81468" lon="7.24214">
        <ele>511</ele>
        <time>2015-03-01T11:33:32Z</time>
      </trkpt>
      <trkpt lat="43.81467" lon="7.24171">
        <ele>509</ele>
        <time>2015-03-01T11:33:35Z</time>
      </trkpt>
      <trkpt lat="43.8147" lon="7.24124">
        <ele>503</ele>
        <time>2015-03-01T11:33:38Z</time>
      </trkpt>
      <trkpt lat="43.8148" lon="7.24077">
        <ele>500</ele>
        <time>2015-03-01T11:33:41Z</time>
      </trkpt>
      <trkpt lat="43.81482" lon="7.24033">
        <ele>497</ele>
        <time>2015-03-01T11:33:44Z</time>
      </trkpt>
      <trkpt lat="43.81463" lon="7.24">
        <ele>496</ele>
        <time>2015-03-01T11:33:47Z</time>
      </trkpt>
      <trkpt lat="43.81437" lon="7.23971">
        <ele>492</ele>
        <time>2015-03-01T11:33:50Z</time>
      </trkpt>
      <trkpt lat="43.81412" lon="7.23939">
        <ele>490</ele>
        <time>2015-03-01T11:33:53Z</time>
      </trkpt>
      <trkpt lat="43.81385" lon="7.23913">
        <ele>487</ele>
        <time>2015-03-01T11:33:56Z</time>
      </trkpt>
      <trkpt lat="43.81372" lon="7.23886">
        <ele>487</ele>
        <time>2015-03-01T11:33:59Z</time>
      </trkpt>
      <trkpt lat="43.81393" lon="7.2387">
        <ele>486</ele>
        <time>2015-03-01T11:34:02Z</time>
      </trkpt>
      <trkpt lat="43.81423" lon="7.23852">
        <ele>481</ele>
        <time>2015-03-01T11:34:05Z</time>
      </trkpt>
      <trkpt lat="43.81457" lon="7.23831">
        <ele>477</ele>
        <time>2015-03-01T11:34:08Z</time>
      </trkpt>
      <trkpt lat="43.81488" lon="7.23807">
        <ele>474</ele>
        <time>2015-03-01T11:34:11Z</time>
      </trkpt>
      <trkpt lat="43.81503" lon="7.23796">
        <ele>476</ele>
        <time>2015-03-01T11:34:14Z</time>
      </trkpt>
      <trkpt lat="43.81497" lon="7.23807">
        <ele>475</ele>
        <time>2015-03-01T11:34:17Z</time>
      </trkpt>
      <trkpt lat="43.815" lon="7.23809">
        <ele>473</ele>
        <time>2015-03-01T11:34:20Z</time>
      </trkpt>
      <trkpt lat="43.81507" lon="7.23809">
        <ele>470</ele>
        <time>2015-03-01T11:34:23Z</time>
      </trkpt>
      <trkpt lat="43.81502" lon="7.2382">
        <ele>466</ele>
        <time>2015-03-01T11:34:26Z</time>
      </trkpt>
      <trkpt lat="43.81488" lon="7.23838">
        <ele>463</ele>
        <time>2015-03-01T11:34:29Z</time>
      </trkpt>
      <trkpt lat="43.8147" lon="7.23859">
        <ele>460</ele>
        <time>2015-03-01T11:34:32Z</time>
      </trkpt>
      <trkpt lat="43.81449" lon="7.23875">
        <ele>459</ele>
        <time>2015-03-01T11:34:35Z</time>
      </trkpt>
      <trkpt lat="43.81443" lon="7.2389">
        <ele>460</ele>
        <time>2015-03-01T11:34:38Z</time>
      </trkpt>
      <trkpt lat="43.81448" lon="7.23899">
        <ele>458</ele>
        <time>2015-03-01T11:34:41Z</time>
      </trkpt>
      <trkpt lat="43.81455" lon="7.2391">
        <ele>458</ele>
        <time>2015-03-01T11:34:44Z</time>
      </trkpt>
      <trkpt lat="43.81458" lon="7.23917">
        <ele>461</ele>
        <time>2015-03-01T11:34:47Z</time>
      </trkpt>
      <trkpt lat="43.81463" lon="7.23924">
        <ele>462</ele>
        <time>2015-03-01T11:34:50Z</time>
      </trkpt>
      <trkpt lat="43.81474" lon="7.23932">
        <ele>461</ele>
        <time>2015-03-01T11:34:53Z</time>
      </trkpt>
      <trkpt lat="43.81488" lon="7.2395">
        <ele>462</ele>
        <time>2015-03-01T11:34:56Z</time>
      </trkpt>
      <trkpt lat="43.81503" lon="7.23965">
        <ele>461</ele>
        <time>2015-03-01T11:34:59Z</time>
      </trkpt>
      <trkpt lat="43.81518" lon="7.23977">
        <ele>462</ele>
        <time>2015-03-01T11:35:02Z</time>
      </trkpt>
      <trkpt lat="43.81535" lon="7.23997">
        <ele>460</ele>
        <time>2015-03-01T11:35:05Z</time>
      </trkpt>
      <trkpt lat="43.81542" lon="7.24014">
        <ele>462</ele>
        <time>2015-03-01T11:35:08Z</time>
      </trkpt>
      <trkpt lat="43.81544" lon="7.24032">
        <ele>462</ele>
        <time>2015-03-01T11:35:11Z</time>
      </trkpt>
      <trkpt lat="43.81547" lon="7.2405">
        <ele>463</ele>
        <time>2015-03-01T11:35:14Z</time>
      </trkpt>
      <trkpt lat="43.81549" lon="7.24064">
        <ele>465</ele>
        <time>2015-03-01T11:35:17Z</time>
      </trkpt>
      <trkpt lat="43.81549" lon="7.24075">
        <ele>465</ele>
        <time>2015-03-01T11:35:20Z</time>
      </trkpt>
      <trkpt lat="43.81548" lon="7.24089">
        <ele>465</ele>
        <time>2015-03-01T11:35:23Z</time>
      </trkpt>
      <trkpt lat="43.81546" lon="7.24102">
        <ele>466</ele>
        <time>2015-03-01T11:35:26Z</time>
      </trkpt>
      <trkpt lat="43.81544" lon="7.24115">
        <ele>467</ele>
        <time>2015-03-01T11:35:29Z</time>
      </trkpt>
      <trkpt lat="43.81546" lon="7.24127">
        <ele>468</ele>
        <time>2015-03-01T11:35:32Z</time>
      </trkpt>
      <trkpt lat="43.81549" lon="7.24137">
        <ele>468</ele>
        <time>2015-03-01T11:35:35Z</time>
      </trkpt>
      <trkpt lat="43.81551" lon="7.24153">
        <ele>469</ele>
        <time>2015-03-01T11:35:38Z</time>
      </trkpt>
      <trkpt lat="43.81555" lon="7.24167">
        <ele>469</ele>
        <time>2015-03-01T11:35:41Z</time>
      </trkpt>
      <trkpt lat="43.81561" lon="7.24174">
        <ele>471</ele>
        <time>2015-03-01T11:35:44Z</time>
      </trkpt>
      <trkpt lat="43.81569" lon="7.24179">
        <ele>472</ele>
        <time>2015-03-01T11:35:47Z</time>
      </trkpt>
      <trkpt lat="43.81581" lon="7.24182">
        <ele>472</ele>
        <time>2015-03-01T11:35:50Z</time>
      </trkpt>
      <trkpt lat="43.81592" lon="7.24183">
        <ele>472</ele>
        <time>2015-03-01T11:35:53Z</time>
      </trkpt>
      <trkpt lat="43.81609" lon="7.24182">
        <ele>471</ele>
        <time>2015-03-01T11:35:56Z</time>
      </trkpt>
      <trkpt lat="43.81629" lon="7.24179">
        <ele>468</ele>
        <time>2015-03-01T11:35:59Z</time>
      </trkpt>
      <trkpt lat="43.8165" lon="7.24185">
        <ele>468</ele>
        <time>2015-03-01T11:36:02Z</time>
      </trkpt>
      <trkpt lat="43.81658" lon="7.2421">
        <ele>469</ele>
        <time>2015-03-01T11:36:05Z</time>
      </trkpt>
      <trkpt lat="43.81665" lon="7.24233">
        <ele>467</ele>
        <time>2015-03-01T11:36:08Z</time>
      </trkpt>
      <trkpt lat="43.81676" lon="7.2425">
        <ele>467</ele>
        <time>2015-03-01T11:36:11Z</time>
      </trkpt>
      <trkpt lat="43.81692" lon="7.24257">
        <ele>465</ele>
        <time>2015-03-01T11:36:14Z</time>
      </trkpt>
      <trkpt lat="43.81707" lon="7.24267">
        <ele>467</ele>
        <time>2015-03-01T11:36:17Z</time>
      </trkpt>
      <trkpt lat="43.81713" lon="7.24278">
        <ele>467</ele>
        <time>2015-03-01T11:36:20Z</time>
      </trkpt>
      <trkpt lat="43.81723" lon="7.24277">
        <ele>467</ele>
        <time>2015-03-01T11:36:23Z</time>
      </trkpt>
      <trkpt lat="43.81724" lon="7.24288">
        <ele>463</ele>
        <time>2015-03-01T11:36:26Z</time>
      </trkpt>
      <trkpt lat="43.81718" lon="7.243">
        <ele>459</ele>
        <time>2015-03-01T11:36:29Z</time>
      </trkpt>
      <trkpt lat="43.81702" lon="7.24313">
        <ele>457</ele>
        <time>2015-03-01T11:36:32Z</time>
      </trkpt>
      <trkpt lat="43.81689" lon="7.24324">
        <ele>457</ele>
        <time>2015-03-01T11:36:35Z</time>
      </trkpt>
      <trkpt lat="43.81673" lon="7.24336">
        <ele>457</ele>
        <time>2015-03-01T11:36:38Z</time>
      </trkpt>
      <trkpt lat="43.81657" lon="7.24348">
        <ele>457</ele>
        <time>2015-03-01T11:36:41Z</time>
      </trkpt>
      <trkpt lat="43.81641" lon="7.24363">
        <ele>457</ele>
        <time>2015-03-01T11:36:44Z</time>
      </trkpt>
      <trkpt lat="43.81625" lon="7.24374">
        <ele>457</ele>
        <time>2015-03-01T11:36:47Z</time>
      </trkpt>
      <trkpt lat="43.81614" lon="7.24382">
        <ele>458</ele>
        <time>2015-03-01T11:36:50Z</time>
      </trkpt>
      <trkpt lat="43.81602" lon="7.24391">
        <ele>459</ele>
        <time>2015-03-01T11:36:53Z</time>
      </trkpt>
      <trkpt lat="43.81585" lon="7.24406">
        <ele>458</ele>
        <time>2015-03-01T11:36:56Z</time>
      </trkpt>
      <trkpt lat="43.81567" lon="7.2442">
        <ele>456</ele>
        <time>2015-03-01T11:36:59Z</time>
      </trkpt>
      <trkpt lat="43.81547" lon="7.24429">
        <ele>455</ele>
        <time>2015-03-01T11:37:02Z</time>
      </trkpt>
      <trkpt lat="43.81543" lon="7.24437">
        <ele>455</ele>
        <time>2015-03-01T11:37:05Z</time>
      </trkpt>
      <trkpt lat="43.81547" lon="7.24441">
        <ele>452</ele>
        <time>2015-03-01T11:37:08Z</time>
      </trkpt>
      <trkpt lat="43.81549" lon="7.24447">
        <ele>449</ele>
        <time>2015-03-01T11:37:11Z</time>
      </trkpt>
      <trkpt lat="43.81553" lon="7.24454">
        <ele>443</ele>
        <time>2015-03-01T11:37:14Z</time>
      </trkpt>
      <trkpt lat="43.81553" lon="7.24463">
        <ele>440</ele>
        <time>2015-03-01T11:37:17Z</time>
      </trkpt>
      <trkpt lat="43.81559" lon="7.24467">
        <ele>437</ele>
        <time>2015-03-01T11:37:20Z</time>
      </trkpt>
      <trkpt lat="43.8156" lon="7.24474">
        <ele>434</ele>
        <time>2015-03-01T11:37:23Z</time>
      </trkpt>
      <trkpt lat="43.81568" lon="7.2448">
        <ele>430</ele>
        <time>2015-03-01T11:37:26Z</time>
      </trkpt>
      <trkpt lat="43.81577" lon="7.24485">
        <ele>428</ele>
        <time>2015-03-01T11:37:29Z</time>
      </trkpt>
      <trkpt lat="43.8158" lon="7.24492">
        <ele>425</ele>
        <time>2015-03-01T11:37:32Z</time>
      </trkpt>
      <trkpt lat="43.81579" lon="7.24502">
        <ele>422</ele>
        <time>2015-03-01T11:37:35Z</time>
      </trkpt>
      <trkpt lat="43.81582" lon="7.24519">
        <ele>416</ele>
        <time>2015-03-01T11:37:38Z</time>
      </trkpt>
      <trkpt lat="43.81594" lon="7.24528">
        <ele>410</ele>
        <time>2015-03-01T11:37:41Z</time>
      </trkpt>
      <trkpt lat="43.81612" lon="7.24527">
        <ele>407</ele>
        <time>2015-03-01T11:37:44Z</time>
      </trkpt>
      <trkpt lat="43.8163" lon="7.24525">
        <ele>404</ele>
        <time>2015-03-01T11:37:47Z</time>
      </trkpt>
      <trkpt lat="43.8165" lon="7.24518">
        <ele>400</ele>
        <time>2015-03-01T11:37:50Z</time>
      </trkpt>
      <trkpt lat="43.81669" lon="7.24507">
        <ele>395</ele>
        <time>2015-03-01T11:37:53Z</time>
      </trkpt>
      <trkpt lat="43.81678" lon="7.24506">
        <ele>392</ele>
        <time>2015-03-01T11:37:56Z</time>
      </trkpt>
      <trkpt lat="43.81674" lon="7.24513">
        <ele>390</ele>
        <time>2015-03-01T11:37:59Z</time>
      </trkpt>
      <trkpt lat="43.81666" lon="7.24521">
        <ele>387</ele>
        <time>2015-03-01T11:38:02Z</time>
      </trkpt>
      <trkpt lat="43.8165" lon="7.24531">
        <ele>389</ele>
        <time>2015-03-01T11:38:05Z</time>
      </trkpt>
      <trkpt lat="43.81634" lon="7.24542">
        <ele>389</ele>
        <time>2015-03-01T11:38:08Z</time>
      </trkpt>
      <trkpt lat="43.81617" lon="7.24555">
        <ele>389</ele>
        <time>2015-03-01T11:38:11Z</time>
      </trkpt>
      <trkpt lat="43.8161" lon="7.2458">
        <ele>389</ele>
        <time>2015-03-01T11:38:14Z</time>
      </trkpt>
      <trkpt lat="43.81605" lon="7.24596">
        <ele>388</ele>
        <time>2015-03-01T11:38:17Z</time>
      </trkpt>
      <trkpt lat="43.816" lon="7.24601">
        <ele>390</ele>
        <time>2015-03-01T11:38:20Z</time>
      </trkpt>
      <trkpt lat="43.81595" lon="7.24604">
        <ele>390</ele>
        <time>2015-03-01T11:38:23Z</time>
      </trkpt>
      <trkpt lat="43.81589" lon="7.24609">
        <ele>389</ele>
        <time>2015-03-01T11:38:26Z</time>
      </trkpt>
      <trkpt lat="43.81586" lon="7.24613">
        <ele>389</ele>
        <time>2015-03-01T11:38:29Z</time>
      </trkpt>
      <trkpt lat="43.81585" lon="7.24613">
        <ele>389</ele>
        <time>2015-03-01T11:39:11Z</time>
      </trkpt>
      <trkpt lat="43.81583" lon="7.24615">
        <ele>389</ele>
        <time>2015-03-01T11:39:29Z</time>
      </trkpt>
      <trkpt lat="43.8158" lon="7.24619">
        <ele>389</ele>
        <time>2015-03-01T11:39:32Z</time>
      </trkpt>
      <trkpt lat="43.81579" lon="7.2462">
        <ele>390</ele>
        <time>2015-03-01T11:39:35Z</time>
      </trkpt>
      <trkpt lat="43.81576" lon="7.24627">
        <ele>389</ele>
        <time>2015-03-01T11:40:20Z</time>
      </trkpt>
      <trkpt lat="43.81581" lon="7.24641">
        <ele>385</ele>
        <time>2015-03-01T11:40:23Z</time>
      </trkpt>
      <trkpt lat="43.81587" lon="7.24655">
        <ele>382</ele>
        <time>2015-03-01T11:40:26Z</time>
      </trkpt>
      <trkpt lat="43.81585" lon="7.24662">
        <ele>382</ele>
        <time>2015-03-01T11:40:29Z</time>
      </trkpt>
      <trkpt lat="43.81582" lon="7.24667">
        <ele>382</ele>
        <time>2015-03-01T11:40:32Z</time>
      </trkpt>
      <trkpt lat="43.81577" lon="7.24671">
        <ele>382</ele>
        <time>2015-03-01T11:40:35Z</time>
      </trkpt>
      <trkpt lat="43.8157" lon="7.24678">
        <ele>382</ele>
        <time>2015-03-01T11:40:38Z</time>
      </trkpt>
      <trkpt lat="43.81561" lon="7.24687">
        <ele>380</ele>
        <time>2015-03-01T11:40:41Z</time>
      </trkpt>
      <trkpt lat="43.81549" lon="7.2469">
        <ele>379</ele>
        <time>2015-03-01T11:40:44Z</time>
      </trkpt>
      <trkpt lat="43.81546" lon="7.24693">
        <ele>378</ele>
        <time>2015-03-01T11:40:47Z</time>
      </trkpt>
      <trkpt lat="43.81545" lon="7.24696">
        <ele>379</ele>
        <time>2015-03-01T11:40:50Z</time>
      </trkpt>
      <trkpt lat="43.81547" lon="7.24699">
        <ele>379</ele>
        <time>2015-03-01T11:40:53Z</time>
      </trkpt>
      <trkpt lat="43.81546" lon="7.24702">
        <ele>380</ele>
        <time>2015-03-01T11:40:56Z</time>
      </trkpt>
      <trkpt lat="43.81544" lon="7.24703">
        <ele>381</ele>
        <time>2015-03-01T11:40:59Z</time>
      </trkpt>
      <trkpt lat="43.81542" lon="7.24703">
        <ele>381</ele>
        <time>2015-03-01T11:41:02Z</time>
      </trkpt>
      <trkpt lat="43.81541" lon="7.24703">
        <ele>382</ele>
        <time>2015-03-01T11:41:05Z</time>
      </trkpt>
      <trkpt lat="43.8154" lon="7.24704">
        <ele>382</ele>
        <time>2015-03-01T11:41:08Z</time>
      </trkpt>
      <trkpt lat="43.8154" lon="7.24703">
        <ele>383</ele>
        <time>2015-03-01T11:41:47Z</time>
      </trkpt>
      <trkpt lat="43.8154" lon="7.24704">
        <ele>383</ele>
        <time>2015-03-01T11:42:08Z</time>
      </trkpt>
      <trkpt lat="43.8154" lon="7.24703">
        <ele>383</ele>
        <time>2015-03-01T11:42:11Z</time>
      </trkpt>
      <trkpt lat="43.81539" lon="7.24706">
        <ele>383</ele>
        <time>2015-03-01T11:42:14Z</time>
      </trkpt>
      <trkpt lat="43.81538" lon="7.24709">
        <ele>383</ele>
        <time>2015-03-01T11:42:17Z</time>
      </trkpt>
      <trkpt lat="43.81538" lon="7.24712">
        <ele>384</ele>
        <time>2015-03-01T11:42:20Z</time>
      </trkpt>
      <trkpt lat="43.81537" lon="7.24713">
        <ele>384</ele>
        <time>2015-03-01T11:42:23Z</time>
      </trkpt>
      <trkpt lat="43.81536" lon="7.24716">
        <ele>385</ele>
        <time>2015-03-01T11:42:29Z</time>
      </trkpt>
      <trkpt lat="43.81535" lon="7.24719">
        <ele>385</ele>
        <time>2015-03-01T11:42:32Z</time>
      </trkpt>
      <trkpt lat="43.81535" lon="7.2472">
        <ele>386</ele>
        <time>2015-03-01T11:42:38Z</time>
      </trkpt>
      <trkpt lat="43.81535" lon="7.24721">
        <ele>386</ele>
        <time>2015-03-01T11:42:41Z</time>
      </trkpt>
      <trkpt lat="43.81536" lon="7.24722">
        <ele>387</ele>
        <time>2015-03-01T11:42:44Z</time>
      </trkpt>
      <trkpt lat="43.81536" lon="7.24726">
        <ele>387</ele>
        <time>2015-03-01T11:42:47Z</time>
      </trkpt>
      <trkpt lat="43.81537" lon="7.24729">
        <ele>387</ele>
        <time>2015-03-01T11:42:50Z</time>
      </trkpt>
      <trkpt lat="43.81537" lon="7.24731">
        <ele>388</ele>
        <time>2015-03-01T11:42:53Z</time>
      </trkpt>
      <trkpt lat="43.81538" lon="7.24733">
        <ele>388</ele>
        <time>2015-03-01T11:42:56Z</time>
      </trkpt>
      <trkpt lat="43.81539" lon="7.24733">
        <ele>388</ele>
        <time>2015-03-01T11:42:59Z</time>
      </trkpt>
      <trkpt lat="43.81538" lon="7.24733">
        <ele>389</ele>
        <time>2015-03-01T11:43:02Z</time>
      </trkpt>
      <trkpt lat="43.81538" lon="7.24734">
        <ele>391</ele>
        <time>2015-03-01T11:43:11Z</time>
      </trkpt>
      <trkpt lat="43.81537" lon="7.24735">
        <ele>392</ele>
        <time>2015-03-01T11:43:17Z</time>
      </trkpt>
      <trkpt lat="43.81534" lon="7.24738">
        <ele>392</ele>
        <time>2015-03-01T11:43:20Z</time>
      </trkpt>
      <trkpt lat="43.8153" lon="7.24742">
        <ele>393</ele>
        <time>2015-03-01T11:43:23Z</time>
      </trkpt>
      <trkpt lat="43.8153" lon="7.24745">
        <ele>394</ele>
        <time>2015-03-01T11:43:26Z</time>
      </trkpt>
      <trkpt lat="43.81529" lon="7.24748">
        <ele>394</ele>
        <time>2015-03-01T11:43:29Z</time>
      </trkpt>
      <trkpt lat="43.81528" lon="7.2475">
        <ele>395</ele>
        <time>2015-03-01T11:43:32Z</time>
      </trkpt>
      <trkpt lat="43.81527" lon="7.24752">
        <ele>395</ele>
        <time>2015-03-01T11:43:35Z</time>
      </trkpt>
      <trkpt lat="43.81528" lon="7.24753">
        <ele>395</ele>
        <time>2015-03-01T11:43:38Z</time>
      </trkpt>
      <trkpt lat="43.81528" lon="7.24754">
        <ele>396</ele>
        <time>2015-03-01T11:43:41Z</time>
      </trkpt>
      <trkpt lat="43.81529" lon="7.24755">
        <ele>396</ele>
        <time>2015-03-01T11:43:44Z</time>
      </trkpt>
      <trkpt lat="43.81532" lon="7.24757">
        <ele>396</ele>
        <time>2015-03-01T11:43:47Z</time>
      </trkpt>
      <trkpt lat="43.81534" lon="7.24758">
        <ele>396</ele>
        <time>2015-03-01T11:43:50Z</time>
      </trkpt>
      <trkpt lat="43.81534" lon="7.2476">
        <ele>397</ele>
        <time>2015-03-01T11:43:53Z</time>
      </trkpt>
      <trkpt lat="43.81535" lon="7.24764">
        <ele>397</ele>
        <time>2015-03-01T11:43:56Z</time>
      </trkpt>
      <trkpt lat="43.81537" lon="7.24765">
        <ele>398</ele>
        <time>2015-03-01T11:43:59Z</time>
      </trkpt>
      <trkpt lat="43.81539" lon="7.24767">
        <ele>398</ele>
        <time>2015-03-01T11:44:02Z</time>
      </trkpt>
      <trkpt lat="43.8154" lon="7.24769">
        <ele>398</ele>
        <time>2015-03-01T11:44:05Z</time>
      </trkpt>
      <trkpt lat="43.81541" lon="7.2477">
        <ele>399</ele>
        <time>2015-03-01T11:44:08Z</time>
      </trkpt>
      <trkpt lat="43.81541" lon="7.24772">
        <ele>399</ele>
        <time>2015-03-01T11:44:11Z</time>
      </trkpt>
      <trkpt lat="43.81541" lon="7.24773">
        <ele>399</ele>
        <time>2015-03-01T11:44:17Z</time>
      </trkpt>
      <trkpt lat="43.8154" lon="7.24773">
        <ele>399</ele>
        <time>2015-03-01T11:44:20Z</time>
      </trkpt>
      <trkpt lat="43.81537" lon="7.24773">
        <ele>400</ele>
        <time>2015-03-01T11:44:23Z</time>
      </trkpt>
      <trkpt lat="43.81535" lon="7.24773">
        <ele>401</ele>
        <time>2015-03-01T11:44:26Z</time>
      </trkpt>
      <trkpt lat="43.81534" lon="7.24775">
        <ele>402</ele>
        <time>2015-03-01T11:44:29Z</time>
      </trkpt>
      <trkpt lat="43.81535" lon="7.24778">
        <ele>402</ele>
        <time>2015-03-01T11:44:32Z</time>
      </trkpt>
      <trkpt lat="43.81538" lon="7.2478">
        <ele>402</ele>
        <time>2015-03-01T11:44:35Z</time>
      </trkpt>
      <trkpt lat="43.81538" lon="7.24781">
        <ele>403</ele>
        <time>2015-03-01T11:44:38Z</time>
      </trkpt>
      <trkpt lat="43.81538" lon="7.24782">
        <ele>403</ele>
        <time>2015-03-01T11:44:41Z</time>
      </trkpt>
      <trkpt lat="43.81538" lon="7.24785">
        <ele>403</ele>
        <time>2015-03-01T11:44:44Z</time>
      </trkpt>
      <trkpt lat="43.81536" lon="7.24788">
        <ele>404</ele>
        <time>2015-03-01T11:44:47Z</time>
      </trkpt>
      <trkpt lat="43.81538" lon="7.2479">
        <ele>405</ele>
        <time>2015-03-01T11:44:50Z</time>
      </trkpt>
      <trkpt lat="43.8154" lon="7.24793">
        <ele>405</ele>
        <time>2015-03-01T11:44:53Z</time>
      </trkpt>
      <trkpt lat="43.81541" lon="7.24795">
        <ele>406</ele>
        <time>2015-03-01T11:44:56Z</time>
      </trkpt>
      <trkpt lat="43.81542" lon="7.24796">
        <ele>406</ele>
        <time>2015-03-01T11:44:59Z</time>
      </trkpt>
      <trkpt lat="43.81542" lon="7.24797">
        <ele>407</ele>
        <time>2015-03-01T11:45:02Z</time>
      </trkpt>
      <trkpt lat="43.81542" lon="7.24799">
        <ele>407</ele>
        <time>2015-03-01T11:45:05Z</time>
      </trkpt>
      <trkpt lat="43.81542" lon="7.248">
        <ele>408</ele>
        <time>2015-03-01T11:45:08Z</time>
      </trkpt>
      <trkpt lat="43.81542" lon="7.24803">
        <ele>408</ele>
        <time>2015-03-01T11:45:11Z</time>
      </trkpt>
      <trkpt lat="43.81542" lon="7.24806">
        <ele>409</ele>
        <time>2015-03-01T11:45:14Z</time>
      </trkpt>
      <trkpt lat="43.81542" lon="7.24809">
        <ele>409</ele>
        <time>2015-03-01T11:45:17Z</time>
      </trkpt>
      <trkpt lat="43.81542" lon="7.2481">
        <ele>410</ele>
        <time>2015-03-01T11:45:20Z</time>
      </trkpt>
      <trkpt lat="43.81544" lon="7.24812">
        <ele>410</ele>
        <time>2015-03-01T11:45:23Z</time>
      </trkpt>
      <trkpt lat="43.81545" lon="7.24814">
        <ele>410</ele>
        <time>2015-03-01T11:45:26Z</time>
      </trkpt>
      <trkpt lat="43.81544" lon="7.24815">
        <ele>411</ele>
        <time>2015-03-01T11:45:32Z</time>
      </trkpt>
      <trkpt lat="43.81543" lon="7.24817">
        <ele>411</ele>
        <time>2015-03-01T11:45:35Z</time>
      </trkpt>
      <trkpt lat="43.81544" lon="7.24818">
        <ele>413</ele>
        <time>2015-03-01T11:45:38Z</time>
      </trkpt>
      <trkpt lat="43.81544" lon="7.2482">
        <ele>413</ele>
        <time>2015-03-01T11:45:44Z</time>
      </trkpt>
      <trkpt lat="43.81545" lon="7.24823">
        <ele>413</ele>
        <time>2015-03-01T11:45:47Z</time>
      </trkpt>
      <trkpt lat="43.81545" lon="7.24825">
        <ele>414</ele>
        <time>2015-03-01T11:45:50Z</time>
      </trkpt>
      <trkpt lat="43.81544" lon="7.24829">
        <ele>414</ele>
        <time>2015-03-01T11:45:53Z</time>
      </trkpt>
      <trkpt lat="43.81544" lon="7.2483">
        <ele>414</ele>
        <time>2015-03-01T11:45:56Z</time>
      </trkpt>
      <trkpt lat="43.81545" lon="7.24832">
        <ele>415</ele>
        <time>2015-03-01T11:45:59Z</time>
      </trkpt>
      <trkpt lat="43.81544" lon="7.24834">
        <ele>415</ele>
        <time>2015-03-01T11:46:02Z</time>
      </trkpt>
      <trkpt lat="43.81544" lon="7.24837">
        <ele>415</ele>
        <time>2015-03-01T11:46:05Z</time>
      </trkpt>
      <trkpt lat="43.81544" lon="7.24839">
        <ele>416</ele>
        <time>2015-03-01T11:46:08Z</time>
      </trkpt>
      <trkpt lat="43.81543" lon="7.2484">
        <ele>417</ele>
        <time>2015-03-01T11:46:11Z</time>
      </trkpt>
      <trkpt lat="43.81543" lon="7.24841">
        <ele>417</ele>
        <time>2015-03-01T11:46:14Z</time>
      </trkpt>
      <trkpt lat="43.81542" lon="7.24842">
        <ele>417</ele>
        <time>2015-03-01T11:46:32Z</time>
      </trkpt>
      <trkpt lat="43.8154" lon="7.24842">
        <ele>418</ele>
        <time>2015-03-01T11:46:59Z</time>
      </trkpt>
      <trkpt lat="43.81538" lon="7.24842">
        <ele>419</ele>
        <time>2015-03-01T11:47:02Z</time>
      </trkpt>
      <trkpt lat="43.81535" lon="7.24842">
        <ele>419</ele>
        <time>2015-03-01T11:47:05Z</time>
      </trkpt>
      <trkpt lat="43.81535" lon="7.24843">
        <ele>420</ele>
        <time>2015-03-01T11:47:08Z</time>
      </trkpt>
      <trkpt lat="43.81533" lon="7.24846">
        <ele>420</ele>
        <time>2015-03-01T11:47:11Z</time>
      </trkpt>
      <trkpt lat="43.81532" lon="7.24847">
        <ele>421</ele>
        <time>2015-03-01T11:47:14Z</time>
      </trkpt>
      <trkpt lat="43.81531" lon="7.24848">
        <ele>421</ele>
        <time>2015-03-01T11:47:17Z</time>
      </trkpt>
      <trkpt lat="43.8153" lon="7.2485">
        <ele>421</ele>
        <time>2015-03-01T11:47:20Z</time>
      </trkpt>
      <trkpt lat="43.81529" lon="7.24851">
        <ele>421</ele>
        <time>2015-03-01T11:47:23Z</time>
      </trkpt>
      <trkpt lat="43.81527" lon="7.24852">
        <ele>421</ele>
        <time>2015-03-01T11:47:26Z</time>
      </trkpt>
      <trkpt lat="43.81526" lon="7.24852">
        <ele>421</ele>
        <time>2015-03-01T11:47:29Z</time>
      </trkpt>
      <trkpt lat="43.81524" lon="7.24851">
        <ele>422</ele>
        <time>2015-03-01T11:47:32Z</time>
      </trkpt>
      <trkpt lat="43.81524" lon="7.24853">
        <ele>423</ele>
        <time>2015-03-01T11:47:35Z</time>
      </trkpt>
      <trkpt lat="43.81523" lon="7.24853">
        <ele>424</ele>
        <time>2015-03-01T11:47:38Z</time>
      </trkpt>
      <trkpt lat="43.81522" lon="7.24852">
        <ele>424</ele>
        <time>2015-03-01T11:47:41Z</time>
      </trkpt>
      <trkpt lat="43.81521" lon="7.24852">
        <ele>425</ele>
        <time>2015-03-01T11:47:44Z</time>
      </trkpt>
      <trkpt lat="43.81519" lon="7.24852">
        <ele>425</ele>
        <time>2015-03-01T11:47:47Z</time>
      </trkpt>
      <trkpt lat="43.81518" lon="7.24853">
        <ele>426</ele>
        <time>2015-03-01T11:47:50Z</time>
      </trkpt>
      <trkpt lat="43.81517" lon="7.24852">
        <ele>426</ele>
        <time>2015-03-01T11:47:53Z</time>
      </trkpt>
      <trkpt lat="43.81514" lon="7.24852">
        <ele>427</ele>
        <time>2015-03-01T11:47:56Z</time>
      </trkpt>
      <trkpt lat="43.81512" lon="7.24852">
        <ele>428</ele>
        <time>2015-03-01T11:47:59Z</time>
      </trkpt>
      <trkpt lat="43.8151" lon="7.2485">
        <ele>429</ele>
        <time>2015-03-01T11:48:02Z</time>
      </trkpt>
      <trkpt lat="43.81507" lon="7.24849">
        <ele>429</ele>
        <time>2015-03-01T11:48:05Z</time>
      </trkpt>
      <trkpt lat="43.81506" lon="7.2485">
        <ele>430</ele>
        <time>2015-03-01T11:48:08Z</time>
      </trkpt>
      <trkpt lat="43.81504" lon="7.2485">
        <ele>430</ele>
        <time>2015-03-01T11:48:11Z</time>
      </trkpt>
      <trkpt lat="43.81503" lon="7.2485">
        <ele>431</ele>
        <time>2015-03-01T11:48:14Z</time>
      </trkpt>
      <trkpt lat="43.81501" lon="7.24851">
        <ele>431</ele>
        <time>2015-03-01T11:48:17Z</time>
      </trkpt>
      <trkpt lat="43.815" lon="7.24851">
        <ele>432</ele>
        <time>2015-03-01T11:48:20Z</time>
      </trkpt>
      <trkpt lat="43.81498" lon="7.24851">
        <ele>432</ele>
        <time>2015-03-01T11:48:23Z</time>
      </trkpt>
      <trkpt lat="43.81497" lon="7.24851">
        <ele>433</ele>
        <time>2015-03-01T11:48:26Z</time>
      </trkpt>
      <trkpt lat="43.81495" lon="7.24852">
        <ele>434</ele>
        <time>2015-03-01T11:48:29Z</time>
      </trkpt>
      <trkpt lat="43.81493" lon="7.24852">
        <ele>434</ele>
        <time>2015-03-01T11:48:32Z</time>
      </trkpt>
      <trkpt lat="43.81492" lon="7.24853">
        <ele>435</ele>
        <time>2015-03-01T11:48:35Z</time>
      </trkpt>
      <trkpt lat="43.8149" lon="7.24854">
        <ele>435</ele>
        <time>2015-03-01T11:48:38Z</time>
      </trkpt>
      <trkpt lat="43.81489" lon="7.24856">
        <ele>436</ele>
        <time>2015-03-01T11:48:41Z</time>
      </trkpt>
      <trkpt lat="43.81489" lon="7.24858">
        <ele>436</ele>
        <time>2015-03-01T11:48:44Z</time>
      </trkpt>
      <trkpt lat="43.8149" lon="7.2486">
        <ele>437</ele>
        <time>2015-03-01T11:48:47Z</time>
      </trkpt>
      <trkpt lat="43.81491" lon="7.24861">
        <ele>438</ele>
        <time>2015-03-01T11:48:50Z</time>
      </trkpt>
      <trkpt lat="43.81492" lon="7.24861">
        <ele>438</ele>
        <time>2015-03-01T11:48:53Z</time>
      </trkpt>
      <trkpt lat="43.81493" lon="7.24862">
        <ele>439</ele>
        <time>2015-03-01T11:48:56Z</time>
      </trkpt>
      <trkpt lat="43.81494" lon="7.24863">
        <ele>439</ele>
        <time>2015-03-01T11:48:59Z</time>
      </trkpt>
      <trkpt lat="43.81495" lon="7.24864">
        <ele>439</ele>
        <time>2015-03-01T11:49:02Z</time>
      </trkpt>
      <trkpt lat="43.81496" lon="7.24866">
        <ele>439</ele>
        <time>2015-03-01T11:49:05Z</time>
      </trkpt>
      <trkpt lat="43.81496" lon="7.24867">
        <ele>439</ele>
        <time>2015-03-01T11:49:26Z</time>
      </trkpt>
      <trkpt lat="43.81494" lon="7.24867">
        <ele>440</ele>
        <time>2015-03-01T11:49:29Z</time>
      </trkpt>
      <trkpt lat="43.81493" lon="7.24868">
        <ele>440</ele>
        <time>2015-03-01T11:49:32Z</time>
      </trkpt>
      <trkpt lat="43.8149" lon="7.24868">
        <ele>440</ele>
        <time>2015-03-01T11:49:35Z</time>
      </trkpt>
      <trkpt lat="43.81489" lon="7.24868">
        <ele>440</ele>
        <time>2015-03-01T11:49:38Z</time>
      </trkpt>
      <trkpt lat="43.81487" lon="7.24868">
        <ele>441</ele>
        <time>2015-03-01T11:49:41Z</time>
      </trkpt>
      <trkpt lat="43.81486" lon="7.24868">
        <ele>441</ele>
        <time>2015-03-01T11:49:44Z</time>
      </trkpt>
      <trkpt lat="43.81483" lon="7.24869">
        <ele>441</ele>
        <time>2015-03-01T11:49:50Z</time>
      </trkpt>
      <trkpt lat="43.8148" lon="7.24871">
        <ele>442</ele>
        <time>2015-03-01T11:49:53Z</time>
      </trkpt>
      <trkpt lat="43.81478" lon="7.24873">
        <ele>442</ele>
        <time>2015-03-01T11:49:56Z</time>
      </trkpt>
      <trkpt lat="43.81476" lon="7.24874">
        <ele>442</ele>
        <time>2015-03-01T11:49:59Z</time>
      </trkpt>
      <trkpt lat="43.81473" lon="7.24875">
        <ele>442</ele>
        <time>2015-03-01T11:50:02Z</time>
      </trkpt>
      <trkpt lat="43.81472" lon="7.24878">
        <ele>443</ele>
        <time>2015-03-01T11:50:05Z</time>
      </trkpt>
      <trkpt lat="43.8147" lon="7.2488">
        <ele>443</ele>
        <time>2015-03-01T11:50:08Z</time>
      </trkpt>
      <trkpt lat="43.81468" lon="7.24884">
        <ele>443</ele>
        <time>2015-03-01T11:50:11Z</time>
      </trkpt>
      <trkpt lat="43.81467" lon="7.24888">
        <ele>444</ele>
        <time>2015-03-01T11:50:14Z</time>
      </trkpt>
      <trkpt lat="43.81466" lon="7.24892">
        <ele>444</ele>
        <time>2015-03-01T11:50:17Z</time>
      </trkpt>
      <trkpt lat="43.81465" lon="7.24897">
        <ele>444</ele>
        <time>2015-03-01T11:50:20Z</time>
      </trkpt>
      <trkpt lat="43.81465" lon="7.249">
        <ele>444</ele>
        <time>2015-03-01T11:50:23Z</time>
      </trkpt>
      <trkpt lat="43.81465" lon="7.24904">
        <ele>445</ele>
        <time>2015-03-01T11:50:26Z</time>
      </trkpt>
      <trkpt lat="43.81465" lon="7.24909">
        <ele>445</ele>
        <time>2015-03-01T11:50:29Z</time>
      </trkpt>
      <trkpt lat="43.81466" lon="7.24913">
        <ele>445</ele>
        <time>2015-03-01T11:50:32Z</time>
      </trkpt>
      <trkpt lat="43.81466" lon="7.24917">
        <ele>445</ele>
        <time>2015-03-01T11:50:35Z</time>
      </trkpt>
      <trkpt lat="43.81465" lon="7.24922">
        <ele>446</ele>
        <time>2015-03-01T11:50:38Z</time>
      </trkpt>
      <trkpt lat="43.81463" lon="7.24926">
        <ele>446</ele>
        <time>2015-03-01T11:50:41Z</time>
      </trkpt>
      <trkpt lat="43.81461" lon="7.24929">
        <ele>446</ele>
        <time>2015-03-01T11:50:44Z</time>
      </trkpt>
      <trkpt lat="43.81458" lon="7.24932">
        <ele>447</ele>
        <time>2015-03-01T11:50:47Z</time>
      </trkpt>
      <trkpt lat="43.81454" lon="7.24934">
        <ele>448</ele>
        <time>2015-03-01T11:50:50Z</time>
      </trkpt>
      <trkpt lat="43.81449" lon="7.24934">
        <ele>449</ele>
        <time>2015-03-01T11:50:53Z</time>
      </trkpt>
      <trkpt lat="43.81445" lon="7.24937">
        <ele>449</ele>
        <time>2015-03-01T11:50:56Z</time>
      </trkpt>
      <trkpt lat="43.81443" lon="7.2494">
        <ele>450</ele>
        <time>2015-03-01T11:50:59Z</time>
      </trkpt>
      <trkpt lat="43.81441" lon="7.24945">
        <ele>450</ele>
        <time>2015-03-01T11:51:02Z</time>
      </trkpt>
      <trkpt lat="43.81439" lon="7.2495">
        <ele>451</ele>
        <time>2015-03-01T11:51:05Z</time>
      </trkpt>
      <trkpt lat="43.81439" lon="7.24955">
        <ele>451</ele>
        <time>2015-03-01T11:51:08Z</time>
      </trkpt>
      <trkpt lat="43.81438" lon="7.24962">
        <ele>452</ele>
        <time>2015-03-01T11:51:11Z</time>
      </trkpt>
      <trkpt lat="43.81438" lon="7.24968">
        <ele>452</ele>
        <time>2015-03-01T11:51:14Z</time>
      </trkpt>
      <trkpt lat="43.81437" lon="7.24973">
        <ele>453</ele>
        <time>2015-03-01T11:51:17Z</time>
      </trkpt>
      <trkpt lat="43.81437" lon="7.24978">
        <ele>454</ele>
        <time>2015-03-01T11:51:20Z</time>
      </trkpt>
      <trkpt lat="43.81437" lon="7.24981">
        <ele>454</ele>
        <time>2015-03-01T11:51:23Z</time>
      </trkpt>
      <trkpt lat="43.81435" lon="7.24983">
        <ele>454</ele>
        <time>2015-03-01T11:51:26Z</time>
      </trkpt>
      <trkpt lat="43.81434" lon="7.24987">
        <ele>454</ele>
        <time>2015-03-01T11:51:29Z</time>
      </trkpt>
      <trkpt lat="43.81431" lon="7.24989">
        <ele>455</ele>
        <time>2015-03-01T11:51:32Z</time>
      </trkpt>
      <trkpt lat="43.81427" lon="7.24991">
        <ele>455</ele>
        <time>2015-03-01T11:51:35Z</time>
      </trkpt>
      <trkpt lat="43.81424" lon="7.24994">
        <ele>456</ele>
        <time>2015-03-01T11:51:38Z</time>
      </trkpt>
      <trkpt lat="43.81421" lon="7.24995">
        <ele>456</ele>
        <time>2015-03-01T11:51:41Z</time>
      </trkpt>
      <trkpt lat="43.81418" lon="7.24997">
        <ele>457</ele>
        <time>2015-03-01T11:51:44Z</time>
      </trkpt>
      <trkpt lat="43.81415" lon="7.24999">
        <ele>457</ele>
        <time>2015-03-01T11:51:47Z</time>
      </trkpt>
      <trkpt lat="43.81412" lon="7.25">
        <ele>458</ele>
        <time>2015-03-01T11:51:50Z</time>
      </trkpt>
      <trkpt lat="43.81408" lon="7.24998">
        <ele>458</ele>
        <time>2015-03-01T11:51:53Z</time>
      </trkpt>
      <trkpt lat="43.81405" lon="7.24994">
        <ele>458</ele>
        <time>2015-03-01T11:51:56Z</time>
      </trkpt>
      <trkpt lat="43.81401" lon="7.2499">
        <ele>459</ele>
        <time>2015-03-01T11:51:59Z</time>
      </trkpt>
      <trkpt lat="43.81399" lon="7.24988">
        <ele>460</ele>
        <time>2015-03-01T11:52:02Z</time>
      </trkpt>
      <trkpt lat="43.81396" lon="7.24986">
        <ele>461</ele>
        <time>2015-03-01T11:52:05Z</time>
      </trkpt>
      <trkpt lat="43.81392" lon="7.24986">
        <ele>461</ele>
        <time>2015-03-01T11:52:08Z</time>
      </trkpt>
      <trkpt lat="43.81387" lon="7.24989">
        <ele>462</ele>
        <time>2015-03-01T11:52:11Z</time>
      </trkpt>
      <trkpt lat="43.81384" lon="7.24993">
        <ele>462</ele>
        <time>2015-03-01T11:52:14Z</time>
      </trkpt>
      <trkpt lat="43.8138" lon="7.24994">
        <ele>462</ele>
        <time>2015-03-01T11:52:17Z</time>
      </trkpt>
      <trkpt lat="43.81376" lon="7.24993">
        <ele>463</ele>
        <time>2015-03-01T11:52:20Z</time>
      </trkpt>
      <trkpt lat="43.81373" lon="7.2499">
        <ele>464</ele>
        <time>2015-03-01T11:52:23Z</time>
      </trkpt>
      <trkpt lat="43.8137" lon="7.24988">
        <ele>465</ele>
        <time>2015-03-01T11:52:26Z</time>
      </trkpt>
      <trkpt lat="43.81367" lon="7.24984">
        <ele>465</ele>
        <time>2015-03-01T11:52:29Z</time>
      </trkpt>
      <trkpt lat="43.81363" lon="7.24983">
        <ele>466</ele>
        <time>2015-03-01T11:52:32Z</time>
      </trkpt>
      <trkpt lat="43.81359" lon="7.24984">
        <ele>466</ele>
        <time>2015-03-01T11:52:35Z</time>
      </trkpt>
      <trkpt lat="43.81355" lon="7.24985">
        <ele>467</ele>
        <time>2015-03-01T11:52:38Z</time>
      </trkpt>
      <trkpt lat="43.81351" lon="7.24987">
        <ele>467</ele>
        <time>2015-03-01T11:52:41Z</time>
      </trkpt>
      <trkpt lat="43.81348" lon="7.24989">
        <ele>468</ele>
        <time>2015-03-01T11:52:44Z</time>
      </trkpt>
      <trkpt lat="43.81345" lon="7.24992">
        <ele>469</ele>
        <time>2015-03-01T11:52:47Z</time>
      </trkpt>
      <trkpt lat="43.8134" lon="7.24992">
        <ele>469</ele>
        <time>2015-03-01T11:52:50Z</time>
      </trkpt>
      <trkpt lat="43.81336" lon="7.24988">
        <ele>470</ele>
        <time>2015-03-01T11:52:53Z</time>
      </trkpt>
      <trkpt lat="43.81334" lon="7.24984">
        <ele>470</ele>
        <time>2015-03-01T11:52:56Z</time>
      </trkpt>
      <trkpt lat="43.81332" lon="7.24979">
        <ele>471</ele>
        <time>2015-03-01T11:52:59Z</time>
      </trkpt>
      <trkpt lat="43.81329" lon="7.24974">
        <ele>471</ele>
        <time>2015-03-01T11:53:02Z</time>
      </trkpt>
      <trkpt lat="43.81326" lon="7.24969">
        <ele>472</ele>
        <time>2015-03-01T11:53:05Z</time>
      </trkpt>
      <trkpt lat="43.81322" lon="7.24966">
        <ele>472</ele>
        <time>2015-03-01T11:53:08Z</time>
      </trkpt>
      <trkpt lat="43.81318" lon="7.24962">
        <ele>472</ele>
        <time>2015-03-01T11:53:11Z</time>
      </trkpt>
      <trkpt lat="43.81315" lon="7.24959">
        <ele>473</ele>
        <time>2015-03-01T11:53:14Z</time>
      </trkpt>
      <trkpt lat="43.81313" lon="7.24955">
        <ele>473</ele>
        <time>2015-03-01T11:53:17Z</time>
      </trkpt>
      <trkpt lat="43.81313" lon="7.24949">
        <ele>473</ele>
        <time>2015-03-01T11:53:20Z</time>
      </trkpt>
      <trkpt lat="43.81315" lon="7.24943">
        <ele>474</ele>
        <time>2015-03-01T11:53:23Z</time>
      </trkpt>
      <trkpt lat="43.81317" lon="7.24938">
        <ele>474</ele>
        <time>2015-03-01T11:53:26Z</time>
      </trkpt>
      <trkpt lat="43.81321" lon="7.24933">
        <ele>475</ele>
        <time>2015-03-01T11:53:29Z</time>
      </trkpt>
      <trkpt lat="43.81324" lon="7.24929">
        <ele>475</ele>
        <time>2015-03-01T11:53:32Z</time>
      </trkpt>
      <trkpt lat="43.81326" lon="7.24926">
        <ele>476</ele>
        <time>2015-03-01T11:53:35Z</time>
      </trkpt>
      <trkpt lat="43.81329" lon="7.24922">
        <ele>476</ele>
        <time>2015-03-01T11:53:38Z</time>
      </trkpt>
      <trkpt lat="43.81333" lon="7.24918">
        <ele>477</ele>
        <time>2015-03-01T11:53:41Z</time>
      </trkpt>
      <trkpt lat="43.81336" lon="7.24913">
        <ele>477</ele>
        <time>2015-03-01T11:53:44Z</time>
      </trkpt>
      <trkpt lat="43.81337" lon="7.24907">
        <ele>478</ele>
        <time>2015-03-01T11:53:47Z</time>
      </trkpt>
      <trkpt lat="43.81338" lon="7.249">
        <ele>478</ele>
        <time>2015-03-01T11:53:50Z</time>
      </trkpt>
      <trkpt lat="43.81336" lon="7.24894">
        <ele>478</ele>
        <time>2015-03-01T11:53:53Z</time>
      </trkpt>
      <trkpt lat="43.81332" lon="7.2489">
        <ele>479</ele>
        <time>2015-03-01T11:53:56Z</time>
      </trkpt>
      <trkpt lat="43.81327" lon="7.2489">
        <ele>479</ele>
        <time>2015-03-01T11:53:59Z</time>
      </trkpt>
      <trkpt lat="43.81323" lon="7.24891">
        <ele>479</ele>
        <time>2015-03-01T11:54:02Z</time>
      </trkpt>
      <trkpt lat="43.81318" lon="7.24892">
        <ele>480</ele>
        <time>2015-03-01T11:54:05Z</time>
      </trkpt>
      <trkpt lat="43.81313" lon="7.24894">
        <ele>481</ele>
        <time>2015-03-01T11:54:08Z</time>
      </trkpt>
      <trkpt lat="43.8131" lon="7.24895">
        <ele>481</ele>
        <time>2015-03-01T11:54:11Z</time>
      </trkpt>
      <trkpt lat="43.81306" lon="7.24896">
        <ele>482</ele>
        <time>2015-03-01T11:54:14Z</time>
      </trkpt>
      <trkpt lat="43.81301" lon="7.24896">
        <ele>482</ele>
        <time>2015-03-01T11:54:17Z</time>
      </trkpt>
      <trkpt lat="43.81297" lon="7.24897">
        <ele>482</ele>
        <time>2015-03-01T11:54:20Z</time>
      </trkpt>
      <trkpt lat="43.81293" lon="7.24899">
        <ele>483</ele>
        <time>2015-03-01T11:54:23Z</time>
      </trkpt>
      <trkpt lat="43.81288" lon="7.24901">
        <ele>483</ele>
        <time>2015-03-01T11:54:26Z</time>
      </trkpt>
      <trkpt lat="43.81284" lon="7.249">
        <ele>484</ele>
        <time>2015-03-01T11:54:29Z</time>
      </trkpt>
      <trkpt lat="43.8128" lon="7.24902">
        <ele>484</ele>
        <time>2015-03-01T11:54:32Z</time>
      </trkpt>
      <trkpt lat="43.81276" lon="7.24902">
        <ele>485</ele>
        <time>2015-03-01T11:54:35Z</time>
      </trkpt>
      <trkpt lat="43.81272" lon="7.24901">
        <ele>485</ele>
        <time>2015-03-01T11:54:38Z</time>
      </trkpt>
      <trkpt lat="43.81268" lon="7.249">
        <ele>486</ele>
        <time>2015-03-01T11:54:41Z</time>
      </trkpt>
      <trkpt lat="43.81264" lon="7.24898">
        <ele>486</ele>
        <time>2015-03-01T11:54:44Z</time>
      </trkpt>
      <trkpt lat="43.81259" lon="7.24896">
        <ele>486</ele>
        <time>2015-03-01T11:54:47Z</time>
      </trkpt>
      <trkpt lat="43.81255" lon="7.24894">
        <ele>487</ele>
        <time>2015-03-01T11:54:50Z</time>
      </trkpt>
      <trkpt lat="43.81251" lon="7.24893">
        <ele>487</ele>
        <time>2015-03-01T11:54:53Z</time>
      </trkpt>
      <trkpt lat="43.81247" lon="7.24892">
        <ele>488</ele>
        <time>2015-03-01T11:54:56Z</time>
      </trkpt>
      <trkpt lat="43.81242" lon="7.24888">
        <ele>488</ele>
        <time>2015-03-01T11:54:59Z</time>
      </trkpt>
      <trkpt lat="43.81239" lon="7.24882">
        <ele>488</ele>
        <time>2015-03-01T11:55:02Z</time>
      </trkpt>
      <trkpt lat="43.81238" lon="7.24876">
        <ele>489</ele>
        <time>2015-03-01T11:55:06Z</time>
      </trkpt>
      <trkpt lat="43.81237" lon="7.24872">
        <ele>489</ele>
        <time>2015-03-01T11:55:09Z</time>
      </trkpt>
      <trkpt lat="43.81236" lon="7.24866">
        <ele>490</ele>
        <time>2015-03-01T11:55:12Z</time>
      </trkpt>
      <trkpt lat="43.81233" lon="7.2486">
        <ele>490</ele>
        <time>2015-03-01T11:55:15Z</time>
      </trkpt>
      <trkpt lat="43.8123" lon="7.24856">
        <ele>491</ele>
        <time>2015-03-01T11:55:18Z</time>
      </trkpt>
      <trkpt lat="43.81226" lon="7.2485">
        <ele>491</ele>
        <time>2015-03-01T11:55:21Z</time>
      </trkpt>
      <trkpt lat="43.81225" lon="7.24843">
        <ele>491</ele>
        <time>2015-03-01T11:55:24Z</time>
      </trkpt>
      <trkpt lat="43.81225" lon="7.24837">
        <ele>492</ele>
        <time>2015-03-01T11:55:27Z</time>
      </trkpt>
      <trkpt lat="43.81226" lon="7.24831">
        <ele>493</ele>
        <time>2015-03-01T11:55:30Z</time>
      </trkpt>
      <trkpt lat="43.81228" lon="7.24826">
        <ele>493</ele>
        <time>2015-03-01T11:55:33Z</time>
      </trkpt>
      <trkpt lat="43.81232" lon="7.24822">
        <ele>494</ele>
        <time>2015-03-01T11:55:36Z</time>
      </trkpt>
      <trkpt lat="43.81234" lon="7.24817">
        <ele>494</ele>
        <time>2015-03-01T11:55:39Z</time>
      </trkpt>
      <trkpt lat="43.81236" lon="7.24811">
        <ele>494</ele>
        <time>2015-03-01T11:55:42Z</time>
      </trkpt>
      <trkpt lat="43.81237" lon="7.24805">
        <ele>495</ele>
        <time>2015-03-01T11:55:45Z</time>
      </trkpt>
      <trkpt lat="43.81237" lon="7.24799">
        <ele>496</ele>
        <time>2015-03-01T11:55:48Z</time>
      </trkpt>
      <trkpt lat="43.81232" lon="7.24797">
        <ele>496</ele>
        <time>2015-03-01T11:55:51Z</time>
      </trkpt>
      <trkpt lat="43.81228" lon="7.248">
        <ele>496</ele>
        <time>2015-03-01T11:55:54Z</time>
      </trkpt>
      <trkpt lat="43.81227" lon="7.24806">
        <ele>496</ele>
        <time>2015-03-01T11:55:57Z</time>
      </trkpt>
      <trkpt lat="43.81224" lon="7.24812">
        <ele>497</ele>
        <time>2015-03-01T11:56:00Z</time>
      </trkpt>
      <trkpt lat="43.81222" lon="7.24817">
        <ele>497</ele>
        <time>2015-03-01T11:56:03Z</time>
      </trkpt>
      <trkpt lat="43.81219" lon="7.24823">
        <ele>497</ele>
        <time>2015-03-01T11:56:06Z</time>
      </trkpt>
      <trkpt lat="43.81216" lon="7.24828">
        <ele>498</ele>
        <time>2015-03-01T11:56:09Z</time>
      </trkpt>
      <trkpt lat="43.81213" lon="7.24834">
        <ele>498</ele>
        <time>2015-03-01T11:56:12Z</time>
      </trkpt>
      <trkpt lat="43.81211" lon="7.24839">
        <ele>498</ele>
        <time>2015-03-01T11:56:15Z</time>
      </trkpt>
      <trkpt lat="43.81208" lon="7.24844">
        <ele>499</ele>
        <time>2015-03-01T11:56:18Z</time>
      </trkpt>
      <trkpt lat="43.81208" lon="7.2485">
        <ele>499</ele>
        <time>2015-03-01T11:56:21Z</time>
      </trkpt>
      <trkpt lat="43.81209" lon="7.24856">
        <ele>500</ele>
        <time>2015-03-01T11:56:24Z</time>
      </trkpt>
      <trkpt lat="43.8121" lon="7.24862">
        <ele>501</ele>
        <time>2015-03-01T11:56:27Z</time>
      </trkpt>
      <trkpt lat="43.81211" lon="7.24868">
        <ele>501</ele>
        <time>2015-03-01T11:56:30Z</time>
      </trkpt>
      <trkpt lat="43.81211" lon="7.24875">
        <ele>502</ele>
        <time>2015-03-01T11:56:33Z</time>
      </trkpt>
      <trkpt lat="43.8121" lon="7.24881">
        <ele>502</ele>
        <time>2015-03-01T11:56:36Z</time>
      </trkpt>
      <trkpt lat="43.81209" lon="7.24885">
        <ele>502</ele>
        <time>2015-03-01T11:56:39Z</time>
      </trkpt>
      <trkpt lat="43.81209" lon="7.24886">
        <ele>502</ele>
        <time>2015-03-01T11:56:57Z</time>
      </trkpt>
      <trkpt lat="43.8121" lon="7.2489">
        <ele>502</ele>
        <time>2015-03-01T11:57:00Z</time>
      </trkpt>
      <trkpt lat="43.8121" lon="7.24893">
        <ele>502</ele>
        <time>2015-03-01T11:57:03Z</time>
      </trkpt>
      <trkpt lat="43.81212" lon="7.24897">
        <ele>502</ele>
        <time>2015-03-01T11:57:06Z</time>
      </trkpt>
      <trkpt lat="43.81215" lon="7.24901">
        <ele>502</ele>
        <time>2015-03-01T11:57:09Z</time>
      </trkpt>
      <trkpt lat="43.81217" lon="7.24905">
        <ele>502</ele>
        <time>2015-03-01T11:57:12Z</time>
      </trkpt>
      <trkpt lat="43.8122" lon="7.24908">
        <ele>503</ele>
        <time>2015-03-01T11:57:15Z</time>
      </trkpt>
      <trkpt lat="43.81224" lon="7.24911">
        <ele>503</ele>
        <time>2015-03-01T11:57:18Z</time>
      </trkpt>
      <trkpt lat="43.81227" lon="7.24915">
        <ele>503</ele>
        <time>2015-03-01T11:57:21Z</time>
      </trkpt>
      <trkpt lat="43.8123" lon="7.24919">
        <ele>504</ele>
        <time>2015-03-01T11:57:24Z</time>
      </trkpt>
      <trkpt lat="43.81233" lon="7.24922">
        <ele>504</ele>
        <time>2015-03-01T11:57:27Z</time>
      </trkpt>
      <trkpt lat="43.81236" lon="7.24926">
        <ele>504</ele>
        <time>2015-03-01T11:57:30Z</time>
      </trkpt>
      <trkpt lat="43.81238" lon="7.24932">
        <ele>505</ele>
        <time>2015-03-01T11:57:33Z</time>
      </trkpt>
      <trkpt lat="43.81239" lon="7.24937">
        <ele>505</ele>
        <time>2015-03-01T11:57:36Z</time>
      </trkpt>
      <trkpt lat="43.81239" lon="7.24943">
        <ele>505</ele>
        <time>2015-03-01T11:57:39Z</time>
      </trkpt>
      <trkpt lat="43.81239" lon="7.24949">
        <ele>506</ele>
        <time>2015-03-01T11:57:42Z</time>
      </trkpt>
      <trkpt lat="43.81239" lon="7.24954">
        <ele>506</ele>
        <time>2015-03-01T11:57:45Z</time>
      </trkpt>
      <trkpt lat="43.81238" lon="7.2496">
        <ele>506</ele>
        <time>2015-03-01T11:57:48Z</time>
      </trkpt>
      <trkpt lat="43.81239" lon="7.24965">
        <ele>507</ele>
        <time>2015-03-01T11:57:51Z</time>
      </trkpt>
      <trkpt lat="43.81239" lon="7.2497">
        <ele>507</ele>
        <time>2015-03-01T11:57:54Z</time>
      </trkpt>
      <trkpt lat="43.81242" lon="7.24976">
        <ele>508</ele>
        <time>2015-03-01T11:57:57Z</time>
      </trkpt>
      <trkpt lat="43.81245" lon="7.24981">
        <ele>509</ele>
        <time>2015-03-01T11:58:00Z</time>
      </trkpt>
      <trkpt lat="43.81248" lon="7.24985">
        <ele>509</ele>
        <time>2015-03-01T11:58:03Z</time>
      </trkpt>
      <trkpt lat="43.81251" lon="7.24988">
        <ele>510</ele>
        <time>2015-03-01T11:58:06Z</time>
      </trkpt>
      <trkpt lat="43.81255" lon="7.24991">
        <ele>510</ele>
        <time>2015-03-01T11:58:09Z</time>
      </trkpt>
      <trkpt lat="43.81258" lon="7.24994">
        <ele>511</ele>
        <time>2015-03-01T11:58:12Z</time>
      </trkpt>
      <trkpt lat="43.81262" lon="7.24998">
        <ele>511</ele>
        <time>2015-03-01T11:58:15Z</time>
      </trkpt>
      <trkpt lat="43.81265" lon="7.25002">
        <ele>511</ele>
        <time>2015-03-01T11:58:18Z</time>
      </trkpt>
      <trkpt lat="43.81268" lon="7.25007">
        <ele>512</ele>
        <time>2015-03-01T11:58:21Z</time>
      </trkpt>
      <trkpt lat="43.8127" lon="7.25013">
        <ele>512</ele>
        <time>2015-03-01T11:58:24Z</time>
      </trkpt>
      <trkpt lat="43.81269" lon="7.25019">
        <ele>513</ele>
        <time>2015-03-01T11:58:27Z</time>
      </trkpt>
      <trkpt lat="43.81269" lon="7.25025">
        <ele>513</ele>
        <time>2015-03-01T11:58:30Z</time>
      </trkpt>
      <trkpt lat="43.81267" lon="7.25031">
        <ele>514</ele>
        <time>2015-03-01T11:58:33Z</time>
      </trkpt>
      <trkpt lat="43.81265" lon="7.25037">
        <ele>514</ele>
        <time>2015-03-01T11:58:36Z</time>
      </trkpt>
      <trkpt lat="43.81264" lon="7.25043">
        <ele>514</ele>
        <time>2015-03-01T11:58:39Z</time>
      </trkpt>
      <trkpt lat="43.81263" lon="7.25048">
        <ele>515</ele>
        <time>2015-03-01T11:58:42Z</time>
      </trkpt>
      <trkpt lat="43.81262" lon="7.25053">
        <ele>516</ele>
        <time>2015-03-01T11:58:45Z</time>
      </trkpt>
      <trkpt lat="43.81262" lon="7.25059">
        <ele>516</ele>
        <time>2015-03-01T11:58:48Z</time>
      </trkpt>
      <trkpt lat="43.81261" lon="7.25066">
        <ele>517</ele>
        <time>2015-03-01T11:58:51Z</time>
      </trkpt>
      <trkpt lat="43.81261" lon="7.25072">
        <ele>518</ele>
        <time>2015-03-01T11:58:54Z</time>
      </trkpt>
      <trkpt lat="43.81261" lon="7.25079">
        <ele>518</ele>
        <time>2015-03-01T11:58:57Z</time>
      </trkpt>
      <trkpt lat="43.81263" lon="7.25085">
        <ele>518</ele>
        <time>2015-03-01T11:59:00Z</time>
      </trkpt>
      <trkpt lat="43.81265" lon="7.2509">
        <ele>519</ele>
        <time>2015-03-01T11:59:03Z</time>
      </trkpt>
      <trkpt lat="43.81269" lon="7.25095">
        <ele>519</ele>
        <time>2015-03-01T11:59:06Z</time>
      </trkpt>
      <trkpt lat="43.81273" lon="7.25099">
        <ele>520</ele>
        <time>2015-03-01T11:59:09Z</time>
      </trkpt>
      <trkpt lat="43.81278" lon="7.25101">
        <ele>520</ele>
        <time>2015-03-01T11:59:12Z</time>
      </trkpt>
      <trkpt lat="43.81283" lon="7.25102">
        <ele>521</ele>
        <time>2015-03-01T11:59:15Z</time>
      </trkpt>
      <trkpt lat="43.81288" lon="7.25103">
        <ele>521</ele>
        <time>2015-03-01T11:59:18Z</time>
      </trkpt>
      <trkpt lat="43.81292" lon="7.25104">
        <ele>522</ele>
        <time>2015-03-01T11:59:21Z</time>
      </trkpt>
      <trkpt lat="43.81297" lon="7.25105">
        <ele>522</ele>
        <time>2015-03-01T11:59:24Z</time>
      </trkpt>
      <trkpt lat="43.81302" lon="7.25105">
        <ele>523</ele>
        <time>2015-03-01T11:59:27Z</time>
      </trkpt>
      <trkpt lat="43.81307" lon="7.25107">
        <ele>523</ele>
        <time>2015-03-01T11:59:30Z</time>
      </trkpt>
      <trkpt lat="43.81311" lon="7.25109">
        <ele>524</ele>
        <time>2015-03-01T11:59:33Z</time>
      </trkpt>
      <trkpt lat="43.81317" lon="7.25111">
        <ele>524</ele>
        <time>2015-03-01T11:59:36Z</time>
      </trkpt>
      <trkpt lat="43.81322" lon="7.25115">
        <ele>524</ele>
        <time>2015-03-01T11:59:39Z</time>
      </trkpt>
      <trkpt lat="43.81326" lon="7.2512">
        <ele>525</ele>
        <time>2015-03-01T11:59:42Z</time>
      </trkpt>
      <trkpt lat="43.8133" lon="7.25126">
        <ele>526</ele>
        <time>2015-03-01T11:59:45Z</time>
      </trkpt>
      <trkpt lat="43.81332" lon="7.25131">
        <ele>526</ele>
        <time>2015-03-01T11:59:48Z</time>
      </trkpt>
      <trkpt lat="43.81335" lon="7.25137">
        <ele>526</ele>
        <time>2015-03-01T11:59:51Z</time>
      </trkpt>
      <trkpt lat="43.81336" lon="7.25144">
        <ele>527</ele>
        <time>2015-03-01T11:59:54Z</time>
      </trkpt>
      <trkpt lat="43.81337" lon="7.25151">
        <ele>527</ele>
        <time>2015-03-01T11:59:57Z</time>
      </trkpt>
      <trkpt lat="43.81338" lon="7.25158">
        <ele>527</ele>
        <time>2015-03-01T12:00:00Z</time>
      </trkpt>
      <trkpt lat="43.81338" lon="7.25165">
        <ele>528</ele>
        <time>2015-03-01T12:00:03Z</time>
      </trkpt>
      <trkpt lat="43.81339" lon="7.25171">
        <ele>529</ele>
        <time>2015-03-01T12:00:06Z</time>
      </trkpt>
      <trkpt lat="43.81339" lon="7.25177">
        <ele>529</ele>
        <time>2015-03-01T12:00:09Z</time>
      </trkpt>
      <trkpt lat="43.81341" lon="7.25184">
        <ele>530</ele>
        <time>2015-03-01T12:00:12Z</time>
      </trkpt>
      <trkpt lat="43.81344" lon="7.25189">
        <ele>530</ele>
        <time>2015-03-01T12:00:15Z</time>
      </trkpt>
      <trkpt lat="43.81348" lon="7.25193">
        <ele>530</ele>
        <time>2015-03-01T12:00:18Z</time>
      </trkpt>
      <trkpt lat="43.81352" lon="7.25194">
        <ele>531</ele>
        <time>2015-03-01T12:00:21Z</time>
      </trkpt>
      <trkpt lat="43.81357" lon="7.25195">
        <ele>531</ele>
        <time>2015-03-01T12:00:24Z</time>
      </trkpt>
      <trkpt lat="43.81362" lon="7.25194">
        <ele>532</ele>
        <time>2015-03-01T12:00:27Z</time>
      </trkpt>
      <trkpt lat="43.81366" lon="7.25192">
        <ele>532</ele>
        <time>2015-03-01T12:00:30Z</time>
      </trkpt>
      <trkpt lat="43.8137" lon="7.2519">
        <ele>533</ele>
        <time>2015-03-01T12:00:33Z</time>
      </trkpt>
      <trkpt lat="43.81375" lon="7.25188">
        <ele>533</ele>
        <time>2015-03-01T12:00:36Z</time>
      </trkpt>
      <trkpt lat="43.8138" lon="7.25187">
        <ele>534</ele>
        <time>2015-03-01T12:00:39Z</time>
      </trkpt>
      <trkpt lat="43.81386" lon="7.25186">
        <ele>534</ele>
        <time>2015-03-01T12:00:42Z</time>
      </trkpt>
      <trkpt lat="43.8139" lon="7.25183">
        <ele>534</ele>
        <time>2015-03-01T12:00:45Z</time>
      </trkpt>
      <trkpt lat="43.81395" lon="7.25182">
        <ele>534</ele>
        <time>2015-03-01T12:00:48Z</time>
      </trkpt>
      <trkpt lat="43.814" lon="7.25181">
        <ele>535</ele>
        <time>2015-03-01T12:00:51Z</time>
      </trkpt>
      <trkpt lat="43.81405" lon="7.2518">
        <ele>536</ele>
        <time>2015-03-01T12:00:54Z</time>
      </trkpt>
      <trkpt lat="43.81411" lon="7.25179">
        <ele>536</ele>
        <time>2015-03-01T12:00:57Z</time>
      </trkpt>
      <trkpt lat="43.81417" lon="7.25178">
        <ele>536</ele>
        <time>2015-03-01T12:01:00Z</time>
      </trkpt>
      <trkpt lat="43.81421" lon="7.25176">
        <ele>537</ele>
        <time>2015-03-01T12:01:03Z</time>
      </trkpt>
      <trkpt lat="43.81426" lon="7.25175">
        <ele>537</ele>
        <time>2015-03-01T12:01:06Z</time>
      </trkpt>
      <trkpt lat="43.81432" lon="7.25174">
        <ele>537</ele>
        <time>2015-03-01T12:01:09Z</time>
      </trkpt>
      <trkpt lat="43.81437" lon="7.25172">
        <ele>538</ele>
        <time>2015-03-01T12:01:12Z</time>
      </trkpt>
      <trkpt lat="43.81442" lon="7.25172">
        <ele>538</ele>
        <time>2015-03-01T12:01:15Z</time>
      </trkpt>
      <trkpt lat="43.81447" lon="7.25172">
        <ele>538</ele>
        <time>2015-03-01T12:01:18Z</time>
      </trkpt>
      <trkpt lat="43.81453" lon="7.25171">
        <ele>539</ele>
        <time>2015-03-01T12:01:21Z</time>
      </trkpt>
      <trkpt lat="43.81459" lon="7.25169">
        <ele>539</ele>
        <time>2015-03-01T12:01:24Z</time>
      </trkpt>
      <trkpt lat="43.81464" lon="7.2517">
        <ele>540</ele>
        <time>2015-03-01T12:01:27Z</time>
      </trkpt>
      <trkpt lat="43.81469" lon="7.2517">
        <ele>540</ele>
        <time>2015-03-01T12:01:30Z</time>
      </trkpt>
      <trkpt lat="43.81474" lon="7.25169">
        <ele>541</ele>
        <time>2015-03-01T12:01:33Z</time>
      </trkpt>
      <trkpt lat="43.81478" lon="7.2517">
        <ele>542</ele>
        <time>2015-03-01T12:01:36Z</time>
      </trkpt>
      <trkpt lat="43.81483" lon="7.25171">
        <ele>542</ele>
        <time>2015-03-01T12:01:39Z</time>
      </trkpt>
      <trkpt lat="43.81488" lon="7.25174">
        <ele>543</ele>
        <time>2015-03-01T12:01:42Z</time>
      </trkpt>
      <trkpt lat="43.81493" lon="7.25177">
        <ele>543</ele>
        <time>2015-03-01T12:01:45Z</time>
      </trkpt>
      <trkpt lat="43.81497" lon="7.2518">
        <ele>544</ele>
        <time>2015-03-01T12:01:48Z</time>
      </trkpt>
      <trkpt lat="43.815" lon="7.25185">
        <ele>544</ele>
        <time>2015-03-01T12:01:51Z</time>
      </trkpt>
      <trkpt lat="43.81505" lon="7.25188">
        <ele>544</ele>
        <time>2015-03-01T12:01:54Z</time>
      </trkpt>
      <trkpt lat="43.8151" lon="7.25191">
        <ele>545</ele>
        <time>2015-03-01T12:01:57Z</time>
      </trkpt>
      <trkpt lat="43.81514" lon="7.25194">
        <ele>545</ele>
        <time>2015-03-01T12:02:00Z</time>
      </trkpt>
      <trkpt lat="43.81519" lon="7.25196">
        <ele>546</ele>
        <time>2015-03-01T12:02:03Z</time>
      </trkpt>
      <trkpt lat="43.81523" lon="7.25199">
        <ele>546</ele>
        <time>2015-03-01T12:02:06Z</time>
      </trkpt>
      <trkpt lat="43.81528" lon="7.25202">
        <ele>547</ele>
        <time>2015-03-01T12:02:09Z</time>
      </trkpt>
      <trkpt lat="43.81532" lon="7.25205">
        <ele>547</ele>
        <time>2015-03-01T12:02:12Z</time>
      </trkpt>
      <trkpt lat="43.81537" lon="7.25208">
        <ele>548</ele>
        <time>2015-03-01T12:02:15Z</time>
      </trkpt>
      <trkpt lat="43.81541" lon="7.25211">
        <ele>548</ele>
        <time>2015-03-01T12:02:18Z</time>
      </trkpt>
      <trkpt lat="43.81546" lon="7.25212">
        <ele>549</ele>
        <time>2015-03-01T12:02:21Z</time>
      </trkpt>
      <trkpt lat="43.81551" lon="7.25214">
        <ele>549</ele>
        <time>2015-03-01T12:02:24Z</time>
      </trkpt>
      <trkpt lat="43.81556" lon="7.25216">
        <ele>550</ele>
        <time>2015-03-01T12:02:27Z</time>
      </trkpt>
      <trkpt lat="43.8156" lon="7.25219">
        <ele>550</ele>
        <time>2015-03-01T12:02:30Z</time>
      </trkpt>
      <trkpt lat="43.81565" lon="7.25221">
        <ele>551</ele>
        <time>2015-03-01T12:02:33Z</time>
      </trkpt>
      <trkpt lat="43.8157" lon="7.25224">
        <ele>551</ele>
        <time>2015-03-01T12:02:36Z</time>
      </trkpt>
      <trkpt lat="43.81575" lon="7.25227">
        <ele>551</ele>
        <time>2015-03-01T12:02:39Z</time>
      </trkpt>
      <trkpt lat="43.81579" lon="7.2523">
        <ele>552</ele>
        <time>2015-03-01T12:02:42Z</time>
      </trkpt>
      <trkpt lat="43.81584" lon="7.25233">
        <ele>552</ele>
        <time>2015-03-01T12:02:45Z</time>
      </trkpt>
      <trkpt lat="43.81588" lon="7.25237">
        <ele>553</ele>
        <time>2015-03-01T12:02:48Z</time>
      </trkpt>
      <trkpt lat="43.81592" lon="7.25242">
        <ele>553</ele>
        <time>2015-03-01T12:02:51Z</time>
      </trkpt>
      <trkpt lat="43.81596" lon="7.25246">
        <ele>554</ele>
        <time>2015-03-01T12:02:54Z</time>
      </trkpt>
      <trkpt lat="43.816" lon="7.25251">
        <ele>554</ele>
        <time>2015-03-01T12:02:57Z</time>
      </trkpt>
      <trkpt lat="43.81605" lon="7.25256">
        <ele>554</ele>
        <time>2015-03-01T12:03:00Z</time>
      </trkpt>
      <trkpt lat="43.81609" lon="7.25259">
        <ele>555</ele>
        <time>2015-03-01T12:03:03Z</time>
      </trkpt>
      <trkpt lat="43.81614" lon="7.25262">
        <ele>555</ele>
        <time>2015-03-01T12:03:06Z</time>
      </trkpt>
      <trkpt lat="43.81619" lon="7.25266">
        <ele>556</ele>
        <time>2015-03-01T12:03:09Z</time>
      </trkpt>
      <trkpt lat="43.81622" lon="7.25271">
        <ele>556</ele>
        <time>2015-03-01T12:03:12Z</time>
      </trkpt>
      <trkpt lat="43.81627" lon="7.25274">
        <ele>557</ele>
        <time>2015-03-01T12:03:15Z</time>
      </trkpt>
      <trkpt lat="43.81631" lon="7.25279">
        <ele>557</ele>
        <time>2015-03-01T12:03:18Z</time>
      </trkpt>
      <trkpt lat="43.81635" lon="7.25284">
        <ele>557</ele>
        <time>2015-03-01T12:03:21Z</time>
      </trkpt>
      <trkpt lat="43.81637" lon="7.2529">
        <ele>558</ele>
        <time>2015-03-01T12:03:24Z</time>
      </trkpt>
      <trkpt lat="43.8164" lon="7.25297">
        <ele>558</ele>
        <time>2015-03-01T12:03:27Z</time>
      </trkpt>
      <trkpt lat="43.81643" lon="7.25303">
        <ele>559</ele>
        <time>2015-03-01T12:03:30Z</time>
      </trkpt>
      <trkpt lat="43.81645" lon="7.25308">
        <ele>559</ele>
        <time>2015-03-01T12:03:33Z</time>
      </trkpt>
      <trkpt lat="43.81648" lon="7.25315">
        <ele>560</ele>
        <time>2015-03-01T12:03:36Z</time>
      </trkpt>
      <trkpt lat="43.8165" lon="7.25321">
        <ele>560</ele>
        <time>2015-03-01T12:03:39Z</time>
      </trkpt>
      <trkpt lat="43.81653" lon="7.25326">
        <ele>560</ele>
        <time>2015-03-01T12:03:42Z</time>
      </trkpt>
      <trkpt lat="43.81655" lon="7.25333">
        <ele>561</ele>
        <time>2015-03-01T12:03:45Z</time>
      </trkpt>
      <trkpt lat="43.81658" lon="7.25339">
        <ele>561</ele>
        <time>2015-03-01T12:03:48Z</time>
      </trkpt>
      <trkpt lat="43.8166" lon="7.25345">
        <ele>562</ele>
        <time>2015-03-01T12:03:51Z</time>
      </trkpt>
      <trkpt lat="43.81662" lon="7.25352">
        <ele>562</ele>
        <time>2015-03-01T12:03:54Z</time>
      </trkpt>
      <trkpt lat="43.81665" lon="7.25358">
        <ele>562</ele>
        <time>2015-03-01T12:03:57Z</time>
      </trkpt>
      <trkpt lat="43.81667" lon="7.25365">
        <ele>563</ele>
        <time>2015-03-01T12:04:00Z</time>
      </trkpt>
      <trkpt lat="43.81669" lon="7.2537">
        <ele>563</ele>
        <time>2015-03-01T12:04:03Z</time>
      </trkpt>
      <trkpt lat="43.81672" lon="7.25376">
        <ele>564</ele>
        <time>2015-03-01T12:04:06Z</time>
      </trkpt>
      <trkpt lat="43.81674" lon="7.25383">
        <ele>564</ele>
        <time>2015-03-01T12:04:09Z</time>
      </trkpt>
      <trkpt lat="43.81676" lon="7.25389">
        <ele>565</ele>
        <time>2015-03-01T12:04:12Z</time>
      </trkpt>
      <trkpt lat="43.81679" lon="7.25395">
        <ele>565</ele>
        <time>2015-03-01T12:04:15Z</time>
      </trkpt>
      <trkpt lat="43.81682" lon="7.25401">
        <ele>566</ele>
        <time>2015-03-01T12:04:18Z</time>
      </trkpt>
      <trkpt lat="43.81685" lon="7.25408">
        <ele>566</ele>
        <time>2015-03-01T12:04:21Z</time>
      </trkpt>
      <trkpt lat="43.81689" lon="7.25414">
        <ele>566</ele>
        <time>2015-03-01T12:04:24Z</time>
      </trkpt>
      <trkpt lat="43.81692" lon="7.2542">
        <ele>567</ele>
        <time>2015-03-01T12:04:27Z</time>
      </trkpt>
      <trkpt lat="43.81695" lon="7.25426">
        <ele>567</ele>
        <time>2015-03-01T12:04:30Z</time>
      </trkpt>
      <trkpt lat="43.81698" lon="7.25432">
        <ele>568</ele>
        <time>2015-03-01T12:04:33Z</time>
      </trkpt>
      <trkpt lat="43.81701" lon="7.25438">
        <ele>569</ele>
        <time>2015-03-01T12:04:36Z</time>
      </trkpt>
      <trkpt lat="43.81704" lon="7.25444">
        <ele>569</ele>
        <time>2015-03-01T12:04:39Z</time>
      </trkpt>
      <trkpt lat="43.81707" lon="7.2545">
        <ele>570</ele>
        <time>2015-03-01T12:04:42Z</time>
      </trkpt>
      <trkpt lat="43.81709" lon="7.25456">
        <ele>570</ele>
        <time>2015-03-01T12:04:45Z</time>
      </trkpt>
      <trkpt lat="43.81708" lon="7.25463">
        <ele>571</ele>
        <time>2015-03-01T12:04:48Z</time>
      </trkpt>
      <trkpt lat="43.81704" lon="7.25466">
        <ele>571</ele>
        <time>2015-03-01T12:04:51Z</time>
      </trkpt>
      <trkpt lat="43.81698" lon="7.25466">
        <ele>571</ele>
        <time>2015-03-01T12:04:54Z</time>
      </trkpt>
      <trkpt lat="43.81691" lon="7.25464">
        <ele>572</ele>
        <time>2015-03-01T12:04:57Z</time>
      </trkpt>
      <trkpt lat="43.81685" lon="7.2546">
        <ele>572</ele>
        <time>2015-03-01T12:05:00Z</time>
      </trkpt>
      <trkpt lat="43.81678" lon="7.25456">
        <ele>572</ele>
        <time>2015-03-01T12:05:03Z</time>
      </trkpt>
      <trkpt lat="43.81671" lon="7.25452">
        <ele>572</ele>
        <time>2015-03-01T12:05:06Z</time>
      </trkpt>
      <trkpt lat="43.81664" lon="7.25447">
        <ele>572</ele>
        <time>2015-03-01T12:05:09Z</time>
      </trkpt>
      <trkpt lat="43.81657" lon="7.25443">
        <ele>572</ele>
        <time>2015-03-01T12:05:12Z</time>
      </trkpt>
      <trkpt lat="43.81649" lon="7.25438">
        <ele>572</ele>
        <time>2015-03-01T12:05:15Z</time>
      </trkpt>
      <trkpt lat="43.8164" lon="7.25434">
        <ele>572</ele>
        <time>2015-03-01T12:05:18Z</time>
      </trkpt>
      <trkpt lat="43.81632" lon="7.25429">
        <ele>572</ele>
        <time>2015-03-01T12:05:21Z</time>
      </trkpt>
      <trkpt lat="43.81624" lon="7.25426">
        <ele>572</ele>
        <time>2015-03-01T12:05:24Z</time>
      </trkpt>
      <trkpt lat="43.81614" lon="7.25423">
        <ele>572</ele>
        <time>2015-03-01T12:05:27Z</time>
      </trkpt>
      <trkpt lat="43.81603" lon="7.25421">
        <ele>572</ele>
        <time>2015-03-01T12:05:30Z</time>
      </trkpt>
      <trkpt lat="43.81592" lon="7.25425">
        <ele>571</ele>
        <time>2015-03-01T12:05:33Z</time>
      </trkpt>
      <trkpt lat="43.81584" lon="7.25435">
        <ele>571</ele>
        <time>2015-03-01T12:05:36Z</time>
      </trkpt>
      <trkpt lat="43.81575" lon="7.25448">
        <ele>570</ele>
        <time>2015-03-01T12:05:39Z</time>
      </trkpt>
      <trkpt lat="43.81568" lon="7.25461">
        <ele>570</ele>
        <time>2015-03-01T12:05:42Z</time>
      </trkpt>
      <trkpt lat="43.81561" lon="7.25474">
        <ele>570</ele>
        <time>2015-03-01T12:05:45Z</time>
      </trkpt>
      <trkpt lat="43.81556" lon="7.25489">
        <ele>570</ele>
        <time>2015-03-01T12:05:48Z</time>
      </trkpt>
      <trkpt lat="43.81552" lon="7.25504">
        <ele>570</ele>
        <time>2015-03-01T12:05:51Z</time>
      </trkpt>
      <trkpt lat="43.81548" lon="7.25519">
        <ele>570</ele>
        <time>2015-03-01T12:05:54Z</time>
      </trkpt>
      <trkpt lat="43.81543" lon="7.25534">
        <ele>569</ele>
        <time>2015-03-01T12:05:57Z</time>
      </trkpt>
      <trkpt lat="43.81539" lon="7.25548">
        <ele>569</ele>
        <time>2015-03-01T12:06:00Z</time>
      </trkpt>
      <trkpt lat="43.81535" lon="7.2556">
        <ele>569</ele>
        <time>2015-03-01T12:06:03Z</time>
      </trkpt>
      <trkpt lat="43.8153" lon="7.25572">
        <ele>569</ele>
        <time>2015-03-01T12:06:06Z</time>
      </trkpt>
      <trkpt lat="43.81524" lon="7.25582">
        <ele>569</ele>
        <time>2015-03-01T12:06:09Z</time>
      </trkpt>
      <trkpt lat="43.81517" lon="7.25591">
        <ele>569</ele>
        <time>2015-03-01T12:06:12Z</time>
      </trkpt>
      <trkpt lat="43.81509" lon="7.256">
        <ele>569</ele>
        <time>2015-03-01T12:06:15Z</time>
      </trkpt>
      <trkpt lat="43.81501" lon="7.25609">
        <ele>569</ele>
        <time>2015-03-01T12:06:18Z</time>
      </trkpt>
      <trkpt lat="43.81493" lon="7.25619">
        <ele>569</ele>
        <time>2015-03-01T12:06:21Z</time>
      </trkpt>
      <trkpt lat="43.81485" lon="7.25629">
        <ele>569</ele>
        <time>2015-03-01T12:06:24Z</time>
      </trkpt>
      <trkpt lat="43.81478" lon="7.2564">
        <ele>569</ele>
        <time>2015-03-01T12:06:27Z</time>
      </trkpt>
      <trkpt lat="43.81471" lon="7.25651">
        <ele>569</ele>
        <time>2015-03-01T12:06:30Z</time>
      </trkpt>
      <trkpt lat="43.81465" lon="7.25664">
        <ele>568</ele>
        <time>2015-03-01T12:06:33Z</time>
      </trkpt>
      <trkpt lat="43.81459" lon="7.25676">
        <ele>568</ele>
        <time>2015-03-01T12:06:36Z</time>
      </trkpt>
      <trkpt lat="43.81454" lon="7.25688">
        <ele>568</ele>
        <time>2015-03-01T12:06:39Z</time>
      </trkpt>
      <trkpt lat="43.8145" lon="7.25699">
        <ele>568</ele>
        <time>2015-03-01T12:06:42Z</time>
      </trkpt>
      <trkpt lat="43.81445" lon="7.25709">
        <ele>569</ele>
        <time>2015-03-01T12:06:45Z</time>
      </trkpt>
      <trkpt lat="43.81441" lon="7.2572">
        <ele>569</ele>
        <time>2015-03-01T12:06:48Z</time>
      </trkpt>
      <trkpt lat="43.81436" lon="7.25731">
        <ele>568</ele>
        <time>2015-03-01T12:06:51Z</time>
      </trkpt>
      <trkpt lat="43.8143" lon="7.2574">
        <ele>569</ele>
        <time>2015-03-01T12:06:54Z</time>
      </trkpt>
      <trkpt lat="43.81422" lon="7.25746">
        <ele>568</ele>
        <time>2015-03-01T12:06:57Z</time>
      </trkpt>
      <trkpt lat="43.81413" lon="7.25746">
        <ele>568</ele>
        <time>2015-03-01T12:07:00Z</time>
      </trkpt>
      <trkpt lat="43.81404" lon="7.25744">
        <ele>568</ele>
        <time>2015-03-01T12:07:03Z</time>
      </trkpt>
      <trkpt lat="43.81395" lon="7.25738">
        <ele>568</ele>
        <time>2015-03-01T12:07:06Z</time>
      </trkpt>
      <trkpt lat="43.81387" lon="7.2573">
        <ele>568</ele>
        <time>2015-03-01T12:07:09Z</time>
      </trkpt>
      <trkpt lat="43.81381" lon="7.25719">
        <ele>568</ele>
        <time>2015-03-01T12:07:12Z</time>
      </trkpt>
      <trkpt lat="43.81376" lon="7.25707">
        <ele>568</ele>
        <time>2015-03-01T12:07:15Z</time>
      </trkpt>
      <trkpt lat="43.81372" lon="7.25693">
        <ele>568</ele>
        <time>2015-03-01T12:07:18Z</time>
      </trkpt>
      <trkpt lat="43.81368" lon="7.25678">
        <ele>568</ele>
        <time>2015-03-01T12:07:21Z</time>
      </trkpt>
      <trkpt lat="43.81364" lon="7.25663">
        <ele>567</ele>
        <time>2015-03-01T12:07:24Z</time>
      </trkpt>
      <trkpt lat="43.8136" lon="7.25647">
        <ele>566</ele>
        <time>2015-03-01T12:07:27Z</time>
      </trkpt>
      <trkpt lat="43.81358" lon="7.25631">
        <ele>566</ele>
        <time>2015-03-01T12:07:30Z</time>
      </trkpt>
      <trkpt lat="43.81356" lon="7.25615">
        <ele>566</ele>
        <time>2015-03-01T12:07:33Z</time>
      </trkpt>
      <trkpt lat="43.81353" lon="7.256">
        <ele>566</ele>
        <time>2015-03-01T12:07:36Z</time>
      </trkpt>
      <trkpt lat="43.81348" lon="7.25586">
        <ele>566</ele>
        <time>2015-03-01T12:07:39Z</time>
      </trkpt>
      <trkpt lat="43.81343" lon="7.25573">
        <ele>566</ele>
        <time>2015-03-01T12:07:42Z</time>
      </trkpt>
      <trkpt lat="43.81336" lon="7.25562">
        <ele>566</ele>
        <time>2015-03-01T12:07:45Z</time>
      </trkpt>
      <trkpt lat="43.81323" lon="7.25556">
        <ele>565</ele>
        <time>2015-03-01T12:07:48Z</time>
      </trkpt>
      <trkpt lat="43.81307" lon="7.25556">
        <ele>563</ele>
        <time>2015-03-01T12:07:51Z</time>
      </trkpt>
      <trkpt lat="43.81294" lon="7.25549">
        <ele>563</ele>
        <time>2015-03-01T12:07:54Z</time>
      </trkpt>
      <trkpt lat="43.81281" lon="7.25541">
        <ele>563</ele>
        <time>2015-03-01T12:07:57Z</time>
      </trkpt>
      <trkpt lat="43.81267" lon="7.25545">
        <ele>562</ele>
        <time>2015-03-01T12:08:00Z</time>
      </trkpt>
      <trkpt lat="43.81258" lon="7.25555">
        <ele>562</ele>
        <time>2015-03-01T12:08:03Z</time>
      </trkpt>
      <trkpt lat="43.81251" lon="7.25569">
        <ele>561</ele>
        <time>2015-03-01T12:08:06Z</time>
      </trkpt>
      <trkpt lat="43.81245" lon="7.25582">
        <ele>561</ele>
        <time>2015-03-01T12:08:09Z</time>
      </trkpt>
      <trkpt lat="43.81238" lon="7.25594">
        <ele>561</ele>
        <time>2015-03-01T12:08:12Z</time>
      </trkpt>
      <trkpt lat="43.8123" lon="7.25606">
        <ele>560</ele>
        <time>2015-03-01T12:08:15Z</time>
      </trkpt>
      <trkpt lat="43.81221" lon="7.25616">
        <ele>560</ele>
        <time>2015-03-01T12:08:18Z</time>
      </trkpt>
      <trkpt lat="43.81212" lon="7.25625">
        <ele>560</ele>
        <time>2015-03-01T12:08:21Z</time>
      </trkpt>
      <trkpt lat="43.81202" lon="7.25633">
        <ele>559</ele>
        <time>2015-03-01T12:08:24Z</time>
      </trkpt>
      <trkpt lat="43.81191" lon="7.25639">
        <ele>559</ele>
        <time>2015-03-01T12:08:27Z</time>
      </trkpt>
      <trkpt lat="43.8118" lon="7.25642">
        <ele>559</ele>
        <time>2015-03-01T12:08:30Z</time>
      </trkpt>
      <trkpt lat="43.81169" lon="7.25639">
        <ele>558</ele>
        <time>2015-03-01T12:08:33Z</time>
      </trkpt>
      <trkpt lat="43.81158" lon="7.25633">
        <ele>558</ele>
        <time>2015-03-01T12:08:36Z</time>
      </trkpt>
      <trkpt lat="43.81151" lon="7.25619">
        <ele>558</ele>
        <time>2015-03-01T12:08:39Z</time>
      </trkpt>
      <trkpt lat="43.81146" lon="7.25603">
        <ele>557</ele>
        <time>2015-03-01T12:08:42Z</time>
      </trkpt>
      <trkpt lat="43.81141" lon="7.25586">
        <ele>557</ele>
        <time>2015-03-01T12:08:45Z</time>
      </trkpt>
      <trkpt lat="43.81136" lon="7.25572">
        <ele>557</ele>
        <time>2015-03-01T12:08:48Z</time>
      </trkpt>
      <trkpt lat="43.81129" lon="7.2556">
        <ele>557</ele>
        <time>2015-03-01T12:08:51Z</time>
      </trkpt>
      <trkpt lat="43.81118" lon="7.25558">
        <ele>556</ele>
        <time>2015-03-01T12:08:54Z</time>
      </trkpt>
      <trkpt lat="43.81107" lon="7.25564">
        <ele>556</ele>
        <time>2015-03-01T12:08:57Z</time>
      </trkpt>
      <trkpt lat="43.81098" lon="7.25571">
        <ele>555</ele>
        <time>2015-03-01T12:09:00Z</time>
      </trkpt>
      <trkpt lat="43.81088" lon="7.25579">
        <ele>555</ele>
        <time>2015-03-01T12:09:03Z</time>
      </trkpt>
      <trkpt lat="43.81079" lon="7.25585">
        <ele>556</ele>
        <time>2015-03-01T12:09:06Z</time>
      </trkpt>
      <trkpt lat="43.81069" lon="7.25592">
        <ele>556</ele>
        <time>2015-03-01T12:09:09Z</time>
      </trkpt>
      <trkpt lat="43.81059" lon="7.25598">
        <ele>555</ele>
        <time>2015-03-01T12:09:12Z</time>
      </trkpt>
      <trkpt lat="43.81049" lon="7.25602">
        <ele>555</ele>
        <time>2015-03-01T12:09:15Z</time>
      </trkpt>
      <trkpt lat="43.81037" lon="7.25602">
        <ele>555</ele>
        <time>2015-03-01T12:09:18Z</time>
      </trkpt>
      <trkpt lat="43.81025" lon="7.25596">
        <ele>553</ele>
        <time>2015-03-01T12:09:21Z</time>
      </trkpt>
      <trkpt lat="43.81016" lon="7.25583">
        <ele>553</ele>
        <time>2015-03-01T12:09:24Z</time>
      </trkpt>
      <trkpt lat="43.81008" lon="7.25569">
        <ele>553</ele>
        <time>2015-03-01T12:09:27Z</time>
      </trkpt>
      <trkpt lat="43.81" lon="7.25556">
        <ele>553</ele>
        <time>2015-03-01T12:09:30Z</time>
      </trkpt>
      <trkpt lat="43.80992" lon="7.25542">
        <ele>552</ele>
        <time>2015-03-01T12:09:33Z</time>
      </trkpt>
      <trkpt lat="43.80984" lon="7.25528">
        <ele>552</ele>
        <time>2015-03-01T12:09:36Z</time>
      </trkpt>
      <trkpt lat="43.80978" lon="7.25513">
        <ele>552</ele>
        <time>2015-03-01T12:09:39Z</time>
      </trkpt>
      <trkpt lat="43.8097" lon="7.25499">
        <ele>551</ele>
        <time>2015-03-01T12:09:42Z</time>
      </trkpt>
      <trkpt lat="43.80959" lon="7.25494">
        <ele>551</ele>
        <time>2015-03-01T12:09:45Z</time>
      </trkpt>
      <trkpt lat="43.80947" lon="7.2549">
        <ele>551</ele>
        <time>2015-03-01T12:09:48Z</time>
      </trkpt>
      <trkpt lat="43.80935" lon="7.25482">
        <ele>551</ele>
        <time>2015-03-01T12:09:51Z</time>
      </trkpt>
      <trkpt lat="43.80925" lon="7.25473">
        <ele>551</ele>
        <time>2015-03-01T12:09:54Z</time>
      </trkpt>
      <trkpt lat="43.80914" lon="7.25465">
        <ele>551</ele>
        <time>2015-03-01T12:09:57Z</time>
      </trkpt>
      <trkpt lat="43.80903" lon="7.25456">
        <ele>551</ele>
        <time>2015-03-01T12:10:00Z</time>
      </trkpt>
      <trkpt lat="43.8089" lon="7.25451">
        <ele>550</ele>
        <time>2015-03-01T12:10:03Z</time>
      </trkpt>
      <trkpt lat="43.80884" lon="7.25463">
        <ele>550</ele>
        <time>2015-03-01T12:10:06Z</time>
      </trkpt>
      <trkpt lat="43.8088" lon="7.25476">
        <ele>550</ele>
        <time>2015-03-01T12:10:09Z</time>
      </trkpt>
      <trkpt lat="43.8088" lon="7.25492">
        <ele>550</ele>
        <time>2015-03-01T12:10:12Z</time>
      </trkpt>
      <trkpt lat="43.80883" lon="7.25507">
        <ele>550</ele>
        <time>2015-03-01T12:10:15Z</time>
      </trkpt>
      <trkpt lat="43.80885" lon="7.25525">
        <ele>549</ele>
        <time>2015-03-01T12:10:18Z</time>
      </trkpt>
      <trkpt lat="43.80886" lon="7.25541">
        <ele>549</ele>
        <time>2015-03-01T12:10:21Z</time>
      </trkpt>
      <trkpt lat="43.80885" lon="7.25558">
        <ele>549</ele>
        <time>2015-03-01T12:10:24Z</time>
      </trkpt>
      <trkpt lat="43.80881" lon="7.25573">
        <ele>547</ele>
        <time>2015-03-01T12:10:27Z</time>
      </trkpt>
      <trkpt lat="43.80874" lon="7.25585">
        <ele>547</ele>
        <time>2015-03-01T12:10:30Z</time>
      </trkpt>
      <trkpt lat="43.80867" lon="7.25596">
        <ele>546</ele>
        <time>2015-03-01T12:10:33Z</time>
      </trkpt>
      <trkpt lat="43.80859" lon="7.25608">
        <ele>546</ele>
        <time>2015-03-01T12:10:36Z</time>
      </trkpt>
      <trkpt lat="43.80851" lon="7.25619">
        <ele>546</ele>
        <time>2015-03-01T12:10:39Z</time>
      </trkpt>
      <trkpt lat="43.80845" lon="7.25631">
        <ele>546</ele>
        <time>2015-03-01T12:10:42Z</time>
      </trkpt>
      <trkpt lat="43.80836" lon="7.25642">
        <ele>545</ele>
        <time>2015-03-01T12:10:45Z</time>
      </trkpt>
      <trkpt lat="43.80829" lon="7.25653">
        <ele>545</ele>
        <time>2015-03-01T12:10:48Z</time>
      </trkpt>
      <trkpt lat="43.80818" lon="7.25661">
        <ele>544</ele>
        <time>2015-03-01T12:10:51Z</time>
      </trkpt>
      <trkpt lat="43.80807" lon="7.25663">
        <ele>545</ele>
        <time>2015-03-01T12:10:54Z</time>
      </trkpt>
      <trkpt lat="43.80796" lon="7.25657">
        <ele>544</ele>
        <time>2015-03-01T12:10:57Z</time>
      </trkpt>
      <trkpt lat="43.80782" lon="7.25651">
        <ele>543</ele>
        <time>2015-03-01T12:11:00Z</time>
      </trkpt>
      <trkpt lat="43.8077" lon="7.25657">
        <ele>543</ele>
        <time>2015-03-01T12:11:03Z</time>
      </trkpt>
      <trkpt lat="43.80757" lon="7.25661">
        <ele>542</ele>
        <time>2015-03-01T12:11:06Z</time>
      </trkpt>
      <trkpt lat="43.80744" lon="7.25662">
        <ele>542</ele>
        <time>2015-03-01T12:11:09Z</time>
      </trkpt>
      <trkpt lat="43.8073" lon="7.25661">
        <ele>542</ele>
        <time>2015-03-01T12:11:12Z</time>
      </trkpt>
      <trkpt lat="43.80717" lon="7.25656">
        <ele>541</ele>
        <time>2015-03-01T12:11:15Z</time>
      </trkpt>
      <trkpt lat="43.80703" lon="7.25648">
        <ele>540</ele>
        <time>2015-03-01T12:11:18Z</time>
      </trkpt>
      <trkpt lat="43.8069" lon="7.25638">
        <ele>539</ele>
        <time>2015-03-01T12:11:21Z</time>
      </trkpt>
      <trkpt lat="43.8068" lon="7.25623">
        <ele>539</ele>
        <time>2015-03-01T12:11:24Z</time>
      </trkpt>
      <trkpt lat="43.80673" lon="7.2561">
        <ele>540</ele>
        <time>2015-03-01T12:11:27Z</time>
      </trkpt>
      <trkpt lat="43.80666" lon="7.25596">
        <ele>540</ele>
        <time>2015-03-01T12:11:30Z</time>
      </trkpt>
      <trkpt lat="43.80653" lon="7.25593">
        <ele>540</ele>
        <time>2015-03-01T12:11:33Z</time>
      </trkpt>
      <trkpt lat="43.80642" lon="7.25596">
        <ele>539</ele>
        <time>2015-03-01T12:11:36Z</time>
      </trkpt>
      <trkpt lat="43.80631" lon="7.25592">
        <ele>539</ele>
        <time>2015-03-01T12:11:39Z</time>
      </trkpt>
      <trkpt lat="43.80621" lon="7.25581">
        <ele>539</ele>
        <time>2015-03-01T12:11:42Z</time>
      </trkpt>
      <trkpt lat="43.80612" lon="7.25566">
        <ele>539</ele>
        <time>2015-03-01T12:11:45Z</time>
      </trkpt>
      <trkpt lat="43.80604" lon="7.25553">
        <ele>538</ele>
        <time>2015-03-01T12:11:48Z</time>
      </trkpt>
      <trkpt lat="43.80592" lon="7.25547">
        <ele>537</ele>
        <time>2015-03-01T12:11:51Z</time>
      </trkpt>
      <trkpt lat="43.8058" lon="7.25545">
        <ele>538</ele>
        <time>2015-03-01T12:11:54Z</time>
      </trkpt>
      <trkpt lat="43.80567" lon="7.25538">
        <ele>537</ele>
        <time>2015-03-01T12:11:57Z</time>
      </trkpt>
      <trkpt lat="43.80554" lon="7.25531">
        <ele>537</ele>
        <time>2015-03-01T12:12:00Z</time>
      </trkpt>
      <trkpt lat="43.80544" lon="7.25539">
        <ele>537</ele>
        <time>2015-03-01T12:12:03Z</time>
      </trkpt>
      <trkpt lat="43.80543" lon="7.25557">
        <ele>536</ele>
        <time>2015-03-01T12:12:06Z</time>
      </trkpt>
      <trkpt lat="43.80543" lon="7.25575">
        <ele>536</ele>
        <time>2015-03-01T12:12:09Z</time>
      </trkpt>
      <trkpt lat="43.80543" lon="7.25594">
        <ele>536</ele>
        <time>2015-03-01T12:12:12Z</time>
      </trkpt>
      <trkpt lat="43.8054" lon="7.25607">
        <ele>537</ele>
        <time>2015-03-01T12:12:15Z</time>
      </trkpt>
      <trkpt lat="43.80533" lon="7.25622">
        <ele>536</ele>
        <time>2015-03-01T12:12:18Z</time>
      </trkpt>
      <trkpt lat="43.80529" lon="7.25639">
        <ele>535</ele>
        <time>2015-03-01T12:12:21Z</time>
      </trkpt>
      <trkpt lat="43.80527" lon="7.25655">
        <ele>535</ele>
        <time>2015-03-01T12:12:24Z</time>
      </trkpt>
      <trkpt lat="43.80526" lon="7.25669">
        <ele>535</ele>
        <time>2015-03-01T12:12:27Z</time>
      </trkpt>
      <trkpt lat="43.80524" lon="7.25685">
        <ele>534</ele>
        <time>2015-03-01T12:12:30Z</time>
      </trkpt>
      <trkpt lat="43.80517" lon="7.25697">
        <ele>534</ele>
        <time>2015-03-01T12:12:33Z</time>
      </trkpt>
      <trkpt lat="43.80508" lon="7.25707">
        <ele>534</ele>
        <time>2015-03-01T12:12:36Z</time>
      </trkpt>
      <trkpt lat="43.80501" lon="7.25722">
        <ele>533</ele>
        <time>2015-03-01T12:12:39Z</time>
      </trkpt>
      <trkpt lat="43.80491" lon="7.25733">
        <ele>532</ele>
        <time>2015-03-01T12:12:42Z</time>
      </trkpt>
      <trkpt lat="43.80478" lon="7.25739">
        <ele>532</ele>
        <time>2015-03-01T12:12:45Z</time>
      </trkpt>
      <trkpt lat="43.80465" lon="7.2574">
        <ele>531</ele>
        <time>2015-03-01T12:12:48Z</time>
      </trkpt>
      <trkpt lat="43.80452" lon="7.25738">
        <ele>530</ele>
        <time>2015-03-01T12:12:51Z</time>
      </trkpt>
      <trkpt lat="43.80438" lon="7.25736">
        <ele>531</ele>
        <time>2015-03-01T12:12:54Z</time>
      </trkpt>
      <trkpt lat="43.80426" lon="7.25737">
        <ele>530</ele>
        <time>2015-03-01T12:12:57Z</time>
      </trkpt>
      <trkpt lat="43.80413" lon="7.25739">
        <ele>530</ele>
        <time>2015-03-01T12:13:00Z</time>
      </trkpt>
      <trkpt lat="43.804" lon="7.2574">
        <ele>529</ele>
        <time>2015-03-01T12:13:03Z</time>
      </trkpt>
      <trkpt lat="43.80385" lon="7.25737">
        <ele>527</ele>
        <time>2015-03-01T12:13:06Z</time>
      </trkpt>
      <trkpt lat="43.80369" lon="7.25734">
        <ele>526</ele>
        <time>2015-03-01T12:13:09Z</time>
      </trkpt>
      <trkpt lat="43.80353" lon="7.25733">
        <ele>525</ele>
        <time>2015-03-01T12:13:12Z</time>
      </trkpt>
      <trkpt lat="43.80338" lon="7.25734">
        <ele>524</ele>
        <time>2015-03-01T12:13:15Z</time>
      </trkpt>
      <trkpt lat="43.80322" lon="7.25739">
        <ele>523</ele>
        <time>2015-03-01T12:13:18Z</time>
      </trkpt>
      <trkpt lat="43.80305" lon="7.2574">
        <ele>521</ele>
        <time>2015-03-01T12:13:21Z</time>
      </trkpt>
      <trkpt lat="43.80288" lon="7.25739">
        <ele>520</ele>
        <time>2015-03-01T12:13:24Z</time>
      </trkpt>
      <trkpt lat="43.80272" lon="7.2573">
        <ele>518</ele>
        <time>2015-03-01T12:13:27Z</time>
      </trkpt>
      <trkpt lat="43.80263" lon="7.2571">
        <ele>518</ele>
        <time>2015-03-01T12:13:30Z</time>
      </trkpt>
      <trkpt lat="43.80259" lon="7.25688">
        <ele>518</ele>
        <time>2015-03-01T12:13:33Z</time>
      </trkpt>
      <trkpt lat="43.80259" lon="7.25664">
        <ele>517</ele>
        <time>2015-03-01T12:13:36Z</time>
      </trkpt>
      <trkpt lat="43.80262" lon="7.2564">
        <ele>516</ele>
        <time>2015-03-01T12:13:39Z</time>
      </trkpt>
      <trkpt lat="43.80259" lon="7.25616">
        <ele>514</ele>
        <time>2015-03-01T12:13:42Z</time>
      </trkpt>
      <trkpt lat="43.80256" lon="7.25592">
        <ele>513</ele>
        <time>2015-03-01T12:13:45Z</time>
      </trkpt>
      <trkpt lat="43.80255" lon="7.25566">
        <ele>512</ele>
        <time>2015-03-01T12:13:48Z</time>
      </trkpt>
      <trkpt lat="43.80246" lon="7.25543">
        <ele>510</ele>
        <time>2015-03-01T12:13:51Z</time>
      </trkpt>
      <trkpt lat="43.8023" lon="7.25541">
        <ele>510</ele>
        <time>2015-03-01T12:13:54Z</time>
      </trkpt>
      <trkpt lat="43.80217" lon="7.25548">
        <ele>511</ele>
        <time>2015-03-01T12:13:57Z</time>
      </trkpt>
      <trkpt lat="43.80206" lon="7.25557">
        <ele>511</ele>
        <time>2015-03-01T12:14:00Z</time>
      </trkpt>
      <trkpt lat="43.80192" lon="7.25565">
        <ele>510</ele>
        <time>2015-03-01T12:14:03Z</time>
      </trkpt>
      <trkpt lat="43.80183" lon="7.25579">
        <ele>510</ele>
        <time>2015-03-01T12:14:06Z</time>
      </trkpt>
      <trkpt lat="43.80174" lon="7.25593">
        <ele>510</ele>
        <time>2015-03-01T12:14:09Z</time>
      </trkpt>
      <trkpt lat="43.80162" lon="7.25603">
        <ele>509</ele>
        <time>2015-03-01T12:14:12Z</time>
      </trkpt>
      <trkpt lat="43.80149" lon="7.25616">
        <ele>508</ele>
        <time>2015-03-01T12:14:15Z</time>
      </trkpt>
      <trkpt lat="43.80134" lon="7.25631">
        <ele>506</ele>
        <time>2015-03-01T12:14:18Z</time>
      </trkpt>
      <trkpt lat="43.80117" lon="7.25641">
        <ele>504</ele>
        <time>2015-03-01T12:14:21Z</time>
      </trkpt>
      <trkpt lat="43.80101" lon="7.25651">
        <ele>504</ele>
        <time>2015-03-01T12:14:24Z</time>
      </trkpt>
      <trkpt lat="43.80083" lon="7.25661">
        <ele>503</ele>
        <time>2015-03-01T12:14:27Z</time>
      </trkpt>
      <trkpt lat="43.80066" lon="7.25663">
        <ele>502</ele>
        <time>2015-03-01T12:14:30Z</time>
      </trkpt>
      <trkpt lat="43.8005" lon="7.25649">
        <ele>500</ele>
        <time>2015-03-01T12:14:33Z</time>
      </trkpt>
      <trkpt lat="43.80037" lon="7.25628">
        <ele>499</ele>
        <time>2015-03-01T12:14:36Z</time>
      </trkpt>
      <trkpt lat="43.80025" lon="7.25607">
        <ele>498</ele>
        <time>2015-03-01T12:14:39Z</time>
      </trkpt>
      <trkpt lat="43.80013" lon="7.25583">
        <ele>497</ele>
        <time>2015-03-01T12:14:42Z</time>
      </trkpt>
      <trkpt lat="43.80012" lon="7.25552">
        <ele>495</ele>
        <time>2015-03-01T12:14:45Z</time>
      </trkpt>
      <trkpt lat="43.80002" lon="7.25535">
        <ele>495</ele>
        <time>2015-03-01T12:14:48Z</time>
      </trkpt>
      <trkpt lat="43.79991" lon="7.25542">
        <ele>494</ele>
        <time>2015-03-01T12:14:51Z</time>
      </trkpt>
      <trkpt lat="43.7999" lon="7.25545">
        <ele>495</ele>
        <time>2015-03-01T12:14:54Z</time>
      </trkpt>
      <trkpt lat="43.7999" lon="7.25546">
        <ele>495</ele>
        <time>2015-03-01T12:14:57Z</time>
      </trkpt>
      <trkpt lat="43.7999" lon="7.25547">
        <ele>495</ele>
        <time>2015-03-01T12:15:16Z</time>
      </trkpt>
      <trkpt lat="43.79985" lon="7.25568">
        <ele>492</ele>
        <time>2015-03-01T12:15:19Z</time>
      </trkpt>
      <trkpt lat="43.79972" lon="7.25591">
        <ele>486</ele>
        <time>2015-03-01T12:15:22Z</time>
      </trkpt>
      <trkpt lat="43.79954" lon="7.25622">
        <ele>481</ele>
        <time>2015-03-01T12:15:25Z</time>
      </trkpt>
      <trkpt lat="43.79943" lon="7.25658">
        <ele>478</ele>
        <time>2015-03-01T12:15:28Z</time>
      </trkpt>
      <trkpt lat="43.79934" lon="7.25698">
        <ele>473</ele>
        <time>2015-03-01T12:15:31Z</time>
      </trkpt>
      <trkpt lat="43.79927" lon="7.2574">
        <ele>470</ele>
        <time>2015-03-01T12:15:34Z</time>
      </trkpt>
      <trkpt lat="43.79924" lon="7.25782">
        <ele>466</ele>
        <time>2015-03-01T12:15:37Z</time>
      </trkpt>
      <trkpt lat="43.79926" lon="7.2582">
        <ele>459</ele>
        <time>2015-03-01T12:15:40Z</time>
      </trkpt>
      <trkpt lat="43.79927" lon="7.25859">
        <ele>454</ele>
        <time>2015-03-01T12:15:43Z</time>
      </trkpt>
      <trkpt lat="43.7993" lon="7.25901">
        <ele>451</ele>
        <time>2015-03-01T12:15:46Z</time>
      </trkpt>
      <trkpt lat="43.79936" lon="7.25942">
        <ele>447</ele>
        <time>2015-03-01T12:15:49Z</time>
      </trkpt>
      <trkpt lat="43.79945" lon="7.25984">
        <ele>444</ele>
        <time>2015-03-01T12:15:52Z</time>
      </trkpt>
      <trkpt lat="43.79949" lon="7.26032">
        <ele>439</ele>
        <time>2015-03-01T12:15:55Z</time>
      </trkpt>
      <trkpt lat="43.79961" lon="7.26069">
        <ele>439</ele>
        <time>2015-03-01T12:15:58Z</time>
      </trkpt>
      <trkpt lat="43.79967" lon="7.26095">
        <ele>442</ele>
        <time>2015-03-01T12:16:01Z</time>
      </trkpt>
      <trkpt lat="43.7997" lon="7.26107">
        <ele>445</ele>
        <time>2015-03-01T12:16:04Z</time>
      </trkpt>
      <trkpt lat="43.79972" lon="7.26114">
        <ele>446</ele>
        <time>2015-03-01T12:16:07Z</time>
      </trkpt>
      <trkpt lat="43.79974" lon="7.26122">
        <ele>447</ele>
        <time>2015-03-01T12:16:10Z</time>
      </trkpt>
      <trkpt lat="43.79975" lon="7.26129">
        <ele>447</ele>
        <time>2015-03-01T12:16:13Z</time>
      </trkpt>
      <trkpt lat="43.79976" lon="7.26137">
        <ele>448</ele>
        <time>2015-03-01T12:16:16Z</time>
      </trkpt>
      <trkpt lat="43.79977" lon="7.26146">
        <ele>448</ele>
        <time>2015-03-01T12:16:19Z</time>
      </trkpt>
      <trkpt lat="43.79976" lon="7.26154">
        <ele>449</ele>
        <time>2015-03-01T12:16:22Z</time>
      </trkpt>
      <trkpt lat="43.79976" lon="7.26163">
        <ele>450</ele>
        <time>2015-03-01T12:16:25Z</time>
      </trkpt>
      <trkpt lat="43.79974" lon="7.2617">
        <ele>450</ele>
        <time>2015-03-01T12:16:28Z</time>
      </trkpt>
      <trkpt lat="43.79972" lon="7.26176">
        <ele>451</ele>
        <time>2015-03-01T12:16:31Z</time>
      </trkpt>
      <trkpt lat="43.7997" lon="7.26183">
        <ele>451</ele>
        <time>2015-03-01T12:16:34Z</time>
      </trkpt>
      <trkpt lat="43.79968" lon="7.26189">
        <ele>452</ele>
        <time>2015-03-01T12:16:37Z</time>
      </trkpt>
      <trkpt lat="43.79968" lon="7.26194">
        <ele>452</ele>
        <time>2015-03-01T12:16:40Z</time>
      </trkpt>
      <trkpt lat="43.79967" lon="7.26197">
        <ele>452</ele>
        <time>2015-03-01T12:16:43Z</time>
      </trkpt>
      <trkpt lat="43.79967" lon="7.26199">
        <ele>452</ele>
        <time>2015-03-01T12:16:49Z</time>
      </trkpt>
      <trkpt lat="43.79963" lon="7.26201">
        <ele>452</ele>
        <time>2015-03-01T12:16:52Z</time>
      </trkpt>
      <trkpt lat="43.79963" lon="7.26207">
        <ele>452</ele>
        <time>2015-03-01T12:16:55Z</time>
      </trkpt>
      <trkpt lat="43.79963" lon="7.26211">
        <ele>452</ele>
        <time>2015-03-01T12:16:58Z</time>
      </trkpt>
      <trkpt lat="43.79963" lon="7.26215">
        <ele>452</ele>
        <time>2015-03-01T12:17:01Z</time>
      </trkpt>
      <trkpt lat="43.79963" lon="7.26216">
        <ele>452</ele>
        <time>2015-03-01T12:17:04Z</time>
      </trkpt>
      <trkpt lat="43.79963" lon="7.26217">
        <ele>452</ele>
        <time>2015-03-01T12:17:07Z</time>
      </trkpt>
      <trkpt lat="43.79962" lon="7.26217">
        <ele>452</ele>
        <time>2015-03-01T12:17:13Z</time>
      </trkpt>
      <trkpt lat="43.79962" lon="7.26215">
        <ele>453</ele>
        <time>2015-03-01T12:19:13Z</time>
      </trkpt>
      <trkpt lat="43.79962" lon="7.26218">
        <ele>454</ele>
        <time>2015-03-01T12:21:17Z</time>
      </trkpt>
      <trkpt lat="43.79962" lon="7.2622">
        <ele>453</ele>
        <time>2015-03-01T12:21:20Z</time>
      </trkpt>
      <trkpt lat="43.79964" lon="7.26217">
        <ele>454</ele>
        <time>2015-03-01T12:21:26Z</time>
      </trkpt>
      <trkpt lat="43.79964" lon="7.26215">
        <ele>454</ele>
        <time>2015-03-01T12:21:29Z</time>
      </trkpt>
      <trkpt lat="43.79964" lon="7.26213">
        <ele>454</ele>
        <time>2015-03-01T12:21:41Z</time>
      </trkpt>
      <trkpt lat="43.79965" lon="7.26209">
        <ele>454</ele>
        <time>2015-03-01T12:21:44Z</time>
      </trkpt>
      <trkpt lat="43.79965" lon="7.26205">
        <ele>454</ele>
        <time>2015-03-01T12:21:47Z</time>
      </trkpt>
      <trkpt lat="43.79967" lon="7.26202">
        <ele>454</ele>
        <time>2015-03-01T12:21:50Z</time>
      </trkpt>
      <trkpt lat="43.79968" lon="7.262">
        <ele>454</ele>
        <time>2015-03-01T12:21:53Z</time>
      </trkpt>
      <trkpt lat="43.79968" lon="7.26199">
        <ele>454</ele>
        <time>2015-03-01T12:21:56Z</time>
      </trkpt>
      <trkpt lat="43.79968" lon="7.26198">
        <ele>454</ele>
        <time>2015-03-01T12:21:59Z</time>
      </trkpt>
      <trkpt lat="43.79968" lon="7.26197">
        <ele>454</ele>
        <time>2015-03-01T12:24:47Z</time>
      </trkpt>
      <trkpt lat="43.79968" lon="7.26195">
        <ele>454</ele>
        <time>2015-03-01T12:25:35Z</time>
      </trkpt>
      <trkpt lat="43.79967" lon="7.26195">
        <ele>455</ele>
        <time>2015-03-01T12:26:14Z</time>
      </trkpt>
      <trkpt lat="43.79967" lon="7.26196">
        <ele>455</ele>
        <time>2015-03-01T12:26:38Z</time>
      </trkpt>
      <trkpt lat="43.79967" lon="7.26197">
        <ele>455</ele>
        <time>2015-03-01T12:26:53Z</time>
      </trkpt>
      <trkpt lat="43.79965" lon="7.26199">
        <ele>455</ele>
        <time>2015-03-01T12:27:14Z</time>
      </trkpt>
      <trkpt lat="43.79962" lon="7.26201">
        <ele>455</ele>
        <time>2015-03-01T12:27:20Z</time>
      </trkpt>
      <trkpt lat="43.79957" lon="7.26201">
        <ele>454</ele>
        <time>2015-03-01T12:27:23Z</time>
      </trkpt>
      <trkpt lat="43.79951" lon="7.26201">
        <ele>454</ele>
        <time>2015-03-01T12:27:26Z</time>
      </trkpt>
      <trkpt lat="43.79945" lon="7.262">
        <ele>453</ele>
        <time>2015-03-01T12:27:29Z</time>
      </trkpt>
      <trkpt lat="43.79941" lon="7.26197">
        <ele>452</ele>
        <time>2015-03-01T12:27:32Z</time>
      </trkpt>
      <trkpt lat="43.79935" lon="7.26194">
        <ele>452</ele>
        <time>2015-03-01T12:27:35Z</time>
      </trkpt>
      <trkpt lat="43.79937" lon="7.26192">
        <ele>452</ele>
        <time>2015-03-01T12:27:38Z</time>
      </trkpt>
      <trkpt lat="43.79941" lon="7.26196">
        <ele>453</ele>
        <time>2015-03-01T12:27:41Z</time>
      </trkpt>
      <trkpt lat="43.79944" lon="7.26198">
        <ele>453</ele>
        <time>2015-03-01T12:27:44Z</time>
      </trkpt>
      <trkpt lat="43.79946" lon="7.262">
        <ele>454</ele>
        <time>2015-03-01T12:27:47Z</time>
      </trkpt>
      <trkpt lat="43.79949" lon="7.26202">
        <ele>454</ele>
        <time>2015-03-01T12:27:50Z</time>
      </trkpt>
      <trkpt lat="43.79951" lon="7.26202">
        <ele>454</ele>
        <time>2015-03-01T12:27:53Z</time>
      </trkpt>
      <trkpt lat="43.79951" lon="7.26203">
        <ele>454</ele>
        <time>2015-03-01T12:27:56Z</time>
      </trkpt>
      <trkpt lat="43.79953" lon="7.26204">
        <ele>454</ele>
        <time>2015-03-01T12:28:14Z</time>
      </trkpt>
      <trkpt lat="43.79953" lon="7.26203">
        <ele>455</ele>
        <time>2015-03-01T12:28:17Z</time>
      </trkpt>
      <trkpt lat="43.79955" lon="7.26204">
        <ele>454</ele>
        <time>2015-03-01T12:28:32Z</time>
      </trkpt>
      <trkpt lat="43.79958" lon="7.26203">
        <ele>454</ele>
        <time>2015-03-01T12:28:35Z</time>
      </trkpt>
      <trkpt lat="43.79959" lon="7.26203">
        <ele>455</ele>
        <time>2015-03-01T12:28:38Z</time>
      </trkpt>
      <trkpt lat="43.79959" lon="7.26202">
        <ele>455</ele>
        <time>2015-03-01T12:29:12Z</time>
      </trkpt>
      <trkpt lat="43.7996" lon="7.26202">
        <ele>455</ele>
        <time>2015-03-01T12:29:30Z</time>
      </trkpt>
      <trkpt lat="43.79961" lon="7.26202">
        <ele>455</ele>
        <time>2015-03-01T12:29:33Z</time>
      </trkpt>
      <trkpt lat="43.79962" lon="7.26202">
        <ele>455</ele>
        <time>2015-03-01T12:29:39Z</time>
      </trkpt>
      <trkpt lat="43.79964" lon="7.26203">
        <ele>455</ele>
        <time>2015-03-01T12:29:42Z</time>
      </trkpt>
      <trkpt lat="43.79964" lon="7.26204">
        <ele>455</ele>
        <time>2015-03-01T12:30:00Z</time>
      </trkpt>
      <trkpt lat="43.79964" lon="7.26206">
        <ele>455</ele>
        <time>2015-03-01T12:30:36Z</time>
      </trkpt>
      <trkpt lat="43.79963" lon="7.2621">
        <ele>455</ele>
        <time>2015-03-01T12:30:57Z</time>
      </trkpt>
      <trkpt lat="43.79959" lon="7.26235">
        <ele>453</ele>
        <time>2015-03-01T12:31:00Z</time>
      </trkpt>
      <trkpt lat="43.79954" lon="7.26271">
        <ele>450</ele>
        <time>2015-03-01T12:31:03Z</time>
      </trkpt>
      <trkpt lat="43.79944" lon="7.26309">
        <ele>448</ele>
        <time>2015-03-01T12:31:06Z</time>
      </trkpt>
      <trkpt lat="43.79941" lon="7.26343">
        <ele>448</ele>
        <time>2015-03-01T12:31:09Z</time>
      </trkpt>
      <trkpt lat="43.79939" lon="7.26371">
        <ele>450</ele>
        <time>2015-03-01T12:31:12Z</time>
      </trkpt>
      <trkpt lat="43.79936" lon="7.26392">
        <ele>453</ele>
        <time>2015-03-01T12:31:15Z</time>
      </trkpt>
      <trkpt lat="43.79939" lon="7.26415">
        <ele>452</ele>
        <time>2015-03-01T12:31:18Z</time>
      </trkpt>
      <trkpt lat="43.79945" lon="7.26446">
        <ele>450</ele>
        <time>2015-03-01T12:31:21Z</time>
      </trkpt>
      <trkpt lat="43.79949" lon="7.26479">
        <ele>451</ele>
        <time>2015-03-01T12:31:24Z</time>
      </trkpt>
      <trkpt lat="43.79952" lon="7.26509">
        <ele>453</ele>
        <time>2015-03-01T12:31:27Z</time>
      </trkpt>
      <trkpt lat="43.7996" lon="7.26539">
        <ele>453</ele>
        <time>2015-03-01T12:31:30Z</time>
      </trkpt>
      <trkpt lat="43.79972" lon="7.26565">
        <ele>452</ele>
        <time>2015-03-01T12:31:33Z</time>
      </trkpt>
      <trkpt lat="43.79981" lon="7.26587">
        <ele>453</ele>
        <time>2015-03-01T12:31:36Z</time>
      </trkpt>
      <trkpt lat="43.79984" lon="7.26609">
        <ele>455</ele>
        <time>2015-03-01T12:31:39Z</time>
      </trkpt>
      <trkpt lat="43.7998" lon="7.26631">
        <ele>457</ele>
        <time>2015-03-01T12:31:42Z</time>
      </trkpt>
      <trkpt lat="43.79985" lon="7.26645">
        <ele>458</ele>
        <time>2015-03-01T12:31:45Z</time>
      </trkpt>
      <trkpt lat="43.79996" lon="7.26653">
        <ele>460</ele>
        <time>2015-03-01T12:31:48Z</time>
      </trkpt>
      <trkpt lat="43.80007" lon="7.26661">
        <ele>461</ele>
        <time>2015-03-01T12:31:51Z</time>
      </trkpt>
      <trkpt lat="43.80015" lon="7.26671">
        <ele>463</ele>
        <time>2015-03-01T12:31:54Z</time>
      </trkpt>
      <trkpt lat="43.8002" lon="7.26683">
        <ele>464</ele>
        <time>2015-03-01T12:31:57Z</time>
      </trkpt>
      <trkpt lat="43.80025" lon="7.26696">
        <ele>464</ele>
        <time>2015-03-01T12:32:00Z</time>
      </trkpt>
      <trkpt lat="43.80031" lon="7.26709">
        <ele>465</ele>
        <time>2015-03-01T12:32:03Z</time>
      </trkpt>
      <trkpt lat="43.80037" lon="7.26724">
        <ele>466</ele>
        <time>2015-03-01T12:32:06Z</time>
      </trkpt>
      <trkpt lat="43.80039" lon="7.26745">
        <ele>465</ele>
        <time>2015-03-01T12:32:09Z</time>
      </trkpt>
      <trkpt lat="43.80035" lon="7.26766">
        <ele>464</ele>
        <time>2015-03-01T12:32:12Z</time>
      </trkpt>
      <trkpt lat="43.80024" lon="7.26789">
        <ele>463</ele>
        <time>2015-03-01T12:32:15Z</time>
      </trkpt>
      <trkpt lat="43.80013" lon="7.2681">
        <ele>462</ele>
        <time>2015-03-01T12:32:18Z</time>
      </trkpt>
      <trkpt lat="43.80002" lon="7.26826">
        <ele>463</ele>
        <time>2015-03-01T12:32:21Z</time>
      </trkpt>
      <trkpt lat="43.79991" lon="7.26836">
        <ele>464</ele>
        <time>2015-03-01T12:32:24Z</time>
      </trkpt>
      <trkpt lat="43.79982" lon="7.26845">
        <ele>464</ele>
        <time>2015-03-01T12:32:27Z</time>
      </trkpt>
      <trkpt lat="43.79968" lon="7.26864">
        <ele>459</ele>
        <time>2015-03-01T12:32:30Z</time>
      </trkpt>
      <trkpt lat="43.79952" lon="7.26879">
        <ele>458</ele>
        <time>2015-03-01T12:32:33Z</time>
      </trkpt>
      <trkpt lat="43.79943" lon="7.2689">
        <ele>458</ele>
        <time>2015-03-01T12:32:36Z</time>
      </trkpt>
      <trkpt lat="43.79947" lon="7.26894">
        <ele>456</ele>
        <time>2015-03-01T12:32:39Z</time>
      </trkpt>
      <trkpt lat="43.79958" lon="7.26901">
        <ele>450</ele>
        <time>2015-03-01T12:32:42Z</time>
      </trkpt>
      <trkpt lat="43.79971" lon="7.26902">
        <ele>445</ele>
        <time>2015-03-01T12:32:45Z</time>
      </trkpt>
      <trkpt lat="43.79967" lon="7.26911">
        <ele>442</ele>
        <time>2015-03-01T12:32:48Z</time>
      </trkpt>
      <trkpt lat="43.79954" lon="7.26916">
        <ele>439</ele>
        <time>2015-03-01T12:32:51Z</time>
      </trkpt>
      <trkpt lat="43.79947" lon="7.26928">
        <ele>436</ele>
        <time>2015-03-01T12:32:54Z</time>
      </trkpt>
      <trkpt lat="43.79954" lon="7.26929">
        <ele>431</ele>
        <time>2015-03-01T12:32:57Z</time>
      </trkpt>
      <trkpt lat="43.79969" lon="7.26929">
        <ele>427</ele>
        <time>2015-03-01T12:33:00Z</time>
      </trkpt>
      <trkpt lat="43.79985" lon="7.26926">
        <ele>424</ele>
        <time>2015-03-01T12:33:03Z</time>
      </trkpt>
      <trkpt lat="43.79998" lon="7.26927">
        <ele>420</ele>
        <time>2015-03-01T12:33:06Z</time>
      </trkpt>
      <trkpt lat="43.79991" lon="7.26942">
        <ele>415</ele>
        <time>2015-03-01T12:33:09Z</time>
      </trkpt>
      <trkpt lat="43.7998" lon="7.26951">
        <ele>412</ele>
        <time>2015-03-01T12:33:12Z</time>
      </trkpt>
      <trkpt lat="43.79969" lon="7.26958">
        <ele>411</ele>
        <time>2015-03-01T12:33:15Z</time>
      </trkpt>
      <trkpt lat="43.79972" lon="7.26967">
        <ele>407</ele>
        <time>2015-03-01T12:33:18Z</time>
      </trkpt>
      <trkpt lat="43.79972" lon="7.26981">
        <ele>401</ele>
        <time>2015-03-01T12:33:21Z</time>
      </trkpt>
      <trkpt lat="43.79972" lon="7.26995">
        <ele>397</ele>
        <time>2015-03-01T12:33:24Z</time>
      </trkpt>
      <trkpt lat="43.79964" lon="7.27001">
        <ele>396</ele>
        <time>2015-03-01T12:33:27Z</time>
      </trkpt>
      <trkpt lat="43.79954" lon="7.2701">
        <ele>397</ele>
        <time>2015-03-01T12:33:30Z</time>
      </trkpt>
      <trkpt lat="43.79938" lon="7.27023">
        <ele>396</ele>
        <time>2015-03-01T12:33:33Z</time>
      </trkpt>
      <trkpt lat="43.79924" lon="7.27032">
        <ele>396</ele>
        <time>2015-03-01T12:33:36Z</time>
      </trkpt>
      <trkpt lat="43.79911" lon="7.27044">
        <ele>397</ele>
        <time>2015-03-01T12:33:39Z</time>
      </trkpt>
      <trkpt lat="43.79899" lon="7.27042">
        <ele>399</ele>
        <time>2015-03-01T12:33:42Z</time>
      </trkpt>
      <trkpt lat="43.7989" lon="7.2704">
        <ele>402</ele>
        <time>2015-03-01T12:33:45Z</time>
      </trkpt>
      <trkpt lat="43.79882" lon="7.27044">
        <ele>402</ele>
        <time>2015-03-01T12:33:48Z</time>
      </trkpt>
      <trkpt lat="43.79876" lon="7.27061">
        <ele>402</ele>
        <time>2015-03-01T12:33:51Z</time>
      </trkpt>
      <trkpt lat="43.79864" lon="7.27079">
        <ele>399</ele>
        <time>2015-03-01T12:33:54Z</time>
      </trkpt>
      <trkpt lat="43.79848" lon="7.27095">
        <ele>398</ele>
        <time>2015-03-01T12:33:57Z</time>
      </trkpt>
      <trkpt lat="43.79833" lon="7.271">
        <ele>398</ele>
        <time>2015-03-01T12:34:00Z</time>
      </trkpt>
      <trkpt lat="43.79839" lon="7.2711">
        <ele>397</ele>
        <time>2015-03-01T12:34:03Z</time>
      </trkpt>
      <trkpt lat="43.79853" lon="7.27118">
        <ele>391</ele>
        <time>2015-03-01T12:34:06Z</time>
      </trkpt>
      <trkpt lat="43.79866" lon="7.27118">
        <ele>387</ele>
        <time>2015-03-01T12:34:09Z</time>
      </trkpt>
      <trkpt lat="43.79872" lon="7.27127">
        <ele>383</ele>
        <time>2015-03-01T12:34:12Z</time>
      </trkpt>
      <trkpt lat="43.79875" lon="7.27136">
        <ele>377</ele>
        <time>2015-03-01T12:34:15Z</time>
      </trkpt>
      <trkpt lat="43.7987" lon="7.27144">
        <ele>373</ele>
        <time>2015-03-01T12:34:18Z</time>
      </trkpt>
      <trkpt lat="43.79872" lon="7.27152">
        <ele>372</ele>
        <time>2015-03-01T12:34:21Z</time>
      </trkpt>
      <trkpt lat="43.79872" lon="7.27162">
        <ele>368</ele>
        <time>2015-03-01T12:34:24Z</time>
      </trkpt>
      <trkpt lat="43.79881" lon="7.27179">
        <ele>362</ele>
        <time>2015-03-01T12:34:27Z</time>
      </trkpt>
      <trkpt lat="43.79895" lon="7.27197">
        <ele>354</ele>
        <time>2015-03-01T12:34:30Z</time>
      </trkpt>
      <trkpt lat="43.79895" lon="7.27211">
        <ele>353</ele>
        <time>2015-03-01T12:34:33Z</time>
      </trkpt>
      <trkpt lat="43.799" lon="7.27234">
        <ele>351</ele>
        <time>2015-03-01T12:34:36Z</time>
      </trkpt>
      <trkpt lat="43.79911" lon="7.27256">
        <ele>353</ele>
        <time>2015-03-01T12:34:39Z</time>
      </trkpt>
      <trkpt lat="43.79928" lon="7.27277">
        <ele>350</ele>
        <time>2015-03-01T12:34:42Z</time>
      </trkpt>
      <trkpt lat="43.79943" lon="7.2728">
        <ele>347</ele>
        <time>2015-03-01T12:34:45Z</time>
      </trkpt>
      <trkpt lat="43.79949" lon="7.27294">
        <ele>348</ele>
        <time>2015-03-01T12:34:48Z</time>
      </trkpt>
      <trkpt lat="43.79955" lon="7.27309">
        <ele>348</ele>
        <time>2015-03-01T12:34:51Z</time>
      </trkpt>
      <trkpt lat="43.79962" lon="7.2733">
        <ele>347</ele>
        <time>2015-03-01T12:34:54Z</time>
      </trkpt>
      <trkpt lat="43.79969" lon="7.27344">
        <ele>346</ele>
        <time>2015-03-01T12:34:57Z</time>
      </trkpt>
      <trkpt lat="43.79974" lon="7.27334">
        <ele>344</ele>
        <time>2015-03-01T12:35:00Z</time>
      </trkpt>
      <trkpt lat="43.79969" lon="7.27316">
        <ele>344</ele>
        <time>2015-03-01T12:35:03Z</time>
      </trkpt>
      <trkpt lat="43.79965" lon="7.27305">
        <ele>345</ele>
        <time>2015-03-01T12:35:06Z</time>
      </trkpt>
      <trkpt lat="43.79965" lon="7.27304">
        <ele>346</ele>
        <time>2015-03-01T12:35:12Z</time>
      </trkpt>
      <trkpt lat="43.79965" lon="7.27303">
        <ele>346</ele>
        <time>2015-03-01T12:35:18Z</time>
      </trkpt>
      <trkpt lat="43.79964" lon="7.27302">
        <ele>346</ele>
        <time>2015-03-01T12:35:24Z</time>
      </trkpt>
      <trkpt lat="43.79964" lon="7.27301">
        <ele>346</ele>
        <time>2015-03-01T12:35:27Z</time>
      </trkpt>
      <trkpt lat="43.79964" lon="7.273">
        <ele>346</ele>
        <time>2015-03-01T12:35:33Z</time>
      </trkpt>
      <trkpt lat="43.79964" lon="7.27299">
        <ele>346</ele>
        <time>2015-03-01T12:35:39Z</time>
      </trkpt>
      <trkpt lat="43.79964" lon="7.27298">
        <ele>346</ele>
        <time>2015-03-01T12:35:46Z</time>
      </trkpt>
      <trkpt lat="43.79962" lon="7.27292">
        <ele>346</ele>
        <time>2015-03-01T12:35:49Z</time>
      </trkpt>
      <trkpt lat="43.79963" lon="7.27292">
        <ele>346</ele>
        <time>2015-03-01T12:35:52Z</time>
      </trkpt>
      <trkpt lat="43.79962" lon="7.27292">
        <ele>346</ele>
        <time>2015-03-01T12:36:31Z</time>
      </trkpt>
    </trkseg>
  </trk>
</gpx>